<?xml version="1.0" encoding="UTF-8"?>
<gpx creator="StravaGPX" xmlns:xsi="http://www.w3.org/2001/XMLSchema-instance" xsi:schemaLocation="http://www.topografix.com/GPX/1/1 http://www.topografix.com/GPX/1/1/gpx.xsd" version="1.1" xmlns="http://www.topografix.com/GPX/1/1">
 <metadata>
  <time>2021-07-18T07:05:08Z</time>
 </metadata>
 <trk>
  <name>La Moleta - Recorrido corto Canfranc</name>
  <type>9</type>
  <trkseg>
   <trkpt lat="42.7453870" lon="-0.5169910">
    <ele>1201.4</ele>
    <time>2021-07-18T07:05:08Z</time>
   </trkpt>
   <trkpt lat="42.7453870" lon="-0.5169910">
    <ele>1201.4</ele>
    <time>2021-07-18T07:05:09Z</time>
   </trkpt>
   <trkpt lat="42.7453870" lon="-0.5169910">
    <ele>1201.4</ele>
    <time>2021-07-18T07:05:12Z</time>
   </trkpt>
   <trkpt lat="42.7453870" lon="-0.5169910">
    <ele>1201.4</ele>
    <time>2021-07-18T07:05:19Z</time>
   </trkpt>
   <trkpt lat="42.7453870" lon="-0.5169910">
    <ele>1201.4</ele>
    <time>2021-07-18T07:05:21Z</time>
   </trkpt>
   <trkpt lat="42.7453870" lon="-0.5169910">
    <ele>1201.4</ele>
    <time>2021-07-18T07:05:22Z</time>
   </trkpt>
   <trkpt lat="42.7453870" lon="-0.5169910">
    <ele>1201.4</ele>
    <time>2021-07-18T07:05:23Z</time>
   </trkpt>
   <trkpt lat="42.7453870" lon="-0.5169910">
    <ele>1201.4</ele>
    <time>2021-07-18T07:05:25Z</time>
   </trkpt>
   <trkpt lat="42.7453870" lon="-0.5169910">
    <ele>1201.4</ele>
    <time>2021-07-18T07:05:26Z</time>
   </trkpt>
   <trkpt lat="42.7453870" lon="-0.5169910">
    <ele>1201.4</ele>
    <time>2021-07-18T07:05:27Z</time>
   </trkpt>
   <trkpt lat="42.7453870" lon="-0.5169910">
    <ele>1201.4</ele>
    <time>2021-07-18T07:05:30Z</time>
   </trkpt>
   <trkpt lat="42.7453870" lon="-0.5169910">
    <ele>1201.4</ele>
    <time>2021-07-18T07:05:34Z</time>
   </trkpt>
   <trkpt lat="42.7453870" lon="-0.5169910">
    <ele>1201.4</ele>
    <time>2021-07-18T07:05:38Z</time>
   </trkpt>
   <trkpt lat="42.7453870" lon="-0.5169910">
    <ele>1201.4</ele>
    <time>2021-07-18T07:05:41Z</time>
   </trkpt>
   <trkpt lat="42.7453870" lon="-0.5169910">
    <ele>1201.4</ele>
    <time>2021-07-18T07:05:45Z</time>
   </trkpt>
   <trkpt lat="42.7453870" lon="-0.5169910">
    <ele>1201.4</ele>
    <time>2021-07-18T07:05:47Z</time>
   </trkpt>
   <trkpt lat="42.7453870" lon="-0.5169910">
    <ele>1201.4</ele>
    <time>2021-07-18T07:05:48Z</time>
   </trkpt>
   <trkpt lat="42.7453870" lon="-0.5169910">
    <ele>1201.4</ele>
    <time>2021-07-18T07:05:49Z</time>
   </trkpt>
   <trkpt lat="42.7453870" lon="-0.5169910">
    <ele>1201.4</ele>
    <time>2021-07-18T07:05:51Z</time>
   </trkpt>
   <trkpt lat="42.7453870" lon="-0.5169910">
    <ele>1201.4</ele>
    <time>2021-07-18T07:05:52Z</time>
   </trkpt>
   <trkpt lat="42.7453870" lon="-0.5169910">
    <ele>1201.4</ele>
    <time>2021-07-18T07:05:54Z</time>
   </trkpt>
   <trkpt lat="42.7453870" lon="-0.5169910">
    <ele>1201.4</ele>
    <time>2021-07-18T07:05:56Z</time>
   </trkpt>
   <trkpt lat="42.7453870" lon="-0.5169910">
    <ele>1201.4</ele>
    <time>2021-07-18T07:05:57Z</time>
   </trkpt>
   <trkpt lat="42.7453870" lon="-0.5169910">
    <ele>1201.4</ele>
    <time>2021-07-18T07:05:58Z</time>
   </trkpt>
   <trkpt lat="42.7453870" lon="-0.5169910">
    <ele>1201.4</ele>
    <time>2021-07-18T07:05:59Z</time>
   </trkpt>
   <trkpt lat="42.7453870" lon="-0.5169910">
    <ele>1201.4</ele>
    <time>2021-07-18T07:06:00Z</time>
   </trkpt>
   <trkpt lat="42.7453870" lon="-0.5169910">
    <ele>1201.4</ele>
    <time>2021-07-18T07:06:04Z</time>
   </trkpt>
   <trkpt lat="42.7453870" lon="-0.5169910">
    <ele>1201.4</ele>
    <time>2021-07-18T07:06:07Z</time>
   </trkpt>
   <trkpt lat="42.7453870" lon="-0.5169910">
    <ele>1201.4</ele>
    <time>2021-07-18T07:06:09Z</time>
   </trkpt>
   <trkpt lat="42.7453870" lon="-0.5169910">
    <ele>1201.4</ele>
    <time>2021-07-18T07:06:12Z</time>
   </trkpt>
   <trkpt lat="42.7453870" lon="-0.5169910">
    <ele>1201.4</ele>
    <time>2021-07-18T07:06:15Z</time>
   </trkpt>
   <trkpt lat="42.7453870" lon="-0.5169910">
    <ele>1201.4</ele>
    <time>2021-07-18T07:06:21Z</time>
   </trkpt>
   <trkpt lat="42.7453870" lon="-0.5169910">
    <ele>1201.4</ele>
    <time>2021-07-18T07:06:22Z</time>
   </trkpt>
   <trkpt lat="42.7453870" lon="-0.5169910">
    <ele>1201.4</ele>
    <time>2021-07-18T07:06:23Z</time>
   </trkpt>
   <trkpt lat="42.7453870" lon="-0.5169910">
    <ele>1201.4</ele>
    <time>2021-07-18T07:06:24Z</time>
   </trkpt>
   <trkpt lat="42.7453870" lon="-0.5169910">
    <ele>1201.4</ele>
    <time>2021-07-18T07:06:25Z</time>
   </trkpt>
   <trkpt lat="42.7453870" lon="-0.5169910">
    <ele>1201.4</ele>
    <time>2021-07-18T07:06:32Z</time>
   </trkpt>
   <trkpt lat="42.7453870" lon="-0.5169910">
    <ele>1201.4</ele>
    <time>2021-07-18T07:06:34Z</time>
   </trkpt>
   <trkpt lat="42.7453870" lon="-0.5169910">
    <ele>1201.4</ele>
    <time>2021-07-18T07:06:42Z</time>
   </trkpt>
   <trkpt lat="42.7453870" lon="-0.5169910">
    <ele>1201.4</ele>
    <time>2021-07-18T07:06:45Z</time>
   </trkpt>
   <trkpt lat="42.7453870" lon="-0.5169910">
    <ele>1201.4</ele>
    <time>2021-07-18T07:06:53Z</time>
   </trkpt>
   <trkpt lat="42.7453870" lon="-0.5169910">
    <ele>1201.4</ele>
    <time>2021-07-18T07:07:01Z</time>
   </trkpt>
   <trkpt lat="42.7453870" lon="-0.5169910">
    <ele>1201.4</ele>
    <time>2021-07-18T07:07:09Z</time>
   </trkpt>
   <trkpt lat="42.7453870" lon="-0.5169910">
    <ele>1201.4</ele>
    <time>2021-07-18T07:07:17Z</time>
   </trkpt>
   <trkpt lat="42.7453870" lon="-0.5169910">
    <ele>1201.4</ele>
    <time>2021-07-18T07:07:25Z</time>
   </trkpt>
   <trkpt lat="42.7453870" lon="-0.5169910">
    <ele>1201.4</ele>
    <time>2021-07-18T07:07:33Z</time>
   </trkpt>
   <trkpt lat="42.7453870" lon="-0.5169910">
    <ele>1201.4</ele>
    <time>2021-07-18T07:07:38Z</time>
   </trkpt>
   <trkpt lat="42.7453870" lon="-0.5169910">
    <ele>1201.4</ele>
    <time>2021-07-18T07:07:40Z</time>
   </trkpt>
   <trkpt lat="42.7453870" lon="-0.5169910">
    <ele>1201.4</ele>
    <time>2021-07-18T07:07:42Z</time>
   </trkpt>
   <trkpt lat="42.7453870" lon="-0.5169910">
    <ele>1201.4</ele>
    <time>2021-07-18T07:07:46Z</time>
   </trkpt>
   <trkpt lat="42.7453870" lon="-0.5169910">
    <ele>1201.4</ele>
    <time>2021-07-18T07:07:54Z</time>
   </trkpt>
   <trkpt lat="42.7453870" lon="-0.5169910">
    <ele>1201.4</ele>
    <time>2021-07-18T07:08:03Z</time>
   </trkpt>
   <trkpt lat="42.7453830" lon="-0.5169880">
    <ele>1201.4</ele>
    <time>2021-07-18T07:08:04Z</time>
   </trkpt>
   <trkpt lat="42.7452920" lon="-0.5170890">
    <ele>1203.4</ele>
    <time>2021-07-18T07:08:10Z</time>
   </trkpt>
   <trkpt lat="42.7452360" lon="-0.5171690">
    <ele>1203.2</ele>
    <time>2021-07-18T07:08:13Z</time>
   </trkpt>
   <trkpt lat="42.7450840" lon="-0.5173430">
    <ele>1204.7</ele>
    <time>2021-07-18T07:08:20Z</time>
   </trkpt>
   <trkpt lat="42.7449070" lon="-0.5174270">
    <ele>1201.6</ele>
    <time>2021-07-18T07:08:33Z</time>
   </trkpt>
   <trkpt lat="42.7447820" lon="-0.5173580">
    <ele>1196.3</ele>
    <time>2021-07-18T07:08:43Z</time>
   </trkpt>
   <trkpt lat="42.7447030" lon="-0.5170680">
    <ele>1186.9</ele>
    <time>2021-07-18T07:08:51Z</time>
   </trkpt>
   <trkpt lat="42.7445980" lon="-0.5168490">
    <ele>1182.6</ele>
    <time>2021-07-18T07:09:00Z</time>
   </trkpt>
   <trkpt lat="42.7444810" lon="-0.5167740">
    <ele>1179.9</ele>
    <time>2021-07-18T07:09:11Z</time>
   </trkpt>
   <trkpt lat="42.7442950" lon="-0.5167340">
    <ele>1178.0</ele>
    <time>2021-07-18T07:09:26Z</time>
   </trkpt>
   <trkpt lat="42.7442260" lon="-0.5166580">
    <ele>1177.9</ele>
    <time>2021-07-18T07:09:31Z</time>
   </trkpt>
   <trkpt lat="42.7441400" lon="-0.5164310">
    <ele>1180.3</ele>
    <time>2021-07-18T07:09:45Z</time>
   </trkpt>
   <trkpt lat="42.7441130" lon="-0.5163380">
    <ele>1181.8</ele>
    <time>2021-07-18T07:09:50Z</time>
   </trkpt>
   <trkpt lat="42.7441830" lon="-0.5162600">
    <ele>1182.9</ele>
    <time>2021-07-18T07:09:58Z</time>
   </trkpt>
   <trkpt lat="42.7442190" lon="-0.5162560">
    <ele>1182.9</ele>
    <time>2021-07-18T07:10:01Z</time>
   </trkpt>
   <trkpt lat="42.7442300" lon="-0.5162570">
    <ele>1182.9</ele>
    <time>2021-07-18T07:10:02Z</time>
   </trkpt>
   <trkpt lat="42.7442420" lon="-0.5162580">
    <ele>1182.9</ele>
    <time>2021-07-18T07:10:03Z</time>
   </trkpt>
   <trkpt lat="42.7442540" lon="-0.5162590">
    <ele>1182.9</ele>
    <time>2021-07-18T07:10:04Z</time>
   </trkpt>
   <trkpt lat="42.7442650" lon="-0.5162630">
    <ele>1182.9</ele>
    <time>2021-07-18T07:10:05Z</time>
   </trkpt>
   <trkpt lat="42.7442740" lon="-0.5162700">
    <ele>1182.9</ele>
    <time>2021-07-18T07:10:06Z</time>
   </trkpt>
   <trkpt lat="42.7442940" lon="-0.5162730">
    <ele>1182.4</ele>
    <time>2021-07-18T07:10:08Z</time>
   </trkpt>
   <trkpt lat="42.7443200" lon="-0.5162780">
    <ele>1182.4</ele>
    <time>2021-07-18T07:10:10Z</time>
   </trkpt>
   <trkpt lat="42.7443620" lon="-0.5162710">
    <ele>1183.0</ele>
    <time>2021-07-18T07:10:13Z</time>
   </trkpt>
   <trkpt lat="42.7443770" lon="-0.5162670">
    <ele>1183.0</ele>
    <time>2021-07-18T07:10:14Z</time>
   </trkpt>
   <trkpt lat="42.7444370" lon="-0.5161990">
    <ele>1183.7</ele>
    <time>2021-07-18T07:10:19Z</time>
   </trkpt>
   <trkpt lat="42.7444420" lon="-0.5161810">
    <ele>1184.2</ele>
    <time>2021-07-18T07:10:20Z</time>
   </trkpt>
   <trkpt lat="42.7443480" lon="-0.5159730">
    <ele>1186.5</ele>
    <time>2021-07-18T07:10:34Z</time>
   </trkpt>
   <trkpt lat="42.7443160" lon="-0.5159500">
    <ele>1187.3</ele>
    <time>2021-07-18T07:10:37Z</time>
   </trkpt>
   <trkpt lat="42.7442670" lon="-0.5159370">
    <ele>1187.5</ele>
    <time>2021-07-18T07:10:41Z</time>
   </trkpt>
   <trkpt lat="42.7441700" lon="-0.5157390">
    <ele>1192.6</ele>
    <time>2021-07-18T07:10:53Z</time>
   </trkpt>
   <trkpt lat="42.7441750" lon="-0.5157280">
    <ele>1192.6</ele>
    <time>2021-07-18T07:10:54Z</time>
   </trkpt>
   <trkpt lat="42.7442020" lon="-0.5157010">
    <ele>1193.3</ele>
    <time>2021-07-18T07:10:58Z</time>
   </trkpt>
   <trkpt lat="42.7442210" lon="-0.5157000">
    <ele>1193.0</ele>
    <time>2021-07-18T07:11:00Z</time>
   </trkpt>
   <trkpt lat="42.7442410" lon="-0.5157030">
    <ele>1192.7</ele>
    <time>2021-07-18T07:11:03Z</time>
   </trkpt>
   <trkpt lat="42.7442500" lon="-0.5157070">
    <ele>1192.7</ele>
    <time>2021-07-18T07:11:04Z</time>
   </trkpt>
   <trkpt lat="42.7442600" lon="-0.5157040">
    <ele>1192.7</ele>
    <time>2021-07-18T07:11:05Z</time>
   </trkpt>
   <trkpt lat="42.7442610" lon="-0.5157030">
    <ele>1192.7</ele>
    <time>2021-07-18T07:11:06Z</time>
   </trkpt>
   <trkpt lat="42.7442990" lon="-0.5156820">
    <ele>1192.5</ele>
    <time>2021-07-18T07:11:10Z</time>
   </trkpt>
   <trkpt lat="42.7443220" lon="-0.5156620">
    <ele>1193.0</ele>
    <time>2021-07-18T07:11:12Z</time>
   </trkpt>
   <trkpt lat="42.7443710" lon="-0.5156330">
    <ele>1192.4</ele>
    <time>2021-07-18T07:11:15Z</time>
   </trkpt>
   <trkpt lat="42.7444200" lon="-0.5155920">
    <ele>1192.8</ele>
    <time>2021-07-18T07:11:18Z</time>
   </trkpt>
   <trkpt lat="42.7444300" lon="-0.5155790">
    <ele>1193.2</ele>
    <time>2021-07-18T07:11:19Z</time>
   </trkpt>
   <trkpt lat="42.7444430" lon="-0.5155340">
    <ele>1193.9</ele>
    <time>2021-07-18T07:11:22Z</time>
   </trkpt>
   <trkpt lat="42.7444280" lon="-0.5154890">
    <ele>1194.7</ele>
    <time>2021-07-18T07:11:25Z</time>
   </trkpt>
   <trkpt lat="42.7444150" lon="-0.5154540">
    <ele>1195.8</ele>
    <time>2021-07-18T07:11:28Z</time>
   </trkpt>
   <trkpt lat="42.7444030" lon="-0.5154360">
    <ele>1195.8</ele>
    <time>2021-07-18T07:11:31Z</time>
   </trkpt>
   <trkpt lat="42.7443810" lon="-0.5154360">
    <ele>1196.2</ele>
    <time>2021-07-18T07:11:33Z</time>
   </trkpt>
   <trkpt lat="42.7443650" lon="-0.5154420">
    <ele>1196.2</ele>
    <time>2021-07-18T07:11:35Z</time>
   </trkpt>
   <trkpt lat="42.7443590" lon="-0.5154540">
    <ele>1196.6</ele>
    <time>2021-07-18T07:11:36Z</time>
   </trkpt>
   <trkpt lat="42.7443400" lon="-0.5154670">
    <ele>1195.8</ele>
    <time>2021-07-18T07:11:38Z</time>
   </trkpt>
   <trkpt lat="42.7442530" lon="-0.5154350">
    <ele>1197.7</ele>
    <time>2021-07-18T07:11:46Z</time>
   </trkpt>
   <trkpt lat="42.7441770" lon="-0.5153600">
    <ele>1200.2</ele>
    <time>2021-07-18T07:11:52Z</time>
   </trkpt>
   <trkpt lat="42.7441690" lon="-0.5153160">
    <ele>1201.6</ele>
    <time>2021-07-18T07:11:55Z</time>
   </trkpt>
   <trkpt lat="42.7441840" lon="-0.5152420">
    <ele>1202.0</ele>
    <time>2021-07-18T07:11:59Z</time>
   </trkpt>
   <trkpt lat="42.7442330" lon="-0.5151780">
    <ele>1203.2</ele>
    <time>2021-07-18T07:12:04Z</time>
   </trkpt>
   <trkpt lat="42.7443140" lon="-0.5151180">
    <ele>1202.5</ele>
    <time>2021-07-18T07:12:10Z</time>
   </trkpt>
   <trkpt lat="42.7444490" lon="-0.5149870">
    <ele>1202.5</ele>
    <time>2021-07-18T07:12:24Z</time>
   </trkpt>
   <trkpt lat="42.7445290" lon="-0.5148560">
    <ele>1202.9</ele>
    <time>2021-07-18T07:12:36Z</time>
   </trkpt>
   <trkpt lat="42.7445190" lon="-0.5147900">
    <ele>1204.7</ele>
    <time>2021-07-18T07:12:40Z</time>
   </trkpt>
   <trkpt lat="42.7445140" lon="-0.5147680">
    <ele>1205.3</ele>
    <time>2021-07-18T07:12:41Z</time>
   </trkpt>
   <trkpt lat="42.7444850" lon="-0.5147060">
    <ele>1206.4</ele>
    <time>2021-07-18T07:12:44Z</time>
   </trkpt>
   <trkpt lat="42.7444470" lon="-0.5146160">
    <ele>1208.2</ele>
    <time>2021-07-18T07:12:49Z</time>
   </trkpt>
   <trkpt lat="42.7444250" lon="-0.5145880">
    <ele>1209.4</ele>
    <time>2021-07-18T07:12:52Z</time>
   </trkpt>
   <trkpt lat="42.7443920" lon="-0.5145720">
    <ele>1210.0</ele>
    <time>2021-07-18T07:12:57Z</time>
   </trkpt>
   <trkpt lat="42.7443710" lon="-0.5145780">
    <ele>1210.0</ele>
    <time>2021-07-18T07:12:59Z</time>
   </trkpt>
   <trkpt lat="42.7443400" lon="-0.5145920">
    <ele>1210.6</ele>
    <time>2021-07-18T07:13:02Z</time>
   </trkpt>
   <trkpt lat="42.7443300" lon="-0.5145920">
    <ele>1211.2</ele>
    <time>2021-07-18T07:13:03Z</time>
   </trkpt>
   <trkpt lat="42.7442060" lon="-0.5146600">
    <ele>1212.5</ele>
    <time>2021-07-18T07:13:14Z</time>
   </trkpt>
   <trkpt lat="42.7441590" lon="-0.5146920">
    <ele>1212.5</ele>
    <time>2021-07-18T07:13:18Z</time>
   </trkpt>
   <trkpt lat="42.7441030" lon="-0.5147620">
    <ele>1213.3</ele>
    <time>2021-07-18T07:13:23Z</time>
   </trkpt>
   <trkpt lat="42.7439690" lon="-0.5149280">
    <ele>1213.0</ele>
    <time>2021-07-18T07:13:38Z</time>
   </trkpt>
   <trkpt lat="42.7439290" lon="-0.5149130">
    <ele>1213.6</ele>
    <time>2021-07-18T07:13:43Z</time>
   </trkpt>
   <trkpt lat="42.7438930" lon="-0.5148780">
    <ele>1215.3</ele>
    <time>2021-07-18T07:13:47Z</time>
   </trkpt>
   <trkpt lat="42.7438950" lon="-0.5148270">
    <ele>1216.1</ele>
    <time>2021-07-18T07:13:51Z</time>
   </trkpt>
   <trkpt lat="42.7439030" lon="-0.5148140">
    <ele>1216.1</ele>
    <time>2021-07-18T07:13:52Z</time>
   </trkpt>
   <trkpt lat="42.7439480" lon="-0.5147280">
    <ele>1216.8</ele>
    <time>2021-07-18T07:13:57Z</time>
   </trkpt>
   <trkpt lat="42.7440120" lon="-0.5146140">
    <ele>1217.4</ele>
    <time>2021-07-18T07:14:04Z</time>
   </trkpt>
   <trkpt lat="42.7440480" lon="-0.5144970">
    <ele>1218.7</ele>
    <time>2021-07-18T07:14:10Z</time>
   </trkpt>
   <trkpt lat="42.7440460" lon="-0.5144060">
    <ele>1220.0</ele>
    <time>2021-07-18T07:14:14Z</time>
   </trkpt>
   <trkpt lat="42.7440380" lon="-0.5143790">
    <ele>1220.6</ele>
    <time>2021-07-18T07:14:15Z</time>
   </trkpt>
   <trkpt lat="42.7440050" lon="-0.5142840">
    <ele>1222.5</ele>
    <time>2021-07-18T07:14:22Z</time>
   </trkpt>
   <trkpt lat="42.7439900" lon="-0.5142870">
    <ele>1222.5</ele>
    <time>2021-07-18T07:14:24Z</time>
   </trkpt>
   <trkpt lat="42.7439760" lon="-0.5143120">
    <ele>1222.8</ele>
    <time>2021-07-18T07:14:26Z</time>
   </trkpt>
   <trkpt lat="42.7439570" lon="-0.5144050">
    <ele>1221.6</ele>
    <time>2021-07-18T07:14:34Z</time>
   </trkpt>
   <trkpt lat="42.7439520" lon="-0.5144320">
    <ele>1221.8</ele>
    <time>2021-07-18T07:14:36Z</time>
   </trkpt>
   <trkpt lat="42.7439280" lon="-0.5144800">
    <ele>1221.0</ele>
    <time>2021-07-18T07:14:40Z</time>
   </trkpt>
   <trkpt lat="42.7438230" lon="-0.5146940">
    <ele>1220.9</ele>
    <time>2021-07-18T07:14:54Z</time>
   </trkpt>
   <trkpt lat="42.7436850" lon="-0.5146080">
    <ele>1225.9</ele>
    <time>2021-07-18T07:15:08Z</time>
   </trkpt>
   <trkpt lat="42.7436560" lon="-0.5144950">
    <ele>1229.6</ele>
    <time>2021-07-18T07:15:16Z</time>
   </trkpt>
   <trkpt lat="42.7436490" lon="-0.5142820">
    <ele>1233.5</ele>
    <time>2021-07-18T07:15:29Z</time>
   </trkpt>
   <trkpt lat="42.7436460" lon="-0.5142800">
    <ele>1233.5</ele>
    <time>2021-07-18T07:15:30Z</time>
   </trkpt>
   <trkpt lat="42.7436220" lon="-0.5143020">
    <ele>1233.9</ele>
    <time>2021-07-18T07:16:21Z</time>
   </trkpt>
   <trkpt lat="42.7436160" lon="-0.5143010">
    <ele>1233.9</ele>
    <time>2021-07-18T07:16:22Z</time>
   </trkpt>
   <trkpt lat="42.7435900" lon="-0.5143660">
    <ele>1234.3</ele>
    <time>2021-07-18T07:16:33Z</time>
   </trkpt>
   <trkpt lat="42.7435810" lon="-0.5143760">
    <ele>1234.3</ele>
    <time>2021-07-18T07:16:34Z</time>
   </trkpt>
   <trkpt lat="42.7435740" lon="-0.5143860">
    <ele>1234.6</ele>
    <time>2021-07-18T07:16:35Z</time>
   </trkpt>
   <trkpt lat="42.7435590" lon="-0.5144140">
    <ele>1234.6</ele>
    <time>2021-07-18T07:16:38Z</time>
   </trkpt>
   <trkpt lat="42.7435530" lon="-0.5144240">
    <ele>1234.6</ele>
    <time>2021-07-18T07:16:39Z</time>
   </trkpt>
   <trkpt lat="42.7435500" lon="-0.5144550">
    <ele>1233.7</ele>
    <time>2021-07-18T07:16:41Z</time>
   </trkpt>
   <trkpt lat="42.7435550" lon="-0.5144750">
    <ele>1232.7</ele>
    <time>2021-07-18T07:16:42Z</time>
   </trkpt>
   <trkpt lat="42.7435610" lon="-0.5144920">
    <ele>1232.7</ele>
    <time>2021-07-18T07:16:43Z</time>
   </trkpt>
   <trkpt lat="42.7435410" lon="-0.5146180">
    <ele>1230.6</ele>
    <time>2021-07-18T07:16:51Z</time>
   </trkpt>
   <trkpt lat="42.7435320" lon="-0.5146350">
    <ele>1230.6</ele>
    <time>2021-07-18T07:16:52Z</time>
   </trkpt>
   <trkpt lat="42.7435230" lon="-0.5146610">
    <ele>1229.5</ele>
    <time>2021-07-18T07:16:54Z</time>
   </trkpt>
   <trkpt lat="42.7434750" lon="-0.5148110">
    <ele>1227.6</ele>
    <time>2021-07-18T07:17:03Z</time>
   </trkpt>
   <trkpt lat="42.7434680" lon="-0.5148520">
    <ele>1226.4</ele>
    <time>2021-07-18T07:17:06Z</time>
   </trkpt>
   <trkpt lat="42.7434580" lon="-0.5148720">
    <ele>1225.1</ele>
    <time>2021-07-18T07:17:07Z</time>
   </trkpt>
   <trkpt lat="42.7434470" lon="-0.5149160">
    <ele>1224.4</ele>
    <time>2021-07-18T07:17:10Z</time>
   </trkpt>
   <trkpt lat="42.7434520" lon="-0.5150280">
    <ele>1219.8</ele>
    <time>2021-07-18T07:17:22Z</time>
   </trkpt>
   <trkpt lat="42.7434500" lon="-0.5150370">
    <ele>1220.2</ele>
    <time>2021-07-18T07:17:23Z</time>
   </trkpt>
   <trkpt lat="42.7434420" lon="-0.5149270">
    <ele>1224.4</ele>
    <time>2021-07-18T07:17:38Z</time>
   </trkpt>
   <trkpt lat="42.7434070" lon="-0.5147280">
    <ele>1230.0</ele>
    <time>2021-07-18T07:17:52Z</time>
   </trkpt>
   <trkpt lat="42.7434010" lon="-0.5146290">
    <ele>1233.6</ele>
    <time>2021-07-18T07:18:00Z</time>
   </trkpt>
   <trkpt lat="42.7433990" lon="-0.5145830">
    <ele>1234.8</ele>
    <time>2021-07-18T07:18:03Z</time>
   </trkpt>
   <trkpt lat="42.7433770" lon="-0.5145270">
    <ele>1236.7</ele>
    <time>2021-07-18T07:18:07Z</time>
   </trkpt>
   <trkpt lat="42.7433770" lon="-0.5145050">
    <ele>1237.9</ele>
    <time>2021-07-18T07:18:09Z</time>
   </trkpt>
   <trkpt lat="42.7433760" lon="-0.5144520">
    <ele>1239.0</ele>
    <time>2021-07-18T07:18:12Z</time>
   </trkpt>
   <trkpt lat="42.7433980" lon="-0.5143510">
    <ele>1240.1</ele>
    <time>2021-07-18T07:18:18Z</time>
   </trkpt>
   <trkpt lat="42.7434000" lon="-0.5143340">
    <ele>1240.9</ele>
    <time>2021-07-18T07:18:19Z</time>
   </trkpt>
   <trkpt lat="42.7434010" lon="-0.5143150">
    <ele>1240.9</ele>
    <time>2021-07-18T07:18:20Z</time>
   </trkpt>
   <trkpt lat="42.7434050" lon="-0.5142920">
    <ele>1241.7</ele>
    <time>2021-07-18T07:18:21Z</time>
   </trkpt>
   <trkpt lat="42.7434040" lon="-0.5142740">
    <ele>1241.7</ele>
    <time>2021-07-18T07:18:22Z</time>
   </trkpt>
   <trkpt lat="42.7434170" lon="-0.5141070">
    <ele>1244.7</ele>
    <time>2021-07-18T07:18:32Z</time>
   </trkpt>
   <trkpt lat="42.7434470" lon="-0.5140040">
    <ele>1245.0</ele>
    <time>2021-07-18T07:18:39Z</time>
   </trkpt>
   <trkpt lat="42.7434550" lon="-0.5139490">
    <ele>1245.2</ele>
    <time>2021-07-18T07:18:43Z</time>
   </trkpt>
   <trkpt lat="42.7434610" lon="-0.5139340">
    <ele>1245.2</ele>
    <time>2021-07-18T07:18:44Z</time>
   </trkpt>
   <trkpt lat="42.7434550" lon="-0.5139180">
    <ele>1245.2</ele>
    <time>2021-07-18T07:18:45Z</time>
   </trkpt>
   <trkpt lat="42.7434500" lon="-0.5138300">
    <ele>1247.5</ele>
    <time>2021-07-18T07:18:51Z</time>
   </trkpt>
   <trkpt lat="42.7434350" lon="-0.5138210">
    <ele>1248.1</ele>
    <time>2021-07-18T07:18:55Z</time>
   </trkpt>
   <trkpt lat="42.7434360" lon="-0.5138610">
    <ele>1247.5</ele>
    <time>2021-07-18T07:18:59Z</time>
   </trkpt>
   <trkpt lat="42.7434350" lon="-0.5139100">
    <ele>1246.9</ele>
    <time>2021-07-18T07:19:03Z</time>
   </trkpt>
   <trkpt lat="42.7433830" lon="-0.5140890">
    <ele>1245.9</ele>
    <time>2021-07-18T07:19:17Z</time>
   </trkpt>
   <trkpt lat="42.7433380" lon="-0.5141860">
    <ele>1245.4</ele>
    <time>2021-07-18T07:19:25Z</time>
   </trkpt>
   <trkpt lat="42.7433260" lon="-0.5141670">
    <ele>1246.2</ele>
    <time>2021-07-18T07:19:28Z</time>
   </trkpt>
   <trkpt lat="42.7433260" lon="-0.5141590">
    <ele>1246.2</ele>
    <time>2021-07-18T07:19:29Z</time>
   </trkpt>
   <trkpt lat="42.7433250" lon="-0.5141490">
    <ele>1246.2</ele>
    <time>2021-07-18T07:19:30Z</time>
   </trkpt>
   <trkpt lat="42.7433220" lon="-0.5141370">
    <ele>1247.4</ele>
    <time>2021-07-18T07:19:31Z</time>
   </trkpt>
   <trkpt lat="42.7433220" lon="-0.5141080">
    <ele>1248.3</ele>
    <time>2021-07-18T07:19:33Z</time>
   </trkpt>
   <trkpt lat="42.7433280" lon="-0.5139800">
    <ele>1249.4</ele>
    <time>2021-07-18T07:19:41Z</time>
   </trkpt>
   <trkpt lat="42.7433340" lon="-0.5138880">
    <ele>1250.9</ele>
    <time>2021-07-18T07:19:48Z</time>
   </trkpt>
   <trkpt lat="42.7433300" lon="-0.5138930">
    <ele>1250.9</ele>
    <time>2021-07-18T07:19:49Z</time>
   </trkpt>
   <trkpt lat="42.7433090" lon="-0.5139400">
    <ele>1251.5</ele>
    <time>2021-07-18T07:19:53Z</time>
   </trkpt>
   <trkpt lat="42.7432540" lon="-0.5140770">
    <ele>1251.3</ele>
    <time>2021-07-18T07:20:00Z</time>
   </trkpt>
   <trkpt lat="42.7431860" lon="-0.5142880">
    <ele>1248.1</ele>
    <time>2021-07-18T07:20:13Z</time>
   </trkpt>
   <trkpt lat="42.7431610" lon="-0.5143630">
    <ele>1246.6</ele>
    <time>2021-07-18T07:20:17Z</time>
   </trkpt>
   <trkpt lat="42.7431470" lon="-0.5141310">
    <ele>1252.1</ele>
    <time>2021-07-18T07:20:31Z</time>
   </trkpt>
   <trkpt lat="42.7431720" lon="-0.5138810">
    <ele>1256.9</ele>
    <time>2021-07-18T07:20:44Z</time>
   </trkpt>
   <trkpt lat="42.7431970" lon="-0.5136920">
    <ele>1260.8</ele>
    <time>2021-07-18T07:20:55Z</time>
   </trkpt>
   <trkpt lat="42.7431900" lon="-0.5136580">
    <ele>1260.8</ele>
    <time>2021-07-18T07:20:57Z</time>
   </trkpt>
   <trkpt lat="42.7431840" lon="-0.5136280">
    <ele>1261.7</ele>
    <time>2021-07-18T07:20:59Z</time>
   </trkpt>
   <trkpt lat="42.7431700" lon="-0.5136270">
    <ele>1261.7</ele>
    <time>2021-07-18T07:21:01Z</time>
   </trkpt>
   <trkpt lat="42.7431640" lon="-0.5136310">
    <ele>1263.0</ele>
    <time>2021-07-18T07:21:02Z</time>
   </trkpt>
   <trkpt lat="42.7431400" lon="-0.5136670">
    <ele>1262.1</ele>
    <time>2021-07-18T07:21:05Z</time>
   </trkpt>
   <trkpt lat="42.7431330" lon="-0.5136790">
    <ele>1263.4</ele>
    <time>2021-07-18T07:21:06Z</time>
   </trkpt>
   <trkpt lat="42.7430940" lon="-0.5137440">
    <ele>1263.0</ele>
    <time>2021-07-18T07:21:11Z</time>
   </trkpt>
   <trkpt lat="42.7430740" lon="-0.5138010">
    <ele>1262.1</ele>
    <time>2021-07-18T07:21:16Z</time>
   </trkpt>
   <trkpt lat="42.7430550" lon="-0.5138510">
    <ele>1262.4</ele>
    <time>2021-07-18T07:21:19Z</time>
   </trkpt>
   <trkpt lat="42.7430180" lon="-0.5139650">
    <ele>1260.4</ele>
    <time>2021-07-18T07:21:25Z</time>
   </trkpt>
   <trkpt lat="42.7429970" lon="-0.5140200">
    <ele>1260.1</ele>
    <time>2021-07-18T07:21:28Z</time>
   </trkpt>
   <trkpt lat="42.7429620" lon="-0.5141200">
    <ele>1258.3</ele>
    <time>2021-07-18T07:21:33Z</time>
   </trkpt>
   <trkpt lat="42.7429320" lon="-0.5142220">
    <ele>1254.8</ele>
    <time>2021-07-18T07:21:39Z</time>
   </trkpt>
   <trkpt lat="42.7429080" lon="-0.5142940">
    <ele>1253.9</ele>
    <time>2021-07-18T07:21:43Z</time>
   </trkpt>
   <trkpt lat="42.7428830" lon="-0.5142990">
    <ele>1252.9</ele>
    <time>2021-07-18T07:21:47Z</time>
   </trkpt>
   <trkpt lat="42.7428730" lon="-0.5142730">
    <ele>1254.4</ele>
    <time>2021-07-18T07:21:49Z</time>
   </trkpt>
   <trkpt lat="42.7428570" lon="-0.5141860">
    <ele>1257.4</ele>
    <time>2021-07-18T07:21:56Z</time>
   </trkpt>
   <trkpt lat="42.7428270" lon="-0.5140870">
    <ele>1261.1</ele>
    <time>2021-07-18T07:22:02Z</time>
   </trkpt>
   <trkpt lat="42.7428220" lon="-0.5140600">
    <ele>1262.6</ele>
    <time>2021-07-18T07:22:04Z</time>
   </trkpt>
   <trkpt lat="42.7428320" lon="-0.5140110">
    <ele>1264.1</ele>
    <time>2021-07-18T07:22:07Z</time>
   </trkpt>
   <trkpt lat="42.7428580" lon="-0.5137840">
    <ele>1269.3</ele>
    <time>2021-07-18T07:22:21Z</time>
   </trkpt>
   <trkpt lat="42.7428600" lon="-0.5137750">
    <ele>1270.4</ele>
    <time>2021-07-18T07:22:22Z</time>
   </trkpt>
   <trkpt lat="42.7428510" lon="-0.5137390">
    <ele>1272.4</ele>
    <time>2021-07-18T07:22:25Z</time>
   </trkpt>
   <trkpt lat="42.7428360" lon="-0.5137330">
    <ele>1272.4</ele>
    <time>2021-07-18T07:22:28Z</time>
   </trkpt>
   <trkpt lat="42.7428240" lon="-0.5137440">
    <ele>1271.3</ele>
    <time>2021-07-18T07:22:33Z</time>
   </trkpt>
   <trkpt lat="42.7427880" lon="-0.5137460">
    <ele>1273.1</ele>
    <time>2021-07-18T07:22:40Z</time>
   </trkpt>
   <trkpt lat="42.7427500" lon="-0.5136670">
    <ele>1276.3</ele>
    <time>2021-07-18T07:22:46Z</time>
   </trkpt>
   <trkpt lat="42.7426490" lon="-0.5136400">
    <ele>1280.2</ele>
    <time>2021-07-18T07:22:56Z</time>
   </trkpt>
   <trkpt lat="42.7425900" lon="-0.5136360">
    <ele>1281.8</ele>
    <time>2021-07-18T07:23:03Z</time>
   </trkpt>
   <trkpt lat="42.7425600" lon="-0.5136280">
    <ele>1282.5</ele>
    <time>2021-07-18T07:23:06Z</time>
   </trkpt>
   <trkpt lat="42.7425510" lon="-0.5136320">
    <ele>1282.5</ele>
    <time>2021-07-18T07:23:08Z</time>
   </trkpt>
   <trkpt lat="42.7425340" lon="-0.5136330">
    <ele>1283.4</ele>
    <time>2021-07-18T07:23:12Z</time>
   </trkpt>
   <trkpt lat="42.7424740" lon="-0.5135760">
    <ele>1285.7</ele>
    <time>2021-07-18T07:23:21Z</time>
   </trkpt>
   <trkpt lat="42.7424480" lon="-0.5135260">
    <ele>1288.0</ele>
    <time>2021-07-18T07:23:25Z</time>
   </trkpt>
   <trkpt lat="42.7423200" lon="-0.5134270">
    <ele>1294.9</ele>
    <time>2021-07-18T07:23:44Z</time>
   </trkpt>
   <trkpt lat="42.7423090" lon="-0.5133940">
    <ele>1296.7</ele>
    <time>2021-07-18T07:23:46Z</time>
   </trkpt>
   <trkpt lat="42.7423030" lon="-0.5133830">
    <ele>1296.7</ele>
    <time>2021-07-18T07:23:47Z</time>
   </trkpt>
   <trkpt lat="42.7422950" lon="-0.5133700">
    <ele>1296.7</ele>
    <time>2021-07-18T07:23:48Z</time>
   </trkpt>
   <trkpt lat="42.7422850" lon="-0.5133640">
    <ele>1296.7</ele>
    <time>2021-07-18T07:23:49Z</time>
   </trkpt>
   <trkpt lat="42.7422760" lon="-0.5133580">
    <ele>1297.4</ele>
    <time>2021-07-18T07:23:50Z</time>
   </trkpt>
   <trkpt lat="42.7422270" lon="-0.5133340">
    <ele>1299.3</ele>
    <time>2021-07-18T07:23:56Z</time>
   </trkpt>
   <trkpt lat="42.7422060" lon="-0.5133300">
    <ele>1300.0</ele>
    <time>2021-07-18T07:23:59Z</time>
   </trkpt>
   <trkpt lat="42.7421820" lon="-0.5133100">
    <ele>1301.9</ele>
    <time>2021-07-18T07:24:01Z</time>
   </trkpt>
   <trkpt lat="42.7421740" lon="-0.5132990">
    <ele>1301.9</ele>
    <time>2021-07-18T07:24:02Z</time>
   </trkpt>
   <trkpt lat="42.7421670" lon="-0.5132880">
    <ele>1301.9</ele>
    <time>2021-07-18T07:24:03Z</time>
   </trkpt>
   <trkpt lat="42.7421580" lon="-0.5132780">
    <ele>1302.4</ele>
    <time>2021-07-18T07:24:04Z</time>
   </trkpt>
   <trkpt lat="42.7421490" lon="-0.5132680">
    <ele>1302.4</ele>
    <time>2021-07-18T07:24:05Z</time>
   </trkpt>
   <trkpt lat="42.7421430" lon="-0.5132580">
    <ele>1303.7</ele>
    <time>2021-07-18T07:24:06Z</time>
   </trkpt>
   <trkpt lat="42.7421190" lon="-0.5132380">
    <ele>1304.1</ele>
    <time>2021-07-18T07:24:08Z</time>
   </trkpt>
   <trkpt lat="42.7421060" lon="-0.5132270">
    <ele>1304.1</ele>
    <time>2021-07-18T07:24:09Z</time>
   </trkpt>
   <trkpt lat="42.7420830" lon="-0.5131950">
    <ele>1305.9</ele>
    <time>2021-07-18T07:24:11Z</time>
   </trkpt>
   <trkpt lat="42.7420710" lon="-0.5131790">
    <ele>1307.2</ele>
    <time>2021-07-18T07:24:12Z</time>
   </trkpt>
   <trkpt lat="42.7420440" lon="-0.5131370">
    <ele>1309.0</ele>
    <time>2021-07-18T07:24:15Z</time>
   </trkpt>
   <trkpt lat="42.7420140" lon="-0.5130860">
    <ele>1311.0</ele>
    <time>2021-07-18T07:24:18Z</time>
   </trkpt>
   <trkpt lat="42.7419920" lon="-0.5130890">
    <ele>1311.7</ele>
    <time>2021-07-18T07:24:21Z</time>
   </trkpt>
   <trkpt lat="42.7419930" lon="-0.5131220">
    <ele>1310.3</ele>
    <time>2021-07-18T07:24:25Z</time>
   </trkpt>
   <trkpt lat="42.7419850" lon="-0.5131280">
    <ele>1310.3</ele>
    <time>2021-07-18T07:24:27Z</time>
   </trkpt>
   <trkpt lat="42.7419710" lon="-0.5131030">
    <ele>1310.3</ele>
    <time>2021-07-18T07:24:30Z</time>
   </trkpt>
   <trkpt lat="42.7418750" lon="-0.5128960">
    <ele>1319.2</ele>
    <time>2021-07-18T07:24:45Z</time>
   </trkpt>
   <trkpt lat="42.7417990" lon="-0.5126710">
    <ele>1329.0</ele>
    <time>2021-07-18T07:25:01Z</time>
   </trkpt>
   <trkpt lat="42.7417330" lon="-0.5124480">
    <ele>1339.2</ele>
    <time>2021-07-18T07:25:15Z</time>
   </trkpt>
   <trkpt lat="42.7417140" lon="-0.5124450">
    <ele>1339.7</ele>
    <time>2021-07-18T07:25:17Z</time>
   </trkpt>
   <trkpt lat="42.7416690" lon="-0.5125150">
    <ele>1337.6</ele>
    <time>2021-07-18T07:25:25Z</time>
   </trkpt>
   <trkpt lat="42.7416890" lon="-0.5125790">
    <ele>1335.7</ele>
    <time>2021-07-18T07:25:30Z</time>
   </trkpt>
   <trkpt lat="42.7417490" lon="-0.5126980">
    <ele>1329.7</ele>
    <time>2021-07-18T07:25:37Z</time>
   </trkpt>
   <trkpt lat="42.7416050" lon="-0.5127910">
    <ele>1330.4</ele>
    <time>2021-07-18T07:25:57Z</time>
   </trkpt>
   <trkpt lat="42.7415820" lon="-0.5127850">
    <ele>1331.2</ele>
    <time>2021-07-18T07:26:00Z</time>
   </trkpt>
   <trkpt lat="42.7415570" lon="-0.5125520">
    <ele>1338.6</ele>
    <time>2021-07-18T07:26:17Z</time>
   </trkpt>
   <trkpt lat="42.7415100" lon="-0.5124520">
    <ele>1342.6</ele>
    <time>2021-07-18T07:26:23Z</time>
   </trkpt>
   <trkpt lat="42.7415160" lon="-0.5122070">
    <ele>1349.3</ele>
    <time>2021-07-18T07:26:39Z</time>
   </trkpt>
   <trkpt lat="42.7415160" lon="-0.5121540">
    <ele>1350.8</ele>
    <time>2021-07-18T07:26:43Z</time>
   </trkpt>
   <trkpt lat="42.7415060" lon="-0.5120980">
    <ele>1353.5</ele>
    <time>2021-07-18T07:26:47Z</time>
   </trkpt>
   <trkpt lat="42.7414650" lon="-0.5120450">
    <ele>1355.8</ele>
    <time>2021-07-18T07:26:53Z</time>
   </trkpt>
   <trkpt lat="42.7414430" lon="-0.5120230">
    <ele>1355.8</ele>
    <time>2021-07-18T07:26:56Z</time>
   </trkpt>
   <trkpt lat="42.7413750" lon="-0.5117970">
    <ele>1365.3</ele>
    <time>2021-07-18T07:27:11Z</time>
   </trkpt>
   <trkpt lat="42.7413520" lon="-0.5116480">
    <ele>1370.3</ele>
    <time>2021-07-18T07:27:23Z</time>
   </trkpt>
   <trkpt lat="42.7413420" lon="-0.5116510">
    <ele>1370.3</ele>
    <time>2021-07-18T07:27:25Z</time>
   </trkpt>
   <trkpt lat="42.7413310" lon="-0.5116590">
    <ele>1370.5</ele>
    <time>2021-07-18T07:27:30Z</time>
   </trkpt>
   <trkpt lat="42.7413200" lon="-0.5116850">
    <ele>1369.0</ele>
    <time>2021-07-18T07:27:34Z</time>
   </trkpt>
   <trkpt lat="42.7413430" lon="-0.5117710">
    <ele>1365.7</ele>
    <time>2021-07-18T07:27:41Z</time>
   </trkpt>
   <trkpt lat="42.7413420" lon="-0.5117930">
    <ele>1365.7</ele>
    <time>2021-07-18T07:27:43Z</time>
   </trkpt>
   <trkpt lat="42.7413620" lon="-0.5118220">
    <ele>1364.2</ele>
    <time>2021-07-18T07:27:48Z</time>
   </trkpt>
   <trkpt lat="42.7413660" lon="-0.5118320">
    <ele>1364.2</ele>
    <time>2021-07-18T07:27:49Z</time>
   </trkpt>
   <trkpt lat="42.7413720" lon="-0.5118470">
    <ele>1363.8</ele>
    <time>2021-07-18T07:27:50Z</time>
   </trkpt>
   <trkpt lat="42.7413610" lon="-0.5119650">
    <ele>1359.9</ele>
    <time>2021-07-18T07:27:58Z</time>
   </trkpt>
   <trkpt lat="42.7413530" lon="-0.5119570">
    <ele>1359.9</ele>
    <time>2021-07-18T07:28:00Z</time>
   </trkpt>
   <trkpt lat="42.7413380" lon="-0.5119150">
    <ele>1361.8</ele>
    <time>2021-07-18T07:28:03Z</time>
   </trkpt>
   <trkpt lat="42.7413240" lon="-0.5118480">
    <ele>1364.6</ele>
    <time>2021-07-18T07:28:07Z</time>
   </trkpt>
   <trkpt lat="42.7413110" lon="-0.5117640">
    <ele>1367.5</ele>
    <time>2021-07-18T07:28:13Z</time>
   </trkpt>
   <trkpt lat="42.7413040" lon="-0.5117450">
    <ele>1367.8</ele>
    <time>2021-07-18T07:28:15Z</time>
   </trkpt>
   <trkpt lat="42.7412960" lon="-0.5117230">
    <ele>1367.8</ele>
    <time>2021-07-18T07:28:18Z</time>
   </trkpt>
   <trkpt lat="42.7412950" lon="-0.5117190">
    <ele>1369.3</ele>
    <time>2021-07-18T07:28:19Z</time>
   </trkpt>
   <trkpt lat="42.7412870" lon="-0.5117160">
    <ele>1369.3</ele>
    <time>2021-07-18T07:28:21Z</time>
   </trkpt>
   <trkpt lat="42.7412780" lon="-0.5117150">
    <ele>1369.3</ele>
    <time>2021-07-18T07:28:23Z</time>
   </trkpt>
   <trkpt lat="42.7412450" lon="-0.5118500">
    <ele>1365.4</ele>
    <time>2021-07-18T07:28:38Z</time>
   </trkpt>
   <trkpt lat="42.7412710" lon="-0.5119740">
    <ele>1361.5</ele>
    <time>2021-07-18T07:28:45Z</time>
   </trkpt>
   <trkpt lat="42.7412700" lon="-0.5120270">
    <ele>1359.2</ele>
    <time>2021-07-18T07:28:49Z</time>
   </trkpt>
   <trkpt lat="42.7412360" lon="-0.5121100">
    <ele>1357.6</ele>
    <time>2021-07-18T07:28:55Z</time>
   </trkpt>
   <trkpt lat="42.7412240" lon="-0.5121070">
    <ele>1358.7</ele>
    <time>2021-07-18T07:28:58Z</time>
   </trkpt>
   <trkpt lat="42.7412210" lon="-0.5120990">
    <ele>1358.7</ele>
    <time>2021-07-18T07:28:59Z</time>
   </trkpt>
   <trkpt lat="42.7412230" lon="-0.5120860">
    <ele>1358.7</ele>
    <time>2021-07-18T07:29:00Z</time>
   </trkpt>
   <trkpt lat="42.7412240" lon="-0.5120740">
    <ele>1358.7</ele>
    <time>2021-07-18T07:29:01Z</time>
   </trkpt>
   <trkpt lat="42.7412280" lon="-0.5120620">
    <ele>1359.8</ele>
    <time>2021-07-18T07:29:02Z</time>
   </trkpt>
   <trkpt lat="42.7411840" lon="-0.5118810">
    <ele>1364.9</ele>
    <time>2021-07-18T07:29:16Z</time>
   </trkpt>
   <trkpt lat="42.7411640" lon="-0.5118440">
    <ele>1366.6</ele>
    <time>2021-07-18T07:29:19Z</time>
   </trkpt>
   <trkpt lat="42.7411550" lon="-0.5118180">
    <ele>1366.6</ele>
    <time>2021-07-18T07:29:21Z</time>
   </trkpt>
   <trkpt lat="42.7411520" lon="-0.5117890">
    <ele>1367.9</ele>
    <time>2021-07-18T07:29:23Z</time>
   </trkpt>
   <trkpt lat="42.7411450" lon="-0.5117710">
    <ele>1368.4</ele>
    <time>2021-07-18T07:29:24Z</time>
   </trkpt>
   <trkpt lat="42.7411400" lon="-0.5116980">
    <ele>1370.9</ele>
    <time>2021-07-18T07:29:30Z</time>
   </trkpt>
   <trkpt lat="42.7411430" lon="-0.5116910">
    <ele>1370.9</ele>
    <time>2021-07-18T07:29:31Z</time>
   </trkpt>
   <trkpt lat="42.7411540" lon="-0.5116640">
    <ele>1371.8</ele>
    <time>2021-07-18T07:29:33Z</time>
   </trkpt>
   <trkpt lat="42.7411530" lon="-0.5115840">
    <ele>1374.4</ele>
    <time>2021-07-18T07:29:39Z</time>
   </trkpt>
   <trkpt lat="42.7411360" lon="-0.5115820">
    <ele>1374.8</ele>
    <time>2021-07-18T07:29:41Z</time>
   </trkpt>
   <trkpt lat="42.7411320" lon="-0.5115850">
    <ele>1374.8</ele>
    <time>2021-07-18T07:29:42Z</time>
   </trkpt>
   <trkpt lat="42.7411290" lon="-0.5115890">
    <ele>1374.8</ele>
    <time>2021-07-18T07:29:43Z</time>
   </trkpt>
   <trkpt lat="42.7411200" lon="-0.5116100">
    <ele>1373.5</ele>
    <time>2021-07-18T07:29:45Z</time>
   </trkpt>
   <trkpt lat="42.7411150" lon="-0.5116180">
    <ele>1374.1</ele>
    <time>2021-07-18T07:29:46Z</time>
   </trkpt>
   <trkpt lat="42.7410880" lon="-0.5118610">
    <ele>1366.8</ele>
    <time>2021-07-18T07:30:01Z</time>
   </trkpt>
   <trkpt lat="42.7410820" lon="-0.5118530">
    <ele>1367.7</ele>
    <time>2021-07-18T07:30:02Z</time>
   </trkpt>
   <trkpt lat="42.7410990" lon="-0.5117450">
    <ele>1370.4</ele>
    <time>2021-07-18T07:30:10Z</time>
   </trkpt>
   <trkpt lat="42.7410990" lon="-0.5117370">
    <ele>1370.4</ele>
    <time>2021-07-18T07:30:11Z</time>
   </trkpt>
   <trkpt lat="42.7411010" lon="-0.5117280">
    <ele>1370.4</ele>
    <time>2021-07-18T07:30:12Z</time>
   </trkpt>
   <trkpt lat="42.7411100" lon="-0.5117010">
    <ele>1371.6</ele>
    <time>2021-07-18T07:30:14Z</time>
   </trkpt>
   <trkpt lat="42.7411130" lon="-0.5116860">
    <ele>1371.6</ele>
    <time>2021-07-18T07:30:15Z</time>
   </trkpt>
   <trkpt lat="42.7411170" lon="-0.5116700">
    <ele>1372.8</ele>
    <time>2021-07-18T07:30:16Z</time>
   </trkpt>
   <trkpt lat="42.7411290" lon="-0.5115580">
    <ele>1374.8</ele>
    <time>2021-07-18T07:30:23Z</time>
   </trkpt>
   <trkpt lat="42.7411380" lon="-0.5114890">
    <ele>1377.6</ele>
    <time>2021-07-18T07:30:27Z</time>
   </trkpt>
   <trkpt lat="42.7411450" lon="-0.5114480">
    <ele>1379.2</ele>
    <time>2021-07-18T07:30:29Z</time>
   </trkpt>
   <trkpt lat="42.7411590" lon="-0.5113940">
    <ele>1380.6</ele>
    <time>2021-07-18T07:30:32Z</time>
   </trkpt>
   <trkpt lat="42.7411720" lon="-0.5113480">
    <ele>1382.3</ele>
    <time>2021-07-18T07:30:35Z</time>
   </trkpt>
   <trkpt lat="42.7411780" lon="-0.5113160">
    <ele>1384.0</ele>
    <time>2021-07-18T07:30:37Z</time>
   </trkpt>
   <trkpt lat="42.7411790" lon="-0.5113000">
    <ele>1384.0</ele>
    <time>2021-07-18T07:30:38Z</time>
   </trkpt>
   <trkpt lat="42.7411640" lon="-0.5112450">
    <ele>1387.1</ele>
    <time>2021-07-18T07:30:41Z</time>
   </trkpt>
   <trkpt lat="42.7411660" lon="-0.5111980">
    <ele>1388.6</ele>
    <time>2021-07-18T07:30:44Z</time>
   </trkpt>
   <trkpt lat="42.7411570" lon="-0.5111890">
    <ele>1388.6</ele>
    <time>2021-07-18T07:30:46Z</time>
   </trkpt>
   <trkpt lat="42.7411540" lon="-0.5112030">
    <ele>1388.6</ele>
    <time>2021-07-18T07:30:48Z</time>
   </trkpt>
   <trkpt lat="42.7411620" lon="-0.5112160">
    <ele>1387.1</ele>
    <time>2021-07-18T07:30:50Z</time>
   </trkpt>
   <trkpt lat="42.7411560" lon="-0.5112400">
    <ele>1387.1</ele>
    <time>2021-07-18T07:30:54Z</time>
   </trkpt>
   <trkpt lat="42.7411540" lon="-0.5112480">
    <ele>1387.1</ele>
    <time>2021-07-18T07:30:55Z</time>
   </trkpt>
   <trkpt lat="42.7411410" lon="-0.5112640">
    <ele>1385.8</ele>
    <time>2021-07-18T07:30:58Z</time>
   </trkpt>
   <trkpt lat="42.7411210" lon="-0.5112560">
    <ele>1385.8</ele>
    <time>2021-07-18T07:31:03Z</time>
   </trkpt>
   <trkpt lat="42.7411340" lon="-0.5112090">
    <ele>1387.3</ele>
    <time>2021-07-18T07:31:09Z</time>
   </trkpt>
   <trkpt lat="42.7411220" lon="-0.5111850">
    <ele>1388.7</ele>
    <time>2021-07-18T07:31:12Z</time>
   </trkpt>
   <trkpt lat="42.7411090" lon="-0.5111800">
    <ele>1389.0</ele>
    <time>2021-07-18T07:31:15Z</time>
   </trkpt>
   <trkpt lat="42.7410880" lon="-0.5111990">
    <ele>1389.0</ele>
    <time>2021-07-18T07:31:18Z</time>
   </trkpt>
   <trkpt lat="42.7410410" lon="-0.5112500">
    <ele>1388.2</ele>
    <time>2021-07-18T07:31:24Z</time>
   </trkpt>
   <trkpt lat="42.7410300" lon="-0.5112610">
    <ele>1386.8</ele>
    <time>2021-07-18T07:31:25Z</time>
   </trkpt>
   <trkpt lat="42.7410190" lon="-0.5112730">
    <ele>1387.2</ele>
    <time>2021-07-18T07:31:26Z</time>
   </trkpt>
   <trkpt lat="42.7410090" lon="-0.5112840">
    <ele>1387.2</ele>
    <time>2021-07-18T07:31:27Z</time>
   </trkpt>
   <trkpt lat="42.7409990" lon="-0.5112930">
    <ele>1387.2</ele>
    <time>2021-07-18T07:31:28Z</time>
   </trkpt>
   <trkpt lat="42.7409100" lon="-0.5113450">
    <ele>1385.7</ele>
    <time>2021-07-18T07:31:38Z</time>
   </trkpt>
   <trkpt lat="42.7409100" lon="-0.5113340">
    <ele>1387.1</ele>
    <time>2021-07-18T07:31:41Z</time>
   </trkpt>
   <trkpt lat="42.7409310" lon="-0.5112790">
    <ele>1388.0</ele>
    <time>2021-07-18T07:31:47Z</time>
   </trkpt>
   <trkpt lat="42.7409390" lon="-0.5112460">
    <ele>1389.4</ele>
    <time>2021-07-18T07:31:49Z</time>
   </trkpt>
   <trkpt lat="42.7409550" lon="-0.5112180">
    <ele>1389.4</ele>
    <time>2021-07-18T07:31:51Z</time>
   </trkpt>
   <trkpt lat="42.7409610" lon="-0.5111790">
    <ele>1390.4</ele>
    <time>2021-07-18T07:31:53Z</time>
   </trkpt>
   <trkpt lat="42.7409590" lon="-0.5111400">
    <ele>1392.2</ele>
    <time>2021-07-18T07:31:55Z</time>
   </trkpt>
   <trkpt lat="42.7409600" lon="-0.5111200">
    <ele>1393.6</ele>
    <time>2021-07-18T07:31:56Z</time>
   </trkpt>
   <trkpt lat="42.7409580" lon="-0.5111010">
    <ele>1393.6</ele>
    <time>2021-07-18T07:31:57Z</time>
   </trkpt>
   <trkpt lat="42.7409470" lon="-0.5110760">
    <ele>1394.9</ele>
    <time>2021-07-18T07:31:59Z</time>
   </trkpt>
   <trkpt lat="42.7409400" lon="-0.5110630">
    <ele>1394.9</ele>
    <time>2021-07-18T07:32:00Z</time>
   </trkpt>
   <trkpt lat="42.7409340" lon="-0.5110500">
    <ele>1394.9</ele>
    <time>2021-07-18T07:32:01Z</time>
   </trkpt>
   <trkpt lat="42.7409240" lon="-0.5110340">
    <ele>1396.8</ele>
    <time>2021-07-18T07:32:02Z</time>
   </trkpt>
   <trkpt lat="42.7409150" lon="-0.5110240">
    <ele>1396.8</ele>
    <time>2021-07-18T07:32:03Z</time>
   </trkpt>
   <trkpt lat="42.7409070" lon="-0.5110090">
    <ele>1396.8</ele>
    <time>2021-07-18T07:32:04Z</time>
   </trkpt>
   <trkpt lat="42.7408700" lon="-0.5109500">
    <ele>1400.2</ele>
    <time>2021-07-18T07:32:09Z</time>
   </trkpt>
   <trkpt lat="42.7408590" lon="-0.5109340">
    <ele>1400.7</ele>
    <time>2021-07-18T07:32:11Z</time>
   </trkpt>
   <trkpt lat="42.7408510" lon="-0.5109140">
    <ele>1400.7</ele>
    <time>2021-07-18T07:32:13Z</time>
   </trkpt>
   <trkpt lat="42.7408300" lon="-0.5108980">
    <ele>1402.8</ele>
    <time>2021-07-18T07:32:16Z</time>
   </trkpt>
   <trkpt lat="42.7408220" lon="-0.5108880">
    <ele>1402.8</ele>
    <time>2021-07-18T07:32:17Z</time>
   </trkpt>
   <trkpt lat="42.7407840" lon="-0.5108410">
    <ele>1404.9</ele>
    <time>2021-07-18T07:32:21Z</time>
   </trkpt>
   <trkpt lat="42.7407600" lon="-0.5108540">
    <ele>1405.4</ele>
    <time>2021-07-18T07:32:24Z</time>
   </trkpt>
   <trkpt lat="42.7407550" lon="-0.5108640">
    <ele>1405.4</ele>
    <time>2021-07-18T07:32:25Z</time>
   </trkpt>
   <trkpt lat="42.7407460" lon="-0.5108890">
    <ele>1404.0</ele>
    <time>2021-07-18T07:32:28Z</time>
   </trkpt>
   <trkpt lat="42.7407580" lon="-0.5109080">
    <ele>1402.5</ele>
    <time>2021-07-18T07:32:31Z</time>
   </trkpt>
   <trkpt lat="42.7407670" lon="-0.5109260">
    <ele>1402.5</ele>
    <time>2021-07-18T07:32:33Z</time>
   </trkpt>
   <trkpt lat="42.7407860" lon="-0.5109560">
    <ele>1400.5</ele>
    <time>2021-07-18T07:32:36Z</time>
   </trkpt>
   <trkpt lat="42.7407920" lon="-0.5110080">
    <ele>1399.2</ele>
    <time>2021-07-18T07:32:42Z</time>
   </trkpt>
   <trkpt lat="42.7407480" lon="-0.5110860">
    <ele>1397.2</ele>
    <time>2021-07-18T07:32:50Z</time>
   </trkpt>
   <trkpt lat="42.7407250" lon="-0.5110450">
    <ele>1399.0</ele>
    <time>2021-07-18T07:32:57Z</time>
   </trkpt>
   <trkpt lat="42.7406990" lon="-0.5109410">
    <ele>1403.6</ele>
    <time>2021-07-18T07:33:07Z</time>
   </trkpt>
   <trkpt lat="42.7406880" lon="-0.5109600">
    <ele>1402.3</ele>
    <time>2021-07-18T07:33:13Z</time>
   </trkpt>
   <trkpt lat="42.7406920" lon="-0.5109740">
    <ele>1402.3</ele>
    <time>2021-07-18T07:33:14Z</time>
   </trkpt>
   <trkpt lat="42.7406860" lon="-0.5110170">
    <ele>1400.9</ele>
    <time>2021-07-18T07:33:17Z</time>
   </trkpt>
   <trkpt lat="42.7406780" lon="-0.5110200">
    <ele>1400.9</ele>
    <time>2021-07-18T07:33:18Z</time>
   </trkpt>
   <trkpt lat="42.7406720" lon="-0.5110130">
    <ele>1401.6</ele>
    <time>2021-07-18T07:33:19Z</time>
   </trkpt>
   <trkpt lat="42.7406680" lon="-0.5110010">
    <ele>1401.6</ele>
    <time>2021-07-18T07:33:20Z</time>
   </trkpt>
   <trkpt lat="42.7406660" lon="-0.5109930">
    <ele>1402.9</ele>
    <time>2021-07-18T07:33:21Z</time>
   </trkpt>
   <trkpt lat="42.7406570" lon="-0.5109780">
    <ele>1402.9</ele>
    <time>2021-07-18T07:33:23Z</time>
   </trkpt>
   <trkpt lat="42.7406460" lon="-0.5109740">
    <ele>1402.9</ele>
    <time>2021-07-18T07:33:24Z</time>
   </trkpt>
   <trkpt lat="42.7406370" lon="-0.5109600">
    <ele>1403.7</ele>
    <time>2021-07-18T07:33:26Z</time>
   </trkpt>
   <trkpt lat="42.7405560" lon="-0.5107400">
    <ele>1412.9</ele>
    <time>2021-07-18T07:33:44Z</time>
   </trkpt>
   <trkpt lat="42.7405480" lon="-0.5106730">
    <ele>1416.7</ele>
    <time>2021-07-18T07:33:50Z</time>
   </trkpt>
   <trkpt lat="42.7405500" lon="-0.5106430">
    <ele>1418.1</ele>
    <time>2021-07-18T07:33:53Z</time>
   </trkpt>
   <trkpt lat="42.7405540" lon="-0.5106310">
    <ele>1417.0</ele>
    <time>2021-07-18T07:33:55Z</time>
   </trkpt>
   <trkpt lat="42.7405610" lon="-0.5106020">
    <ele>1418.4</ele>
    <time>2021-07-18T07:33:57Z</time>
   </trkpt>
   <trkpt lat="42.7405700" lon="-0.5105620">
    <ele>1420.0</ele>
    <time>2021-07-18T07:33:59Z</time>
   </trkpt>
   <trkpt lat="42.7405730" lon="-0.5105390">
    <ele>1420.0</ele>
    <time>2021-07-18T07:34:00Z</time>
   </trkpt>
   <trkpt lat="42.7405750" lon="-0.5105290">
    <ele>1420.0</ele>
    <time>2021-07-18T07:34:01Z</time>
   </trkpt>
   <trkpt lat="42.7405770" lon="-0.5105150">
    <ele>1421.5</ele>
    <time>2021-07-18T07:34:02Z</time>
   </trkpt>
   <trkpt lat="42.7405860" lon="-0.5104920">
    <ele>1420.4</ele>
    <time>2021-07-18T07:34:04Z</time>
   </trkpt>
   <trkpt lat="42.7405960" lon="-0.5104650">
    <ele>1422.0</ele>
    <time>2021-07-18T07:34:06Z</time>
   </trkpt>
   <trkpt lat="42.7406080" lon="-0.5104020">
    <ele>1423.5</ele>
    <time>2021-07-18T07:34:10Z</time>
   </trkpt>
   <trkpt lat="42.7406080" lon="-0.5103840">
    <ele>1425.0</ele>
    <time>2021-07-18T07:34:11Z</time>
   </trkpt>
   <trkpt lat="42.7406060" lon="-0.5103660">
    <ele>1425.0</ele>
    <time>2021-07-18T07:34:12Z</time>
   </trkpt>
   <trkpt lat="42.7406050" lon="-0.5103230">
    <ele>1426.4</ele>
    <time>2021-07-18T07:34:14Z</time>
   </trkpt>
   <trkpt lat="42.7406160" lon="-0.5102310">
    <ele>1428.2</ele>
    <time>2021-07-18T07:34:19Z</time>
   </trkpt>
   <trkpt lat="42.7406640" lon="-0.5100500">
    <ele>1433.3</ele>
    <time>2021-07-18T07:34:31Z</time>
   </trkpt>
   <trkpt lat="42.7406610" lon="-0.5100460">
    <ele>1435.0</ele>
    <time>2021-07-18T07:34:33Z</time>
   </trkpt>
   <trkpt lat="42.7406540" lon="-0.5100580">
    <ele>1433.3</ele>
    <time>2021-07-18T07:34:35Z</time>
   </trkpt>
   <trkpt lat="42.7406430" lon="-0.5100920">
    <ele>1432.5</ele>
    <time>2021-07-18T07:34:37Z</time>
   </trkpt>
   <trkpt lat="42.7406320" lon="-0.5101180">
    <ele>1432.5</ele>
    <time>2021-07-18T07:34:39Z</time>
   </trkpt>
   <trkpt lat="42.7406230" lon="-0.5101490">
    <ele>1431.0</ele>
    <time>2021-07-18T07:34:41Z</time>
   </trkpt>
   <trkpt lat="42.7406190" lon="-0.5101770">
    <ele>1431.0</ele>
    <time>2021-07-18T07:34:43Z</time>
   </trkpt>
   <trkpt lat="42.7406080" lon="-0.5102120">
    <ele>1430.5</ele>
    <time>2021-07-18T07:34:46Z</time>
   </trkpt>
   <trkpt lat="42.7405990" lon="-0.5102390">
    <ele>1429.2</ele>
    <time>2021-07-18T07:34:49Z</time>
   </trkpt>
   <trkpt lat="42.7405790" lon="-0.5102710">
    <ele>1428.8</ele>
    <time>2021-07-18T07:34:54Z</time>
   </trkpt>
   <trkpt lat="42.7405670" lon="-0.5102510">
    <ele>1430.2</ele>
    <time>2021-07-18T07:34:57Z</time>
   </trkpt>
   <trkpt lat="42.7405600" lon="-0.5101830">
    <ele>1431.5</ele>
    <time>2021-07-18T07:35:04Z</time>
   </trkpt>
   <trkpt lat="42.7405470" lon="-0.5101130">
    <ele>1435.5</ele>
    <time>2021-07-18T07:35:12Z</time>
   </trkpt>
   <trkpt lat="42.7405590" lon="-0.5100820">
    <ele>1436.0</ele>
    <time>2021-07-18T07:35:15Z</time>
   </trkpt>
   <trkpt lat="42.7405610" lon="-0.5100410">
    <ele>1437.7</ele>
    <time>2021-07-18T07:35:20Z</time>
   </trkpt>
   <trkpt lat="42.7405720" lon="-0.5099980">
    <ele>1439.4</ele>
    <time>2021-07-18T07:35:23Z</time>
   </trkpt>
   <trkpt lat="42.7405830" lon="-0.5099480">
    <ele>1440.1</ele>
    <time>2021-07-18T07:35:27Z</time>
   </trkpt>
   <trkpt lat="42.7405810" lon="-0.5099010">
    <ele>1442.8</ele>
    <time>2021-07-18T07:35:30Z</time>
   </trkpt>
   <trkpt lat="42.7405540" lon="-0.5098460">
    <ele>1444.4</ele>
    <time>2021-07-18T07:35:35Z</time>
   </trkpt>
   <trkpt lat="42.7405540" lon="-0.5098550">
    <ele>1444.4</ele>
    <time>2021-07-18T07:35:38Z</time>
   </trkpt>
   <trkpt lat="42.7405390" lon="-0.5100020">
    <ele>1440.5</ele>
    <time>2021-07-18T07:35:49Z</time>
   </trkpt>
   <trkpt lat="42.7405260" lon="-0.5100260">
    <ele>1438.8</ele>
    <time>2021-07-18T07:35:51Z</time>
   </trkpt>
   <trkpt lat="42.7405270" lon="-0.5100400">
    <ele>1438.8</ele>
    <time>2021-07-18T07:35:52Z</time>
   </trkpt>
   <trkpt lat="42.7405200" lon="-0.5100610">
    <ele>1437.1</ele>
    <time>2021-07-18T07:35:54Z</time>
   </trkpt>
   <trkpt lat="42.7405040" lon="-0.5100790">
    <ele>1438.1</ele>
    <time>2021-07-18T07:35:56Z</time>
   </trkpt>
   <trkpt lat="42.7404890" lon="-0.5101090">
    <ele>1436.5</ele>
    <time>2021-07-18T07:35:59Z</time>
   </trkpt>
   <trkpt lat="42.7404850" lon="-0.5101410">
    <ele>1436.1</ele>
    <time>2021-07-18T07:36:02Z</time>
   </trkpt>
   <trkpt lat="42.7404700" lon="-0.5101890">
    <ele>1434.6</ele>
    <time>2021-07-18T07:36:07Z</time>
   </trkpt>
   <trkpt lat="42.7404440" lon="-0.5102590">
    <ele>1434.2</ele>
    <time>2021-07-18T07:36:13Z</time>
   </trkpt>
   <trkpt lat="42.7404320" lon="-0.5102550">
    <ele>1434.2</ele>
    <time>2021-07-18T07:36:15Z</time>
   </trkpt>
   <trkpt lat="42.7404230" lon="-0.5102230">
    <ele>1435.2</ele>
    <time>2021-07-18T07:36:19Z</time>
   </trkpt>
   <trkpt lat="42.7404150" lon="-0.5101850">
    <ele>1436.7</ele>
    <time>2021-07-18T07:36:22Z</time>
   </trkpt>
   <trkpt lat="42.7404360" lon="-0.5101360">
    <ele>1437.1</ele>
    <time>2021-07-18T07:36:26Z</time>
   </trkpt>
   <trkpt lat="42.7404600" lon="-0.5101010">
    <ele>1437.6</ele>
    <time>2021-07-18T07:36:29Z</time>
   </trkpt>
   <trkpt lat="42.7404810" lon="-0.5100700">
    <ele>1439.2</ele>
    <time>2021-07-18T07:36:33Z</time>
   </trkpt>
   <trkpt lat="42.7404760" lon="-0.5100420">
    <ele>1441.0</ele>
    <time>2021-07-18T07:36:37Z</time>
   </trkpt>
   <trkpt lat="42.7404640" lon="-0.5100550">
    <ele>1439.2</ele>
    <time>2021-07-18T07:36:39Z</time>
   </trkpt>
   <trkpt lat="42.7404090" lon="-0.5101040">
    <ele>1439.8</ele>
    <time>2021-07-18T07:36:47Z</time>
   </trkpt>
   <trkpt lat="42.7404020" lon="-0.5101120">
    <ele>1439.8</ele>
    <time>2021-07-18T07:36:48Z</time>
   </trkpt>
   <trkpt lat="42.7403970" lon="-0.5101210">
    <ele>1439.8</ele>
    <time>2021-07-18T07:36:49Z</time>
   </trkpt>
   <trkpt lat="42.7403930" lon="-0.5101330">
    <ele>1441.1</ele>
    <time>2021-07-18T07:36:50Z</time>
   </trkpt>
   <trkpt lat="42.7403890" lon="-0.5101430">
    <ele>1439.5</ele>
    <time>2021-07-18T07:36:51Z</time>
   </trkpt>
   <trkpt lat="42.7403850" lon="-0.5101520">
    <ele>1439.5</ele>
    <time>2021-07-18T07:36:52Z</time>
   </trkpt>
   <trkpt lat="42.7403730" lon="-0.5101640">
    <ele>1439.5</ele>
    <time>2021-07-18T07:36:54Z</time>
   </trkpt>
   <trkpt lat="42.7403340" lon="-0.5101300">
    <ele>1442.5</ele>
    <time>2021-07-18T07:37:02Z</time>
   </trkpt>
   <trkpt lat="42.7403390" lon="-0.5101180">
    <ele>1442.5</ele>
    <time>2021-07-18T07:37:04Z</time>
   </trkpt>
   <trkpt lat="42.7403390" lon="-0.5100970">
    <ele>1442.5</ele>
    <time>2021-07-18T07:37:06Z</time>
   </trkpt>
   <trkpt lat="42.7403400" lon="-0.5100780">
    <ele>1444.3</ele>
    <time>2021-07-18T07:37:08Z</time>
   </trkpt>
   <trkpt lat="42.7403490" lon="-0.5100610">
    <ele>1444.3</ele>
    <time>2021-07-18T07:37:10Z</time>
   </trkpt>
   <trkpt lat="42.7403480" lon="-0.5100480">
    <ele>1446.2</ele>
    <time>2021-07-18T07:37:12Z</time>
   </trkpt>
   <trkpt lat="42.7403510" lon="-0.5100520">
    <ele>1444.3</ele>
    <time>2021-07-18T07:37:14Z</time>
   </trkpt>
   <trkpt lat="42.7403470" lon="-0.5100520">
    <ele>1444.3</ele>
    <time>2021-07-18T07:37:15Z</time>
   </trkpt>
   <trkpt lat="42.7403470" lon="-0.5100660">
    <ele>1444.3</ele>
    <time>2021-07-18T07:37:18Z</time>
   </trkpt>
   <trkpt lat="42.7403460" lon="-0.5100810">
    <ele>1444.3</ele>
    <time>2021-07-18T07:37:21Z</time>
   </trkpt>
   <trkpt lat="42.7403470" lon="-0.5100840">
    <ele>1444.3</ele>
    <time>2021-07-18T07:37:22Z</time>
   </trkpt>
   <trkpt lat="42.7403440" lon="-0.5101160">
    <ele>1442.5</ele>
    <time>2021-07-18T07:37:26Z</time>
   </trkpt>
   <trkpt lat="42.7403080" lon="-0.5100830">
    <ele>1445.9</ele>
    <time>2021-07-18T07:37:32Z</time>
   </trkpt>
   <trkpt lat="42.7403020" lon="-0.5100620">
    <ele>1445.9</ele>
    <time>2021-07-18T07:37:36Z</time>
   </trkpt>
   <trkpt lat="42.7403210" lon="-0.5100390">
    <ele>1447.8</ele>
    <time>2021-07-18T07:37:38Z</time>
   </trkpt>
   <trkpt lat="42.7403210" lon="-0.5100310">
    <ele>1447.8</ele>
    <time>2021-07-18T07:37:39Z</time>
   </trkpt>
   <trkpt lat="42.7403230" lon="-0.5100240">
    <ele>1447.8</ele>
    <time>2021-07-18T07:37:40Z</time>
   </trkpt>
   <trkpt lat="42.7403260" lon="-0.5100170">
    <ele>1447.8</ele>
    <time>2021-07-18T07:37:41Z</time>
   </trkpt>
   <trkpt lat="42.7403260" lon="-0.5100060">
    <ele>1447.8</ele>
    <time>2021-07-18T07:37:42Z</time>
   </trkpt>
   <trkpt lat="42.7403220" lon="-0.5100020">
    <ele>1449.7</ele>
    <time>2021-07-18T07:37:43Z</time>
   </trkpt>
   <trkpt lat="42.7403620" lon="-0.5099280">
    <ele>1450.0</ele>
    <time>2021-07-18T07:37:52Z</time>
   </trkpt>
   <trkpt lat="42.7403690" lon="-0.5098930">
    <ele>1450.2</ele>
    <time>2021-07-18T07:37:55Z</time>
   </trkpt>
   <trkpt lat="42.7402020" lon="-0.5099280">
    <ele>1458.8</ele>
    <time>2021-07-18T07:38:23Z</time>
   </trkpt>
   <trkpt lat="42.7401520" lon="-0.5099150">
    <ele>1462.5</ele>
    <time>2021-07-18T07:38:27Z</time>
   </trkpt>
   <trkpt lat="42.7401520" lon="-0.5099150">
    <ele>1462.5</ele>
    <time>2021-07-18T07:38:41Z</time>
   </trkpt>
   <trkpt lat="42.7401520" lon="-0.5102050">
    <ele>1448.7</ele>
    <time>2021-07-18T07:38:44Z</time>
   </trkpt>
   <trkpt lat="42.7401040" lon="-0.5102480">
    <ele>1450.5</ele>
    <time>2021-07-18T07:38:47Z</time>
   </trkpt>
   <trkpt lat="42.7401080" lon="-0.5102580">
    <ele>1450.5</ele>
    <time>2021-07-18T07:38:48Z</time>
   </trkpt>
   <trkpt lat="42.7401130" lon="-0.5102700">
    <ele>1447.0</ele>
    <time>2021-07-18T07:38:49Z</time>
   </trkpt>
   <trkpt lat="42.7401240" lon="-0.5103020">
    <ele>1447.0</ele>
    <time>2021-07-18T07:38:52Z</time>
   </trkpt>
   <trkpt lat="42.7401250" lon="-0.5103120">
    <ele>1445.3</ele>
    <time>2021-07-18T07:38:53Z</time>
   </trkpt>
   <trkpt lat="42.7401220" lon="-0.5103370">
    <ele>1445.3</ele>
    <time>2021-07-18T07:38:55Z</time>
   </trkpt>
   <trkpt lat="42.7400920" lon="-0.5103740">
    <ele>1445.6</ele>
    <time>2021-07-18T07:39:00Z</time>
   </trkpt>
   <trkpt lat="42.7400650" lon="-0.5104050">
    <ele>1446.2</ele>
    <time>2021-07-18T07:39:04Z</time>
   </trkpt>
   <trkpt lat="42.7400620" lon="-0.5104310">
    <ele>1446.2</ele>
    <time>2021-07-18T07:39:06Z</time>
   </trkpt>
   <trkpt lat="42.7400700" lon="-0.5105120">
    <ele>1443.1</ele>
    <time>2021-07-18T07:39:13Z</time>
   </trkpt>
   <trkpt lat="42.7400680" lon="-0.5105230">
    <ele>1441.5</ele>
    <time>2021-07-18T07:39:14Z</time>
   </trkpt>
   <trkpt lat="42.7400610" lon="-0.5105310">
    <ele>1441.5</ele>
    <time>2021-07-18T07:39:15Z</time>
   </trkpt>
   <trkpt lat="42.7400540" lon="-0.5105370">
    <ele>1441.5</ele>
    <time>2021-07-18T07:39:16Z</time>
   </trkpt>
   <trkpt lat="42.7400470" lon="-0.5105400">
    <ele>1441.5</ele>
    <time>2021-07-18T07:39:17Z</time>
   </trkpt>
   <trkpt lat="42.7400410" lon="-0.5105470">
    <ele>1444.2</ele>
    <time>2021-07-18T07:39:18Z</time>
   </trkpt>
   <trkpt lat="42.7400350" lon="-0.5105560">
    <ele>1444.2</ele>
    <time>2021-07-18T07:39:19Z</time>
   </trkpt>
   <trkpt lat="42.7400260" lon="-0.5105640">
    <ele>1442.8</ele>
    <time>2021-07-18T07:39:20Z</time>
   </trkpt>
   <trkpt lat="42.7399990" lon="-0.5106330">
    <ele>1444.6</ele>
    <time>2021-07-18T07:39:26Z</time>
   </trkpt>
   <trkpt lat="42.7399760" lon="-0.5106500">
    <ele>1446.8</ele>
    <time>2021-07-18T07:39:29Z</time>
   </trkpt>
   <trkpt lat="42.7399390" lon="-0.5106750">
    <ele>1450.3</ele>
    <time>2021-07-18T07:39:34Z</time>
   </trkpt>
   <trkpt lat="42.7399330" lon="-0.5106800">
    <ele>1450.3</ele>
    <time>2021-07-18T07:39:35Z</time>
   </trkpt>
   <trkpt lat="42.7399080" lon="-0.5106970">
    <ele>1452.9</ele>
    <time>2021-07-18T07:39:38Z</time>
   </trkpt>
   <trkpt lat="42.7397940" lon="-0.5107280">
    <ele>1468.1</ele>
    <time>2021-07-18T07:39:48Z</time>
   </trkpt>
   <trkpt lat="42.7396920" lon="-0.5107290">
    <ele>1479.7</ele>
    <time>2021-07-18T07:39:56Z</time>
   </trkpt>
   <trkpt lat="42.7396390" lon="-0.5107300">
    <ele>1483.0</ele>
    <time>2021-07-18T07:40:02Z</time>
   </trkpt>
   <trkpt lat="42.7396350" lon="-0.5107200">
    <ele>1485.6</ele>
    <time>2021-07-18T07:40:04Z</time>
   </trkpt>
   <trkpt lat="42.7396660" lon="-0.5107020">
    <ele>1483.0</ele>
    <time>2021-07-18T07:40:10Z</time>
   </trkpt>
   <trkpt lat="42.7397030" lon="-0.5106670">
    <ele>1476.6</ele>
    <time>2021-07-18T07:40:14Z</time>
   </trkpt>
   <trkpt lat="42.7397490" lon="-0.5106130">
    <ele>1473.5</ele>
    <time>2021-07-18T07:40:20Z</time>
   </trkpt>
   <trkpt lat="42.7396750" lon="-0.5105910">
    <ele>1481.7</ele>
    <time>2021-07-18T07:40:32Z</time>
   </trkpt>
   <trkpt lat="42.7396380" lon="-0.5105850">
    <ele>1484.9</ele>
    <time>2021-07-18T07:40:36Z</time>
   </trkpt>
   <trkpt lat="42.7396290" lon="-0.5105630">
    <ele>1488.4</ele>
    <time>2021-07-18T07:40:40Z</time>
   </trkpt>
   <trkpt lat="42.7397190" lon="-0.5104970">
    <ele>1480.4</ele>
    <time>2021-07-18T07:40:53Z</time>
   </trkpt>
   <trkpt lat="42.7397230" lon="-0.5104890">
    <ele>1480.4</ele>
    <time>2021-07-18T07:40:54Z</time>
   </trkpt>
   <trkpt lat="42.7397340" lon="-0.5104830">
    <ele>1476.8</ele>
    <time>2021-07-18T07:40:55Z</time>
   </trkpt>
   <trkpt lat="42.7397370" lon="-0.5104770">
    <ele>1477.8</ele>
    <time>2021-07-18T07:40:56Z</time>
   </trkpt>
   <trkpt lat="42.7397470" lon="-0.5104670">
    <ele>1477.8</ele>
    <time>2021-07-18T07:40:57Z</time>
   </trkpt>
   <trkpt lat="42.7397700" lon="-0.5104400">
    <ele>1474.1</ele>
    <time>2021-07-18T07:40:59Z</time>
   </trkpt>
   <trkpt lat="42.7397940" lon="-0.5104110">
    <ele>1475.0</ele>
    <time>2021-07-18T07:41:01Z</time>
   </trkpt>
   <trkpt lat="42.7397990" lon="-0.5103800">
    <ele>1472.2</ele>
    <time>2021-07-18T07:41:04Z</time>
   </trkpt>
   <trkpt lat="42.7397920" lon="-0.5103730">
    <ele>1475.8</ele>
    <time>2021-07-18T07:41:05Z</time>
   </trkpt>
   <trkpt lat="42.7397860" lon="-0.5103710">
    <ele>1475.8</ele>
    <time>2021-07-18T07:41:06Z</time>
   </trkpt>
   <trkpt lat="42.7397810" lon="-0.5103680">
    <ele>1475.8</ele>
    <time>2021-07-18T07:41:07Z</time>
   </trkpt>
   <trkpt lat="42.7397730" lon="-0.5103660">
    <ele>1475.8</ele>
    <time>2021-07-18T07:41:08Z</time>
   </trkpt>
   <trkpt lat="42.7397640" lon="-0.5103630">
    <ele>1475.8</ele>
    <time>2021-07-18T07:41:09Z</time>
   </trkpt>
   <trkpt lat="42.7397590" lon="-0.5103630">
    <ele>1479.4</ele>
    <time>2021-07-18T07:41:10Z</time>
   </trkpt>
   <trkpt lat="42.7397530" lon="-0.5103650">
    <ele>1479.4</ele>
    <time>2021-07-18T07:41:11Z</time>
   </trkpt>
   <trkpt lat="42.7397460" lon="-0.5103640">
    <ele>1479.4</ele>
    <time>2021-07-18T07:41:12Z</time>
   </trkpt>
   <trkpt lat="42.7397410" lon="-0.5103630">
    <ele>1479.4</ele>
    <time>2021-07-18T07:41:13Z</time>
   </trkpt>
   <trkpt lat="42.7397310" lon="-0.5103610">
    <ele>1483.1</ele>
    <time>2021-07-18T07:41:14Z</time>
   </trkpt>
   <trkpt lat="42.7397240" lon="-0.5103620">
    <ele>1483.1</ele>
    <time>2021-07-18T07:41:15Z</time>
   </trkpt>
   <trkpt lat="42.7396850" lon="-0.5103450">
    <ele>1487.3</ele>
    <time>2021-07-18T07:41:22Z</time>
   </trkpt>
   <trkpt lat="42.7395130" lon="-0.5104010">
    <ele>1496.0</ele>
    <time>2021-07-18T07:41:47Z</time>
   </trkpt>
   <trkpt lat="42.7395380" lon="-0.5103620">
    <ele>1497.0</ele>
    <time>2021-07-18T07:41:53Z</time>
   </trkpt>
   <trkpt lat="42.7395710" lon="-0.5103050">
    <ele>1497.6</ele>
    <time>2021-07-18T07:42:00Z</time>
   </trkpt>
   <trkpt lat="42.7395750" lon="-0.5102970">
    <ele>1496.1</ele>
    <time>2021-07-18T07:42:01Z</time>
   </trkpt>
   <trkpt lat="42.7395750" lon="-0.5102870">
    <ele>1496.1</ele>
    <time>2021-07-18T07:42:02Z</time>
   </trkpt>
   <trkpt lat="42.7395810" lon="-0.5102790">
    <ele>1496.1</ele>
    <time>2021-07-18T07:42:03Z</time>
   </trkpt>
   <trkpt lat="42.7396570" lon="-0.5101850">
    <ele>1493.0</ele>
    <time>2021-07-18T07:42:16Z</time>
   </trkpt>
   <trkpt lat="42.7395760" lon="-0.5101880">
    <ele>1498.0</ele>
    <time>2021-07-18T07:42:27Z</time>
   </trkpt>
   <trkpt lat="42.7395740" lon="-0.5101810">
    <ele>1499.7</ele>
    <time>2021-07-18T07:42:40Z</time>
   </trkpt>
   <trkpt lat="42.7395870" lon="-0.5101670">
    <ele>1499.3</ele>
    <time>2021-07-18T07:42:42Z</time>
   </trkpt>
   <trkpt lat="42.7395950" lon="-0.5101550">
    <ele>1499.3</ele>
    <time>2021-07-18T07:42:43Z</time>
   </trkpt>
   <trkpt lat="42.7396630" lon="-0.5100200">
    <ele>1499.1</ele>
    <time>2021-07-18T07:42:54Z</time>
   </trkpt>
   <trkpt lat="42.7396640" lon="-0.5100120">
    <ele>1499.1</ele>
    <time>2021-07-18T07:42:55Z</time>
   </trkpt>
   <trkpt lat="42.7396480" lon="-0.5100020">
    <ele>1501.0</ele>
    <time>2021-07-18T07:43:00Z</time>
   </trkpt>
   <trkpt lat="42.7396430" lon="-0.5100030">
    <ele>1501.0</ele>
    <time>2021-07-18T07:43:01Z</time>
   </trkpt>
   <trkpt lat="42.7396380" lon="-0.5100000">
    <ele>1501.0</ele>
    <time>2021-07-18T07:43:02Z</time>
   </trkpt>
   <trkpt lat="42.7396320" lon="-0.5100000">
    <ele>1503.9</ele>
    <time>2021-07-18T07:43:03Z</time>
   </trkpt>
   <trkpt lat="42.7396080" lon="-0.5100030">
    <ele>1503.9</ele>
    <time>2021-07-18T07:43:05Z</time>
   </trkpt>
   <trkpt lat="42.7395860" lon="-0.5100150">
    <ele>1504.3</ele>
    <time>2021-07-18T07:43:08Z</time>
   </trkpt>
   <trkpt lat="42.7395760" lon="-0.5100140">
    <ele>1504.3</ele>
    <time>2021-07-18T07:43:09Z</time>
   </trkpt>
   <trkpt lat="42.7395590" lon="-0.5100180">
    <ele>1506.1</ele>
    <time>2021-07-18T07:43:11Z</time>
   </trkpt>
   <trkpt lat="42.7395010" lon="-0.5100340">
    <ele>1508.8</ele>
    <time>2021-07-18T07:43:19Z</time>
   </trkpt>
   <trkpt lat="42.7394970" lon="-0.5100270">
    <ele>1508.8</ele>
    <time>2021-07-18T07:43:20Z</time>
   </trkpt>
   <trkpt lat="42.7394980" lon="-0.5100200">
    <ele>1508.8</ele>
    <time>2021-07-18T07:43:21Z</time>
   </trkpt>
   <trkpt lat="42.7395020" lon="-0.5100130">
    <ele>1508.8</ele>
    <time>2021-07-18T07:43:22Z</time>
   </trkpt>
   <trkpt lat="42.7395070" lon="-0.5100070">
    <ele>1508.8</ele>
    <time>2021-07-18T07:43:23Z</time>
   </trkpt>
   <trkpt lat="42.7395780" lon="-0.5099470">
    <ele>1507.9</ele>
    <time>2021-07-18T07:43:32Z</time>
   </trkpt>
   <trkpt lat="42.7396400" lon="-0.5098120">
    <ele>1505.6</ele>
    <time>2021-07-18T07:43:44Z</time>
   </trkpt>
   <trkpt lat="42.7396380" lon="-0.5097890">
    <ele>1505.9</ele>
    <time>2021-07-18T07:43:47Z</time>
   </trkpt>
   <trkpt lat="42.7396390" lon="-0.5097690">
    <ele>1505.9</ele>
    <time>2021-07-18T07:43:49Z</time>
   </trkpt>
   <trkpt lat="42.7396430" lon="-0.5097630">
    <ele>1505.9</ele>
    <time>2021-07-18T07:43:50Z</time>
   </trkpt>
   <trkpt lat="42.7396560" lon="-0.5097440">
    <ele>1506.1</ele>
    <time>2021-07-18T07:43:53Z</time>
   </trkpt>
   <trkpt lat="42.7396670" lon="-0.5096320">
    <ele>1506.7</ele>
    <time>2021-07-18T07:44:02Z</time>
   </trkpt>
   <trkpt lat="42.7396720" lon="-0.5096180">
    <ele>1504.9</ele>
    <time>2021-07-18T07:44:04Z</time>
   </trkpt>
   <trkpt lat="42.7396770" lon="-0.5093850">
    <ele>1513.2</ele>
    <time>2021-07-18T07:44:29Z</time>
   </trkpt>
   <trkpt lat="42.7396710" lon="-0.5094030">
    <ele>1513.2</ele>
    <time>2021-07-18T07:44:33Z</time>
   </trkpt>
   <trkpt lat="42.7396820" lon="-0.5094600">
    <ele>1509.2</ele>
    <time>2021-07-18T07:44:41Z</time>
   </trkpt>
   <trkpt lat="42.7396590" lon="-0.5094580">
    <ele>1511.6</ele>
    <time>2021-07-18T07:44:44Z</time>
   </trkpt>
   <trkpt lat="42.7396530" lon="-0.5094550">
    <ele>1511.6</ele>
    <time>2021-07-18T07:44:45Z</time>
   </trkpt>
   <trkpt lat="42.7396420" lon="-0.5094210">
    <ele>1513.6</ele>
    <time>2021-07-18T07:44:48Z</time>
   </trkpt>
   <trkpt lat="42.7396390" lon="-0.5092630">
    <ele>1522.1</ele>
    <time>2021-07-18T07:45:01Z</time>
   </trkpt>
   <trkpt lat="42.7396610" lon="-0.5091920">
    <ele>1524.3</ele>
    <time>2021-07-18T07:45:08Z</time>
   </trkpt>
   <trkpt lat="42.7396560" lon="-0.5091930">
    <ele>1524.3</ele>
    <time>2021-07-18T07:45:10Z</time>
   </trkpt>
   <trkpt lat="42.7396430" lon="-0.5092030">
    <ele>1524.3</ele>
    <time>2021-07-18T07:45:13Z</time>
   </trkpt>
   <trkpt lat="42.7396220" lon="-0.5092250">
    <ele>1526.9</ele>
    <time>2021-07-18T07:45:18Z</time>
   </trkpt>
   <trkpt lat="42.7396210" lon="-0.5092530">
    <ele>1524.7</ele>
    <time>2021-07-18T07:45:21Z</time>
   </trkpt>
   <trkpt lat="42.7395790" lon="-0.5093080">
    <ele>1524.8</ele>
    <time>2021-07-18T07:45:29Z</time>
   </trkpt>
   <trkpt lat="42.7395630" lon="-0.5093230">
    <ele>1524.8</ele>
    <time>2021-07-18T07:45:31Z</time>
   </trkpt>
   <trkpt lat="42.7395580" lon="-0.5093270">
    <ele>1524.8</ele>
    <time>2021-07-18T07:45:32Z</time>
   </trkpt>
   <trkpt lat="42.7395400" lon="-0.5093390">
    <ele>1527.2</ele>
    <time>2021-07-18T07:45:34Z</time>
   </trkpt>
   <trkpt lat="42.7394520" lon="-0.5093780">
    <ele>1530.6</ele>
    <time>2021-07-18T07:45:43Z</time>
   </trkpt>
   <trkpt lat="42.7394250" lon="-0.5093990">
    <ele>1533.7</ele>
    <time>2021-07-18T07:45:46Z</time>
   </trkpt>
   <trkpt lat="42.7393410" lon="-0.5094200">
    <ele>1540.6</ele>
    <time>2021-07-18T07:45:55Z</time>
   </trkpt>
   <trkpt lat="42.7393180" lon="-0.5094210">
    <ele>1543.4</ele>
    <time>2021-07-18T07:45:57Z</time>
   </trkpt>
   <trkpt lat="42.7393060" lon="-0.5094210">
    <ele>1543.4</ele>
    <time>2021-07-18T07:45:58Z</time>
   </trkpt>
   <trkpt lat="42.7392830" lon="-0.5094210">
    <ele>1546.1</ele>
    <time>2021-07-18T07:46:01Z</time>
   </trkpt>
   <trkpt lat="42.7392280" lon="-0.5094110">
    <ele>1549.0</ele>
    <time>2021-07-18T07:46:08Z</time>
   </trkpt>
   <trkpt lat="42.7391780" lon="-0.5094320">
    <ele>1555.1</ele>
    <time>2021-07-18T07:46:13Z</time>
   </trkpt>
   <trkpt lat="42.7392060" lon="-0.5094060">
    <ele>1552.0</ele>
    <time>2021-07-18T07:46:18Z</time>
   </trkpt>
   <trkpt lat="42.7392330" lon="-0.5093900">
    <ele>1551.1</ele>
    <time>2021-07-18T07:46:21Z</time>
   </trkpt>
   <trkpt lat="42.7392580" lon="-0.5093380">
    <ele>1553.2</ele>
    <time>2021-07-18T07:46:26Z</time>
   </trkpt>
   <trkpt lat="42.7392680" lon="-0.5093260">
    <ele>1550.4</ele>
    <time>2021-07-18T07:46:28Z</time>
   </trkpt>
   <trkpt lat="42.7392910" lon="-0.5092740">
    <ele>1552.0</ele>
    <time>2021-07-18T07:46:34Z</time>
   </trkpt>
   <trkpt lat="42.7392890" lon="-0.5092440">
    <ele>1554.6</ele>
    <time>2021-07-18T07:46:39Z</time>
   </trkpt>
   <trkpt lat="42.7392760" lon="-0.5092360">
    <ele>1554.6</ele>
    <time>2021-07-18T07:46:41Z</time>
   </trkpt>
   <trkpt lat="42.7392680" lon="-0.5092300">
    <ele>1556.9</ele>
    <time>2021-07-18T07:46:42Z</time>
   </trkpt>
   <trkpt lat="42.7392400" lon="-0.5092410">
    <ele>1557.4</ele>
    <time>2021-07-18T07:46:45Z</time>
   </trkpt>
   <trkpt lat="42.7392330" lon="-0.5092420">
    <ele>1557.4</ele>
    <time>2021-07-18T07:46:46Z</time>
   </trkpt>
   <trkpt lat="42.7392280" lon="-0.5092470">
    <ele>1557.4</ele>
    <time>2021-07-18T07:46:47Z</time>
   </trkpt>
   <trkpt lat="42.7392230" lon="-0.5092470">
    <ele>1560.4</ele>
    <time>2021-07-18T07:46:48Z</time>
   </trkpt>
   <trkpt lat="42.7392190" lon="-0.5092430">
    <ele>1560.4</ele>
    <time>2021-07-18T07:46:49Z</time>
   </trkpt>
   <trkpt lat="42.7392170" lon="-0.5092370">
    <ele>1560.4</ele>
    <time>2021-07-18T07:46:50Z</time>
   </trkpt>
   <trkpt lat="42.7392100" lon="-0.5092440">
    <ele>1560.4</ele>
    <time>2021-07-18T07:46:51Z</time>
   </trkpt>
   <trkpt lat="42.7391970" lon="-0.5092490">
    <ele>1560.4</ele>
    <time>2021-07-18T07:46:53Z</time>
   </trkpt>
   <trkpt lat="42.7391830" lon="-0.5092470">
    <ele>1563.5</ele>
    <time>2021-07-18T07:46:55Z</time>
   </trkpt>
   <trkpt lat="42.7391820" lon="-0.5092370">
    <ele>1563.5</ele>
    <time>2021-07-18T07:47:01Z</time>
   </trkpt>
   <trkpt lat="42.7392000" lon="-0.5092060">
    <ele>1562.7</ele>
    <time>2021-07-18T07:47:06Z</time>
   </trkpt>
   <trkpt lat="42.7392310" lon="-0.5091360">
    <ele>1564.6</ele>
    <time>2021-07-18T07:47:12Z</time>
   </trkpt>
   <trkpt lat="42.7392570" lon="-0.5091190">
    <ele>1564.6</ele>
    <time>2021-07-18T07:47:15Z</time>
   </trkpt>
   <trkpt lat="42.7391460" lon="-0.5090840">
    <ele>1575.7</ele>
    <time>2021-07-18T07:47:38Z</time>
   </trkpt>
   <trkpt lat="42.7392470" lon="-0.5089560">
    <ele>1574.1</ele>
    <time>2021-07-18T07:48:03Z</time>
   </trkpt>
   <trkpt lat="42.7393710" lon="-0.5087810">
    <ele>1572.8</ele>
    <time>2021-07-18T07:48:20Z</time>
   </trkpt>
   <trkpt lat="42.7393660" lon="-0.5087680">
    <ele>1572.8</ele>
    <time>2021-07-18T07:48:22Z</time>
   </trkpt>
   <trkpt lat="42.7393390" lon="-0.5087950">
    <ele>1575.4</ele>
    <time>2021-07-18T07:48:28Z</time>
   </trkpt>
   <trkpt lat="42.7393330" lon="-0.5087950">
    <ele>1575.4</ele>
    <time>2021-07-18T07:48:29Z</time>
   </trkpt>
   <trkpt lat="42.7393190" lon="-0.5087970">
    <ele>1577.8</ele>
    <time>2021-07-18T07:48:31Z</time>
   </trkpt>
   <trkpt lat="42.7393110" lon="-0.5087980">
    <ele>1577.8</ele>
    <time>2021-07-18T07:48:32Z</time>
   </trkpt>
   <trkpt lat="42.7392910" lon="-0.5088030">
    <ele>1577.8</ele>
    <time>2021-07-18T07:48:34Z</time>
   </trkpt>
   <trkpt lat="42.7392590" lon="-0.5088010">
    <ele>1580.1</ele>
    <time>2021-07-18T07:48:37Z</time>
   </trkpt>
   <trkpt lat="42.7392250" lon="-0.5088010">
    <ele>1585.1</ele>
    <time>2021-07-18T07:48:43Z</time>
   </trkpt>
   <trkpt lat="42.7392030" lon="-0.5087960">
    <ele>1585.1</ele>
    <time>2021-07-18T07:48:46Z</time>
   </trkpt>
   <trkpt lat="42.7391740" lon="-0.5087990">
    <ele>1587.7</ele>
    <time>2021-07-18T07:48:49Z</time>
   </trkpt>
   <trkpt lat="42.7390300" lon="-0.5087520">
    <ele>1600.3</ele>
    <time>2021-07-18T07:49:05Z</time>
   </trkpt>
   <trkpt lat="42.7390340" lon="-0.5087390">
    <ele>1600.3</ele>
    <time>2021-07-18T07:49:06Z</time>
   </trkpt>
   <trkpt lat="42.7390360" lon="-0.5087250">
    <ele>1600.3</ele>
    <time>2021-07-18T07:49:08Z</time>
   </trkpt>
   <trkpt lat="42.7390820" lon="-0.5086560">
    <ele>1600.4</ele>
    <time>2021-07-18T07:49:15Z</time>
   </trkpt>
   <trkpt lat="42.7390960" lon="-0.5086430">
    <ele>1600.4</ele>
    <time>2021-07-18T07:49:17Z</time>
   </trkpt>
   <trkpt lat="42.7391330" lon="-0.5086240">
    <ele>1598.2</ele>
    <time>2021-07-18T07:49:22Z</time>
   </trkpt>
   <trkpt lat="42.7391460" lon="-0.5086120">
    <ele>1598.2</ele>
    <time>2021-07-18T07:49:24Z</time>
   </trkpt>
   <trkpt lat="42.7391760" lon="-0.5085920">
    <ele>1595.8</ele>
    <time>2021-07-18T07:49:27Z</time>
   </trkpt>
   <trkpt lat="42.7391840" lon="-0.5085580">
    <ele>1597.7</ele>
    <time>2021-07-18T07:49:31Z</time>
   </trkpt>
   <trkpt lat="42.7391610" lon="-0.5085550">
    <ele>1600.1</ele>
    <time>2021-07-18T07:49:35Z</time>
   </trkpt>
   <trkpt lat="42.7390890" lon="-0.5085470">
    <ele>1604.3</ele>
    <time>2021-07-18T07:49:42Z</time>
   </trkpt>
   <trkpt lat="42.7390470" lon="-0.5085130">
    <ele>1607.8</ele>
    <time>2021-07-18T07:49:47Z</time>
   </trkpt>
   <trkpt lat="42.7389940" lon="-0.5085110">
    <ele>1611.3</ele>
    <time>2021-07-18T07:49:54Z</time>
   </trkpt>
   <trkpt lat="42.7389820" lon="-0.5085060">
    <ele>1611.3</ele>
    <time>2021-07-18T07:49:56Z</time>
   </trkpt>
   <trkpt lat="42.7389870" lon="-0.5084640">
    <ele>1612.9</ele>
    <time>2021-07-18T07:50:00Z</time>
   </trkpt>
   <trkpt lat="42.7390030" lon="-0.5084370">
    <ele>1614.4</ele>
    <time>2021-07-18T07:50:02Z</time>
   </trkpt>
   <trkpt lat="42.7390330" lon="-0.5083890">
    <ele>1614.2</ele>
    <time>2021-07-18T07:50:09Z</time>
   </trkpt>
   <trkpt lat="42.7390340" lon="-0.5083770">
    <ele>1614.2</ele>
    <time>2021-07-18T07:50:11Z</time>
   </trkpt>
   <trkpt lat="42.7390640" lon="-0.5083280">
    <ele>1615.6</ele>
    <time>2021-07-18T07:50:20Z</time>
   </trkpt>
   <trkpt lat="42.7391030" lon="-0.5083280">
    <ele>1611.8</ele>
    <time>2021-07-18T07:50:26Z</time>
   </trkpt>
   <trkpt lat="42.7391080" lon="-0.5083270">
    <ele>1611.8</ele>
    <time>2021-07-18T07:50:27Z</time>
   </trkpt>
   <trkpt lat="42.7391150" lon="-0.5083210">
    <ele>1611.8</ele>
    <time>2021-07-18T07:50:29Z</time>
   </trkpt>
   <trkpt lat="42.7391400" lon="-0.5083100">
    <ele>1609.6</ele>
    <time>2021-07-18T07:50:34Z</time>
   </trkpt>
   <trkpt lat="42.7391740" lon="-0.5082850">
    <ele>1608.9</ele>
    <time>2021-07-18T07:50:38Z</time>
   </trkpt>
   <trkpt lat="42.7391650" lon="-0.5082670">
    <ele>1608.9</ele>
    <time>2021-07-18T07:50:42Z</time>
   </trkpt>
   <trkpt lat="42.7391500" lon="-0.5082630">
    <ele>1611.3</ele>
    <time>2021-07-18T07:50:45Z</time>
   </trkpt>
   <trkpt lat="42.7390090" lon="-0.5082890">
    <ele>1618.9</ele>
    <time>2021-07-18T07:51:06Z</time>
   </trkpt>
   <trkpt lat="42.7390180" lon="-0.5082630">
    <ele>1618.9</ele>
    <time>2021-07-18T07:51:11Z</time>
   </trkpt>
   <trkpt lat="42.7390780" lon="-0.5082380">
    <ele>1617.0</ele>
    <time>2021-07-18T07:51:19Z</time>
   </trkpt>
   <trkpt lat="42.7391840" lon="-0.5080810">
    <ele>1615.4</ele>
    <time>2021-07-18T07:51:34Z</time>
   </trkpt>
   <trkpt lat="42.7391150" lon="-0.5080360">
    <ele>1621.3</ele>
    <time>2021-07-18T07:51:55Z</time>
   </trkpt>
   <trkpt lat="42.7391060" lon="-0.5080400">
    <ele>1621.3</ele>
    <time>2021-07-18T07:51:56Z</time>
   </trkpt>
   <trkpt lat="42.7390980" lon="-0.5080450">
    <ele>1623.3</ele>
    <time>2021-07-18T07:51:57Z</time>
   </trkpt>
   <trkpt lat="42.7390840" lon="-0.5080480">
    <ele>1623.3</ele>
    <time>2021-07-18T07:51:59Z</time>
   </trkpt>
   <trkpt lat="42.7390760" lon="-0.5080500">
    <ele>1623.3</ele>
    <time>2021-07-18T07:52:00Z</time>
   </trkpt>
   <trkpt lat="42.7390660" lon="-0.5080510">
    <ele>1625.1</ele>
    <time>2021-07-18T07:52:01Z</time>
   </trkpt>
   <trkpt lat="42.7390420" lon="-0.5080560">
    <ele>1625.1</ele>
    <time>2021-07-18T07:52:04Z</time>
   </trkpt>
   <trkpt lat="42.7389570" lon="-0.5080790">
    <ele>1628.8</ele>
    <time>2021-07-18T07:52:13Z</time>
   </trkpt>
   <trkpt lat="42.7389200" lon="-0.5080840">
    <ele>1631.6</ele>
    <time>2021-07-18T07:52:16Z</time>
   </trkpt>
   <trkpt lat="42.7388950" lon="-0.5080770">
    <ele>1633.3</ele>
    <time>2021-07-18T07:52:20Z</time>
   </trkpt>
   <trkpt lat="42.7388970" lon="-0.5080720">
    <ele>1634.8</ele>
    <time>2021-07-18T07:52:21Z</time>
   </trkpt>
   <trkpt lat="42.7388970" lon="-0.5080530">
    <ele>1634.8</ele>
    <time>2021-07-18T07:52:23Z</time>
   </trkpt>
   <trkpt lat="42.7389240" lon="-0.5080230">
    <ele>1634.5</ele>
    <time>2021-07-18T07:52:28Z</time>
   </trkpt>
   <trkpt lat="42.7389460" lon="-0.5080130">
    <ele>1631.7</ele>
    <time>2021-07-18T07:52:31Z</time>
   </trkpt>
   <trkpt lat="42.7389650" lon="-0.5079770">
    <ele>1633.1</ele>
    <time>2021-07-18T07:52:35Z</time>
   </trkpt>
   <trkpt lat="42.7390060" lon="-0.5078710">
    <ele>1634.0</ele>
    <time>2021-07-18T07:52:44Z</time>
   </trkpt>
   <trkpt lat="42.7390150" lon="-0.5078460">
    <ele>1633.7</ele>
    <time>2021-07-18T07:52:46Z</time>
   </trkpt>
   <trkpt lat="42.7390190" lon="-0.5078150">
    <ele>1635.2</ele>
    <time>2021-07-18T07:52:48Z</time>
   </trkpt>
   <trkpt lat="42.7390420" lon="-0.5077500">
    <ele>1634.9</ele>
    <time>2021-07-18T07:52:54Z</time>
   </trkpt>
   <trkpt lat="42.7390460" lon="-0.5077220">
    <ele>1636.3</ele>
    <time>2021-07-18T07:52:56Z</time>
   </trkpt>
   <trkpt lat="42.7390500" lon="-0.5077130">
    <ele>1636.3</ele>
    <time>2021-07-18T07:52:57Z</time>
   </trkpt>
   <trkpt lat="42.7390600" lon="-0.5076910">
    <ele>1636.3</ele>
    <time>2021-07-18T07:53:00Z</time>
   </trkpt>
   <trkpt lat="42.7390590" lon="-0.5076700">
    <ele>1637.7</ele>
    <time>2021-07-18T07:53:03Z</time>
   </trkpt>
   <trkpt lat="42.7390520" lon="-0.5076590">
    <ele>1637.7</ele>
    <time>2021-07-18T07:53:05Z</time>
   </trkpt>
   <trkpt lat="42.7390450" lon="-0.5076450">
    <ele>1638.9</ele>
    <time>2021-07-18T07:53:07Z</time>
   </trkpt>
   <trkpt lat="42.7389510" lon="-0.5076460">
    <ele>1642.8</ele>
    <time>2021-07-18T07:53:33Z</time>
   </trkpt>
   <trkpt lat="42.7389360" lon="-0.5076640">
    <ele>1645.6</ele>
    <time>2021-07-18T07:53:35Z</time>
   </trkpt>
   <trkpt lat="42.7387770" lon="-0.5077720">
    <ele>1650.9</ele>
    <time>2021-07-18T07:53:53Z</time>
   </trkpt>
   <trkpt lat="42.7388050" lon="-0.5076870">
    <ele>1652.1</ele>
    <time>2021-07-18T07:54:11Z</time>
   </trkpt>
   <trkpt lat="42.7388480" lon="-0.5075060">
    <ele>1655.3</ele>
    <time>2021-07-18T07:54:26Z</time>
   </trkpt>
   <trkpt lat="42.7388250" lon="-0.5074730">
    <ele>1656.4</ele>
    <time>2021-07-18T07:54:33Z</time>
   </trkpt>
   <trkpt lat="42.7388200" lon="-0.5074760">
    <ele>1655.3</ele>
    <time>2021-07-18T07:54:34Z</time>
   </trkpt>
   <trkpt lat="42.7388080" lon="-0.5074810">
    <ele>1656.7</ele>
    <time>2021-07-18T07:54:36Z</time>
   </trkpt>
   <trkpt lat="42.7388030" lon="-0.5074870">
    <ele>1656.7</ele>
    <time>2021-07-18T07:54:37Z</time>
   </trkpt>
   <trkpt lat="42.7388020" lon="-0.5074950">
    <ele>1656.7</ele>
    <time>2021-07-18T07:54:38Z</time>
   </trkpt>
   <trkpt lat="42.7388030" lon="-0.5075060">
    <ele>1656.7</ele>
    <time>2021-07-18T07:54:39Z</time>
   </trkpt>
   <trkpt lat="42.7387990" lon="-0.5075150">
    <ele>1656.7</ele>
    <time>2021-07-18T07:54:40Z</time>
   </trkpt>
   <trkpt lat="42.7387180" lon="-0.5075850">
    <ele>1658.7</ele>
    <time>2021-07-18T07:54:51Z</time>
   </trkpt>
   <trkpt lat="42.7387050" lon="-0.5076020">
    <ele>1658.7</ele>
    <time>2021-07-18T07:54:54Z</time>
   </trkpt>
   <trkpt lat="42.7387020" lon="-0.5076060">
    <ele>1657.6</ele>
    <time>2021-07-18T07:54:55Z</time>
   </trkpt>
   <trkpt lat="42.7387000" lon="-0.5076090">
    <ele>1657.6</ele>
    <time>2021-07-18T07:54:56Z</time>
   </trkpt>
   <trkpt lat="42.7386950" lon="-0.5076100">
    <ele>1657.6</ele>
    <time>2021-07-18T07:54:57Z</time>
   </trkpt>
   <trkpt lat="42.7386880" lon="-0.5076060">
    <ele>1658.9</ele>
    <time>2021-07-18T07:54:58Z</time>
   </trkpt>
   <trkpt lat="42.7386830" lon="-0.5076020">
    <ele>1660.1</ele>
    <time>2021-07-18T07:54:59Z</time>
   </trkpt>
   <trkpt lat="42.7386830" lon="-0.5075970">
    <ele>1660.1</ele>
    <time>2021-07-18T07:55:00Z</time>
   </trkpt>
   <trkpt lat="42.7386830" lon="-0.5075900">
    <ele>1660.1</ele>
    <time>2021-07-18T07:55:01Z</time>
   </trkpt>
   <trkpt lat="42.7386860" lon="-0.5075820">
    <ele>1660.1</ele>
    <time>2021-07-18T07:55:02Z</time>
   </trkpt>
   <trkpt lat="42.7387300" lon="-0.5074750">
    <ele>1659.5</ele>
    <time>2021-07-18T07:55:15Z</time>
   </trkpt>
   <trkpt lat="42.7387050" lon="-0.5073500">
    <ele>1664.2</ele>
    <time>2021-07-18T07:55:23Z</time>
   </trkpt>
   <trkpt lat="42.7387120" lon="-0.5073260">
    <ele>1665.3</ele>
    <time>2021-07-18T07:55:25Z</time>
   </trkpt>
   <trkpt lat="42.7387190" lon="-0.5072820">
    <ele>1666.5</ele>
    <time>2021-07-18T07:55:28Z</time>
   </trkpt>
   <trkpt lat="42.7387170" lon="-0.5072100">
    <ele>1668.7</ele>
    <time>2021-07-18T07:55:34Z</time>
   </trkpt>
   <trkpt lat="42.7387190" lon="-0.5071960">
    <ele>1668.7</ele>
    <time>2021-07-18T07:55:36Z</time>
   </trkpt>
   <trkpt lat="42.7387190" lon="-0.5071920">
    <ele>1668.7</ele>
    <time>2021-07-18T07:55:37Z</time>
   </trkpt>
   <trkpt lat="42.7387170" lon="-0.5071860">
    <ele>1668.7</ele>
    <time>2021-07-18T07:55:38Z</time>
   </trkpt>
   <trkpt lat="42.7387170" lon="-0.5071530">
    <ele>1669.7</ele>
    <time>2021-07-18T07:55:42Z</time>
   </trkpt>
   <trkpt lat="42.7387430" lon="-0.5071130">
    <ele>1669.3</ele>
    <time>2021-07-18T07:55:47Z</time>
   </trkpt>
   <trkpt lat="42.7387330" lon="-0.5070820">
    <ele>1670.3</ele>
    <time>2021-07-18T07:55:51Z</time>
   </trkpt>
   <trkpt lat="42.7387340" lon="-0.5070670">
    <ele>1670.3</ele>
    <time>2021-07-18T07:55:52Z</time>
   </trkpt>
   <trkpt lat="42.7386750" lon="-0.5068450">
    <ele>1679.1</ele>
    <time>2021-07-18T07:56:18Z</time>
   </trkpt>
   <trkpt lat="42.7386770" lon="-0.5068000">
    <ele>1680.4</ele>
    <time>2021-07-18T07:56:21Z</time>
   </trkpt>
   <trkpt lat="42.7386770" lon="-0.5067690">
    <ele>1681.8</ele>
    <time>2021-07-18T07:56:23Z</time>
   </trkpt>
   <trkpt lat="42.7386810" lon="-0.5067400">
    <ele>1683.0</ele>
    <time>2021-07-18T07:56:25Z</time>
   </trkpt>
   <trkpt lat="42.7386990" lon="-0.5066850">
    <ele>1682.9</ele>
    <time>2021-07-18T07:56:29Z</time>
   </trkpt>
   <trkpt lat="42.7386980" lon="-0.5066880">
    <ele>1682.9</ele>
    <time>2021-07-18T07:56:34Z</time>
   </trkpt>
   <trkpt lat="42.7387200" lon="-0.5067130">
    <ele>1681.6</ele>
    <time>2021-07-18T07:56:39Z</time>
   </trkpt>
   <trkpt lat="42.7387310" lon="-0.5067340">
    <ele>1680.3</ele>
    <time>2021-07-18T07:56:42Z</time>
   </trkpt>
   <trkpt lat="42.7387010" lon="-0.5068480">
    <ele>1677.7</ele>
    <time>2021-07-18T07:57:04Z</time>
   </trkpt>
   <trkpt lat="42.7386790" lon="-0.5068910">
    <ele>1677.8</ele>
    <time>2021-07-18T07:57:07Z</time>
   </trkpt>
   <trkpt lat="42.7386730" lon="-0.5069020">
    <ele>1677.8</ele>
    <time>2021-07-18T07:57:08Z</time>
   </trkpt>
   <trkpt lat="42.7386440" lon="-0.5069450">
    <ele>1678.0</ele>
    <time>2021-07-18T07:57:14Z</time>
   </trkpt>
   <trkpt lat="42.7386160" lon="-0.5069750">
    <ele>1678.3</ele>
    <time>2021-07-18T07:57:17Z</time>
   </trkpt>
   <trkpt lat="42.7386110" lon="-0.5069800">
    <ele>1678.3</ele>
    <time>2021-07-18T07:57:18Z</time>
   </trkpt>
   <trkpt lat="42.7385930" lon="-0.5069880">
    <ele>1679.9</ele>
    <time>2021-07-18T07:57:19Z</time>
   </trkpt>
   <trkpt lat="42.7385590" lon="-0.5070030">
    <ele>1680.3</ele>
    <time>2021-07-18T07:57:23Z</time>
   </trkpt>
   <trkpt lat="42.7385440" lon="-0.5070200">
    <ele>1680.3</ele>
    <time>2021-07-18T07:57:26Z</time>
   </trkpt>
   <trkpt lat="42.7384890" lon="-0.5070780">
    <ele>1682.2</ele>
    <time>2021-07-18T07:57:34Z</time>
   </trkpt>
   <trkpt lat="42.7384830" lon="-0.5070840">
    <ele>1682.2</ele>
    <time>2021-07-18T07:57:35Z</time>
   </trkpt>
   <trkpt lat="42.7384610" lon="-0.5071090">
    <ele>1682.4</ele>
    <time>2021-07-18T07:57:39Z</time>
   </trkpt>
   <trkpt lat="42.7384470" lon="-0.5071140">
    <ele>1682.4</ele>
    <time>2021-07-18T07:57:41Z</time>
   </trkpt>
   <trkpt lat="42.7384250" lon="-0.5071360">
    <ele>1682.7</ele>
    <time>2021-07-18T07:57:45Z</time>
   </trkpt>
   <trkpt lat="42.7383920" lon="-0.5071590">
    <ele>1684.0</ele>
    <time>2021-07-18T07:57:49Z</time>
   </trkpt>
   <trkpt lat="42.7383580" lon="-0.5071760">
    <ele>1684.4</ele>
    <time>2021-07-18T07:57:55Z</time>
   </trkpt>
   <trkpt lat="42.7383170" lon="-0.5071260">
    <ele>1688.3</ele>
    <time>2021-07-18T07:58:17Z</time>
   </trkpt>
   <trkpt lat="42.7383100" lon="-0.5070220">
    <ele>1692.1</ele>
    <time>2021-07-18T07:58:35Z</time>
   </trkpt>
   <trkpt lat="42.7383140" lon="-0.5070160">
    <ele>1690.4</ele>
    <time>2021-07-18T07:58:36Z</time>
   </trkpt>
   <trkpt lat="42.7383070" lon="-0.5069790">
    <ele>1693.2</ele>
    <time>2021-07-18T07:58:42Z</time>
   </trkpt>
   <trkpt lat="42.7382970" lon="-0.5069590">
    <ele>1693.2</ele>
    <time>2021-07-18T07:58:46Z</time>
   </trkpt>
   <trkpt lat="42.7382750" lon="-0.5069170">
    <ele>1696.1</ele>
    <time>2021-07-18T07:59:04Z</time>
   </trkpt>
   <trkpt lat="42.7382120" lon="-0.5070120">
    <ele>1696.6</ele>
    <time>2021-07-18T07:59:16Z</time>
   </trkpt>
   <trkpt lat="42.7382300" lon="-0.5069780">
    <ele>1696.3</ele>
    <time>2021-07-18T07:59:21Z</time>
   </trkpt>
   <trkpt lat="42.7382390" lon="-0.5067900">
    <ele>1701.4</ele>
    <time>2021-07-18T07:59:39Z</time>
   </trkpt>
   <trkpt lat="42.7382420" lon="-0.5066340">
    <ele>1706.3</ele>
    <time>2021-07-18T07:59:55Z</time>
   </trkpt>
   <trkpt lat="42.7382390" lon="-0.5066230">
    <ele>1706.3</ele>
    <time>2021-07-18T07:59:57Z</time>
   </trkpt>
   <trkpt lat="42.7382670" lon="-0.5064950">
    <ele>1708.7</ele>
    <time>2021-07-18T08:00:07Z</time>
   </trkpt>
   <trkpt lat="42.7382760" lon="-0.5063500">
    <ele>1714.7</ele>
    <time>2021-07-18T08:00:17Z</time>
   </trkpt>
   <trkpt lat="42.7382950" lon="-0.5062970">
    <ele>1714.7</ele>
    <time>2021-07-18T08:00:21Z</time>
   </trkpt>
   <trkpt lat="42.7383100" lon="-0.5062160">
    <ele>1717.5</ele>
    <time>2021-07-18T08:00:29Z</time>
   </trkpt>
   <trkpt lat="42.7383090" lon="-0.5062020">
    <ele>1717.5</ele>
    <time>2021-07-18T08:00:31Z</time>
   </trkpt>
   <trkpt lat="42.7383160" lon="-0.5061840">
    <ele>1717.4</ele>
    <time>2021-07-18T08:00:33Z</time>
   </trkpt>
   <trkpt lat="42.7383320" lon="-0.5061880">
    <ele>1716.0</ele>
    <time>2021-07-18T08:00:36Z</time>
   </trkpt>
   <trkpt lat="42.7383270" lon="-0.5061970">
    <ele>1716.0</ele>
    <time>2021-07-18T08:00:38Z</time>
   </trkpt>
   <trkpt lat="42.7383210" lon="-0.5062030">
    <ele>1716.0</ele>
    <time>2021-07-18T08:00:41Z</time>
   </trkpt>
   <trkpt lat="42.7382890" lon="-0.5061600">
    <ele>1718.9</ele>
    <time>2021-07-18T08:00:47Z</time>
   </trkpt>
   <trkpt lat="42.7382950" lon="-0.5061920">
    <ele>1717.5</ele>
    <time>2021-07-18T08:01:04Z</time>
   </trkpt>
   <trkpt lat="42.7381650" lon="-0.5060400">
    <ele>1728.6</ele>
    <time>2021-07-18T08:01:34Z</time>
   </trkpt>
   <trkpt lat="42.7381070" lon="-0.5060640">
    <ele>1729.7</ele>
    <time>2021-07-18T08:01:50Z</time>
   </trkpt>
   <trkpt lat="42.7381420" lon="-0.5060370">
    <ele>1729.8</ele>
    <time>2021-07-18T08:01:57Z</time>
   </trkpt>
   <trkpt lat="42.7381410" lon="-0.5060240">
    <ele>1729.8</ele>
    <time>2021-07-18T08:01:58Z</time>
   </trkpt>
   <trkpt lat="42.7381400" lon="-0.5060100">
    <ele>1731.5</ele>
    <time>2021-07-18T08:02:00Z</time>
   </trkpt>
   <trkpt lat="42.7380850" lon="-0.5059500">
    <ele>1736.2</ele>
    <time>2021-07-18T08:02:10Z</time>
   </trkpt>
   <trkpt lat="42.7380590" lon="-0.5059280">
    <ele>1739.6</ele>
    <time>2021-07-18T08:02:12Z</time>
   </trkpt>
   <trkpt lat="42.7380470" lon="-0.5059120">
    <ele>1739.6</ele>
    <time>2021-07-18T08:02:13Z</time>
   </trkpt>
   <trkpt lat="42.7380660" lon="-0.5058570">
    <ele>1739.7</ele>
    <time>2021-07-18T08:02:16Z</time>
   </trkpt>
   <trkpt lat="42.7380690" lon="-0.5058460">
    <ele>1739.7</ele>
    <time>2021-07-18T08:02:17Z</time>
   </trkpt>
   <trkpt lat="42.7380720" lon="-0.5058270">
    <ele>1741.4</ele>
    <time>2021-07-18T08:02:18Z</time>
   </trkpt>
   <trkpt lat="42.7380750" lon="-0.5058090">
    <ele>1741.4</ele>
    <time>2021-07-18T08:02:19Z</time>
   </trkpt>
   <trkpt lat="42.7380890" lon="-0.5057820">
    <ele>1743.1</ele>
    <time>2021-07-18T08:02:20Z</time>
   </trkpt>
   <trkpt lat="42.7380900" lon="-0.5057610">
    <ele>1743.1</ele>
    <time>2021-07-18T08:02:21Z</time>
   </trkpt>
   <trkpt lat="42.7380920" lon="-0.5057420">
    <ele>1744.8</ele>
    <time>2021-07-18T08:02:22Z</time>
   </trkpt>
   <trkpt lat="42.7380850" lon="-0.5057240">
    <ele>1744.8</ele>
    <time>2021-07-18T08:02:23Z</time>
   </trkpt>
   <trkpt lat="42.7380810" lon="-0.5057090">
    <ele>1746.5</ele>
    <time>2021-07-18T08:02:24Z</time>
   </trkpt>
   <trkpt lat="42.7380830" lon="-0.5056920">
    <ele>1746.5</ele>
    <time>2021-07-18T08:02:25Z</time>
   </trkpt>
   <trkpt lat="42.7381150" lon="-0.5056560">
    <ele>1746.7</ele>
    <time>2021-07-18T08:02:28Z</time>
   </trkpt>
   <trkpt lat="42.7381960" lon="-0.5056040">
    <ele>1744.9</ele>
    <time>2021-07-18T08:02:32Z</time>
   </trkpt>
   <trkpt lat="42.7382170" lon="-0.5055880">
    <ele>1744.9</ele>
    <time>2021-07-18T08:02:33Z</time>
   </trkpt>
   <trkpt lat="42.7383160" lon="-0.5054900">
    <ele>1746.1</ele>
    <time>2021-07-18T08:02:39Z</time>
   </trkpt>
   <trkpt lat="42.7383290" lon="-0.5054690">
    <ele>1746.1</ele>
    <time>2021-07-18T08:02:43Z</time>
   </trkpt>
   <trkpt lat="42.7383380" lon="-0.5054560">
    <ele>1748.1</ele>
    <time>2021-07-18T08:02:44Z</time>
   </trkpt>
   <trkpt lat="42.7383470" lon="-0.5054480">
    <ele>1746.8</ele>
    <time>2021-07-18T08:02:45Z</time>
   </trkpt>
   <trkpt lat="42.7383550" lon="-0.5054400">
    <ele>1746.8</ele>
    <time>2021-07-18T08:02:46Z</time>
   </trkpt>
   <trkpt lat="42.7383640" lon="-0.5054310">
    <ele>1746.8</ele>
    <time>2021-07-18T08:02:47Z</time>
   </trkpt>
   <trkpt lat="42.7384460" lon="-0.5053320">
    <ele>1748.3</ele>
    <time>2021-07-18T08:02:58Z</time>
   </trkpt>
   <trkpt lat="42.7384550" lon="-0.5053260">
    <ele>1750.2</ele>
    <time>2021-07-18T08:02:59Z</time>
   </trkpt>
   <trkpt lat="42.7384620" lon="-0.5053230">
    <ele>1750.2</ele>
    <time>2021-07-18T08:03:00Z</time>
   </trkpt>
   <trkpt lat="42.7384730" lon="-0.5053210">
    <ele>1749.1</ele>
    <time>2021-07-18T08:03:01Z</time>
   </trkpt>
   <trkpt lat="42.7385120" lon="-0.5053040">
    <ele>1747.9</ele>
    <time>2021-07-18T08:03:07Z</time>
   </trkpt>
   <trkpt lat="42.7385190" lon="-0.5053080">
    <ele>1747.9</ele>
    <time>2021-07-18T08:03:13Z</time>
   </trkpt>
   <trkpt lat="42.7385210" lon="-0.5053010">
    <ele>1747.9</ele>
    <time>2021-07-18T08:03:15Z</time>
   </trkpt>
   <trkpt lat="42.7385220" lon="-0.5052570">
    <ele>1749.8</ele>
    <time>2021-07-18T08:03:19Z</time>
   </trkpt>
   <trkpt lat="42.7385220" lon="-0.5052470">
    <ele>1749.8</ele>
    <time>2021-07-18T08:03:20Z</time>
   </trkpt>
   <trkpt lat="42.7385180" lon="-0.5052120">
    <ele>1751.7</ele>
    <time>2021-07-18T08:03:27Z</time>
   </trkpt>
   <trkpt lat="42.7385620" lon="-0.5051500">
    <ele>1754.2</ele>
    <time>2021-07-18T08:03:36Z</time>
   </trkpt>
   <trkpt lat="42.7384570" lon="-0.5051610">
    <ele>1755.9</ele>
    <time>2021-07-18T08:03:58Z</time>
   </trkpt>
   <trkpt lat="42.7384420" lon="-0.5051560">
    <ele>1757.9</ele>
    <time>2021-07-18T08:04:00Z</time>
   </trkpt>
   <trkpt lat="42.7384350" lon="-0.5051550">
    <ele>1759.0</ele>
    <time>2021-07-18T08:04:01Z</time>
   </trkpt>
   <trkpt lat="42.7384290" lon="-0.5051550">
    <ele>1759.0</ele>
    <time>2021-07-18T08:04:02Z</time>
   </trkpt>
   <trkpt lat="42.7384210" lon="-0.5051530">
    <ele>1759.0</ele>
    <time>2021-07-18T08:04:03Z</time>
   </trkpt>
   <trkpt lat="42.7384080" lon="-0.5051420">
    <ele>1759.0</ele>
    <time>2021-07-18T08:04:08Z</time>
   </trkpt>
   <trkpt lat="42.7384020" lon="-0.5051010">
    <ele>1762.1</ele>
    <time>2021-07-18T08:04:14Z</time>
   </trkpt>
   <trkpt lat="42.7384500" lon="-0.5050120">
    <ele>1764.0</ele>
    <time>2021-07-18T08:04:32Z</time>
   </trkpt>
   <trkpt lat="42.7384350" lon="-0.5050000">
    <ele>1765.1</ele>
    <time>2021-07-18T08:04:43Z</time>
   </trkpt>
   <trkpt lat="42.7385020" lon="-0.5048590">
    <ele>1768.3</ele>
    <time>2021-07-18T08:05:05Z</time>
   </trkpt>
   <trkpt lat="42.7385030" lon="-0.5048530">
    <ele>1768.7</ele>
    <time>2021-07-18T08:05:09Z</time>
   </trkpt>
   <trkpt lat="42.7384890" lon="-0.5048550">
    <ele>1770.1</ele>
    <time>2021-07-18T08:05:13Z</time>
   </trkpt>
   <trkpt lat="42.7384810" lon="-0.5048420">
    <ele>1770.1</ele>
    <time>2021-07-18T08:05:18Z</time>
   </trkpt>
   <trkpt lat="42.7384820" lon="-0.5048380">
    <ele>1770.1</ele>
    <time>2021-07-18T08:05:19Z</time>
   </trkpt>
   <trkpt lat="42.7384820" lon="-0.5048310">
    <ele>1770.1</ele>
    <time>2021-07-18T08:05:20Z</time>
   </trkpt>
   <trkpt lat="42.7384950" lon="-0.5048080">
    <ele>1771.9</ele>
    <time>2021-07-18T08:05:23Z</time>
   </trkpt>
   <trkpt lat="42.7385010" lon="-0.5047940">
    <ele>1771.9</ele>
    <time>2021-07-18T08:05:26Z</time>
   </trkpt>
   <trkpt lat="42.7385100" lon="-0.5047890">
    <ele>1770.5</ele>
    <time>2021-07-18T08:05:29Z</time>
   </trkpt>
   <trkpt lat="42.7385120" lon="-0.5047850">
    <ele>1770.5</ele>
    <time>2021-07-18T08:05:30Z</time>
   </trkpt>
   <trkpt lat="42.7385130" lon="-0.5047810">
    <ele>1770.5</ele>
    <time>2021-07-18T08:05:31Z</time>
   </trkpt>
   <trkpt lat="42.7385130" lon="-0.5047740">
    <ele>1770.5</ele>
    <time>2021-07-18T08:05:32Z</time>
   </trkpt>
   <trkpt lat="42.7385130" lon="-0.5047670">
    <ele>1772.4</ele>
    <time>2021-07-18T08:05:33Z</time>
   </trkpt>
   <trkpt lat="42.7385130" lon="-0.5047570">
    <ele>1772.4</ele>
    <time>2021-07-18T08:05:37Z</time>
   </trkpt>
   <trkpt lat="42.7383370" lon="-0.5047630">
    <ele>1780.4</ele>
    <time>2021-07-18T08:06:08Z</time>
   </trkpt>
   <trkpt lat="42.7382980" lon="-0.5047510">
    <ele>1781.9</ele>
    <time>2021-07-18T08:06:15Z</time>
   </trkpt>
   <trkpt lat="42.7383060" lon="-0.5047540">
    <ele>1781.9</ele>
    <time>2021-07-18T08:06:19Z</time>
   </trkpt>
   <trkpt lat="42.7383110" lon="-0.5047460">
    <ele>1781.9</ele>
    <time>2021-07-18T08:06:20Z</time>
   </trkpt>
   <trkpt lat="42.7383180" lon="-0.5047310">
    <ele>1780.4</ele>
    <time>2021-07-18T08:06:21Z</time>
   </trkpt>
   <trkpt lat="42.7383230" lon="-0.5047160">
    <ele>1782.4</ele>
    <time>2021-07-18T08:06:23Z</time>
   </trkpt>
   <trkpt lat="42.7383260" lon="-0.5047130">
    <ele>1782.4</ele>
    <time>2021-07-18T08:06:24Z</time>
   </trkpt>
   <trkpt lat="42.7383430" lon="-0.5047020">
    <ele>1782.4</ele>
    <time>2021-07-18T08:06:26Z</time>
   </trkpt>
   <trkpt lat="42.7383900" lon="-0.5046370">
    <ele>1783.5</ele>
    <time>2021-07-18T08:06:33Z</time>
   </trkpt>
   <trkpt lat="42.7384150" lon="-0.5045850">
    <ele>1784.2</ele>
    <time>2021-07-18T08:06:36Z</time>
   </trkpt>
   <trkpt lat="42.7384270" lon="-0.5045580">
    <ele>1784.2</ele>
    <time>2021-07-18T08:06:40Z</time>
   </trkpt>
   <trkpt lat="42.7384410" lon="-0.5045500">
    <ele>1784.7</ele>
    <time>2021-07-18T08:06:42Z</time>
   </trkpt>
   <trkpt lat="42.7384440" lon="-0.5045180">
    <ele>1784.7</ele>
    <time>2021-07-18T08:06:50Z</time>
   </trkpt>
   <trkpt lat="42.7384250" lon="-0.5045240">
    <ele>1786.0</ele>
    <time>2021-07-18T08:06:53Z</time>
   </trkpt>
   <trkpt lat="42.7384210" lon="-0.5045170">
    <ele>1786.0</ele>
    <time>2021-07-18T08:06:54Z</time>
   </trkpt>
   <trkpt lat="42.7384010" lon="-0.5045050">
    <ele>1789.2</ele>
    <time>2021-07-18T08:06:59Z</time>
   </trkpt>
   <trkpt lat="42.7382950" lon="-0.5044640">
    <ele>1795.5</ele>
    <time>2021-07-18T08:07:18Z</time>
   </trkpt>
   <trkpt lat="42.7382870" lon="-0.5043880">
    <ele>1797.2</ele>
    <time>2021-07-18T08:07:28Z</time>
   </trkpt>
   <trkpt lat="42.7382940" lon="-0.5043710">
    <ele>1798.9</ele>
    <time>2021-07-18T08:07:30Z</time>
   </trkpt>
   <trkpt lat="42.7383620" lon="-0.5042180">
    <ele>1801.0</ele>
    <time>2021-07-18T08:07:57Z</time>
   </trkpt>
   <trkpt lat="42.7384470" lon="-0.5041390">
    <ele>1800.8</ele>
    <time>2021-07-18T08:08:15Z</time>
   </trkpt>
   <trkpt lat="42.7384460" lon="-0.5041440">
    <ele>1800.8</ele>
    <time>2021-07-18T08:08:16Z</time>
   </trkpt>
   <trkpt lat="42.7384430" lon="-0.5041460">
    <ele>1800.8</ele>
    <time>2021-07-18T08:08:17Z</time>
   </trkpt>
   <trkpt lat="42.7384430" lon="-0.5041460">
    <ele>1800.8</ele>
    <time>2021-07-18T08:08:18Z</time>
   </trkpt>
   <trkpt lat="42.7384380" lon="-0.5041480">
    <ele>1802.1</ele>
    <time>2021-07-18T08:08:19Z</time>
   </trkpt>
   <trkpt lat="42.7384170" lon="-0.5041560">
    <ele>1802.1</ele>
    <time>2021-07-18T08:08:21Z</time>
   </trkpt>
   <trkpt lat="42.7383930" lon="-0.5041770">
    <ele>1801.5</ele>
    <time>2021-07-18T08:08:23Z</time>
   </trkpt>
   <trkpt lat="42.7383700" lon="-0.5041840">
    <ele>1802.9</ele>
    <time>2021-07-18T08:08:33Z</time>
   </trkpt>
   <trkpt lat="42.7383980" lon="-0.5041100">
    <ele>1805.3</ele>
    <time>2021-07-18T08:08:47Z</time>
   </trkpt>
   <trkpt lat="42.7384040" lon="-0.5040940">
    <ele>1805.3</ele>
    <time>2021-07-18T08:08:50Z</time>
   </trkpt>
   <trkpt lat="42.7383920" lon="-0.5039060">
    <ele>1813.7</ele>
    <time>2021-07-18T08:09:15Z</time>
   </trkpt>
   <trkpt lat="42.7384700" lon="-0.5037990">
    <ele>1814.6</ele>
    <time>2021-07-18T08:09:33Z</time>
   </trkpt>
   <trkpt lat="42.7383660" lon="-0.5038480">
    <ele>1816.9</ele>
    <time>2021-07-18T08:09:40Z</time>
   </trkpt>
   <trkpt lat="42.7383220" lon="-0.5038710">
    <ele>1816.7</ele>
    <time>2021-07-18T08:09:43Z</time>
   </trkpt>
   <trkpt lat="42.7383080" lon="-0.5038790">
    <ele>1818.2</ele>
    <time>2021-07-18T08:09:44Z</time>
   </trkpt>
   <trkpt lat="42.7382920" lon="-0.5038860">
    <ele>1818.2</ele>
    <time>2021-07-18T08:09:46Z</time>
   </trkpt>
   <trkpt lat="42.7382890" lon="-0.5038900">
    <ele>1818.2</ele>
    <time>2021-07-18T08:09:47Z</time>
   </trkpt>
   <trkpt lat="42.7383040" lon="-0.5039210">
    <ele>1816.5</ele>
    <time>2021-07-18T08:09:54Z</time>
   </trkpt>
   <trkpt lat="42.7383370" lon="-0.5038860">
    <ele>1816.7</ele>
    <time>2021-07-18T08:09:59Z</time>
   </trkpt>
   <trkpt lat="42.7383450" lon="-0.5038680">
    <ele>1816.9</ele>
    <time>2021-07-18T08:10:08Z</time>
   </trkpt>
   <trkpt lat="42.7382410" lon="-0.5039530">
    <ele>1819.2</ele>
    <time>2021-07-18T08:10:33Z</time>
   </trkpt>
   <trkpt lat="42.7382810" lon="-0.5039060">
    <ele>1819.6</ele>
    <time>2021-07-18T08:10:43Z</time>
   </trkpt>
   <trkpt lat="42.7383070" lon="-0.5038640">
    <ele>1819.9</ele>
    <time>2021-07-18T08:10:53Z</time>
   </trkpt>
   <trkpt lat="42.7383170" lon="-0.5038510">
    <ele>1818.4</ele>
    <time>2021-07-18T08:10:54Z</time>
   </trkpt>
   <trkpt lat="42.7383230" lon="-0.5038420">
    <ele>1818.4</ele>
    <time>2021-07-18T08:10:55Z</time>
   </trkpt>
   <trkpt lat="42.7383260" lon="-0.5038400">
    <ele>1818.4</ele>
    <time>2021-07-18T08:10:56Z</time>
   </trkpt>
   <trkpt lat="42.7383240" lon="-0.5038290">
    <ele>1818.4</ele>
    <time>2021-07-18T08:10:57Z</time>
   </trkpt>
   <trkpt lat="42.7383250" lon="-0.5038250">
    <ele>1820.2</ele>
    <time>2021-07-18T08:10:58Z</time>
   </trkpt>
   <trkpt lat="42.7383090" lon="-0.5037490">
    <ele>1823.5</ele>
    <time>2021-07-18T08:11:21Z</time>
   </trkpt>
   <trkpt lat="42.7383230" lon="-0.5037220">
    <ele>1823.8</ele>
    <time>2021-07-18T08:11:23Z</time>
   </trkpt>
   <trkpt lat="42.7383410" lon="-0.5036810">
    <ele>1825.6</ele>
    <time>2021-07-18T08:11:27Z</time>
   </trkpt>
   <trkpt lat="42.7383720" lon="-0.5036260">
    <ele>1825.9</ele>
    <time>2021-07-18T08:11:38Z</time>
   </trkpt>
   <trkpt lat="42.7383860" lon="-0.5036090">
    <ele>1826.1</ele>
    <time>2021-07-18T08:11:44Z</time>
   </trkpt>
   <trkpt lat="42.7383890" lon="-0.5035940">
    <ele>1826.1</ele>
    <time>2021-07-18T08:11:46Z</time>
   </trkpt>
   <trkpt lat="42.7383790" lon="-0.5035960">
    <ele>1826.1</ele>
    <time>2021-07-18T08:11:49Z</time>
   </trkpt>
   <trkpt lat="42.7383580" lon="-0.5036120">
    <ele>1825.9</ele>
    <time>2021-07-18T08:11:53Z</time>
   </trkpt>
   <trkpt lat="42.7383510" lon="-0.5036140">
    <ele>1825.9</ele>
    <time>2021-07-18T08:11:54Z</time>
   </trkpt>
   <trkpt lat="42.7383420" lon="-0.5036190">
    <ele>1827.5</ele>
    <time>2021-07-18T08:11:55Z</time>
   </trkpt>
   <trkpt lat="42.7383340" lon="-0.5036210">
    <ele>1827.5</ele>
    <time>2021-07-18T08:11:56Z</time>
   </trkpt>
   <trkpt lat="42.7383210" lon="-0.5036230">
    <ele>1827.5</ele>
    <time>2021-07-18T08:11:57Z</time>
   </trkpt>
   <trkpt lat="42.7382840" lon="-0.5036000">
    <ele>1830.8</ele>
    <time>2021-07-18T08:12:06Z</time>
   </trkpt>
   <trkpt lat="42.7383600" lon="-0.5035370">
    <ele>1829.3</ele>
    <time>2021-07-18T08:12:15Z</time>
   </trkpt>
   <trkpt lat="42.7383540" lon="-0.5034770">
    <ele>1832.6</ele>
    <time>2021-07-18T08:12:26Z</time>
   </trkpt>
   <trkpt lat="42.7383430" lon="-0.5034830">
    <ele>1832.6</ele>
    <time>2021-07-18T08:12:27Z</time>
   </trkpt>
   <trkpt lat="42.7383380" lon="-0.5034840">
    <ele>1832.6</ele>
    <time>2021-07-18T08:12:28Z</time>
   </trkpt>
   <trkpt lat="42.7383190" lon="-0.5034910">
    <ele>1832.6</ele>
    <time>2021-07-18T08:12:30Z</time>
   </trkpt>
   <trkpt lat="42.7382840" lon="-0.5035020">
    <ele>1834.2</ele>
    <time>2021-07-18T08:12:33Z</time>
   </trkpt>
   <trkpt lat="42.7382470" lon="-0.5035160">
    <ele>1837.1</ele>
    <time>2021-07-18T08:12:36Z</time>
   </trkpt>
   <trkpt lat="42.7382060" lon="-0.5034950">
    <ele>1838.4</ele>
    <time>2021-07-18T08:12:41Z</time>
   </trkpt>
   <trkpt lat="42.7381560" lon="-0.5035190">
    <ele>1839.6</ele>
    <time>2021-07-18T08:12:45Z</time>
   </trkpt>
   <trkpt lat="42.7380660" lon="-0.5035550">
    <ele>1842.5</ele>
    <time>2021-07-18T08:12:55Z</time>
   </trkpt>
   <trkpt lat="42.7380360" lon="-0.5035700">
    <ele>1842.4</ele>
    <time>2021-07-18T08:12:58Z</time>
   </trkpt>
   <trkpt lat="42.7380260" lon="-0.5035730">
    <ele>1844.1</ele>
    <time>2021-07-18T08:12:59Z</time>
   </trkpt>
   <trkpt lat="42.7379930" lon="-0.5035410">
    <ele>1847.5</ele>
    <time>2021-07-18T08:13:06Z</time>
   </trkpt>
   <trkpt lat="42.7380020" lon="-0.5035230">
    <ele>1847.7</ele>
    <time>2021-07-18T08:13:08Z</time>
   </trkpt>
   <trkpt lat="42.7380150" lon="-0.5035100">
    <ele>1847.7</ele>
    <time>2021-07-18T08:13:11Z</time>
   </trkpt>
   <trkpt lat="42.7380530" lon="-0.5034970">
    <ele>1846.0</ele>
    <time>2021-07-18T08:13:16Z</time>
   </trkpt>
   <trkpt lat="42.7380730" lon="-0.5034800">
    <ele>1846.1</ele>
    <time>2021-07-18T08:13:18Z</time>
   </trkpt>
   <trkpt lat="42.7380930" lon="-0.5034620">
    <ele>1844.4</ele>
    <time>2021-07-18T08:13:21Z</time>
   </trkpt>
   <trkpt lat="42.7380930" lon="-0.5034570">
    <ele>1844.4</ele>
    <time>2021-07-18T08:13:24Z</time>
   </trkpt>
   <trkpt lat="42.7380500" lon="-0.5034380">
    <ele>1849.8</ele>
    <time>2021-07-18T08:13:30Z</time>
   </trkpt>
   <trkpt lat="42.7379510" lon="-0.5034750">
    <ele>1852.6</ele>
    <time>2021-07-18T08:13:43Z</time>
   </trkpt>
   <trkpt lat="42.7379200" lon="-0.5034920">
    <ele>1852.2</ele>
    <time>2021-07-18T08:13:46Z</time>
   </trkpt>
   <trkpt lat="42.7378860" lon="-0.5034990">
    <ele>1853.7</ele>
    <time>2021-07-18T08:13:49Z</time>
   </trkpt>
   <trkpt lat="42.7378570" lon="-0.5035070">
    <ele>1855.4</ele>
    <time>2021-07-18T08:13:52Z</time>
   </trkpt>
   <trkpt lat="42.7378300" lon="-0.5035130">
    <ele>1857.3</ele>
    <time>2021-07-18T08:13:55Z</time>
   </trkpt>
   <trkpt lat="42.7378150" lon="-0.5035060">
    <ele>1857.3</ele>
    <time>2021-07-18T08:13:57Z</time>
   </trkpt>
   <trkpt lat="42.7378130" lon="-0.5034900">
    <ele>1857.3</ele>
    <time>2021-07-18T08:13:58Z</time>
   </trkpt>
   <trkpt lat="42.7378130" lon="-0.5034740">
    <ele>1859.3</ele>
    <time>2021-07-18T08:13:59Z</time>
   </trkpt>
   <trkpt lat="42.7378270" lon="-0.5034440">
    <ele>1859.3</ele>
    <time>2021-07-18T08:14:01Z</time>
   </trkpt>
   <trkpt lat="42.7378350" lon="-0.5034360">
    <ele>1861.3</ele>
    <time>2021-07-18T08:14:02Z</time>
   </trkpt>
   <trkpt lat="42.7378430" lon="-0.5034300">
    <ele>1859.4</ele>
    <time>2021-07-18T08:14:03Z</time>
   </trkpt>
   <trkpt lat="42.7378540" lon="-0.5034260">
    <ele>1859.4</ele>
    <time>2021-07-18T08:14:04Z</time>
   </trkpt>
   <trkpt lat="42.7378790" lon="-0.5034090">
    <ele>1857.6</ele>
    <time>2021-07-18T08:14:07Z</time>
   </trkpt>
   <trkpt lat="42.7378870" lon="-0.5034060">
    <ele>1857.6</ele>
    <time>2021-07-18T08:14:08Z</time>
   </trkpt>
   <trkpt lat="42.7378950" lon="-0.5034030">
    <ele>1857.6</ele>
    <time>2021-07-18T08:14:09Z</time>
   </trkpt>
   <trkpt lat="42.7379080" lon="-0.5033840">
    <ele>1858.2</ele>
    <time>2021-07-18T08:14:10Z</time>
   </trkpt>
   <trkpt lat="42.7379200" lon="-0.5033700">
    <ele>1858.2</ele>
    <time>2021-07-18T08:14:11Z</time>
   </trkpt>
   <trkpt lat="42.7379300" lon="-0.5033590">
    <ele>1858.2</ele>
    <time>2021-07-18T08:14:12Z</time>
   </trkpt>
   <trkpt lat="42.7379390" lon="-0.5033490">
    <ele>1859.0</ele>
    <time>2021-07-18T08:14:13Z</time>
   </trkpt>
   <trkpt lat="42.7379720" lon="-0.5033180">
    <ele>1857.5</ele>
    <time>2021-07-18T08:14:16Z</time>
   </trkpt>
   <trkpt lat="42.7380110" lon="-0.5033010">
    <ele>1858.2</ele>
    <time>2021-07-18T08:14:21Z</time>
   </trkpt>
   <trkpt lat="42.7380730" lon="-0.5033020">
    <ele>1854.5</ele>
    <time>2021-07-18T08:14:28Z</time>
   </trkpt>
   <trkpt lat="42.7381970" lon="-0.5032150">
    <ele>1852.6</ele>
    <time>2021-07-18T08:14:40Z</time>
   </trkpt>
   <trkpt lat="42.7382440" lon="-0.5032400">
    <ele>1849.1</ele>
    <time>2021-07-18T08:14:45Z</time>
   </trkpt>
   <trkpt lat="42.7382850" lon="-0.5032290">
    <ele>1845.9</ele>
    <time>2021-07-18T08:14:50Z</time>
   </trkpt>
   <trkpt lat="42.7382820" lon="-0.5032080">
    <ele>1848.0</ele>
    <time>2021-07-18T08:14:52Z</time>
   </trkpt>
   <trkpt lat="42.7382760" lon="-0.5031930">
    <ele>1849.7</ele>
    <time>2021-07-18T08:14:55Z</time>
   </trkpt>
   <trkpt lat="42.7382260" lon="-0.5032120">
    <ele>1851.2</ele>
    <time>2021-07-18T08:15:04Z</time>
   </trkpt>
   <trkpt lat="42.7381930" lon="-0.5032090">
    <ele>1852.6</ele>
    <time>2021-07-18T08:15:09Z</time>
   </trkpt>
   <trkpt lat="42.7382110" lon="-0.5031630">
    <ele>1854.7</ele>
    <time>2021-07-18T08:15:15Z</time>
   </trkpt>
   <trkpt lat="42.7382130" lon="-0.5031390">
    <ele>1856.8</ele>
    <time>2021-07-18T08:15:18Z</time>
   </trkpt>
   <trkpt lat="42.7382180" lon="-0.5031320">
    <ele>1856.8</ele>
    <time>2021-07-18T08:15:20Z</time>
   </trkpt>
   <trkpt lat="42.7382320" lon="-0.5031160">
    <ele>1855.4</ele>
    <time>2021-07-18T08:15:23Z</time>
   </trkpt>
   <trkpt lat="42.7382580" lon="-0.5030210">
    <ele>1858.0</ele>
    <time>2021-07-18T08:15:33Z</time>
   </trkpt>
   <trkpt lat="42.7382610" lon="-0.5030120">
    <ele>1858.0</ele>
    <time>2021-07-18T08:15:34Z</time>
   </trkpt>
   <trkpt lat="42.7382820" lon="-0.5029600">
    <ele>1860.6</ele>
    <time>2021-07-18T08:15:38Z</time>
   </trkpt>
   <trkpt lat="42.7382920" lon="-0.5029530">
    <ele>1860.6</ele>
    <time>2021-07-18T08:15:40Z</time>
   </trkpt>
   <trkpt lat="42.7382940" lon="-0.5029390">
    <ele>1860.6</ele>
    <time>2021-07-18T08:15:45Z</time>
   </trkpt>
   <trkpt lat="42.7382490" lon="-0.5029390">
    <ele>1864.0</ele>
    <time>2021-07-18T08:16:14Z</time>
   </trkpt>
   <trkpt lat="42.7382500" lon="-0.5029440">
    <ele>1864.0</ele>
    <time>2021-07-18T08:16:15Z</time>
   </trkpt>
   <trkpt lat="42.7382400" lon="-0.5029560">
    <ele>1864.0</ele>
    <time>2021-07-18T08:16:17Z</time>
   </trkpt>
   <trkpt lat="42.7382390" lon="-0.5029520">
    <ele>1864.0</ele>
    <time>2021-07-18T08:16:18Z</time>
   </trkpt>
   <trkpt lat="42.7382380" lon="-0.5029540">
    <ele>1864.0</ele>
    <time>2021-07-18T08:16:19Z</time>
   </trkpt>
   <trkpt lat="42.7382290" lon="-0.5029420">
    <ele>1864.0</ele>
    <time>2021-07-18T08:16:22Z</time>
   </trkpt>
   <trkpt lat="42.7382050" lon="-0.5029080">
    <ele>1867.9</ele>
    <time>2021-07-18T08:16:33Z</time>
   </trkpt>
   <trkpt lat="42.7382150" lon="-0.5028780">
    <ele>1870.4</ele>
    <time>2021-07-18T08:16:37Z</time>
   </trkpt>
   <trkpt lat="42.7382500" lon="-0.5028460">
    <ele>1868.9</ele>
    <time>2021-07-18T08:16:48Z</time>
   </trkpt>
   <trkpt lat="42.7382210" lon="-0.5028470">
    <ele>1868.9</ele>
    <time>2021-07-18T08:16:52Z</time>
   </trkpt>
   <trkpt lat="42.7381360" lon="-0.5028750">
    <ele>1873.5</ele>
    <time>2021-07-18T08:17:01Z</time>
   </trkpt>
   <trkpt lat="42.7380720" lon="-0.5029040">
    <ele>1874.7</ele>
    <time>2021-07-18T08:17:07Z</time>
   </trkpt>
   <trkpt lat="42.7380490" lon="-0.5029100">
    <ele>1876.7</ele>
    <time>2021-07-18T08:17:09Z</time>
   </trkpt>
   <trkpt lat="42.7380390" lon="-0.5029150">
    <ele>1876.7</ele>
    <time>2021-07-18T08:17:10Z</time>
   </trkpt>
   <trkpt lat="42.7380260" lon="-0.5029220">
    <ele>1878.6</ele>
    <time>2021-07-18T08:17:11Z</time>
   </trkpt>
   <trkpt lat="42.7380170" lon="-0.5029240">
    <ele>1878.6</ele>
    <time>2021-07-18T08:17:12Z</time>
   </trkpt>
   <trkpt lat="42.7379760" lon="-0.5029510">
    <ele>1878.0</ele>
    <time>2021-07-18T08:17:17Z</time>
   </trkpt>
   <trkpt lat="42.7379980" lon="-0.5029370">
    <ele>1878.0</ele>
    <time>2021-07-18T08:17:20Z</time>
   </trkpt>
   <trkpt lat="42.7380080" lon="-0.5029310">
    <ele>1876.2</ele>
    <time>2021-07-18T08:17:22Z</time>
   </trkpt>
   <trkpt lat="42.7380330" lon="-0.5029170">
    <ele>1876.7</ele>
    <time>2021-07-18T08:17:26Z</time>
   </trkpt>
   <trkpt lat="42.7380430" lon="-0.5029020">
    <ele>1876.7</ele>
    <time>2021-07-18T08:17:28Z</time>
   </trkpt>
   <trkpt lat="42.7380610" lon="-0.5028840">
    <ele>1876.7</ele>
    <time>2021-07-18T08:17:30Z</time>
   </trkpt>
   <trkpt lat="42.7381180" lon="-0.5028510">
    <ele>1875.3</ele>
    <time>2021-07-18T08:17:39Z</time>
   </trkpt>
   <trkpt lat="42.7379700" lon="-0.5027780">
    <ele>1888.0</ele>
    <time>2021-07-18T08:18:01Z</time>
   </trkpt>
   <trkpt lat="42.7379620" lon="-0.5027660">
    <ele>1889.6</ele>
    <time>2021-07-18T08:18:04Z</time>
   </trkpt>
   <trkpt lat="42.7379700" lon="-0.5027580">
    <ele>1888.0</ele>
    <time>2021-07-18T08:18:08Z</time>
   </trkpt>
   <trkpt lat="42.7380030" lon="-0.5027400">
    <ele>1888.7</ele>
    <time>2021-07-18T08:18:12Z</time>
   </trkpt>
   <trkpt lat="42.7380970" lon="-0.5026880">
    <ele>1885.3</ele>
    <time>2021-07-18T08:18:24Z</time>
   </trkpt>
   <trkpt lat="42.7381330" lon="-0.5026560">
    <ele>1885.8</ele>
    <time>2021-07-18T08:18:29Z</time>
   </trkpt>
   <trkpt lat="42.7381630" lon="-0.5026120">
    <ele>1886.5</ele>
    <time>2021-07-18T08:18:34Z</time>
   </trkpt>
   <trkpt lat="42.7381580" lon="-0.5026140">
    <ele>1886.5</ele>
    <time>2021-07-18T08:18:35Z</time>
   </trkpt>
   <trkpt lat="42.7381490" lon="-0.5026170">
    <ele>1888.1</ele>
    <time>2021-07-18T08:18:36Z</time>
   </trkpt>
   <trkpt lat="42.7381190" lon="-0.5026250">
    <ele>1887.6</ele>
    <time>2021-07-18T08:18:39Z</time>
   </trkpt>
   <trkpt lat="42.7380940" lon="-0.5026300">
    <ele>1887.6</ele>
    <time>2021-07-18T08:18:41Z</time>
   </trkpt>
   <trkpt lat="42.7379860" lon="-0.5026240">
    <ele>1897.2</ele>
    <time>2021-07-18T08:18:54Z</time>
   </trkpt>
   <trkpt lat="42.7380030" lon="-0.5026210">
    <ele>1895.5</ele>
    <time>2021-07-18T08:18:58Z</time>
   </trkpt>
   <trkpt lat="42.7380240" lon="-0.5026150">
    <ele>1895.5</ele>
    <time>2021-07-18T08:19:02Z</time>
   </trkpt>
   <trkpt lat="42.7380590" lon="-0.5025520">
    <ele>1895.8</ele>
    <time>2021-07-18T08:19:08Z</time>
   </trkpt>
   <trkpt lat="42.7381350" lon="-0.5024570">
    <ele>1894.7</ele>
    <time>2021-07-18T08:19:20Z</time>
   </trkpt>
   <trkpt lat="42.7380310" lon="-0.5024880">
    <ele>1900.3</ele>
    <time>2021-07-18T08:19:33Z</time>
   </trkpt>
   <trkpt lat="42.7379870" lon="-0.5025080">
    <ele>1901.6</ele>
    <time>2021-07-18T08:19:37Z</time>
   </trkpt>
   <trkpt lat="42.7379770" lon="-0.5025110">
    <ele>1901.6</ele>
    <time>2021-07-18T08:19:38Z</time>
   </trkpt>
   <trkpt lat="42.7379720" lon="-0.5025140">
    <ele>1901.6</ele>
    <time>2021-07-18T08:19:39Z</time>
   </trkpt>
   <trkpt lat="42.7379710" lon="-0.5025150">
    <ele>1901.6</ele>
    <time>2021-07-18T08:19:40Z</time>
   </trkpt>
   <trkpt lat="42.7379700" lon="-0.5025170">
    <ele>1901.6</ele>
    <time>2021-07-18T08:19:41Z</time>
   </trkpt>
   <trkpt lat="42.7379980" lon="-0.5025210">
    <ele>1901.6</ele>
    <time>2021-07-18T08:20:47Z</time>
   </trkpt>
   <trkpt lat="42.7380000" lon="-0.5025220">
    <ele>1899.9</ele>
    <time>2021-07-18T08:20:48Z</time>
   </trkpt>
   <trkpt lat="42.7380310" lon="-0.5024020">
    <ele>1904.8</ele>
    <time>2021-07-18T08:21:08Z</time>
   </trkpt>
   <trkpt lat="42.7380730" lon="-0.5023550">
    <ele>1904.9</ele>
    <time>2021-07-18T08:21:17Z</time>
   </trkpt>
   <trkpt lat="42.7380780" lon="-0.5023360">
    <ele>1904.9</ele>
    <time>2021-07-18T08:21:20Z</time>
   </trkpt>
   <trkpt lat="42.7380790" lon="-0.5023190">
    <ele>1907.0</ele>
    <time>2021-07-18T08:21:23Z</time>
   </trkpt>
   <trkpt lat="42.7380820" lon="-0.5023130">
    <ele>1907.0</ele>
    <time>2021-07-18T08:21:25Z</time>
   </trkpt>
   <trkpt lat="42.7380250" lon="-0.5022440">
    <ele>1912.9</ele>
    <time>2021-07-18T08:21:52Z</time>
   </trkpt>
   <trkpt lat="42.7378390" lon="-0.5022750">
    <ele>1923.1</ele>
    <time>2021-07-18T08:22:17Z</time>
   </trkpt>
   <trkpt lat="42.7376510" lon="-0.5023120">
    <ele>1931.0</ele>
    <time>2021-07-18T08:22:36Z</time>
   </trkpt>
   <trkpt lat="42.7375960" lon="-0.5023170">
    <ele>1932.5</ele>
    <time>2021-07-18T08:22:43Z</time>
   </trkpt>
   <trkpt lat="42.7375960" lon="-0.5023070">
    <ele>1932.5</ele>
    <time>2021-07-18T08:22:45Z</time>
   </trkpt>
   <trkpt lat="42.7376110" lon="-0.5022910">
    <ele>1932.5</ele>
    <time>2021-07-18T08:22:48Z</time>
   </trkpt>
   <trkpt lat="42.7376530" lon="-0.5022470">
    <ele>1931.5</ele>
    <time>2021-07-18T08:22:54Z</time>
   </trkpt>
   <trkpt lat="42.7377000" lon="-0.5022130">
    <ele>1932.0</ele>
    <time>2021-07-18T08:23:00Z</time>
   </trkpt>
   <trkpt lat="42.7377910" lon="-0.5021470">
    <ele>1930.7</ele>
    <time>2021-07-18T08:23:12Z</time>
   </trkpt>
   <trkpt lat="42.7378090" lon="-0.5021260">
    <ele>1930.7</ele>
    <time>2021-07-18T08:23:15Z</time>
   </trkpt>
   <trkpt lat="42.7378240" lon="-0.5021090">
    <ele>1930.6</ele>
    <time>2021-07-18T08:23:17Z</time>
   </trkpt>
   <trkpt lat="42.7378940" lon="-0.5020370">
    <ele>1928.8</ele>
    <time>2021-07-18T08:23:27Z</time>
   </trkpt>
   <trkpt lat="42.7378970" lon="-0.5020070">
    <ele>1930.7</ele>
    <time>2021-07-18T08:23:30Z</time>
   </trkpt>
   <trkpt lat="42.7379000" lon="-0.5019600">
    <ele>1932.8</ele>
    <time>2021-07-18T08:23:34Z</time>
   </trkpt>
   <trkpt lat="42.7379010" lon="-0.5019420">
    <ele>1932.8</ele>
    <time>2021-07-18T08:23:36Z</time>
   </trkpt>
   <trkpt lat="42.7378940" lon="-0.5019220">
    <ele>1934.9</ele>
    <time>2021-07-18T08:23:39Z</time>
   </trkpt>
   <trkpt lat="42.7378180" lon="-0.5019800">
    <ele>1936.5</ele>
    <time>2021-07-18T08:24:01Z</time>
   </trkpt>
   <trkpt lat="42.7379220" lon="-0.5017770">
    <ele>1939.1</ele>
    <time>2021-07-18T08:24:26Z</time>
   </trkpt>
   <trkpt lat="42.7379250" lon="-0.5017560">
    <ele>1940.9</ele>
    <time>2021-07-18T08:24:29Z</time>
   </trkpt>
   <trkpt lat="42.7379510" lon="-0.5017380">
    <ele>1939.3</ele>
    <time>2021-07-18T08:24:33Z</time>
   </trkpt>
   <trkpt lat="42.7379610" lon="-0.5017090">
    <ele>1941.2</ele>
    <time>2021-07-18T08:24:37Z</time>
   </trkpt>
   <trkpt lat="42.7379610" lon="-0.5016790">
    <ele>1943.1</ele>
    <time>2021-07-18T08:24:41Z</time>
   </trkpt>
   <trkpt lat="42.7379750" lon="-0.5016600">
    <ele>1941.4</ele>
    <time>2021-07-18T08:24:43Z</time>
   </trkpt>
   <trkpt lat="42.7380500" lon="-0.5015290">
    <ele>1943.7</ele>
    <time>2021-07-18T08:24:58Z</time>
   </trkpt>
   <trkpt lat="42.7380550" lon="-0.5015240">
    <ele>1943.7</ele>
    <time>2021-07-18T08:24:59Z</time>
   </trkpt>
   <trkpt lat="42.7380960" lon="-0.5014870">
    <ele>1941.7</ele>
    <time>2021-07-18T08:25:02Z</time>
   </trkpt>
   <trkpt lat="42.7380900" lon="-0.5014740">
    <ele>1943.8</ele>
    <time>2021-07-18T08:25:04Z</time>
   </trkpt>
   <trkpt lat="42.7381210" lon="-0.5014530">
    <ele>1944.0</ele>
    <time>2021-07-18T08:25:07Z</time>
   </trkpt>
   <trkpt lat="42.7381030" lon="-0.5014470">
    <ele>1944.0</ele>
    <time>2021-07-18T08:25:11Z</time>
   </trkpt>
   <trkpt lat="42.7380680" lon="-0.5014780">
    <ele>1943.8</ele>
    <time>2021-07-18T08:25:16Z</time>
   </trkpt>
   <trkpt lat="42.7380500" lon="-0.5015180">
    <ele>1943.7</ele>
    <time>2021-07-18T08:25:20Z</time>
   </trkpt>
   <trkpt lat="42.7380000" lon="-0.5015850">
    <ele>1943.6</ele>
    <time>2021-07-18T08:25:27Z</time>
   </trkpt>
   <trkpt lat="42.7379810" lon="-0.5016010">
    <ele>1943.4</ele>
    <time>2021-07-18T08:25:29Z</time>
   </trkpt>
   <trkpt lat="42.7379610" lon="-0.5016170">
    <ele>1945.1</ele>
    <time>2021-07-18T08:25:32Z</time>
   </trkpt>
   <trkpt lat="42.7379240" lon="-0.5016340">
    <ele>1946.6</ele>
    <time>2021-07-18T08:25:35Z</time>
   </trkpt>
   <trkpt lat="42.7378430" lon="-0.5016660">
    <ele>1948.0</ele>
    <time>2021-07-18T08:25:43Z</time>
   </trkpt>
   <trkpt lat="42.7378220" lon="-0.5016810">
    <ele>1948.0</ele>
    <time>2021-07-18T08:25:46Z</time>
   </trkpt>
   <trkpt lat="42.7378180" lon="-0.5016810">
    <ele>1948.0</ele>
    <time>2021-07-18T08:25:47Z</time>
   </trkpt>
   <trkpt lat="42.7378070" lon="-0.5016810">
    <ele>1949.9</ele>
    <time>2021-07-18T08:25:50Z</time>
   </trkpt>
   <trkpt lat="42.7377850" lon="-0.5016730">
    <ele>1951.7</ele>
    <time>2021-07-18T08:26:11Z</time>
   </trkpt>
   <trkpt lat="42.7377630" lon="-0.5016700">
    <ele>1953.5</ele>
    <time>2021-07-18T08:26:17Z</time>
   </trkpt>
   <trkpt lat="42.7377520" lon="-0.5016670">
    <ele>1953.5</ele>
    <time>2021-07-18T08:26:20Z</time>
   </trkpt>
   <trkpt lat="42.7377450" lon="-0.5016710">
    <ele>1955.2</ele>
    <time>2021-07-18T08:26:23Z</time>
   </trkpt>
   <trkpt lat="42.7377270" lon="-0.5016740">
    <ele>1955.2</ele>
    <time>2021-07-18T08:26:25Z</time>
   </trkpt>
   <trkpt lat="42.7377090" lon="-0.5016930">
    <ele>1954.9</ele>
    <time>2021-07-18T08:26:27Z</time>
   </trkpt>
   <trkpt lat="42.7376900" lon="-0.5017060">
    <ele>1954.9</ele>
    <time>2021-07-18T08:26:30Z</time>
   </trkpt>
   <trkpt lat="42.7376830" lon="-0.5017200">
    <ele>1954.9</ele>
    <time>2021-07-18T08:26:33Z</time>
   </trkpt>
   <trkpt lat="42.7376430" lon="-0.5017510">
    <ele>1956.1</ele>
    <time>2021-07-18T08:26:41Z</time>
   </trkpt>
   <trkpt lat="42.7376090" lon="-0.5017810">
    <ele>1955.9</ele>
    <time>2021-07-18T08:26:58Z</time>
   </trkpt>
   <trkpt lat="42.7375230" lon="-0.5017550">
    <ele>1962.7</ele>
    <time>2021-07-18T08:27:20Z</time>
   </trkpt>
   <trkpt lat="42.7375230" lon="-0.5017470">
    <ele>1962.7</ele>
    <time>2021-07-18T08:27:21Z</time>
   </trkpt>
   <trkpt lat="42.7375270" lon="-0.5017390">
    <ele>1961.0</ele>
    <time>2021-07-18T08:27:22Z</time>
   </trkpt>
   <trkpt lat="42.7375300" lon="-0.5017300">
    <ele>1961.0</ele>
    <time>2021-07-18T08:27:23Z</time>
   </trkpt>
   <trkpt lat="42.7375110" lon="-0.5017370">
    <ele>1962.7</ele>
    <time>2021-07-18T08:27:35Z</time>
   </trkpt>
   <trkpt lat="42.7375290" lon="-0.5017390">
    <ele>1961.0</ele>
    <time>2021-07-18T08:27:42Z</time>
   </trkpt>
   <trkpt lat="42.7375030" lon="-0.5017810">
    <ele>1960.9</ele>
    <time>2021-07-18T08:27:46Z</time>
   </trkpt>
   <trkpt lat="42.7374970" lon="-0.5017930">
    <ele>1960.9</ele>
    <time>2021-07-18T08:27:48Z</time>
   </trkpt>
   <trkpt lat="42.7374890" lon="-0.5018020">
    <ele>1962.5</ele>
    <time>2021-07-18T08:27:49Z</time>
   </trkpt>
   <trkpt lat="42.7374450" lon="-0.5016920">
    <ele>1967.9</ele>
    <time>2021-07-18T08:28:12Z</time>
   </trkpt>
   <trkpt lat="42.7374430" lon="-0.5016920">
    <ele>1967.9</ele>
    <time>2021-07-18T08:28:13Z</time>
   </trkpt>
   <trkpt lat="42.7374500" lon="-0.5016990">
    <ele>1967.9</ele>
    <time>2021-07-18T08:28:16Z</time>
   </trkpt>
   <trkpt lat="42.7374630" lon="-0.5016910">
    <ele>1966.2</ele>
    <time>2021-07-18T08:28:19Z</time>
   </trkpt>
   <trkpt lat="42.7374710" lon="-0.5016930">
    <ele>1966.2</ele>
    <time>2021-07-18T08:28:22Z</time>
   </trkpt>
   <trkpt lat="42.7374670" lon="-0.5016950">
    <ele>1966.2</ele>
    <time>2021-07-18T08:28:23Z</time>
   </trkpt>
   <trkpt lat="42.7374640" lon="-0.5016890">
    <ele>1966.2</ele>
    <time>2021-07-18T08:28:26Z</time>
   </trkpt>
   <trkpt lat="42.7374610" lon="-0.5016880">
    <ele>1967.9</ele>
    <time>2021-07-18T08:28:28Z</time>
   </trkpt>
   <trkpt lat="42.7374760" lon="-0.5016920">
    <ele>1966.2</ele>
    <time>2021-07-18T08:28:34Z</time>
   </trkpt>
   <trkpt lat="42.7374900" lon="-0.5017200">
    <ele>1966.2</ele>
    <time>2021-07-18T08:28:42Z</time>
   </trkpt>
   <trkpt lat="42.7374720" lon="-0.5016600">
    <ele>1968.1</ele>
    <time>2021-07-18T08:28:57Z</time>
   </trkpt>
   <trkpt lat="42.7374590" lon="-0.5016440">
    <ele>1969.8</ele>
    <time>2021-07-18T08:29:02Z</time>
   </trkpt>
   <trkpt lat="42.7372980" lon="-0.5016310">
    <ele>1980.6</ele>
    <time>2021-07-18T08:29:45Z</time>
   </trkpt>
   <trkpt lat="42.7372750" lon="-0.5016540">
    <ele>1978.4</ele>
    <time>2021-07-18T08:30:15Z</time>
   </trkpt>
   <trkpt lat="42.7372740" lon="-0.5016720">
    <ele>1978.4</ele>
    <time>2021-07-18T08:30:19Z</time>
   </trkpt>
   <trkpt lat="42.7372740" lon="-0.5016710">
    <ele>1978.4</ele>
    <time>2021-07-18T08:30:23Z</time>
   </trkpt>
   <trkpt lat="42.7372720" lon="-0.5016700">
    <ele>1980.3</ele>
    <time>2021-07-18T08:30:26Z</time>
   </trkpt>
   <trkpt lat="42.7372520" lon="-0.5016730">
    <ele>1980.3</ele>
    <time>2021-07-18T08:30:29Z</time>
   </trkpt>
   <trkpt lat="42.7372190" lon="-0.5016840">
    <ele>1980.1</ele>
    <time>2021-07-18T08:30:32Z</time>
   </trkpt>
   <trkpt lat="42.7372130" lon="-0.5016820">
    <ele>1980.1</ele>
    <time>2021-07-18T08:30:34Z</time>
   </trkpt>
   <trkpt lat="42.7371950" lon="-0.5016680">
    <ele>1984.4</ele>
    <time>2021-07-18T08:30:38Z</time>
   </trkpt>
   <trkpt lat="42.7371860" lon="-0.5016650">
    <ele>1984.4</ele>
    <time>2021-07-18T08:30:40Z</time>
   </trkpt>
   <trkpt lat="42.7371750" lon="-0.5016680">
    <ele>1986.5</ele>
    <time>2021-07-18T08:30:42Z</time>
   </trkpt>
   <trkpt lat="42.7371740" lon="-0.5016710">
    <ele>1986.5</ele>
    <time>2021-07-18T08:30:43Z</time>
   </trkpt>
   <trkpt lat="42.7371800" lon="-0.5016750">
    <ele>1984.4</ele>
    <time>2021-07-18T08:30:46Z</time>
   </trkpt>
   <trkpt lat="42.7371760" lon="-0.5016790">
    <ele>1986.5</ele>
    <time>2021-07-18T08:30:48Z</time>
   </trkpt>
   <trkpt lat="42.7371400" lon="-0.5017130">
    <ele>1986.3</ele>
    <time>2021-07-18T08:30:53Z</time>
   </trkpt>
   <trkpt lat="42.7371350" lon="-0.5017160">
    <ele>1986.3</ele>
    <time>2021-07-18T08:30:56Z</time>
   </trkpt>
   <trkpt lat="42.7371450" lon="-0.5017190">
    <ele>1986.3</ele>
    <time>2021-07-18T08:30:59Z</time>
   </trkpt>
   <trkpt lat="42.7371320" lon="-0.5017290">
    <ele>1984.1</ele>
    <time>2021-07-18T08:31:02Z</time>
   </trkpt>
   <trkpt lat="42.7370980" lon="-0.5017130">
    <ele>1988.2</ele>
    <time>2021-07-18T08:31:05Z</time>
   </trkpt>
   <trkpt lat="42.7370770" lon="-0.5017090">
    <ele>1990.1</ele>
    <time>2021-07-18T08:31:08Z</time>
   </trkpt>
   <trkpt lat="42.7370620" lon="-0.5017150">
    <ele>1990.1</ele>
    <time>2021-07-18T08:31:10Z</time>
   </trkpt>
   <trkpt lat="42.7370360" lon="-0.5017040">
    <ele>1992.0</ele>
    <time>2021-07-18T08:31:12Z</time>
   </trkpt>
   <trkpt lat="42.7370360" lon="-0.5017030">
    <ele>1992.0</ele>
    <time>2021-07-18T08:31:14Z</time>
   </trkpt>
   <trkpt lat="42.7370250" lon="-0.5017170">
    <ele>1992.0</ele>
    <time>2021-07-18T08:31:17Z</time>
   </trkpt>
   <trkpt lat="42.7370120" lon="-0.5017030">
    <ele>1994.0</ele>
    <time>2021-07-18T08:31:22Z</time>
   </trkpt>
   <trkpt lat="42.7370060" lon="-0.5017000">
    <ele>1994.0</ele>
    <time>2021-07-18T08:31:23Z</time>
   </trkpt>
   <trkpt lat="42.7369880" lon="-0.5016970">
    <ele>1996.2</ele>
    <time>2021-07-18T08:31:25Z</time>
   </trkpt>
   <trkpt lat="42.7369600" lon="-0.5016920">
    <ele>1996.2</ele>
    <time>2021-07-18T08:31:29Z</time>
   </trkpt>
   <trkpt lat="42.7369450" lon="-0.5016940">
    <ele>1998.4</ele>
    <time>2021-07-18T08:31:31Z</time>
   </trkpt>
   <trkpt lat="42.7369400" lon="-0.5016920">
    <ele>1998.4</ele>
    <time>2021-07-18T08:31:32Z</time>
   </trkpt>
   <trkpt lat="42.7369320" lon="-0.5016900">
    <ele>1998.4</ele>
    <time>2021-07-18T08:31:33Z</time>
   </trkpt>
   <trkpt lat="42.7369310" lon="-0.5016890">
    <ele>1998.4</ele>
    <time>2021-07-18T08:31:34Z</time>
   </trkpt>
   <trkpt lat="42.7369320" lon="-0.5016900">
    <ele>1998.4</ele>
    <time>2021-07-18T08:31:35Z</time>
   </trkpt>
   <trkpt lat="42.7369320" lon="-0.5016920">
    <ele>1998.4</ele>
    <time>2021-07-18T08:31:36Z</time>
   </trkpt>
   <trkpt lat="42.7369270" lon="-0.5017090">
    <ele>1998.4</ele>
    <time>2021-07-18T08:31:41Z</time>
   </trkpt>
   <trkpt lat="42.7369320" lon="-0.5017200">
    <ele>1998.4</ele>
    <time>2021-07-18T08:31:42Z</time>
   </trkpt>
   <trkpt lat="42.7369320" lon="-0.5017360">
    <ele>1996.2</ele>
    <time>2021-07-18T08:31:44Z</time>
   </trkpt>
   <trkpt lat="42.7369310" lon="-0.5017410">
    <ele>1996.2</ele>
    <time>2021-07-18T08:31:47Z</time>
   </trkpt>
   <trkpt lat="42.7369280" lon="-0.5017430">
    <ele>1996.3</ele>
    <time>2021-07-18T08:31:49Z</time>
   </trkpt>
   <trkpt lat="42.7369280" lon="-0.5017710">
    <ele>1994.2</ele>
    <time>2021-07-18T08:31:54Z</time>
   </trkpt>
   <trkpt lat="42.7368760" lon="-0.5018180">
    <ele>1996.8</ele>
    <time>2021-07-18T08:31:59Z</time>
   </trkpt>
   <trkpt lat="42.7368610" lon="-0.5018240">
    <ele>1999.0</ele>
    <time>2021-07-18T08:32:01Z</time>
   </trkpt>
   <trkpt lat="42.7368420" lon="-0.5018390">
    <ele>1999.1</ele>
    <time>2021-07-18T08:32:04Z</time>
   </trkpt>
   <trkpt lat="42.7368320" lon="-0.5018430">
    <ele>1999.1</ele>
    <time>2021-07-18T08:32:05Z</time>
   </trkpt>
   <trkpt lat="42.7368290" lon="-0.5018510">
    <ele>2001.1</ele>
    <time>2021-07-18T08:32:06Z</time>
   </trkpt>
   <trkpt lat="42.7368240" lon="-0.5018530">
    <ele>1999.1</ele>
    <time>2021-07-18T08:32:07Z</time>
   </trkpt>
   <trkpt lat="42.7368070" lon="-0.5018690">
    <ele>1999.1</ele>
    <time>2021-07-18T08:32:09Z</time>
   </trkpt>
   <trkpt lat="42.7367810" lon="-0.5018640">
    <ele>2001.2</ele>
    <time>2021-07-18T08:32:11Z</time>
   </trkpt>
   <trkpt lat="42.7367470" lon="-0.5018550">
    <ele>2003.2</ele>
    <time>2021-07-18T08:32:15Z</time>
   </trkpt>
   <trkpt lat="42.7367300" lon="-0.5018570">
    <ele>2005.3</ele>
    <time>2021-07-18T08:32:17Z</time>
   </trkpt>
   <trkpt lat="42.7367200" lon="-0.5018590">
    <ele>2005.4</ele>
    <time>2021-07-18T08:32:18Z</time>
   </trkpt>
   <trkpt lat="42.7366950" lon="-0.5018800">
    <ele>2007.6</ele>
    <time>2021-07-18T08:32:21Z</time>
   </trkpt>
   <trkpt lat="42.7366860" lon="-0.5018880">
    <ele>2007.7</ele>
    <time>2021-07-18T08:32:22Z</time>
   </trkpt>
   <trkpt lat="42.7366730" lon="-0.5018930">
    <ele>2009.9</ele>
    <time>2021-07-18T08:32:23Z</time>
   </trkpt>
   <trkpt lat="42.7366640" lon="-0.5018930">
    <ele>2009.9</ele>
    <time>2021-07-18T08:32:24Z</time>
   </trkpt>
   <trkpt lat="42.7366510" lon="-0.5019060">
    <ele>2007.9</ele>
    <time>2021-07-18T08:32:26Z</time>
   </trkpt>
   <trkpt lat="42.7366090" lon="-0.5019190">
    <ele>2012.2</ele>
    <time>2021-07-18T08:32:30Z</time>
   </trkpt>
   <trkpt lat="42.7365860" lon="-0.5019140">
    <ele>2012.3</ele>
    <time>2021-07-18T08:32:32Z</time>
   </trkpt>
   <trkpt lat="42.7364360" lon="-0.5019070">
    <ele>2021.8</ele>
    <time>2021-07-18T08:32:47Z</time>
   </trkpt>
   <trkpt lat="42.7362590" lon="-0.5019310">
    <ele>2030.3</ele>
    <time>2021-07-18T08:33:04Z</time>
   </trkpt>
   <trkpt lat="42.7361720" lon="-0.5019750">
    <ele>2030.8</ele>
    <time>2021-07-18T08:33:16Z</time>
   </trkpt>
   <trkpt lat="42.7361430" lon="-0.5019850">
    <ele>2030.3</ele>
    <time>2021-07-18T08:33:19Z</time>
   </trkpt>
   <trkpt lat="42.7361240" lon="-0.5019920">
    <ele>2030.8</ele>
    <time>2021-07-18T08:33:22Z</time>
   </trkpt>
   <trkpt lat="42.7360810" lon="-0.5020110">
    <ele>2030.9</ele>
    <time>2021-07-18T08:33:26Z</time>
   </trkpt>
   <trkpt lat="42.7360540" lon="-0.5020050">
    <ele>2031.0</ele>
    <time>2021-07-18T08:33:29Z</time>
   </trkpt>
   <trkpt lat="42.7360280" lon="-0.5019900">
    <ele>2030.7</ele>
    <time>2021-07-18T08:33:33Z</time>
   </trkpt>
   <trkpt lat="42.7360310" lon="-0.5019830">
    <ele>2030.8</ele>
    <time>2021-07-18T08:33:35Z</time>
   </trkpt>
   <trkpt lat="42.7360420" lon="-0.5019640">
    <ele>2031.6</ele>
    <time>2021-07-18T08:33:38Z</time>
   </trkpt>
   <trkpt lat="42.7360480" lon="-0.5019110">
    <ele>2032.8</ele>
    <time>2021-07-18T08:33:46Z</time>
   </trkpt>
   <trkpt lat="42.7360630" lon="-0.5018690">
    <ele>2033.7</ele>
    <time>2021-07-18T08:33:53Z</time>
   </trkpt>
   <trkpt lat="42.7359750" lon="-0.5017880">
    <ele>2032.9</ele>
    <time>2021-07-18T08:34:30Z</time>
   </trkpt>
   <trkpt lat="42.7359610" lon="-0.5017890">
    <ele>2033.0</ele>
    <time>2021-07-18T08:34:35Z</time>
   </trkpt>
   <trkpt lat="42.7365550" lon="-0.5011830">
    <ele>2045.9</ele>
    <time>2021-07-18T08:38:52Z</time>
   </trkpt>
   <trkpt lat="42.7365560" lon="-0.5011790">
    <ele>2046.0</ele>
    <time>2021-07-18T08:38:53Z</time>
   </trkpt>
   <trkpt lat="42.7365630" lon="-0.5011510">
    <ele>2047.8</ele>
    <time>2021-07-18T08:39:02Z</time>
   </trkpt>
   <trkpt lat="42.7365560" lon="-0.5011140">
    <ele>2049.6</ele>
    <time>2021-07-18T08:39:11Z</time>
   </trkpt>
   <trkpt lat="42.7365630" lon="-0.5010840">
    <ele>2049.6</ele>
    <time>2021-07-18T08:39:15Z</time>
   </trkpt>
   <trkpt lat="42.7365620" lon="-0.5010760">
    <ele>2051.5</ele>
    <time>2021-07-18T08:39:16Z</time>
   </trkpt>
   <trkpt lat="42.7365580" lon="-0.5010630">
    <ele>2051.6</ele>
    <time>2021-07-18T08:39:17Z</time>
   </trkpt>
   <trkpt lat="42.7365550" lon="-0.5010560">
    <ele>2051.6</ele>
    <time>2021-07-18T08:39:18Z</time>
   </trkpt>
   <trkpt lat="42.7365660" lon="-0.5010220">
    <ele>2053.4</ele>
    <time>2021-07-18T08:39:24Z</time>
   </trkpt>
   <trkpt lat="42.7365710" lon="-0.5010160">
    <ele>2053.5</ele>
    <time>2021-07-18T08:39:25Z</time>
   </trkpt>
   <trkpt lat="42.7365930" lon="-0.5009960">
    <ele>2053.2</ele>
    <time>2021-07-18T08:39:30Z</time>
   </trkpt>
   <trkpt lat="42.7365950" lon="-0.5009930">
    <ele>2055.1</ele>
    <time>2021-07-18T08:39:31Z</time>
   </trkpt>
   <trkpt lat="42.7365960" lon="-0.5009890">
    <ele>2055.1</ele>
    <time>2021-07-18T08:39:32Z</time>
   </trkpt>
   <trkpt lat="42.7367190" lon="-0.5008020">
    <ele>2060.7</ele>
    <time>2021-07-18T08:40:07Z</time>
   </trkpt>
   <trkpt lat="42.7367430" lon="-0.5007710">
    <ele>2062.0</ele>
    <time>2021-07-18T08:40:12Z</time>
   </trkpt>
   <trkpt lat="42.7368340" lon="-0.5005640">
    <ele>2069.2</ele>
    <time>2021-07-18T08:40:45Z</time>
   </trkpt>
   <trkpt lat="42.7369210" lon="-0.5003920">
    <ele>2074.2</ele>
    <time>2021-07-18T08:41:20Z</time>
   </trkpt>
   <trkpt lat="42.7370130" lon="-0.5001880">
    <ele>2077.9</ele>
    <time>2021-07-18T08:41:47Z</time>
   </trkpt>
   <trkpt lat="42.7370910" lon="-0.4999600">
    <ele>2086.1</ele>
    <time>2021-07-18T08:42:09Z</time>
   </trkpt>
   <trkpt lat="42.7371490" lon="-0.4998700">
    <ele>2086.9</ele>
    <time>2021-07-18T08:42:16Z</time>
   </trkpt>
   <trkpt lat="42.7372930" lon="-0.4997110">
    <ele>2086.5</ele>
    <time>2021-07-18T08:42:30Z</time>
   </trkpt>
   <trkpt lat="42.7373910" lon="-0.4995240">
    <ele>2091.4</ele>
    <time>2021-07-18T08:42:46Z</time>
   </trkpt>
   <trkpt lat="42.7375130" lon="-0.4993350">
    <ele>2091.7</ele>
    <time>2021-07-18T08:43:06Z</time>
   </trkpt>
   <trkpt lat="42.7375460" lon="-0.4992590">
    <ele>2093.6</ele>
    <time>2021-07-18T08:43:13Z</time>
   </trkpt>
   <trkpt lat="42.7376860" lon="-0.4990950">
    <ele>2092.0</ele>
    <time>2021-07-18T08:43:33Z</time>
   </trkpt>
   <trkpt lat="42.7377250" lon="-0.4990890">
    <ele>2090.4</ele>
    <time>2021-07-18T08:43:39Z</time>
   </trkpt>
   <trkpt lat="42.7377510" lon="-0.4990840">
    <ele>2088.6</ele>
    <time>2021-07-18T08:43:53Z</time>
   </trkpt>
   <trkpt lat="42.7377020" lon="-0.4991360">
    <ele>2090.5</ele>
    <time>2021-07-18T08:44:10Z</time>
   </trkpt>
   <trkpt lat="42.7376850" lon="-0.4991620">
    <ele>2088.9</ele>
    <time>2021-07-18T08:44:16Z</time>
   </trkpt>
   <trkpt lat="42.7376470" lon="-0.4991710">
    <ele>2092.2</ele>
    <time>2021-07-18T08:44:25Z</time>
   </trkpt>
   <trkpt lat="42.7375990" lon="-0.4991550">
    <ele>2093.9</ele>
    <time>2021-07-18T08:44:32Z</time>
   </trkpt>
   <trkpt lat="42.7375420" lon="-0.4991510">
    <ele>2097.3</ele>
    <time>2021-07-18T08:44:35Z</time>
   </trkpt>
   <trkpt lat="42.7375350" lon="-0.4991490">
    <ele>2097.4</ele>
    <time>2021-07-18T08:44:36Z</time>
   </trkpt>
   <trkpt lat="42.7375200" lon="-0.4991480">
    <ele>2100.6</ele>
    <time>2021-07-18T08:44:38Z</time>
   </trkpt>
   <trkpt lat="42.7375080" lon="-0.4991310">
    <ele>2100.6</ele>
    <time>2021-07-18T08:44:41Z</time>
   </trkpt>
   <trkpt lat="42.7374990" lon="-0.4991010">
    <ele>2102.1</ele>
    <time>2021-07-18T08:44:44Z</time>
   </trkpt>
   <trkpt lat="42.7374960" lon="-0.4990940">
    <ele>2102.1</ele>
    <time>2021-07-18T08:44:45Z</time>
   </trkpt>
   <trkpt lat="42.7374960" lon="-0.4990900">
    <ele>2102.2</ele>
    <time>2021-07-18T08:44:46Z</time>
   </trkpt>
   <trkpt lat="42.7374830" lon="-0.4990730">
    <ele>2103.7</ele>
    <time>2021-07-18T08:44:50Z</time>
   </trkpt>
   <trkpt lat="42.7374660" lon="-0.4990530">
    <ele>2105.0</ele>
    <time>2021-07-18T08:44:54Z</time>
   </trkpt>
   <trkpt lat="42.7374610" lon="-0.4990480">
    <ele>2106.5</ele>
    <time>2021-07-18T08:44:55Z</time>
   </trkpt>
   <trkpt lat="42.7374430" lon="-0.4990410">
    <ele>2106.6</ele>
    <time>2021-07-18T08:44:58Z</time>
   </trkpt>
   <trkpt lat="42.7374360" lon="-0.4990380">
    <ele>2106.6</ele>
    <time>2021-07-18T08:45:00Z</time>
   </trkpt>
   <trkpt lat="42.7374560" lon="-0.4988920">
    <ele>2110.2</ele>
    <time>2021-07-18T08:45:28Z</time>
   </trkpt>
   <trkpt lat="42.7374560" lon="-0.4988860">
    <ele>2111.6</ele>
    <time>2021-07-18T08:45:29Z</time>
   </trkpt>
   <trkpt lat="42.7374610" lon="-0.4988760">
    <ele>2111.6</ele>
    <time>2021-07-18T08:45:30Z</time>
   </trkpt>
   <trkpt lat="42.7374500" lon="-0.4987130">
    <ele>2116.3</ele>
    <time>2021-07-18T08:45:50Z</time>
   </trkpt>
   <trkpt lat="42.7374250" lon="-0.4986480">
    <ele>2118.6</ele>
    <time>2021-07-18T08:45:59Z</time>
   </trkpt>
   <trkpt lat="42.7374260" lon="-0.4986410">
    <ele>2118.6</ele>
    <time>2021-07-18T08:46:00Z</time>
   </trkpt>
   <trkpt lat="42.7374260" lon="-0.4986330">
    <ele>2119.7</ele>
    <time>2021-07-18T08:46:01Z</time>
   </trkpt>
   <trkpt lat="42.7374190" lon="-0.4985710">
    <ele>2120.6</ele>
    <time>2021-07-18T08:46:07Z</time>
   </trkpt>
   <trkpt lat="42.7374210" lon="-0.4985570">
    <ele>2120.7</ele>
    <time>2021-07-18T08:46:08Z</time>
   </trkpt>
   <trkpt lat="42.7374240" lon="-0.4985460">
    <ele>2121.5</ele>
    <time>2021-07-18T08:46:09Z</time>
   </trkpt>
   <trkpt lat="42.7375420" lon="-0.4984330">
    <ele>2118.7</ele>
    <time>2021-07-18T08:46:32Z</time>
   </trkpt>
   <trkpt lat="42.7375410" lon="-0.4983330">
    <ele>2121.0</ele>
    <time>2021-07-18T08:46:42Z</time>
   </trkpt>
   <trkpt lat="42.7376260" lon="-0.4981360">
    <ele>2122.8</ele>
    <time>2021-07-18T08:47:14Z</time>
   </trkpt>
   <trkpt lat="42.7376370" lon="-0.4981120">
    <ele>2123.9</ele>
    <time>2021-07-18T08:47:17Z</time>
   </trkpt>
   <trkpt lat="42.7377060" lon="-0.4978860">
    <ele>2128.0</ele>
    <time>2021-07-18T08:47:46Z</time>
   </trkpt>
   <trkpt lat="42.7377260" lon="-0.4977340">
    <ele>2131.2</ele>
    <time>2021-07-18T08:48:14Z</time>
   </trkpt>
   <trkpt lat="42.7377180" lon="-0.4976230">
    <ele>2135.1</ele>
    <time>2021-07-18T08:49:07Z</time>
   </trkpt>
   <trkpt lat="42.7377080" lon="-0.4976180">
    <ele>2136.1</ele>
    <time>2021-07-18T08:49:08Z</time>
   </trkpt>
   <trkpt lat="42.7376760" lon="-0.4975900">
    <ele>2138.3</ele>
    <time>2021-07-18T08:49:14Z</time>
   </trkpt>
   <trkpt lat="42.7376590" lon="-0.4975680">
    <ele>2138.3</ele>
    <time>2021-07-18T08:49:17Z</time>
   </trkpt>
   <trkpt lat="42.7376420" lon="-0.4975450">
    <ele>2140.5</ele>
    <time>2021-07-18T08:49:22Z</time>
   </trkpt>
   <trkpt lat="42.7376380" lon="-0.4975390">
    <ele>2140.5</ele>
    <time>2021-07-18T08:49:23Z</time>
   </trkpt>
   <trkpt lat="42.7376350" lon="-0.4975360">
    <ele>2140.5</ele>
    <time>2021-07-18T08:49:24Z</time>
   </trkpt>
   <trkpt lat="42.7376090" lon="-0.4974500">
    <ele>2144.0</ele>
    <time>2021-07-18T08:49:36Z</time>
   </trkpt>
   <trkpt lat="42.7376140" lon="-0.4974420">
    <ele>2144.0</ele>
    <time>2021-07-18T08:49:37Z</time>
   </trkpt>
   <trkpt lat="42.7376200" lon="-0.4974360">
    <ele>2143.2</ele>
    <time>2021-07-18T08:49:38Z</time>
   </trkpt>
   <trkpt lat="42.7376340" lon="-0.4974240">
    <ele>2144.6</ele>
    <time>2021-07-18T08:49:40Z</time>
   </trkpt>
   <trkpt lat="42.7376430" lon="-0.4974160">
    <ele>2144.6</ele>
    <time>2021-07-18T08:49:41Z</time>
   </trkpt>
   <trkpt lat="42.7376530" lon="-0.4974100">
    <ele>2143.9</ele>
    <time>2021-07-18T08:49:42Z</time>
   </trkpt>
   <trkpt lat="42.7376880" lon="-0.4973780">
    <ele>2144.5</ele>
    <time>2021-07-18T08:49:47Z</time>
   </trkpt>
   <trkpt lat="42.7377140" lon="-0.4972170">
    <ele>2149.7</ele>
    <time>2021-07-18T08:50:08Z</time>
   </trkpt>
   <trkpt lat="42.7377150" lon="-0.4972090">
    <ele>2149.0</ele>
    <time>2021-07-18T08:50:09Z</time>
   </trkpt>
   <trkpt lat="42.7377260" lon="-0.4971870">
    <ele>2149.0</ele>
    <time>2021-07-18T08:50:13Z</time>
   </trkpt>
   <trkpt lat="42.7377100" lon="-0.4971610">
    <ele>2150.9</ele>
    <time>2021-07-18T08:50:18Z</time>
   </trkpt>
   <trkpt lat="42.7377040" lon="-0.4971480">
    <ele>2150.9</ele>
    <time>2021-07-18T08:50:20Z</time>
   </trkpt>
   <trkpt lat="42.7377020" lon="-0.4971400">
    <ele>2150.9</ele>
    <time>2021-07-18T08:50:21Z</time>
   </trkpt>
   <trkpt lat="42.7377060" lon="-0.4971070">
    <ele>2152.2</ele>
    <time>2021-07-18T08:50:25Z</time>
   </trkpt>
   <trkpt lat="42.7377040" lon="-0.4970070">
    <ele>2154.9</ele>
    <time>2021-07-18T08:50:36Z</time>
   </trkpt>
   <trkpt lat="42.7377060" lon="-0.4969990">
    <ele>2156.4</ele>
    <time>2021-07-18T08:50:37Z</time>
   </trkpt>
   <trkpt lat="42.7377160" lon="-0.4969690">
    <ele>2155.8</ele>
    <time>2021-07-18T08:50:41Z</time>
   </trkpt>
   <trkpt lat="42.7377430" lon="-0.4968910">
    <ele>2158.9</ele>
    <time>2021-07-18T08:50:50Z</time>
   </trkpt>
   <trkpt lat="42.7377520" lon="-0.4968660">
    <ele>2159.8</ele>
    <time>2021-07-18T08:50:53Z</time>
   </trkpt>
   <trkpt lat="42.7377600" lon="-0.4968320">
    <ele>2159.8</ele>
    <time>2021-07-18T08:50:57Z</time>
   </trkpt>
   <trkpt lat="42.7377630" lon="-0.4968170">
    <ele>2161.3</ele>
    <time>2021-07-18T08:50:59Z</time>
   </trkpt>
   <trkpt lat="42.7377720" lon="-0.4967660">
    <ele>2162.7</ele>
    <time>2021-07-18T08:51:05Z</time>
   </trkpt>
   <trkpt lat="42.7377720" lon="-0.4967180">
    <ele>2164.2</ele>
    <time>2021-07-18T08:51:11Z</time>
   </trkpt>
   <trkpt lat="42.7377960" lon="-0.4966680">
    <ele>2165.2</ele>
    <time>2021-07-18T08:51:17Z</time>
   </trkpt>
   <trkpt lat="42.7377540" lon="-0.4964460">
    <ele>2174.5</ele>
    <time>2021-07-18T08:51:55Z</time>
   </trkpt>
   <trkpt lat="42.7377620" lon="-0.4962620">
    <ele>2183.0</ele>
    <time>2021-07-18T08:52:28Z</time>
   </trkpt>
   <trkpt lat="42.7377690" lon="-0.4961420">
    <ele>2187.9</ele>
    <time>2021-07-18T08:52:45Z</time>
   </trkpt>
   <trkpt lat="42.7377690" lon="-0.4961360">
    <ele>2187.9</ele>
    <time>2021-07-18T08:52:46Z</time>
   </trkpt>
   <trkpt lat="42.7377710" lon="-0.4961290">
    <ele>2187.9</ele>
    <time>2021-07-18T08:52:47Z</time>
   </trkpt>
   <trkpt lat="42.7377730" lon="-0.4961230">
    <ele>2187.9</ele>
    <time>2021-07-18T08:52:48Z</time>
   </trkpt>
   <trkpt lat="42.7377950" lon="-0.4960870">
    <ele>2189.5</ele>
    <time>2021-07-18T08:52:53Z</time>
   </trkpt>
   <trkpt lat="42.7378020" lon="-0.4960810">
    <ele>2189.5</ele>
    <time>2021-07-18T08:52:54Z</time>
   </trkpt>
   <trkpt lat="42.7378310" lon="-0.4960580">
    <ele>2191.1</ele>
    <time>2021-07-18T08:52:57Z</time>
   </trkpt>
   <trkpt lat="42.7378630" lon="-0.4960190">
    <ele>2191.0</ele>
    <time>2021-07-18T08:53:02Z</time>
   </trkpt>
   <trkpt lat="42.7379190" lon="-0.4959660">
    <ele>2194.3</ele>
    <time>2021-07-18T08:53:09Z</time>
   </trkpt>
   <trkpt lat="42.7379510" lon="-0.4959230">
    <ele>2195.8</ele>
    <time>2021-07-18T08:53:14Z</time>
   </trkpt>
   <trkpt lat="42.7379610" lon="-0.4958940">
    <ele>2195.8</ele>
    <time>2021-07-18T08:53:17Z</time>
   </trkpt>
   <trkpt lat="42.7379420" lon="-0.4957980">
    <ele>2200.1</ele>
    <time>2021-07-18T08:53:27Z</time>
   </trkpt>
   <trkpt lat="42.7379340" lon="-0.4957760">
    <ele>2200.1</ele>
    <time>2021-07-18T08:53:31Z</time>
   </trkpt>
   <trkpt lat="42.7379250" lon="-0.4957620">
    <ele>2200.1</ele>
    <time>2021-07-18T08:53:34Z</time>
   </trkpt>
   <trkpt lat="42.7379160" lon="-0.4957290">
    <ele>2201.5</ele>
    <time>2021-07-18T08:53:41Z</time>
   </trkpt>
   <trkpt lat="42.7379140" lon="-0.4957000">
    <ele>2202.9</ele>
    <time>2021-07-18T08:53:46Z</time>
   </trkpt>
   <trkpt lat="42.7379120" lon="-0.4956860">
    <ele>2202.9</ele>
    <time>2021-07-18T08:53:48Z</time>
   </trkpt>
   <trkpt lat="42.7379050" lon="-0.4956810">
    <ele>2202.9</ele>
    <time>2021-07-18T08:53:50Z</time>
   </trkpt>
   <trkpt lat="42.7378890" lon="-0.4956570">
    <ele>2204.1</ele>
    <time>2021-07-18T08:53:54Z</time>
   </trkpt>
   <trkpt lat="42.7378730" lon="-0.4956400">
    <ele>2204.1</ele>
    <time>2021-07-18T08:53:57Z</time>
   </trkpt>
   <trkpt lat="42.7378700" lon="-0.4956340">
    <ele>2204.0</ele>
    <time>2021-07-18T08:53:58Z</time>
   </trkpt>
   <trkpt lat="42.7378600" lon="-0.4956280">
    <ele>2205.3</ele>
    <time>2021-07-18T08:54:00Z</time>
   </trkpt>
   <trkpt lat="42.7378260" lon="-0.4955090">
    <ele>2207.6</ele>
    <time>2021-07-18T08:54:15Z</time>
   </trkpt>
   <trkpt lat="42.7378160" lon="-0.4954880">
    <ele>2208.8</ele>
    <time>2021-07-18T08:54:18Z</time>
   </trkpt>
   <trkpt lat="42.7378060" lon="-0.4954550">
    <ele>2209.5</ele>
    <time>2021-07-18T08:54:22Z</time>
   </trkpt>
   <trkpt lat="42.7378030" lon="-0.4954450">
    <ele>2209.5</ele>
    <time>2021-07-18T08:54:23Z</time>
   </trkpt>
   <trkpt lat="42.7378020" lon="-0.4954350">
    <ele>2209.5</ele>
    <time>2021-07-18T08:54:24Z</time>
   </trkpt>
   <trkpt lat="42.7377980" lon="-0.4954020">
    <ele>2210.5</ele>
    <time>2021-07-18T08:54:27Z</time>
   </trkpt>
   <trkpt lat="42.7378070" lon="-0.4953310">
    <ele>2211.5</ele>
    <time>2021-07-18T08:54:35Z</time>
   </trkpt>
   <trkpt lat="42.7378150" lon="-0.4953110">
    <ele>2212.9</ele>
    <time>2021-07-18T08:54:37Z</time>
   </trkpt>
   <trkpt lat="42.7378170" lon="-0.4953020">
    <ele>2212.9</ele>
    <time>2021-07-18T08:54:38Z</time>
   </trkpt>
   <trkpt lat="42.7378200" lon="-0.4952950">
    <ele>2212.9</ele>
    <time>2021-07-18T08:54:39Z</time>
   </trkpt>
   <trkpt lat="42.7378230" lon="-0.4952860">
    <ele>2212.9</ele>
    <time>2021-07-18T08:54:40Z</time>
   </trkpt>
   <trkpt lat="42.7378250" lon="-0.4952780">
    <ele>2214.0</ele>
    <time>2021-07-18T08:54:41Z</time>
   </trkpt>
   <trkpt lat="42.7378270" lon="-0.4952700">
    <ele>2214.0</ele>
    <time>2021-07-18T08:54:42Z</time>
   </trkpt>
   <trkpt lat="42.7379020" lon="-0.4951750">
    <ele>2217.2</ele>
    <time>2021-07-18T08:54:55Z</time>
   </trkpt>
   <trkpt lat="42.7379120" lon="-0.4951620">
    <ele>2217.7</ele>
    <time>2021-07-18T08:54:57Z</time>
   </trkpt>
   <trkpt lat="42.7379330" lon="-0.4951450">
    <ele>2218.9</ele>
    <time>2021-07-18T08:55:01Z</time>
   </trkpt>
   <trkpt lat="42.7379440" lon="-0.4951230">
    <ele>2219.3</ele>
    <time>2021-07-18T08:55:04Z</time>
   </trkpt>
   <trkpt lat="42.7379800" lon="-0.4950900">
    <ele>2221.0</ele>
    <time>2021-07-18T08:55:11Z</time>
   </trkpt>
   <trkpt lat="42.7379970" lon="-0.4950730">
    <ele>2221.0</ele>
    <time>2021-07-18T08:55:15Z</time>
   </trkpt>
   <trkpt lat="42.7379850" lon="-0.4950160">
    <ele>2223.2</ele>
    <time>2021-07-18T08:55:20Z</time>
   </trkpt>
   <trkpt lat="42.7379700" lon="-0.4949630">
    <ele>2224.3</ele>
    <time>2021-07-18T08:55:25Z</time>
   </trkpt>
   <trkpt lat="42.7380150" lon="-0.4948680">
    <ele>2226.9</ele>
    <time>2021-07-18T08:55:43Z</time>
   </trkpt>
   <trkpt lat="42.7380860" lon="-0.4948680">
    <ele>2228.1</ele>
    <time>2021-07-18T08:55:55Z</time>
   </trkpt>
   <trkpt lat="42.7381300" lon="-0.4947900">
    <ele>2231.7</ele>
    <time>2021-07-18T08:56:15Z</time>
   </trkpt>
   <trkpt lat="42.7381280" lon="-0.4947820">
    <ele>2231.7</ele>
    <time>2021-07-18T08:56:16Z</time>
   </trkpt>
   <trkpt lat="42.7381260" lon="-0.4947740">
    <ele>2231.7</ele>
    <time>2021-07-18T08:56:17Z</time>
   </trkpt>
   <trkpt lat="42.7381830" lon="-0.4947210">
    <ele>2235.0</ele>
    <time>2021-07-18T08:56:33Z</time>
   </trkpt>
   <trkpt lat="42.7381940" lon="-0.4947180">
    <ele>2235.4</ele>
    <time>2021-07-18T08:56:35Z</time>
   </trkpt>
   <trkpt lat="42.7382030" lon="-0.4947150">
    <ele>2235.4</ele>
    <time>2021-07-18T08:56:37Z</time>
   </trkpt>
   <trkpt lat="42.7382200" lon="-0.4947130">
    <ele>2235.9</ele>
    <time>2021-07-18T08:56:40Z</time>
   </trkpt>
   <trkpt lat="42.7382440" lon="-0.4947070">
    <ele>2235.9</ele>
    <time>2021-07-18T08:56:44Z</time>
   </trkpt>
   <trkpt lat="42.7382680" lon="-0.4946960">
    <ele>2236.3</ele>
    <time>2021-07-18T08:56:48Z</time>
   </trkpt>
   <trkpt lat="42.7382750" lon="-0.4946900">
    <ele>2236.3</ele>
    <time>2021-07-18T08:56:49Z</time>
   </trkpt>
   <trkpt lat="42.7382800" lon="-0.4946870">
    <ele>2236.3</ele>
    <time>2021-07-18T08:56:50Z</time>
   </trkpt>
   <trkpt lat="42.7382840" lon="-0.4946830">
    <ele>2238.3</ele>
    <time>2021-07-18T08:56:51Z</time>
   </trkpt>
   <trkpt lat="42.7382890" lon="-0.4946790">
    <ele>2238.3</ele>
    <time>2021-07-18T08:56:52Z</time>
   </trkpt>
   <trkpt lat="42.7382920" lon="-0.4946780">
    <ele>2238.3</ele>
    <time>2021-07-18T08:56:53Z</time>
   </trkpt>
   <trkpt lat="42.7382970" lon="-0.4946750">
    <ele>2238.3</ele>
    <time>2021-07-18T08:56:54Z</time>
   </trkpt>
   <trkpt lat="42.7383020" lon="-0.4946730">
    <ele>2238.3</ele>
    <time>2021-07-18T08:56:55Z</time>
   </trkpt>
   <trkpt lat="42.7383090" lon="-0.4946710">
    <ele>2238.3</ele>
    <time>2021-07-18T08:56:56Z</time>
   </trkpt>
   <trkpt lat="42.7383520" lon="-0.4946560">
    <ele>2239.2</ele>
    <time>2021-07-18T08:57:06Z</time>
   </trkpt>
   <trkpt lat="42.7383550" lon="-0.4946570">
    <ele>2239.2</ele>
    <time>2021-07-18T08:57:07Z</time>
   </trkpt>
   <trkpt lat="42.7383590" lon="-0.4946300">
    <ele>2240.8</ele>
    <time>2021-07-18T08:57:11Z</time>
   </trkpt>
   <trkpt lat="42.7383500" lon="-0.4946040">
    <ele>2240.8</ele>
    <time>2021-07-18T08:57:14Z</time>
   </trkpt>
   <trkpt lat="42.7383440" lon="-0.4945910">
    <ele>2241.9</ele>
    <time>2021-07-18T08:57:16Z</time>
   </trkpt>
   <trkpt lat="42.7383430" lon="-0.4945710">
    <ele>2241.9</ele>
    <time>2021-07-18T08:57:19Z</time>
   </trkpt>
   <trkpt lat="42.7383280" lon="-0.4945090">
    <ele>2245.0</ele>
    <time>2021-07-18T08:57:26Z</time>
   </trkpt>
   <trkpt lat="42.7382870" lon="-0.4943150">
    <ele>2252.0</ele>
    <time>2021-07-18T08:57:53Z</time>
   </trkpt>
   <trkpt lat="42.7383430" lon="-0.4942660">
    <ele>2254.4</ele>
    <time>2021-07-18T08:58:09Z</time>
   </trkpt>
   <trkpt lat="42.7383300" lon="-0.4942000">
    <ele>2257.9</ele>
    <time>2021-07-18T08:58:19Z</time>
   </trkpt>
   <trkpt lat="42.7384530" lon="-0.4940910">
    <ele>2263.2</ele>
    <time>2021-07-18T08:58:59Z</time>
   </trkpt>
   <trkpt lat="42.7384020" lon="-0.4939180">
    <ele>2268.1</ele>
    <time>2021-07-18T08:59:25Z</time>
   </trkpt>
   <trkpt lat="42.7384030" lon="-0.4938730">
    <ele>2269.7</ele>
    <time>2021-07-18T08:59:32Z</time>
   </trkpt>
   <trkpt lat="42.7385200" lon="-0.4937810">
    <ele>2276.3</ele>
    <time>2021-07-18T09:00:07Z</time>
   </trkpt>
   <trkpt lat="42.7385150" lon="-0.4937510">
    <ele>2276.3</ele>
    <time>2021-07-18T09:00:13Z</time>
   </trkpt>
   <trkpt lat="42.7385160" lon="-0.4937300">
    <ele>2277.7</ele>
    <time>2021-07-18T09:00:18Z</time>
   </trkpt>
   <trkpt lat="42.7385120" lon="-0.4937250">
    <ele>2277.7</ele>
    <time>2021-07-18T09:00:19Z</time>
   </trkpt>
   <trkpt lat="42.7385110" lon="-0.4937230">
    <ele>2277.7</ele>
    <time>2021-07-18T09:00:20Z</time>
   </trkpt>
   <trkpt lat="42.7385120" lon="-0.4936360">
    <ele>2280.5</ele>
    <time>2021-07-18T09:00:37Z</time>
   </trkpt>
   <trkpt lat="42.7385390" lon="-0.4936380">
    <ele>2281.1</ele>
    <time>2021-07-18T09:00:42Z</time>
   </trkpt>
   <trkpt lat="42.7385220" lon="-0.4936070">
    <ele>2281.8</ele>
    <time>2021-07-18T09:00:52Z</time>
   </trkpt>
   <trkpt lat="42.7385300" lon="-0.4935720">
    <ele>2281.8</ele>
    <time>2021-07-18T09:01:05Z</time>
   </trkpt>
   <trkpt lat="42.7385460" lon="-0.4935330">
    <ele>2283.8</ele>
    <time>2021-07-18T09:01:14Z</time>
   </trkpt>
   <trkpt lat="42.7386110" lon="-0.4934030">
    <ele>2289.6</ele>
    <time>2021-07-18T09:01:59Z</time>
   </trkpt>
   <trkpt lat="42.7385420" lon="-0.4932320">
    <ele>2293.8</ele>
    <time>2021-07-18T09:02:45Z</time>
   </trkpt>
   <trkpt lat="42.7385360" lon="-0.4931270">
    <ele>2297.6</ele>
    <time>2021-07-18T09:03:03Z</time>
   </trkpt>
   <trkpt lat="42.7385380" lon="-0.4929870">
    <ele>2301.8</ele>
    <time>2021-07-18T09:03:36Z</time>
   </trkpt>
   <trkpt lat="42.7385540" lon="-0.4929740">
    <ele>2301.8</ele>
    <time>2021-07-18T09:03:45Z</time>
   </trkpt>
   <trkpt lat="42.7385580" lon="-0.4929390">
    <ele>2303.2</ele>
    <time>2021-07-18T09:03:54Z</time>
   </trkpt>
   <trkpt lat="42.7386070" lon="-0.4928860">
    <ele>2306.8</ele>
    <time>2021-07-18T09:04:22Z</time>
   </trkpt>
   <trkpt lat="42.7386320" lon="-0.4928490">
    <ele>2309.4</ele>
    <time>2021-07-18T09:04:35Z</time>
   </trkpt>
   <trkpt lat="42.7386330" lon="-0.4928440">
    <ele>2309.4</ele>
    <time>2021-07-18T09:04:36Z</time>
   </trkpt>
   <trkpt lat="42.7386320" lon="-0.4928380">
    <ele>2311.0</ele>
    <time>2021-07-18T09:04:37Z</time>
   </trkpt>
   <trkpt lat="42.7386290" lon="-0.4928250">
    <ele>2311.0</ele>
    <time>2021-07-18T09:04:39Z</time>
   </trkpt>
   <trkpt lat="42.7386270" lon="-0.4928170">
    <ele>2309.9</ele>
    <time>2021-07-18T09:04:40Z</time>
   </trkpt>
   <trkpt lat="42.7386260" lon="-0.4928110">
    <ele>2309.9</ele>
    <time>2021-07-18T09:04:41Z</time>
   </trkpt>
   <trkpt lat="42.7386260" lon="-0.4928040">
    <ele>2309.9</ele>
    <time>2021-07-18T09:04:42Z</time>
   </trkpt>
   <trkpt lat="42.7386300" lon="-0.4927990">
    <ele>2311.0</ele>
    <time>2021-07-18T09:04:43Z</time>
   </trkpt>
   <trkpt lat="42.7386490" lon="-0.4927720">
    <ele>2312.5</ele>
    <time>2021-07-18T09:04:52Z</time>
   </trkpt>
   <trkpt lat="42.7386460" lon="-0.4927510">
    <ele>2314.0</ele>
    <time>2021-07-18T09:04:57Z</time>
   </trkpt>
   <trkpt lat="42.7386480" lon="-0.4927400">
    <ele>2314.0</ele>
    <time>2021-07-18T09:05:00Z</time>
   </trkpt>
   <trkpt lat="42.7386560" lon="-0.4927360">
    <ele>2314.0</ele>
    <time>2021-07-18T09:05:03Z</time>
   </trkpt>
   <trkpt lat="42.7386690" lon="-0.4927280">
    <ele>2315.2</ele>
    <time>2021-07-18T09:05:07Z</time>
   </trkpt>
   <trkpt lat="42.7386700" lon="-0.4927220">
    <ele>2315.2</ele>
    <time>2021-07-18T09:05:08Z</time>
   </trkpt>
   <trkpt lat="42.7386960" lon="-0.4926970">
    <ele>2317.9</ele>
    <time>2021-07-18T09:05:24Z</time>
   </trkpt>
   <trkpt lat="42.7387220" lon="-0.4926470">
    <ele>2319.5</ele>
    <time>2021-07-18T09:05:37Z</time>
   </trkpt>
   <trkpt lat="42.7387680" lon="-0.4926400">
    <ele>2321.9</ele>
    <time>2021-07-18T09:05:49Z</time>
   </trkpt>
   <trkpt lat="42.7387720" lon="-0.4926430">
    <ele>2321.9</ele>
    <time>2021-07-18T09:05:50Z</time>
   </trkpt>
   <trkpt lat="42.7387780" lon="-0.4926240">
    <ele>2323.5</ele>
    <time>2021-07-18T09:05:54Z</time>
   </trkpt>
   <trkpt lat="42.7387740" lon="-0.4926220">
    <ele>2323.5</ele>
    <time>2021-07-18T09:05:55Z</time>
   </trkpt>
   <trkpt lat="42.7387570" lon="-0.4926070">
    <ele>2323.5</ele>
    <time>2021-07-18T09:05:59Z</time>
   </trkpt>
   <trkpt lat="42.7387500" lon="-0.4925910">
    <ele>2322.3</ele>
    <time>2021-07-18T09:06:02Z</time>
   </trkpt>
   <trkpt lat="42.7387520" lon="-0.4925720">
    <ele>2324.0</ele>
    <time>2021-07-18T09:06:05Z</time>
   </trkpt>
   <trkpt lat="42.7387390" lon="-0.4925390">
    <ele>2325.8</ele>
    <time>2021-07-18T09:06:13Z</time>
   </trkpt>
   <trkpt lat="42.7387340" lon="-0.4925220">
    <ele>2325.8</ele>
    <time>2021-07-18T09:06:16Z</time>
   </trkpt>
   <trkpt lat="42.7387370" lon="-0.4925000">
    <ele>2325.8</ele>
    <time>2021-07-18T09:06:21Z</time>
   </trkpt>
   <trkpt lat="42.7387320" lon="-0.4924740">
    <ele>2327.7</ele>
    <time>2021-07-18T09:06:26Z</time>
   </trkpt>
   <trkpt lat="42.7387310" lon="-0.4924280">
    <ele>2329.5</ele>
    <time>2021-07-18T09:06:39Z</time>
   </trkpt>
   <trkpt lat="42.7387090" lon="-0.4923590">
    <ele>2331.7</ele>
    <time>2021-07-18T09:06:51Z</time>
   </trkpt>
   <trkpt lat="42.7387090" lon="-0.4923300">
    <ele>2331.7</ele>
    <time>2021-07-18T09:06:55Z</time>
   </trkpt>
   <trkpt lat="42.7387120" lon="-0.4923190">
    <ele>2333.2</ele>
    <time>2021-07-18T09:06:57Z</time>
   </trkpt>
   <trkpt lat="42.7387130" lon="-0.4923120">
    <ele>2333.2</ele>
    <time>2021-07-18T09:06:58Z</time>
   </trkpt>
   <trkpt lat="42.7387150" lon="-0.4923050">
    <ele>2333.2</ele>
    <time>2021-07-18T09:06:59Z</time>
   </trkpt>
   <trkpt lat="42.7387180" lon="-0.4922990">
    <ele>2333.2</ele>
    <time>2021-07-18T09:07:00Z</time>
   </trkpt>
   <trkpt lat="42.7387250" lon="-0.4922890">
    <ele>2334.4</ele>
    <time>2021-07-18T09:07:03Z</time>
   </trkpt>
   <trkpt lat="42.7387180" lon="-0.4922580">
    <ele>2334.8</ele>
    <time>2021-07-18T09:07:08Z</time>
   </trkpt>
   <trkpt lat="42.7386890" lon="-0.4921720">
    <ele>2336.9</ele>
    <time>2021-07-18T09:07:19Z</time>
   </trkpt>
   <trkpt lat="42.7386790" lon="-0.4921330">
    <ele>2338.6</ele>
    <time>2021-07-18T09:07:23Z</time>
   </trkpt>
   <trkpt lat="42.7386700" lon="-0.4921080">
    <ele>2340.4</ele>
    <time>2021-07-18T09:07:26Z</time>
   </trkpt>
   <trkpt lat="42.7386660" lon="-0.4920930">
    <ele>2340.4</ele>
    <time>2021-07-18T09:07:28Z</time>
   </trkpt>
   <trkpt lat="42.7386620" lon="-0.4920690">
    <ele>2340.4</ele>
    <time>2021-07-18T09:07:31Z</time>
   </trkpt>
   <trkpt lat="42.7386470" lon="-0.4920110">
    <ele>2342.9</ele>
    <time>2021-07-18T09:07:39Z</time>
   </trkpt>
   <trkpt lat="42.7386290" lon="-0.4919730">
    <ele>2344.8</ele>
    <time>2021-07-18T09:07:44Z</time>
   </trkpt>
   <trkpt lat="42.7386190" lon="-0.4919370">
    <ele>2345.5</ele>
    <time>2021-07-18T09:07:49Z</time>
   </trkpt>
   <trkpt lat="42.7386130" lon="-0.4919230">
    <ele>2345.5</ele>
    <time>2021-07-18T09:07:52Z</time>
   </trkpt>
   <trkpt lat="42.7385460" lon="-0.4917390">
    <ele>2350.2</ele>
    <time>2021-07-18T09:08:17Z</time>
   </trkpt>
   <trkpt lat="42.7385430" lon="-0.4916970">
    <ele>2352.1</ele>
    <time>2021-07-18T09:08:22Z</time>
   </trkpt>
   <trkpt lat="42.7385260" lon="-0.4915980">
    <ele>2355.0</ele>
    <time>2021-07-18T09:08:40Z</time>
   </trkpt>
   <trkpt lat="42.7385230" lon="-0.4915680">
    <ele>2357.0</ele>
    <time>2021-07-18T09:08:45Z</time>
   </trkpt>
   <trkpt lat="42.7386040" lon="-0.4913850">
    <ele>2367.4</ele>
    <time>2021-07-18T09:09:29Z</time>
   </trkpt>
   <trkpt lat="42.7386670" lon="-0.4911800">
    <ele>2377.8</ele>
    <time>2021-07-18T09:10:16Z</time>
   </trkpt>
   <trkpt lat="42.7386940" lon="-0.4910980">
    <ele>2382.3</ele>
    <time>2021-07-18T09:10:41Z</time>
   </trkpt>
   <trkpt lat="42.7387250" lon="-0.4910680">
    <ele>2384.9</ele>
    <time>2021-07-18T09:10:56Z</time>
   </trkpt>
   <trkpt lat="42.7387510" lon="-0.4910170">
    <ele>2386.5</ele>
    <time>2021-07-18T09:11:19Z</time>
   </trkpt>
   <trkpt lat="42.7387690" lon="-0.4909980">
    <ele>2387.3</ele>
    <time>2021-07-18T09:11:26Z</time>
   </trkpt>
   <trkpt lat="42.7387700" lon="-0.4909950">
    <ele>2387.3</ele>
    <time>2021-07-18T09:11:27Z</time>
   </trkpt>
   <trkpt lat="42.7387710" lon="-0.4909920">
    <ele>2388.8</ele>
    <time>2021-07-18T09:11:28Z</time>
   </trkpt>
   <trkpt lat="42.7387760" lon="-0.4909830">
    <ele>2388.8</ele>
    <time>2021-07-18T09:11:31Z</time>
   </trkpt>
   <trkpt lat="42.7387770" lon="-0.4909800">
    <ele>2388.8</ele>
    <time>2021-07-18T09:11:32Z</time>
   </trkpt>
   <trkpt lat="42.7387780" lon="-0.4909790">
    <ele>2388.8</ele>
    <time>2021-07-18T09:11:33Z</time>
   </trkpt>
   <trkpt lat="42.7387790" lon="-0.4909700">
    <ele>2388.8</ele>
    <time>2021-07-18T09:11:34Z</time>
   </trkpt>
   <trkpt lat="42.7387800" lon="-0.4909660">
    <ele>2388.8</ele>
    <time>2021-07-18T09:11:35Z</time>
   </trkpt>
   <trkpt lat="42.7387820" lon="-0.4909620">
    <ele>2388.8</ele>
    <time>2021-07-18T09:11:36Z</time>
   </trkpt>
   <trkpt lat="42.7387840" lon="-0.4909590">
    <ele>2388.8</ele>
    <time>2021-07-18T09:11:37Z</time>
   </trkpt>
   <trkpt lat="42.7387960" lon="-0.4909470">
    <ele>2390.9</ele>
    <time>2021-07-18T09:11:43Z</time>
   </trkpt>
   <trkpt lat="42.7388010" lon="-0.4909370">
    <ele>2390.9</ele>
    <time>2021-07-18T09:11:46Z</time>
   </trkpt>
   <trkpt lat="42.7388030" lon="-0.4909300">
    <ele>2390.9</ele>
    <time>2021-07-18T09:11:49Z</time>
   </trkpt>
   <trkpt lat="42.7388040" lon="-0.4909260">
    <ele>2390.9</ele>
    <time>2021-07-18T09:11:52Z</time>
   </trkpt>
   <trkpt lat="42.7388030" lon="-0.4909230">
    <ele>2390.9</ele>
    <time>2021-07-18T09:11:56Z</time>
   </trkpt>
   <trkpt lat="42.7388060" lon="-0.4909000">
    <ele>2392.2</ele>
    <time>2021-07-18T09:12:03Z</time>
   </trkpt>
   <trkpt lat="42.7388110" lon="-0.4908800">
    <ele>2392.2</ele>
    <time>2021-07-18T09:12:07Z</time>
   </trkpt>
   <trkpt lat="42.7388260" lon="-0.4908530">
    <ele>2394.2</ele>
    <time>2021-07-18T09:12:14Z</time>
   </trkpt>
   <trkpt lat="42.7388280" lon="-0.4908550">
    <ele>2394.2</ele>
    <time>2021-07-18T09:12:15Z</time>
   </trkpt>
   <trkpt lat="42.7388300" lon="-0.4908550">
    <ele>2394.2</ele>
    <time>2021-07-18T09:12:16Z</time>
   </trkpt>
   <trkpt lat="42.7388360" lon="-0.4908520">
    <ele>2394.2</ele>
    <time>2021-07-18T09:12:18Z</time>
   </trkpt>
   <trkpt lat="42.7388390" lon="-0.4908540">
    <ele>2394.2</ele>
    <time>2021-07-18T09:12:21Z</time>
   </trkpt>
   <trkpt lat="42.7388500" lon="-0.4908330">
    <ele>2394.9</ele>
    <time>2021-07-18T09:12:28Z</time>
   </trkpt>
   <trkpt lat="42.7388460" lon="-0.4908330">
    <ele>2394.2</ele>
    <time>2021-07-18T09:12:33Z</time>
   </trkpt>
   <trkpt lat="42.7388460" lon="-0.4907910">
    <ele>2395.4</ele>
    <time>2021-07-18T09:12:44Z</time>
   </trkpt>
   <trkpt lat="42.7388560" lon="-0.4907760">
    <ele>2397.3</ele>
    <time>2021-07-18T09:12:48Z</time>
   </trkpt>
   <trkpt lat="42.7388710" lon="-0.4907290">
    <ele>2398.5</ele>
    <time>2021-07-18T09:12:57Z</time>
   </trkpt>
   <trkpt lat="42.7389070" lon="-0.4906660">
    <ele>2400.4</ele>
    <time>2021-07-18T09:13:12Z</time>
   </trkpt>
   <trkpt lat="42.7389500" lon="-0.4906010">
    <ele>2404.5</ele>
    <time>2021-07-18T09:13:34Z</time>
   </trkpt>
   <trkpt lat="42.7389580" lon="-0.4905150">
    <ele>2406.7</ele>
    <time>2021-07-18T09:13:51Z</time>
   </trkpt>
   <trkpt lat="42.7389440" lon="-0.4904880">
    <ele>2406.7</ele>
    <time>2021-07-18T09:13:56Z</time>
   </trkpt>
   <trkpt lat="42.7389420" lon="-0.4904840">
    <ele>2405.5</ele>
    <time>2021-07-18T09:13:57Z</time>
   </trkpt>
   <trkpt lat="42.7389400" lon="-0.4904800">
    <ele>2405.5</ele>
    <time>2021-07-18T09:13:58Z</time>
   </trkpt>
   <trkpt lat="42.7389380" lon="-0.4904770">
    <ele>2406.5</ele>
    <time>2021-07-18T09:13:59Z</time>
   </trkpt>
   <trkpt lat="42.7389330" lon="-0.4904420">
    <ele>2406.5</ele>
    <time>2021-07-18T09:14:07Z</time>
   </trkpt>
   <trkpt lat="42.7389410" lon="-0.4904230">
    <ele>2407.5</ele>
    <time>2021-07-18T09:14:13Z</time>
   </trkpt>
   <trkpt lat="42.7389410" lon="-0.4904230">
    <ele>2407.5</ele>
    <time>2021-07-18T09:14:14Z</time>
   </trkpt>
   <trkpt lat="42.7389390" lon="-0.4904190">
    <ele>2407.5</ele>
    <time>2021-07-18T09:14:15Z</time>
   </trkpt>
   <trkpt lat="42.7389410" lon="-0.4904070">
    <ele>2407.5</ele>
    <time>2021-07-18T09:14:18Z</time>
   </trkpt>
   <trkpt lat="42.7389540" lon="-0.4903950">
    <ele>2408.7</ele>
    <time>2021-07-18T09:14:23Z</time>
   </trkpt>
   <trkpt lat="42.7389650" lon="-0.4903920">
    <ele>2409.8</ele>
    <time>2021-07-18T09:14:25Z</time>
   </trkpt>
   <trkpt lat="42.7389690" lon="-0.4903910">
    <ele>2409.8</ele>
    <time>2021-07-18T09:14:26Z</time>
   </trkpt>
   <trkpt lat="42.7389940" lon="-0.4903670">
    <ele>2410.6</ele>
    <time>2021-07-18T09:14:36Z</time>
   </trkpt>
   <trkpt lat="42.7390090" lon="-0.4903480">
    <ele>2412.6</ele>
    <time>2021-07-18T09:14:41Z</time>
   </trkpt>
   <trkpt lat="42.7390120" lon="-0.4903460">
    <ele>2412.6</ele>
    <time>2021-07-18T09:14:42Z</time>
   </trkpt>
   <trkpt lat="42.7390160" lon="-0.4903280">
    <ele>2412.6</ele>
    <time>2021-07-18T09:14:45Z</time>
   </trkpt>
   <trkpt lat="42.7390330" lon="-0.4903200">
    <ele>2412.6</ele>
    <time>2021-07-18T09:14:49Z</time>
   </trkpt>
   <trkpt lat="42.7390430" lon="-0.4903160">
    <ele>2413.4</ele>
    <time>2021-07-18T09:14:52Z</time>
   </trkpt>
   <trkpt lat="42.7390530" lon="-0.4903120">
    <ele>2413.4</ele>
    <time>2021-07-18T09:14:57Z</time>
   </trkpt>
   <trkpt lat="42.7390550" lon="-0.4903070">
    <ele>2414.7</ele>
    <time>2021-07-18T09:15:01Z</time>
   </trkpt>
   <trkpt lat="42.7390570" lon="-0.4903050">
    <ele>2414.7</ele>
    <time>2021-07-18T09:15:16Z</time>
   </trkpt>
   <trkpt lat="42.7391900" lon="-0.4902150">
    <ele>2421.8</ele>
    <time>2021-07-18T09:16:32Z</time>
   </trkpt>
   <trkpt lat="42.7391800" lon="-0.4901420">
    <ele>2423.3</ele>
    <time>2021-07-18T09:16:51Z</time>
   </trkpt>
   <trkpt lat="42.7391760" lon="-0.4901270">
    <ele>2424.8</ele>
    <time>2021-07-18T09:16:53Z</time>
   </trkpt>
   <trkpt lat="42.7391790" lon="-0.4901180">
    <ele>2424.8</ele>
    <time>2021-07-18T09:16:54Z</time>
   </trkpt>
   <trkpt lat="42.7391820" lon="-0.4901140">
    <ele>2424.8</ele>
    <time>2021-07-18T09:16:55Z</time>
   </trkpt>
   <trkpt lat="42.7391860" lon="-0.4901110">
    <ele>2424.8</ele>
    <time>2021-07-18T09:16:57Z</time>
   </trkpt>
   <trkpt lat="42.7392590" lon="-0.4901110">
    <ele>2428.8</ele>
    <time>2021-07-18T09:17:15Z</time>
   </trkpt>
   <trkpt lat="42.7392850" lon="-0.4901150">
    <ele>2428.8</ele>
    <time>2021-07-18T09:17:20Z</time>
   </trkpt>
   <trkpt lat="42.7393410" lon="-0.4900940">
    <ele>2431.5</ele>
    <time>2021-07-18T09:17:38Z</time>
   </trkpt>
   <trkpt lat="42.7393480" lon="-0.4900620">
    <ele>2433.2</ele>
    <time>2021-07-18T09:17:48Z</time>
   </trkpt>
   <trkpt lat="42.7392830" lon="-0.4898310">
    <ele>2440.9</ele>
    <time>2021-07-18T09:18:19Z</time>
   </trkpt>
   <trkpt lat="42.7392640" lon="-0.4897130">
    <ele>2444.7</ele>
    <time>2021-07-18T09:18:39Z</time>
   </trkpt>
   <trkpt lat="42.7392400" lon="-0.4896090">
    <ele>2448.1</ele>
    <time>2021-07-18T09:18:52Z</time>
   </trkpt>
   <trkpt lat="42.7392060" lon="-0.4895140">
    <ele>2449.2</ele>
    <time>2021-07-18T09:19:06Z</time>
   </trkpt>
   <trkpt lat="42.7391740" lon="-0.4894040">
    <ele>2451.9</ele>
    <time>2021-07-18T09:19:21Z</time>
   </trkpt>
   <trkpt lat="42.7391770" lon="-0.4893640">
    <ele>2451.9</ele>
    <time>2021-07-18T09:19:37Z</time>
   </trkpt>
   <trkpt lat="42.7392330" lon="-0.4892310">
    <ele>2461.2</ele>
    <time>2021-07-18T09:20:07Z</time>
   </trkpt>
   <trkpt lat="42.7392880" lon="-0.4890130">
    <ele>2469.1</ele>
    <time>2021-07-18T09:20:57Z</time>
   </trkpt>
   <trkpt lat="42.7393370" lon="-0.4888740">
    <ele>2476.9</ele>
    <time>2021-07-18T09:21:28Z</time>
   </trkpt>
   <trkpt lat="42.7393400" lon="-0.4888710">
    <ele>2476.9</ele>
    <time>2021-07-18T09:21:33Z</time>
   </trkpt>
   <trkpt lat="42.7393630" lon="-0.4888240">
    <ele>2480.2</ele>
    <time>2021-07-18T09:21:49Z</time>
   </trkpt>
   <trkpt lat="42.7393710" lon="-0.4888010">
    <ele>2481.7</ele>
    <time>2021-07-18T09:22:05Z</time>
   </trkpt>
   <trkpt lat="42.7393710" lon="-0.4888000">
    <ele>2481.7</ele>
    <time>2021-07-18T09:22:06Z</time>
   </trkpt>
   <trkpt lat="42.7393710" lon="-0.4887960">
    <ele>2481.7</ele>
    <time>2021-07-18T09:22:07Z</time>
   </trkpt>
   <trkpt lat="42.7393690" lon="-0.4887930">
    <ele>2481.7</ele>
    <time>2021-07-18T09:22:09Z</time>
   </trkpt>
   <trkpt lat="42.7393720" lon="-0.4887740">
    <ele>2481.7</ele>
    <time>2021-07-18T09:22:16Z</time>
   </trkpt>
   <trkpt lat="42.7393770" lon="-0.4887660">
    <ele>2481.7</ele>
    <time>2021-07-18T09:22:19Z</time>
   </trkpt>
   <trkpt lat="42.7393790" lon="-0.4887580">
    <ele>2483.2</ele>
    <time>2021-07-18T09:22:20Z</time>
   </trkpt>
   <trkpt lat="42.7393960" lon="-0.4887400">
    <ele>2485.2</ele>
    <time>2021-07-18T09:22:28Z</time>
   </trkpt>
   <trkpt lat="42.7394050" lon="-0.4887370">
    <ele>2485.2</ele>
    <time>2021-07-18T09:22:31Z</time>
   </trkpt>
   <trkpt lat="42.7394140" lon="-0.4887080">
    <ele>2486.6</ele>
    <time>2021-07-18T09:22:42Z</time>
   </trkpt>
   <trkpt lat="42.7394260" lon="-0.4887100">
    <ele>2488.7</ele>
    <time>2021-07-18T09:22:48Z</time>
   </trkpt>
   <trkpt lat="42.7394390" lon="-0.4886970">
    <ele>2488.7</ele>
    <time>2021-07-18T09:22:59Z</time>
   </trkpt>
   <trkpt lat="42.7394420" lon="-0.4887030">
    <ele>2488.7</ele>
    <time>2021-07-18T09:23:01Z</time>
   </trkpt>
   <trkpt lat="42.7394490" lon="-0.4887050">
    <ele>2490.8</ele>
    <time>2021-07-18T09:23:06Z</time>
   </trkpt>
   <trkpt lat="42.7394640" lon="-0.4886910">
    <ele>2490.8</ele>
    <time>2021-07-18T09:23:14Z</time>
   </trkpt>
   <trkpt lat="42.7394610" lon="-0.4885730">
    <ele>2495.1</ele>
    <time>2021-07-18T09:23:38Z</time>
   </trkpt>
   <trkpt lat="42.7394730" lon="-0.4884960">
    <ele>2498.1</ele>
    <time>2021-07-18T09:23:56Z</time>
   </trkpt>
   <trkpt lat="42.7395100" lon="-0.4884020">
    <ele>2502.8</ele>
    <time>2021-07-18T09:24:22Z</time>
   </trkpt>
   <trkpt lat="42.7395130" lon="-0.4883920">
    <ele>2504.5</ele>
    <time>2021-07-18T09:24:24Z</time>
   </trkpt>
   <trkpt lat="42.7395140" lon="-0.4883820">
    <ele>2504.5</ele>
    <time>2021-07-18T09:24:26Z</time>
   </trkpt>
   <trkpt lat="42.7395130" lon="-0.4883790">
    <ele>2504.5</ele>
    <time>2021-07-18T09:24:28Z</time>
   </trkpt>
   <trkpt lat="42.7395300" lon="-0.4883560">
    <ele>2505.8</ele>
    <time>2021-07-18T09:24:40Z</time>
   </trkpt>
   <trkpt lat="42.7395380" lon="-0.4883410">
    <ele>2505.8</ele>
    <time>2021-07-18T09:24:46Z</time>
   </trkpt>
   <trkpt lat="42.7395530" lon="-0.4882970">
    <ele>2508.6</ele>
    <time>2021-07-18T09:24:56Z</time>
   </trkpt>
   <trkpt lat="42.7395650" lon="-0.4882640">
    <ele>2509.8</ele>
    <time>2021-07-18T09:25:07Z</time>
   </trkpt>
   <trkpt lat="42.7396070" lon="-0.4881870">
    <ele>2514.9</ele>
    <time>2021-07-18T09:25:47Z</time>
   </trkpt>
   <trkpt lat="42.7396360" lon="-0.4881140">
    <ele>2517.2</ele>
    <time>2021-07-18T09:26:13Z</time>
   </trkpt>
   <trkpt lat="42.7396600" lon="-0.4880490">
    <ele>2519.9</ele>
    <time>2021-07-18T09:26:31Z</time>
   </trkpt>
   <trkpt lat="42.7396770" lon="-0.4880080">
    <ele>2522.6</ele>
    <time>2021-07-18T09:27:00Z</time>
   </trkpt>
   <trkpt lat="42.7396770" lon="-0.4880080">
    <ele>2522.6</ele>
    <time>2021-07-18T09:27:03Z</time>
   </trkpt>
   <trkpt lat="42.7396770" lon="-0.4880070">
    <ele>2522.6</ele>
    <time>2021-07-18T09:27:07Z</time>
   </trkpt>
   <trkpt lat="42.7396800" lon="-0.4880070">
    <ele>2522.6</ele>
    <time>2021-07-18T09:27:11Z</time>
   </trkpt>
   <trkpt lat="42.7396820" lon="-0.4879680">
    <ele>2523.9</ele>
    <time>2021-07-18T09:27:24Z</time>
   </trkpt>
   <trkpt lat="42.7396900" lon="-0.4879570">
    <ele>2523.9</ele>
    <time>2021-07-18T09:27:29Z</time>
   </trkpt>
   <trkpt lat="42.7396980" lon="-0.4879550">
    <ele>2523.9</ele>
    <time>2021-07-18T09:27:32Z</time>
   </trkpt>
   <trkpt lat="42.7397010" lon="-0.4879560">
    <ele>2525.3</ele>
    <time>2021-07-18T09:27:35Z</time>
   </trkpt>
   <trkpt lat="42.7397020" lon="-0.4879510">
    <ele>2525.3</ele>
    <time>2021-07-18T09:27:39Z</time>
   </trkpt>
   <trkpt lat="42.7397100" lon="-0.4879430">
    <ele>2526.4</ele>
    <time>2021-07-18T09:27:44Z</time>
   </trkpt>
   <trkpt lat="42.7397240" lon="-0.4879410">
    <ele>2526.4</ele>
    <time>2021-07-18T09:27:48Z</time>
   </trkpt>
   <trkpt lat="42.7397250" lon="-0.4879380">
    <ele>2526.4</ele>
    <time>2021-07-18T09:27:50Z</time>
   </trkpt>
   <trkpt lat="42.7397300" lon="-0.4879300">
    <ele>2526.4</ele>
    <time>2021-07-18T09:27:53Z</time>
   </trkpt>
   <trkpt lat="42.7397300" lon="-0.4879300">
    <ele>2526.4</ele>
    <time>2021-07-18T09:27:56Z</time>
   </trkpt>
   <trkpt lat="42.7397310" lon="-0.4879320">
    <ele>2526.4</ele>
    <time>2021-07-18T09:27:57Z</time>
   </trkpt>
   <trkpt lat="42.7397340" lon="-0.4879240">
    <ele>2527.8</ele>
    <time>2021-07-18T09:28:00Z</time>
   </trkpt>
   <trkpt lat="42.7397350" lon="-0.4879170">
    <ele>2527.8</ele>
    <time>2021-07-18T09:28:01Z</time>
   </trkpt>
   <trkpt lat="42.7397360" lon="-0.4879080">
    <ele>2527.8</ele>
    <time>2021-07-18T09:28:03Z</time>
   </trkpt>
   <trkpt lat="42.7397380" lon="-0.4879020">
    <ele>2528.8</ele>
    <time>2021-07-18T09:28:04Z</time>
   </trkpt>
   <trkpt lat="42.7397460" lon="-0.4878990">
    <ele>2528.8</ele>
    <time>2021-07-18T09:28:07Z</time>
   </trkpt>
   <trkpt lat="42.7397590" lon="-0.4878830">
    <ele>2528.8</ele>
    <time>2021-07-18T09:28:12Z</time>
   </trkpt>
   <trkpt lat="42.7397900" lon="-0.4878130">
    <ele>2531.8</ele>
    <time>2021-07-18T09:28:37Z</time>
   </trkpt>
   <trkpt lat="42.7398230" lon="-0.4877690">
    <ele>2533.6</ele>
    <time>2021-07-18T09:28:49Z</time>
   </trkpt>
   <trkpt lat="42.7398240" lon="-0.4877630">
    <ele>2533.6</ele>
    <time>2021-07-18T09:28:50Z</time>
   </trkpt>
   <trkpt lat="42.7398280" lon="-0.4877590">
    <ele>2534.5</ele>
    <time>2021-07-18T09:28:51Z</time>
   </trkpt>
   <trkpt lat="42.7398280" lon="-0.4877560">
    <ele>2534.5</ele>
    <time>2021-07-18T09:28:52Z</time>
   </trkpt>
   <trkpt lat="42.7398340" lon="-0.4877160">
    <ele>2535.2</ele>
    <time>2021-07-18T09:29:02Z</time>
   </trkpt>
   <trkpt lat="42.7398340" lon="-0.4876920">
    <ele>2535.2</ele>
    <time>2021-07-18T09:29:09Z</time>
   </trkpt>
   <trkpt lat="42.7398470" lon="-0.4877000">
    <ele>2535.2</ele>
    <time>2021-07-18T09:29:15Z</time>
   </trkpt>
   <trkpt lat="42.7398580" lon="-0.4877100">
    <ele>2535.9</ele>
    <time>2021-07-18T09:29:18Z</time>
   </trkpt>
   <trkpt lat="42.7398820" lon="-0.4877300">
    <ele>2535.9</ele>
    <time>2021-07-18T09:29:23Z</time>
   </trkpt>
   <trkpt lat="42.7399260" lon="-0.4877200">
    <ele>2537.3</ele>
    <time>2021-07-18T09:29:37Z</time>
   </trkpt>
   <trkpt lat="42.7399270" lon="-0.4877220">
    <ele>2537.3</ele>
    <time>2021-07-18T09:29:42Z</time>
   </trkpt>
   <trkpt lat="42.7399310" lon="-0.4877330">
    <ele>2536.7</ele>
    <time>2021-07-18T09:29:50Z</time>
   </trkpt>
   <trkpt lat="42.7399330" lon="-0.4877300">
    <ele>2537.3</ele>
    <time>2021-07-18T09:29:51Z</time>
   </trkpt>
   <trkpt lat="42.7399380" lon="-0.4877270">
    <ele>2537.3</ele>
    <time>2021-07-18T09:29:52Z</time>
   </trkpt>
   <trkpt lat="42.7399420" lon="-0.4877260">
    <ele>2537.3</ele>
    <time>2021-07-18T09:29:53Z</time>
   </trkpt>
   <trkpt lat="42.7399440" lon="-0.4877240">
    <ele>2537.3</ele>
    <time>2021-07-18T09:29:55Z</time>
   </trkpt>
   <trkpt lat="42.7399560" lon="-0.4876980">
    <ele>2538.0</ele>
    <time>2021-07-18T09:30:07Z</time>
   </trkpt>
   <trkpt lat="42.7399630" lon="-0.4876910">
    <ele>2538.0</ele>
    <time>2021-07-18T09:30:10Z</time>
   </trkpt>
   <trkpt lat="42.7399740" lon="-0.4876950">
    <ele>2538.0</ele>
    <time>2021-07-18T09:30:17Z</time>
   </trkpt>
   <trkpt lat="42.7399950" lon="-0.4876860">
    <ele>2539.0</ele>
    <time>2021-07-18T09:30:27Z</time>
   </trkpt>
   <trkpt lat="42.7399980" lon="-0.4876830">
    <ele>2539.0</ele>
    <time>2021-07-18T09:30:31Z</time>
   </trkpt>
   <trkpt lat="42.7400030" lon="-0.4876660">
    <ele>2539.0</ele>
    <time>2021-07-18T09:30:35Z</time>
   </trkpt>
   <trkpt lat="42.7400120" lon="-0.4876560">
    <ele>2539.0</ele>
    <time>2021-07-18T09:30:44Z</time>
   </trkpt>
   <trkpt lat="42.7400450" lon="-0.4876480">
    <ele>2539.4</ele>
    <time>2021-07-18T09:31:13Z</time>
   </trkpt>
   <trkpt lat="42.7400450" lon="-0.4876460">
    <ele>2539.9</ele>
    <time>2021-07-18T09:31:17Z</time>
   </trkpt>
   <trkpt lat="42.7400520" lon="-0.4876380">
    <ele>2540.2</ele>
    <time>2021-07-18T09:31:20Z</time>
   </trkpt>
   <trkpt lat="42.7400570" lon="-0.4876360">
    <ele>2540.2</ele>
    <time>2021-07-18T09:31:21Z</time>
   </trkpt>
   <trkpt lat="42.7400600" lon="-0.4876360">
    <ele>2540.2</ele>
    <time>2021-07-18T09:31:22Z</time>
   </trkpt>
   <trkpt lat="42.7400670" lon="-0.4876330">
    <ele>2540.2</ele>
    <time>2021-07-18T09:31:24Z</time>
   </trkpt>
   <trkpt lat="42.7400710" lon="-0.4876330">
    <ele>2540.2</ele>
    <time>2021-07-18T09:31:26Z</time>
   </trkpt>
   <trkpt lat="42.7400850" lon="-0.4876490">
    <ele>2539.9</ele>
    <time>2021-07-18T09:31:43Z</time>
   </trkpt>
   <trkpt lat="42.7400870" lon="-0.4876480">
    <ele>2539.9</ele>
    <time>2021-07-18T09:31:45Z</time>
   </trkpt>
   <trkpt lat="42.7400880" lon="-0.4876480">
    <ele>2539.9</ele>
    <time>2021-07-18T09:31:48Z</time>
   </trkpt>
   <trkpt lat="42.7400910" lon="-0.4876480">
    <ele>2539.9</ele>
    <time>2021-07-18T09:31:50Z</time>
   </trkpt>
   <trkpt lat="42.7400930" lon="-0.4876590">
    <ele>2539.9</ele>
    <time>2021-07-18T09:31:53Z</time>
   </trkpt>
   <trkpt lat="42.7400910" lon="-0.4876650">
    <ele>2539.9</ele>
    <time>2021-07-18T09:31:55Z</time>
   </trkpt>
   <trkpt lat="42.7400940" lon="-0.4876710">
    <ele>2539.9</ele>
    <time>2021-07-18T09:31:58Z</time>
   </trkpt>
   <trkpt lat="42.7400820" lon="-0.4877070">
    <ele>2539.5</ele>
    <time>2021-07-18T09:32:02Z</time>
   </trkpt>
   <trkpt lat="42.7400850" lon="-0.4877070">
    <ele>2539.5</ele>
    <time>2021-07-18T09:32:03Z</time>
   </trkpt>
   <trkpt lat="42.7401000" lon="-0.4876820">
    <ele>2539.9</ele>
    <time>2021-07-18T09:32:06Z</time>
   </trkpt>
   <trkpt lat="42.7401070" lon="-0.4876700">
    <ele>2539.9</ele>
    <time>2021-07-18T09:32:08Z</time>
   </trkpt>
   <trkpt lat="42.7401240" lon="-0.4876610">
    <ele>2540.1</ele>
    <time>2021-07-18T09:32:13Z</time>
   </trkpt>
   <trkpt lat="42.7401300" lon="-0.4876590">
    <ele>2540.1</ele>
    <time>2021-07-18T09:32:14Z</time>
   </trkpt>
   <trkpt lat="42.7401330" lon="-0.4876550">
    <ele>2540.1</ele>
    <time>2021-07-18T09:32:15Z</time>
   </trkpt>
   <trkpt lat="42.7402070" lon="-0.4875830">
    <ele>2540.8</ele>
    <time>2021-07-18T09:32:52Z</time>
   </trkpt>
   <trkpt lat="42.7402230" lon="-0.4875400">
    <ele>2541.0</ele>
    <time>2021-07-18T09:32:59Z</time>
   </trkpt>
   <trkpt lat="42.7402370" lon="-0.4874880">
    <ele>2541.0</ele>
    <time>2021-07-18T09:33:07Z</time>
   </trkpt>
   <trkpt lat="42.7402570" lon="-0.4874460">
    <ele>2541.1</ele>
    <time>2021-07-18T09:33:12Z</time>
   </trkpt>
   <trkpt lat="42.7402570" lon="-0.4873690">
    <ele>2541.1</ele>
    <time>2021-07-18T09:33:22Z</time>
   </trkpt>
   <trkpt lat="42.7402600" lon="-0.4872970">
    <ele>2540.9</ele>
    <time>2021-07-18T09:33:31Z</time>
   </trkpt>
   <trkpt lat="42.7402600" lon="-0.4872890">
    <ele>2540.9</ele>
    <time>2021-07-18T09:33:32Z</time>
   </trkpt>
   <trkpt lat="42.7402600" lon="-0.4872800">
    <ele>2540.9</ele>
    <time>2021-07-18T09:33:33Z</time>
   </trkpt>
   <trkpt lat="42.7402590" lon="-0.4872730">
    <ele>2540.9</ele>
    <time>2021-07-18T09:33:34Z</time>
   </trkpt>
   <trkpt lat="42.7402600" lon="-0.4872680">
    <ele>2540.9</ele>
    <time>2021-07-18T09:33:35Z</time>
   </trkpt>
   <trkpt lat="42.7402710" lon="-0.4872380">
    <ele>2540.3</ele>
    <time>2021-07-18T09:33:39Z</time>
   </trkpt>
   <trkpt lat="42.7402720" lon="-0.4872210">
    <ele>2540.3</ele>
    <time>2021-07-18T09:33:41Z</time>
   </trkpt>
   <trkpt lat="42.7402760" lon="-0.4872030">
    <ele>2540.0</ele>
    <time>2021-07-18T09:33:43Z</time>
   </trkpt>
   <trkpt lat="42.7402900" lon="-0.4871510">
    <ele>2539.7</ele>
    <time>2021-07-18T09:33:49Z</time>
   </trkpt>
   <trkpt lat="42.7402900" lon="-0.4871510">
    <ele>2539.7</ele>
    <time>2021-07-18T09:50:55Z</time>
   </trkpt>
   <trkpt lat="42.7402900" lon="-0.4871510">
    <ele>2539.7</ele>
    <time>2021-07-18T09:50:56Z</time>
   </trkpt>
   <trkpt lat="42.7403460" lon="-0.4872410">
    <ele>2539.4</ele>
    <time>2021-07-18T09:50:59Z</time>
   </trkpt>
   <trkpt lat="42.7403680" lon="-0.4872870">
    <ele>2539.1</ele>
    <time>2021-07-18T09:51:01Z</time>
   </trkpt>
   <trkpt lat="42.7405150" lon="-0.4874520">
    <ele>2537.3</ele>
    <time>2021-07-18T09:51:10Z</time>
   </trkpt>
   <trkpt lat="42.7405240" lon="-0.4874750">
    <ele>2536.4</ele>
    <time>2021-07-18T09:51:11Z</time>
   </trkpt>
   <trkpt lat="42.7405420" lon="-0.4875540">
    <ele>2536.4</ele>
    <time>2021-07-18T09:51:14Z</time>
   </trkpt>
   <trkpt lat="42.7405500" lon="-0.4876220">
    <ele>2536.2</ele>
    <time>2021-07-18T09:51:17Z</time>
   </trkpt>
   <trkpt lat="42.7405480" lon="-0.4876670">
    <ele>2536.0</ele>
    <time>2021-07-18T09:51:19Z</time>
   </trkpt>
   <trkpt lat="42.7405440" lon="-0.4876890">
    <ele>2536.0</ele>
    <time>2021-07-18T09:51:20Z</time>
   </trkpt>
   <trkpt lat="42.7405440" lon="-0.4877100">
    <ele>2535.7</ele>
    <time>2021-07-18T09:51:21Z</time>
   </trkpt>
   <trkpt lat="42.7405490" lon="-0.4877490">
    <ele>2535.4</ele>
    <time>2021-07-18T09:51:22Z</time>
   </trkpt>
   <trkpt lat="42.7405490" lon="-0.4877490">
    <ele>2535.4</ele>
    <time>2021-07-18T09:51:23Z</time>
   </trkpt>
   <trkpt lat="42.7405560" lon="-0.4877680">
    <ele>2534.5</ele>
    <time>2021-07-18T09:51:24Z</time>
   </trkpt>
   <trkpt lat="42.7405620" lon="-0.4877870">
    <ele>2534.2</ele>
    <time>2021-07-18T09:51:25Z</time>
   </trkpt>
   <trkpt lat="42.7405880" lon="-0.4878500">
    <ele>2532.8</ele>
    <time>2021-07-18T09:51:29Z</time>
   </trkpt>
   <trkpt lat="42.7405920" lon="-0.4878570">
    <ele>2532.8</ele>
    <time>2021-07-18T09:51:30Z</time>
   </trkpt>
   <trkpt lat="42.7405990" lon="-0.4878730">
    <ele>2532.4</ele>
    <time>2021-07-18T09:51:32Z</time>
   </trkpt>
   <trkpt lat="42.7405950" lon="-0.4879000">
    <ele>2532.4</ele>
    <time>2021-07-18T09:51:36Z</time>
   </trkpt>
   <trkpt lat="42.7405810" lon="-0.4879470">
    <ele>2532.7</ele>
    <time>2021-07-18T09:51:40Z</time>
   </trkpt>
   <trkpt lat="42.7405770" lon="-0.4879580">
    <ele>2532.1</ele>
    <time>2021-07-18T09:51:41Z</time>
   </trkpt>
   <trkpt lat="42.7405700" lon="-0.4879730">
    <ele>2532.1</ele>
    <time>2021-07-18T09:51:43Z</time>
   </trkpt>
   <trkpt lat="42.7405730" lon="-0.4879640">
    <ele>2532.1</ele>
    <time>2021-07-18T09:51:46Z</time>
   </trkpt>
   <trkpt lat="42.7405760" lon="-0.4879520">
    <ele>2532.1</ele>
    <time>2021-07-18T09:51:48Z</time>
   </trkpt>
   <trkpt lat="42.7405810" lon="-0.4879510">
    <ele>2532.1</ele>
    <time>2021-07-18T09:51:51Z</time>
   </trkpt>
   <trkpt lat="42.7405860" lon="-0.4879500">
    <ele>2531.2</ele>
    <time>2021-07-18T09:51:54Z</time>
   </trkpt>
   <trkpt lat="42.7405850" lon="-0.4879500">
    <ele>2531.2</ele>
    <time>2021-07-18T09:51:55Z</time>
   </trkpt>
   <trkpt lat="42.7405870" lon="-0.4879500">
    <ele>2531.2</ele>
    <time>2021-07-18T09:51:59Z</time>
   </trkpt>
   <trkpt lat="42.7406100" lon="-0.4879550">
    <ele>2531.2</ele>
    <time>2021-07-18T09:52:12Z</time>
   </trkpt>
   <trkpt lat="42.7406160" lon="-0.4879870">
    <ele>2530.3</ele>
    <time>2021-07-18T09:52:22Z</time>
   </trkpt>
   <trkpt lat="42.7405980" lon="-0.4880420">
    <ele>2529.7</ele>
    <time>2021-07-18T09:52:31Z</time>
   </trkpt>
   <trkpt lat="42.7405760" lon="-0.4880810">
    <ele>2529.6</ele>
    <time>2021-07-18T09:52:35Z</time>
   </trkpt>
   <trkpt lat="42.7405530" lon="-0.4881510">
    <ele>2528.7</ele>
    <time>2021-07-18T09:52:42Z</time>
   </trkpt>
   <trkpt lat="42.7405190" lon="-0.4882010">
    <ele>2529.1</ele>
    <time>2021-07-18T09:52:47Z</time>
   </trkpt>
   <trkpt lat="42.7404170" lon="-0.4883320">
    <ele>2527.0</ele>
    <time>2021-07-18T09:52:59Z</time>
   </trkpt>
   <trkpt lat="42.7403830" lon="-0.4883630">
    <ele>2526.0</ele>
    <time>2021-07-18T09:53:03Z</time>
   </trkpt>
   <trkpt lat="42.7403760" lon="-0.4883690">
    <ele>2526.0</ele>
    <time>2021-07-18T09:53:04Z</time>
   </trkpt>
   <trkpt lat="42.7403690" lon="-0.4883730">
    <ele>2526.0</ele>
    <time>2021-07-18T09:53:05Z</time>
   </trkpt>
   <trkpt lat="42.7402910" lon="-0.4884040">
    <ele>2525.5</ele>
    <time>2021-07-18T09:53:14Z</time>
   </trkpt>
   <trkpt lat="42.7402810" lon="-0.4884070">
    <ele>2525.5</ele>
    <time>2021-07-18T09:53:15Z</time>
   </trkpt>
   <trkpt lat="42.7402690" lon="-0.4884120">
    <ele>2525.5</ele>
    <time>2021-07-18T09:53:16Z</time>
   </trkpt>
   <trkpt lat="42.7402690" lon="-0.4884120">
    <ele>2525.5</ele>
    <time>2021-07-18T09:53:17Z</time>
   </trkpt>
   <trkpt lat="42.7402430" lon="-0.4884540">
    <ele>2524.3</ele>
    <time>2021-07-18T09:53:21Z</time>
   </trkpt>
   <trkpt lat="42.7402120" lon="-0.4885050">
    <ele>2523.1</ele>
    <time>2021-07-18T09:53:26Z</time>
   </trkpt>
   <trkpt lat="42.7402050" lon="-0.4885180">
    <ele>2521.9</ele>
    <time>2021-07-18T09:53:28Z</time>
   </trkpt>
   <trkpt lat="42.7401830" lon="-0.4885780">
    <ele>2520.7</ele>
    <time>2021-07-18T09:53:34Z</time>
   </trkpt>
   <trkpt lat="42.7401430" lon="-0.4886230">
    <ele>2519.4</ele>
    <time>2021-07-18T09:53:39Z</time>
   </trkpt>
   <trkpt lat="42.7401320" lon="-0.4886360">
    <ele>2518.1</ele>
    <time>2021-07-18T09:53:40Z</time>
   </trkpt>
   <trkpt lat="42.7401320" lon="-0.4886360">
    <ele>2518.1</ele>
    <time>2021-07-18T09:53:41Z</time>
   </trkpt>
   <trkpt lat="42.7401300" lon="-0.4886720">
    <ele>2518.1</ele>
    <time>2021-07-18T09:53:45Z</time>
   </trkpt>
   <trkpt lat="42.7401200" lon="-0.4886810">
    <ele>2516.9</ele>
    <time>2021-07-18T09:53:47Z</time>
   </trkpt>
   <trkpt lat="42.7401040" lon="-0.4886910">
    <ele>2516.6</ele>
    <time>2021-07-18T09:53:58Z</time>
   </trkpt>
   <trkpt lat="42.7401110" lon="-0.4886970">
    <ele>2516.9</ele>
    <time>2021-07-18T09:54:05Z</time>
   </trkpt>
   <trkpt lat="42.7401310" lon="-0.4887010">
    <ele>2516.9</ele>
    <time>2021-07-18T09:54:11Z</time>
   </trkpt>
   <trkpt lat="42.7401610" lon="-0.4886940">
    <ele>2517.1</ele>
    <time>2021-07-18T09:54:15Z</time>
   </trkpt>
   <trkpt lat="42.7402490" lon="-0.4886650">
    <ele>2518.3</ele>
    <time>2021-07-18T09:54:33Z</time>
   </trkpt>
   <trkpt lat="42.7402510" lon="-0.4886740">
    <ele>2518.3</ele>
    <time>2021-07-18T09:54:39Z</time>
   </trkpt>
   <trkpt lat="42.7402800" lon="-0.4886300">
    <ele>2519.3</ele>
    <time>2021-07-18T09:54:55Z</time>
   </trkpt>
   <trkpt lat="42.7402980" lon="-0.4886260">
    <ele>2519.3</ele>
    <time>2021-07-18T09:54:58Z</time>
   </trkpt>
   <trkpt lat="42.7403810" lon="-0.4886210">
    <ele>2518.2</ele>
    <time>2021-07-18T09:55:18Z</time>
   </trkpt>
   <trkpt lat="42.7404580" lon="-0.4886140">
    <ele>2516.8</ele>
    <time>2021-07-18T09:55:35Z</time>
   </trkpt>
   <trkpt lat="42.7405410" lon="-0.4886000">
    <ele>2515.5</ele>
    <time>2021-07-18T09:55:48Z</time>
   </trkpt>
   <trkpt lat="42.7405490" lon="-0.4885970">
    <ele>2515.5</ele>
    <time>2021-07-18T09:55:49Z</time>
   </trkpt>
   <trkpt lat="42.7405560" lon="-0.4885950">
    <ele>2514.7</ele>
    <time>2021-07-18T09:55:50Z</time>
   </trkpt>
   <trkpt lat="42.7405970" lon="-0.4885950">
    <ele>2513.9</ele>
    <time>2021-07-18T09:55:56Z</time>
   </trkpt>
   <trkpt lat="42.7406180" lon="-0.4885900">
    <ele>2514.5</ele>
    <time>2021-07-18T09:55:59Z</time>
   </trkpt>
   <trkpt lat="42.7406270" lon="-0.4885920">
    <ele>2513.1</ele>
    <time>2021-07-18T09:56:02Z</time>
   </trkpt>
   <trkpt lat="42.7406430" lon="-0.4885940">
    <ele>2513.1</ele>
    <time>2021-07-18T09:56:07Z</time>
   </trkpt>
   <trkpt lat="42.7406460" lon="-0.4885930">
    <ele>2512.2</ele>
    <time>2021-07-18T09:56:08Z</time>
   </trkpt>
   <trkpt lat="42.7406450" lon="-0.4885970">
    <ele>2513.1</ele>
    <time>2021-07-18T09:56:09Z</time>
   </trkpt>
   <trkpt lat="42.7406430" lon="-0.4885980">
    <ele>2513.1</ele>
    <time>2021-07-18T09:56:11Z</time>
   </trkpt>
   <trkpt lat="42.7406440" lon="-0.4886030">
    <ele>2513.1</ele>
    <time>2021-07-18T09:56:13Z</time>
   </trkpt>
   <trkpt lat="42.7406670" lon="-0.4885970">
    <ele>2512.2</ele>
    <time>2021-07-18T09:56:16Z</time>
   </trkpt>
   <trkpt lat="42.7407090" lon="-0.4885780">
    <ele>2511.8</ele>
    <time>2021-07-18T09:56:19Z</time>
   </trkpt>
   <trkpt lat="42.7407280" lon="-0.4885720">
    <ele>2511.8</ele>
    <time>2021-07-18T09:56:20Z</time>
   </trkpt>
   <trkpt lat="42.7407430" lon="-0.4885680">
    <ele>2510.7</ele>
    <time>2021-07-18T09:56:21Z</time>
   </trkpt>
   <trkpt lat="42.7407940" lon="-0.4885650">
    <ele>2509.5</ele>
    <time>2021-07-18T09:56:24Z</time>
   </trkpt>
   <trkpt lat="42.7408090" lon="-0.4885610">
    <ele>2508.1</ele>
    <time>2021-07-18T09:56:25Z</time>
   </trkpt>
   <trkpt lat="42.7408190" lon="-0.4885600">
    <ele>2508.1</ele>
    <time>2021-07-18T09:56:26Z</time>
   </trkpt>
   <trkpt lat="42.7408350" lon="-0.4885580">
    <ele>2506.7</ele>
    <time>2021-07-18T09:56:29Z</time>
   </trkpt>
   <trkpt lat="42.7408430" lon="-0.4885610">
    <ele>2506.7</ele>
    <time>2021-07-18T09:56:32Z</time>
   </trkpt>
   <trkpt lat="42.7408920" lon="-0.4885520">
    <ele>2505.2</ele>
    <time>2021-07-18T09:56:36Z</time>
   </trkpt>
   <trkpt lat="42.7409390" lon="-0.4885320">
    <ele>2503.9</ele>
    <time>2021-07-18T09:56:40Z</time>
   </trkpt>
   <trkpt lat="42.7409500" lon="-0.4885310">
    <ele>2503.9</ele>
    <time>2021-07-18T09:56:42Z</time>
   </trkpt>
   <trkpt lat="42.7409670" lon="-0.4885320">
    <ele>2502.5</ele>
    <time>2021-07-18T09:56:44Z</time>
   </trkpt>
   <trkpt lat="42.7409880" lon="-0.4885300">
    <ele>2502.5</ele>
    <time>2021-07-18T09:56:45Z</time>
   </trkpt>
   <trkpt lat="42.7409880" lon="-0.4885300">
    <ele>2502.5</ele>
    <time>2021-07-18T09:56:46Z</time>
   </trkpt>
   <trkpt lat="42.7411770" lon="-0.4885340">
    <ele>2492.8</ele>
    <time>2021-07-18T09:57:06Z</time>
   </trkpt>
   <trkpt lat="42.7412480" lon="-0.4885340">
    <ele>2488.1</ele>
    <time>2021-07-18T09:57:12Z</time>
   </trkpt>
   <trkpt lat="42.7413540" lon="-0.4884890">
    <ele>2484.4</ele>
    <time>2021-07-18T09:57:21Z</time>
   </trkpt>
   <trkpt lat="42.7413640" lon="-0.4884880">
    <ele>2484.4</ele>
    <time>2021-07-18T09:57:24Z</time>
   </trkpt>
   <trkpt lat="42.7414150" lon="-0.4884850">
    <ele>2480.9</ele>
    <time>2021-07-18T09:57:32Z</time>
   </trkpt>
   <trkpt lat="42.7415670" lon="-0.4884340">
    <ele>2473.6</ele>
    <time>2021-07-18T09:57:40Z</time>
   </trkpt>
   <trkpt lat="42.7416220" lon="-0.4884670">
    <ele>2470.5</ele>
    <time>2021-07-18T09:59:27Z</time>
   </trkpt>
   <trkpt lat="42.7416260" lon="-0.4884700">
    <ele>2468.7</ele>
    <time>2021-07-18T09:59:28Z</time>
   </trkpt>
   <trkpt lat="42.7416620" lon="-0.4884660">
    <ele>2466.8</ele>
    <time>2021-07-18T09:59:32Z</time>
   </trkpt>
   <trkpt lat="42.7418140" lon="-0.4884170">
    <ele>2460.5</ele>
    <time>2021-07-18T09:59:40Z</time>
   </trkpt>
   <trkpt lat="42.7420160" lon="-0.4883750">
    <ele>2451.8</ele>
    <time>2021-07-18T09:59:47Z</time>
   </trkpt>
   <trkpt lat="42.7420910" lon="-0.4883560">
    <ele>2449.1</ele>
    <time>2021-07-18T09:59:50Z</time>
   </trkpt>
   <trkpt lat="42.7421340" lon="-0.4883610">
    <ele>2446.7</ele>
    <time>2021-07-18T09:59:55Z</time>
   </trkpt>
   <trkpt lat="42.7421540" lon="-0.4883640">
    <ele>2446.7</ele>
    <time>2021-07-18T09:59:58Z</time>
   </trkpt>
   <trkpt lat="42.7421790" lon="-0.4883580">
    <ele>2445.4</ele>
    <time>2021-07-18T09:59:59Z</time>
   </trkpt>
   <trkpt lat="42.7421790" lon="-0.4883580">
    <ele>2445.4</ele>
    <time>2021-07-18T10:00:00Z</time>
   </trkpt>
   <trkpt lat="42.7422480" lon="-0.4883280">
    <ele>2443.3</ele>
    <time>2021-07-18T10:00:04Z</time>
   </trkpt>
   <trkpt lat="42.7422630" lon="-0.4883250">
    <ele>2442.0</ele>
    <time>2021-07-18T10:00:05Z</time>
   </trkpt>
   <trkpt lat="42.7423020" lon="-0.4883090">
    <ele>2440.8</ele>
    <time>2021-07-18T10:00:06Z</time>
   </trkpt>
   <trkpt lat="42.7423020" lon="-0.4883090">
    <ele>2440.8</ele>
    <time>2021-07-18T10:00:07Z</time>
   </trkpt>
   <trkpt lat="42.7423490" lon="-0.4883020">
    <ele>2438.9</ele>
    <time>2021-07-18T10:00:09Z</time>
   </trkpt>
   <trkpt lat="42.7423720" lon="-0.4883020">
    <ele>2438.9</ele>
    <time>2021-07-18T10:00:10Z</time>
   </trkpt>
   <trkpt lat="42.7423980" lon="-0.4882950">
    <ele>2437.9</ele>
    <time>2021-07-18T10:00:11Z</time>
   </trkpt>
   <trkpt lat="42.7424250" lon="-0.4882860">
    <ele>2437.5</ele>
    <time>2021-07-18T10:00:12Z</time>
   </trkpt>
   <trkpt lat="42.7424510" lon="-0.4882790">
    <ele>2436.4</ele>
    <time>2021-07-18T10:00:13Z</time>
   </trkpt>
   <trkpt lat="42.7424790" lon="-0.4882710">
    <ele>2435.4</ele>
    <time>2021-07-18T10:00:14Z</time>
   </trkpt>
   <trkpt lat="42.7425080" lon="-0.4882690">
    <ele>2434.4</ele>
    <time>2021-07-18T10:00:15Z</time>
   </trkpt>
   <trkpt lat="42.7425380" lon="-0.4882720">
    <ele>2433.6</ele>
    <time>2021-07-18T10:00:16Z</time>
   </trkpt>
   <trkpt lat="42.7425680" lon="-0.4882780">
    <ele>2433.6</ele>
    <time>2021-07-18T10:00:17Z</time>
   </trkpt>
   <trkpt lat="42.7426870" lon="-0.4882930">
    <ele>2430.2</ele>
    <time>2021-07-18T10:00:21Z</time>
   </trkpt>
   <trkpt lat="42.7427860" lon="-0.4882880">
    <ele>2429.0</ele>
    <time>2021-07-18T10:00:25Z</time>
   </trkpt>
   <trkpt lat="42.7428160" lon="-0.4882880">
    <ele>2428.5</ele>
    <time>2021-07-18T10:00:26Z</time>
   </trkpt>
   <trkpt lat="42.7428470" lon="-0.4882890">
    <ele>2428.1</ele>
    <time>2021-07-18T10:00:27Z</time>
   </trkpt>
   <trkpt lat="42.7429370" lon="-0.4883010">
    <ele>2426.8</ele>
    <time>2021-07-18T10:00:30Z</time>
   </trkpt>
   <trkpt lat="42.7429640" lon="-0.4883070">
    <ele>2426.6</ele>
    <time>2021-07-18T10:00:31Z</time>
   </trkpt>
   <trkpt lat="42.7430100" lon="-0.4883210">
    <ele>2426.4</ele>
    <time>2021-07-18T10:00:33Z</time>
   </trkpt>
   <trkpt lat="42.7430700" lon="-0.4883340">
    <ele>2426.0</ele>
    <time>2021-07-18T10:00:36Z</time>
   </trkpt>
   <trkpt lat="42.7431890" lon="-0.4883000">
    <ele>2426.6</ele>
    <time>2021-07-18T10:00:43Z</time>
   </trkpt>
   <trkpt lat="42.7432760" lon="-0.4882780">
    <ele>2427.3</ele>
    <time>2021-07-18T10:00:50Z</time>
   </trkpt>
   <trkpt lat="42.7433340" lon="-0.4883090">
    <ele>2427.5</ele>
    <time>2021-07-18T10:00:56Z</time>
   </trkpt>
   <trkpt lat="42.7433460" lon="-0.4882920">
    <ele>2427.5</ele>
    <time>2021-07-18T10:00:58Z</time>
   </trkpt>
   <trkpt lat="42.7433630" lon="-0.4882170">
    <ele>2428.3</ele>
    <time>2021-07-18T10:01:03Z</time>
   </trkpt>
   <trkpt lat="42.7433900" lon="-0.4881550">
    <ele>2429.0</ele>
    <time>2021-07-18T10:01:08Z</time>
   </trkpt>
   <trkpt lat="42.7434060" lon="-0.4881370">
    <ele>2429.0</ele>
    <time>2021-07-18T10:01:11Z</time>
   </trkpt>
   <trkpt lat="42.7434250" lon="-0.4880780">
    <ele>2429.7</ele>
    <time>2021-07-18T10:01:17Z</time>
   </trkpt>
   <trkpt lat="42.7434970" lon="-0.4879070">
    <ele>2430.9</ele>
    <time>2021-07-18T10:01:34Z</time>
   </trkpt>
   <trkpt lat="42.7435710" lon="-0.4876970">
    <ele>2430.2</ele>
    <time>2021-07-18T10:01:55Z</time>
   </trkpt>
   <trkpt lat="42.7435900" lon="-0.4876310">
    <ele>2429.4</ele>
    <time>2021-07-18T10:02:02Z</time>
   </trkpt>
   <trkpt lat="42.7435910" lon="-0.4875610">
    <ele>2427.5</ele>
    <time>2021-07-18T10:02:10Z</time>
   </trkpt>
   <trkpt lat="42.7436640" lon="-0.4874110">
    <ele>2426.1</ele>
    <time>2021-07-18T10:02:23Z</time>
   </trkpt>
   <trkpt lat="42.7436610" lon="-0.4873790">
    <ele>2425.1</ele>
    <time>2021-07-18T10:02:26Z</time>
   </trkpt>
   <trkpt lat="42.7436590" lon="-0.4873460">
    <ele>2424.1</ele>
    <time>2021-07-18T10:02:28Z</time>
   </trkpt>
   <trkpt lat="42.7436640" lon="-0.4873140">
    <ele>2424.1</ele>
    <time>2021-07-18T10:02:30Z</time>
   </trkpt>
   <trkpt lat="42.7437220" lon="-0.4870800">
    <ele>2419.7</ele>
    <time>2021-07-18T10:02:48Z</time>
   </trkpt>
   <trkpt lat="42.7437440" lon="-0.4870420">
    <ele>2419.4</ele>
    <time>2021-07-18T10:02:52Z</time>
   </trkpt>
   <trkpt lat="42.7437770" lon="-0.4870070">
    <ele>2420.3</ele>
    <time>2021-07-18T10:02:55Z</time>
   </trkpt>
   <trkpt lat="42.7437960" lon="-0.4869690">
    <ele>2419.2</ele>
    <time>2021-07-18T10:02:59Z</time>
   </trkpt>
   <trkpt lat="42.7438060" lon="-0.4869460">
    <ele>2418.9</ele>
    <time>2021-07-18T10:03:03Z</time>
   </trkpt>
   <trkpt lat="42.7438490" lon="-0.4868990">
    <ele>2418.6</ele>
    <time>2021-07-18T10:03:18Z</time>
   </trkpt>
   <trkpt lat="42.7438570" lon="-0.4868560">
    <ele>2417.5</ele>
    <time>2021-07-18T10:03:24Z</time>
   </trkpt>
   <trkpt lat="42.7438560" lon="-0.4868240">
    <ele>2416.3</ele>
    <time>2021-07-18T10:03:31Z</time>
   </trkpt>
   <trkpt lat="42.7438570" lon="-0.4868070">
    <ele>2416.3</ele>
    <time>2021-07-18T10:03:34Z</time>
   </trkpt>
   <trkpt lat="42.7438780" lon="-0.4866690">
    <ele>2413.2</ele>
    <time>2021-07-18T10:04:00Z</time>
   </trkpt>
   <trkpt lat="42.7438750" lon="-0.4866140">
    <ele>2410.2</ele>
    <time>2021-07-18T10:04:04Z</time>
   </trkpt>
   <trkpt lat="42.7438800" lon="-0.4864910">
    <ele>2407.2</ele>
    <time>2021-07-18T10:04:13Z</time>
   </trkpt>
   <trkpt lat="42.7438130" lon="-0.4865190">
    <ele>2404.6</ele>
    <time>2021-07-18T10:04:18Z</time>
   </trkpt>
   <trkpt lat="42.7437960" lon="-0.4865260">
    <ele>2403.3</ele>
    <time>2021-07-18T10:04:19Z</time>
   </trkpt>
   <trkpt lat="42.7437690" lon="-0.4865470">
    <ele>2404.9</ele>
    <time>2021-07-18T10:04:20Z</time>
   </trkpt>
   <trkpt lat="42.7437690" lon="-0.4865470">
    <ele>2404.9</ele>
    <time>2021-07-18T10:04:21Z</time>
   </trkpt>
   <trkpt lat="42.7437290" lon="-0.4865550">
    <ele>2402.5</ele>
    <time>2021-07-18T10:04:25Z</time>
   </trkpt>
   <trkpt lat="42.7437180" lon="-0.4865540">
    <ele>2402.5</ele>
    <time>2021-07-18T10:04:26Z</time>
   </trkpt>
   <trkpt lat="42.7436970" lon="-0.4865680">
    <ele>2401.2</ele>
    <time>2021-07-18T10:04:28Z</time>
   </trkpt>
   <trkpt lat="42.7436460" lon="-0.4866030">
    <ele>2401.6</ele>
    <time>2021-07-18T10:04:32Z</time>
   </trkpt>
   <trkpt lat="42.7436260" lon="-0.4866050">
    <ele>2400.1</ele>
    <time>2021-07-18T10:04:33Z</time>
   </trkpt>
   <trkpt lat="42.7436260" lon="-0.4866050">
    <ele>2400.1</ele>
    <time>2021-07-18T10:04:34Z</time>
   </trkpt>
   <trkpt lat="42.7436050" lon="-0.4866010">
    <ele>2398.6</ele>
    <time>2021-07-18T10:04:36Z</time>
   </trkpt>
   <trkpt lat="42.7435950" lon="-0.4866040">
    <ele>2398.6</ele>
    <time>2021-07-18T10:04:37Z</time>
   </trkpt>
   <trkpt lat="42.7435850" lon="-0.4866110">
    <ele>2398.6</ele>
    <time>2021-07-18T10:04:38Z</time>
   </trkpt>
   <trkpt lat="42.7435700" lon="-0.4866070">
    <ele>2397.2</ele>
    <time>2021-07-18T10:04:39Z</time>
   </trkpt>
   <trkpt lat="42.7435420" lon="-0.4866220">
    <ele>2397.6</ele>
    <time>2021-07-18T10:04:40Z</time>
   </trkpt>
   <trkpt lat="42.7435300" lon="-0.4866250">
    <ele>2397.6</ele>
    <time>2021-07-18T10:04:42Z</time>
   </trkpt>
   <trkpt lat="42.7435030" lon="-0.4866160">
    <ele>2394.5</ele>
    <time>2021-07-18T10:04:45Z</time>
   </trkpt>
   <trkpt lat="42.7434870" lon="-0.4865750">
    <ele>2394.5</ele>
    <time>2021-07-18T10:04:49Z</time>
   </trkpt>
   <trkpt lat="42.7434360" lon="-0.4865680">
    <ele>2390.1</ele>
    <time>2021-07-18T10:04:52Z</time>
   </trkpt>
   <trkpt lat="42.7434170" lon="-0.4865400">
    <ele>2389.0</ele>
    <time>2021-07-18T10:04:56Z</time>
   </trkpt>
   <trkpt lat="42.7434170" lon="-0.4864920">
    <ele>2387.1</ele>
    <time>2021-07-18T10:05:02Z</time>
   </trkpt>
   <trkpt lat="42.7434180" lon="-0.4864840">
    <ele>2385.4</ele>
    <time>2021-07-18T10:05:03Z</time>
   </trkpt>
   <trkpt lat="42.7434200" lon="-0.4864850">
    <ele>2386.5</ele>
    <time>2021-07-18T10:05:05Z</time>
   </trkpt>
   <trkpt lat="42.7434130" lon="-0.4864850">
    <ele>2385.4</ele>
    <time>2021-07-18T10:05:07Z</time>
   </trkpt>
   <trkpt lat="42.7434050" lon="-0.4864760">
    <ele>2385.4</ele>
    <time>2021-07-18T10:05:09Z</time>
   </trkpt>
   <trkpt lat="42.7434000" lon="-0.4864610">
    <ele>2385.4</ele>
    <time>2021-07-18T10:05:10Z</time>
   </trkpt>
   <trkpt lat="42.7434000" lon="-0.4864610">
    <ele>2385.4</ele>
    <time>2021-07-18T10:05:11Z</time>
   </trkpt>
   <trkpt lat="42.7433740" lon="-0.4864180">
    <ele>2382.4</ele>
    <time>2021-07-18T10:05:16Z</time>
   </trkpt>
   <trkpt lat="42.7433690" lon="-0.4864090">
    <ele>2382.4</ele>
    <time>2021-07-18T10:05:17Z</time>
   </trkpt>
   <trkpt lat="42.7433330" lon="-0.4863320">
    <ele>2377.7</ele>
    <time>2021-07-18T10:05:23Z</time>
   </trkpt>
   <trkpt lat="42.7432880" lon="-0.4862750">
    <ele>2374.0</ele>
    <time>2021-07-18T10:05:30Z</time>
   </trkpt>
   <trkpt lat="42.7432540" lon="-0.4861880">
    <ele>2369.6</ele>
    <time>2021-07-18T10:05:41Z</time>
   </trkpt>
   <trkpt lat="42.7432340" lon="-0.4861590">
    <ele>2367.7</ele>
    <time>2021-07-18T10:05:44Z</time>
   </trkpt>
   <trkpt lat="42.7431350" lon="-0.4859840">
    <ele>2359.9</ele>
    <time>2021-07-18T10:05:56Z</time>
   </trkpt>
   <trkpt lat="42.7431890" lon="-0.4858600">
    <ele>2355.9</ele>
    <time>2021-07-18T10:06:04Z</time>
   </trkpt>
   <trkpt lat="42.7431730" lon="-0.4858330">
    <ele>2354.4</ele>
    <time>2021-07-18T10:06:06Z</time>
   </trkpt>
   <trkpt lat="42.7431100" lon="-0.4857430">
    <ele>2351.2</ele>
    <time>2021-07-18T10:06:12Z</time>
   </trkpt>
   <trkpt lat="42.7431100" lon="-0.4857280">
    <ele>2351.2</ele>
    <time>2021-07-18T10:06:13Z</time>
   </trkpt>
   <trkpt lat="42.7431410" lon="-0.4856830">
    <ele>2349.7</ele>
    <time>2021-07-18T10:06:18Z</time>
   </trkpt>
   <trkpt lat="42.7431600" lon="-0.4856110">
    <ele>2346.9</ele>
    <time>2021-07-18T10:06:24Z</time>
   </trkpt>
   <trkpt lat="42.7431540" lon="-0.4856000">
    <ele>2346.9</ele>
    <time>2021-07-18T10:06:25Z</time>
   </trkpt>
   <trkpt lat="42.7431410" lon="-0.4855810">
    <ele>2345.5</ele>
    <time>2021-07-18T10:06:26Z</time>
   </trkpt>
   <trkpt lat="42.7431310" lon="-0.4854930">
    <ele>2342.6</ele>
    <time>2021-07-18T10:06:34Z</time>
   </trkpt>
   <trkpt lat="42.7430930" lon="-0.4852990">
    <ele>2336.4</ele>
    <time>2021-07-18T10:06:47Z</time>
   </trkpt>
   <trkpt lat="42.7431090" lon="-0.4852690">
    <ele>2334.6</ele>
    <time>2021-07-18T10:06:52Z</time>
   </trkpt>
   <trkpt lat="42.7430890" lon="-0.4852460">
    <ele>2334.6</ele>
    <time>2021-07-18T10:06:55Z</time>
   </trkpt>
   <trkpt lat="42.7430740" lon="-0.4852170">
    <ele>2332.9</ele>
    <time>2021-07-18T10:07:00Z</time>
   </trkpt>
   <trkpt lat="42.7431110" lon="-0.4851570">
    <ele>2329.7</ele>
    <time>2021-07-18T10:07:15Z</time>
   </trkpt>
   <trkpt lat="42.7431450" lon="-0.4850080">
    <ele>2325.5</ele>
    <time>2021-07-18T10:07:31Z</time>
   </trkpt>
   <trkpt lat="42.7431360" lon="-0.4848800">
    <ele>2321.4</ele>
    <time>2021-07-18T10:07:44Z</time>
   </trkpt>
   <trkpt lat="42.7431290" lon="-0.4848540">
    <ele>2320.1</ele>
    <time>2021-07-18T10:07:46Z</time>
   </trkpt>
   <trkpt lat="42.7431270" lon="-0.4848380">
    <ele>2320.1</ele>
    <time>2021-07-18T10:07:47Z</time>
   </trkpt>
   <trkpt lat="42.7431210" lon="-0.4846650">
    <ele>2315.0</ele>
    <time>2021-07-18T10:08:02Z</time>
   </trkpt>
   <trkpt lat="42.7431500" lon="-0.4846220">
    <ele>2313.9</ele>
    <time>2021-07-18T10:08:05Z</time>
   </trkpt>
   <trkpt lat="42.7431170" lon="-0.4843650">
    <ele>2307.5</ele>
    <time>2021-07-18T10:08:14Z</time>
   </trkpt>
   <trkpt lat="42.7430660" lon="-0.4842590">
    <ele>2305.4</ele>
    <time>2021-07-18T10:08:18Z</time>
   </trkpt>
   <trkpt lat="42.7430300" lon="-0.4841610">
    <ele>2302.9</ele>
    <time>2021-07-18T10:08:22Z</time>
   </trkpt>
   <trkpt lat="42.7430230" lon="-0.4841390">
    <ele>2302.9</ele>
    <time>2021-07-18T10:08:23Z</time>
   </trkpt>
   <trkpt lat="42.7430120" lon="-0.4840990">
    <ele>2302.0</ele>
    <time>2021-07-18T10:08:25Z</time>
   </trkpt>
   <trkpt lat="42.7430070" lon="-0.4840740">
    <ele>2301.3</ele>
    <time>2021-07-18T10:08:26Z</time>
   </trkpt>
   <trkpt lat="42.7430050" lon="-0.4840460">
    <ele>2301.3</ele>
    <time>2021-07-18T10:08:27Z</time>
   </trkpt>
   <trkpt lat="42.7430280" lon="-0.4838690">
    <ele>2296.7</ele>
    <time>2021-07-18T10:08:33Z</time>
   </trkpt>
   <trkpt lat="42.7430390" lon="-0.4838260">
    <ele>2295.8</ele>
    <time>2021-07-18T10:08:35Z</time>
   </trkpt>
   <trkpt lat="42.7430350" lon="-0.4838020">
    <ele>2295.8</ele>
    <time>2021-07-18T10:08:36Z</time>
   </trkpt>
   <trkpt lat="42.7430230" lon="-0.4837760">
    <ele>2295.0</ele>
    <time>2021-07-18T10:08:37Z</time>
   </trkpt>
   <trkpt lat="42.7430070" lon="-0.4837510">
    <ele>2295.1</ele>
    <time>2021-07-18T10:08:38Z</time>
   </trkpt>
   <trkpt lat="42.7429850" lon="-0.4837040">
    <ele>2294.3</ele>
    <time>2021-07-18T10:08:40Z</time>
   </trkpt>
   <trkpt lat="42.7429410" lon="-0.4836250">
    <ele>2293.0</ele>
    <time>2021-07-18T10:08:43Z</time>
   </trkpt>
   <trkpt lat="42.7429240" lon="-0.4835950">
    <ele>2292.1</ele>
    <time>2021-07-18T10:08:45Z</time>
   </trkpt>
   <trkpt lat="42.7429150" lon="-0.4835620">
    <ele>2291.3</ele>
    <time>2021-07-18T10:08:47Z</time>
   </trkpt>
   <trkpt lat="42.7429150" lon="-0.4835440">
    <ele>2291.3</ele>
    <time>2021-07-18T10:08:48Z</time>
   </trkpt>
   <trkpt lat="42.7429040" lon="-0.4834410">
    <ele>2288.5</ele>
    <time>2021-07-18T10:08:54Z</time>
   </trkpt>
   <trkpt lat="42.7429040" lon="-0.4834010">
    <ele>2288.5</ele>
    <time>2021-07-18T10:08:56Z</time>
   </trkpt>
   <trkpt lat="42.7429050" lon="-0.4833410">
    <ele>2286.0</ele>
    <time>2021-07-18T10:08:59Z</time>
   </trkpt>
   <trkpt lat="42.7429010" lon="-0.4832910">
    <ele>2285.1</ele>
    <time>2021-07-18T10:09:02Z</time>
   </trkpt>
   <trkpt lat="42.7428570" lon="-0.4832140">
    <ele>2283.4</ele>
    <time>2021-07-18T10:09:08Z</time>
   </trkpt>
   <trkpt lat="42.7428280" lon="-0.4831420">
    <ele>2282.6</ele>
    <time>2021-07-18T10:09:14Z</time>
   </trkpt>
   <trkpt lat="42.7427890" lon="-0.4830750">
    <ele>2280.5</ele>
    <time>2021-07-18T10:09:21Z</time>
   </trkpt>
   <trkpt lat="42.7427710" lon="-0.4830650">
    <ele>2280.8</ele>
    <time>2021-07-18T10:09:24Z</time>
   </trkpt>
   <trkpt lat="42.7427560" lon="-0.4830510">
    <ele>2279.8</ele>
    <time>2021-07-18T10:09:26Z</time>
   </trkpt>
   <trkpt lat="42.7427220" lon="-0.4830310">
    <ele>2280.1</ele>
    <time>2021-07-18T10:09:29Z</time>
   </trkpt>
   <trkpt lat="42.7426750" lon="-0.4830120">
    <ele>2279.1</ele>
    <time>2021-07-18T10:09:34Z</time>
   </trkpt>
   <trkpt lat="42.7426210" lon="-0.4830200">
    <ele>2280.8</ele>
    <time>2021-07-18T10:09:41Z</time>
   </trkpt>
   <trkpt lat="42.7425920" lon="-0.4830270">
    <ele>2281.0</ele>
    <time>2021-07-18T10:09:44Z</time>
   </trkpt>
   <trkpt lat="42.7425680" lon="-0.4830320">
    <ele>2281.3</ele>
    <time>2021-07-18T10:09:47Z</time>
   </trkpt>
   <trkpt lat="42.7425370" lon="-0.4830240">
    <ele>2281.3</ele>
    <time>2021-07-18T10:09:51Z</time>
   </trkpt>
   <trkpt lat="42.7424310" lon="-0.4830490">
    <ele>2282.6</ele>
    <time>2021-07-18T10:09:59Z</time>
   </trkpt>
   <trkpt lat="42.7423470" lon="-0.4829330">
    <ele>2281.0</ele>
    <time>2021-07-18T10:10:11Z</time>
   </trkpt>
   <trkpt lat="42.7423760" lon="-0.4828440">
    <ele>2278.3</ele>
    <time>2021-07-18T10:10:15Z</time>
   </trkpt>
   <trkpt lat="42.7423760" lon="-0.4827960">
    <ele>2275.9</ele>
    <time>2021-07-18T10:10:17Z</time>
   </trkpt>
   <trkpt lat="42.7424050" lon="-0.4827650">
    <ele>2275.5</ele>
    <time>2021-07-18T10:10:19Z</time>
   </trkpt>
   <trkpt lat="42.7424260" lon="-0.4827560">
    <ele>2275.2</ele>
    <time>2021-07-18T10:10:20Z</time>
   </trkpt>
   <trkpt lat="42.7424450" lon="-0.4827400">
    <ele>2273.7</ele>
    <time>2021-07-18T10:10:21Z</time>
   </trkpt>
   <trkpt lat="42.7424610" lon="-0.4827180">
    <ele>2273.7</ele>
    <time>2021-07-18T10:10:22Z</time>
   </trkpt>
   <trkpt lat="42.7424780" lon="-0.4826890">
    <ele>2272.1</ele>
    <time>2021-07-18T10:10:23Z</time>
   </trkpt>
   <trkpt lat="42.7424940" lon="-0.4826630">
    <ele>2270.8</ele>
    <time>2021-07-18T10:10:24Z</time>
   </trkpt>
   <trkpt lat="42.7425170" lon="-0.4826290">
    <ele>2270.6</ele>
    <time>2021-07-18T10:10:25Z</time>
   </trkpt>
   <trkpt lat="42.7425710" lon="-0.4824890">
    <ele>2265.0</ele>
    <time>2021-07-18T10:10:33Z</time>
   </trkpt>
   <trkpt lat="42.7425840" lon="-0.4824130">
    <ele>2263.8</ele>
    <time>2021-07-18T10:10:37Z</time>
   </trkpt>
   <trkpt lat="42.7425950" lon="-0.4823970">
    <ele>2262.6</ele>
    <time>2021-07-18T10:10:38Z</time>
   </trkpt>
   <trkpt lat="42.7426810" lon="-0.4822390">
    <ele>2256.9</ele>
    <time>2021-07-18T10:10:46Z</time>
   </trkpt>
   <trkpt lat="42.7426750" lon="-0.4821760">
    <ele>2255.4</ele>
    <time>2021-07-18T10:10:49Z</time>
   </trkpt>
   <trkpt lat="42.7426850" lon="-0.4821630">
    <ele>2255.4</ele>
    <time>2021-07-18T10:10:50Z</time>
   </trkpt>
   <trkpt lat="42.7427100" lon="-0.4821310">
    <ele>2253.7</ele>
    <time>2021-07-18T10:10:54Z</time>
   </trkpt>
   <trkpt lat="42.7427080" lon="-0.4821010">
    <ele>2252.2</ele>
    <time>2021-07-18T10:10:57Z</time>
   </trkpt>
   <trkpt lat="42.7427420" lon="-0.4820570">
    <ele>2250.6</ele>
    <time>2021-07-18T10:11:09Z</time>
   </trkpt>
   <trkpt lat="42.7427610" lon="-0.4820230">
    <ele>2249.0</ele>
    <time>2021-07-18T10:11:13Z</time>
   </trkpt>
   <trkpt lat="42.7428060" lon="-0.4819890">
    <ele>2248.9</ele>
    <time>2021-07-18T10:11:29Z</time>
   </trkpt>
   <trkpt lat="42.7428120" lon="-0.4819110">
    <ele>2245.9</ele>
    <time>2021-07-18T10:11:34Z</time>
   </trkpt>
   <trkpt lat="42.7428060" lon="-0.4818830">
    <ele>2244.4</ele>
    <time>2021-07-18T10:11:36Z</time>
   </trkpt>
   <trkpt lat="42.7427980" lon="-0.4818580">
    <ele>2244.4</ele>
    <time>2021-07-18T10:11:39Z</time>
   </trkpt>
   <trkpt lat="42.7427960" lon="-0.4818600">
    <ele>2244.4</ele>
    <time>2021-07-18T10:11:40Z</time>
   </trkpt>
   <trkpt lat="42.7427800" lon="-0.4818440">
    <ele>2242.9</ele>
    <time>2021-07-18T10:11:44Z</time>
   </trkpt>
   <trkpt lat="42.7427720" lon="-0.4818430">
    <ele>2242.9</ele>
    <time>2021-07-18T10:11:46Z</time>
   </trkpt>
   <trkpt lat="42.7427690" lon="-0.4818400">
    <ele>2242.9</ele>
    <time>2021-07-18T10:11:47Z</time>
   </trkpt>
   <trkpt lat="42.7427650" lon="-0.4818340">
    <ele>2242.9</ele>
    <time>2021-07-18T10:11:48Z</time>
   </trkpt>
   <trkpt lat="42.7427830" lon="-0.4817750">
    <ele>2241.3</ele>
    <time>2021-07-18T10:11:54Z</time>
   </trkpt>
   <trkpt lat="42.7428000" lon="-0.4817590">
    <ele>2239.5</ele>
    <time>2021-07-18T10:11:55Z</time>
   </trkpt>
   <trkpt lat="42.7428000" lon="-0.4817590">
    <ele>2239.5</ele>
    <time>2021-07-18T10:11:56Z</time>
   </trkpt>
   <trkpt lat="42.7428300" lon="-0.4817400">
    <ele>2239.5</ele>
    <time>2021-07-18T10:12:00Z</time>
   </trkpt>
   <trkpt lat="42.7428440" lon="-0.4816890">
    <ele>2237.7</ele>
    <time>2021-07-18T10:12:05Z</time>
   </trkpt>
   <trkpt lat="42.7428550" lon="-0.4816040">
    <ele>2234.3</ele>
    <time>2021-07-18T10:12:09Z</time>
   </trkpt>
   <trkpt lat="42.7428840" lon="-0.4815920">
    <ele>2232.8</ele>
    <time>2021-07-18T10:12:11Z</time>
   </trkpt>
   <trkpt lat="42.7429280" lon="-0.4815550">
    <ele>2232.9</ele>
    <time>2021-07-18T10:12:17Z</time>
   </trkpt>
   <trkpt lat="42.7429540" lon="-0.4814240">
    <ele>2227.2</ele>
    <time>2021-07-18T10:12:23Z</time>
   </trkpt>
   <trkpt lat="42.7429620" lon="-0.4813550">
    <ele>2225.7</ele>
    <time>2021-07-18T10:12:26Z</time>
   </trkpt>
   <trkpt lat="42.7429770" lon="-0.4813080">
    <ele>2224.1</ele>
    <time>2021-07-18T10:12:28Z</time>
   </trkpt>
   <trkpt lat="42.7430020" lon="-0.4812190">
    <ele>2221.2</ele>
    <time>2021-07-18T10:12:32Z</time>
   </trkpt>
   <trkpt lat="42.7430060" lon="-0.4811700">
    <ele>2219.7</ele>
    <time>2021-07-18T10:12:34Z</time>
   </trkpt>
   <trkpt lat="42.7431410" lon="-0.4810160">
    <ele>2214.7</ele>
    <time>2021-07-18T10:12:45Z</time>
   </trkpt>
   <trkpt lat="42.7431680" lon="-0.4810140">
    <ele>2214.8</ele>
    <time>2021-07-18T10:12:47Z</time>
   </trkpt>
   <trkpt lat="42.7432250" lon="-0.4809930">
    <ele>2213.5</ele>
    <time>2021-07-18T10:12:53Z</time>
   </trkpt>
   <trkpt lat="42.7433410" lon="-0.4809810">
    <ele>2213.9</ele>
    <time>2021-07-18T10:13:02Z</time>
   </trkpt>
   <trkpt lat="42.7433410" lon="-0.4809870">
    <ele>2213.9</ele>
    <time>2021-07-18T10:13:04Z</time>
   </trkpt>
   <trkpt lat="42.7433300" lon="-0.4809910">
    <ele>2213.9</ele>
    <time>2021-07-18T10:13:11Z</time>
   </trkpt>
   <trkpt lat="42.7433550" lon="-0.4810130">
    <ele>2215.3</ele>
    <time>2021-07-18T10:13:22Z</time>
   </trkpt>
   <trkpt lat="42.7434750" lon="-0.4809820">
    <ele>2213.7</ele>
    <time>2021-07-18T10:13:36Z</time>
   </trkpt>
   <trkpt lat="42.7435790" lon="-0.4809500">
    <ele>2211.4</ele>
    <time>2021-07-18T10:13:42Z</time>
   </trkpt>
   <trkpt lat="42.7436330" lon="-0.4809380">
    <ele>2211.1</ele>
    <time>2021-07-18T10:13:48Z</time>
   </trkpt>
   <trkpt lat="42.7437350" lon="-0.4807490">
    <ele>2203.4</ele>
    <time>2021-07-18T10:13:56Z</time>
   </trkpt>
   <trkpt lat="42.7437380" lon="-0.4806330">
    <ele>2198.9</ele>
    <time>2021-07-18T10:14:02Z</time>
   </trkpt>
   <trkpt lat="42.7437380" lon="-0.4806310">
    <ele>2198.9</ele>
    <time>2021-07-18T10:14:03Z</time>
   </trkpt>
   <trkpt lat="42.7438020" lon="-0.4804160">
    <ele>2191.5</ele>
    <time>2021-07-18T10:14:26Z</time>
   </trkpt>
   <trkpt lat="42.7438580" lon="-0.4803080">
    <ele>2187.1</ele>
    <time>2021-07-18T10:14:31Z</time>
   </trkpt>
   <trkpt lat="42.7439170" lon="-0.4802680">
    <ele>2186.9</ele>
    <time>2021-07-18T10:14:34Z</time>
   </trkpt>
   <trkpt lat="42.7440740" lon="-0.4801200">
    <ele>2181.6</ele>
    <time>2021-07-18T10:14:42Z</time>
   </trkpt>
   <trkpt lat="42.7440870" lon="-0.4801150">
    <ele>2181.5</ele>
    <time>2021-07-18T10:14:43Z</time>
   </trkpt>
   <trkpt lat="42.7441000" lon="-0.4801140">
    <ele>2181.5</ele>
    <time>2021-07-18T10:14:46Z</time>
   </trkpt>
   <trkpt lat="42.7441090" lon="-0.4801080">
    <ele>2181.5</ele>
    <time>2021-07-18T10:14:48Z</time>
   </trkpt>
   <trkpt lat="42.7441140" lon="-0.4801060">
    <ele>2181.5</ele>
    <time>2021-07-18T10:14:49Z</time>
   </trkpt>
   <trkpt lat="42.7441310" lon="-0.4801000">
    <ele>2181.5</ele>
    <time>2021-07-18T10:14:51Z</time>
   </trkpt>
   <trkpt lat="42.7441590" lon="-0.4801000">
    <ele>2181.5</ele>
    <time>2021-07-18T10:14:55Z</time>
   </trkpt>
   <trkpt lat="42.7441600" lon="-0.4801000">
    <ele>2181.5</ele>
    <time>2021-07-18T10:14:56Z</time>
   </trkpt>
   <trkpt lat="42.7441600" lon="-0.4801040">
    <ele>2181.5</ele>
    <time>2021-07-18T10:14:59Z</time>
   </trkpt>
   <trkpt lat="42.7441680" lon="-0.4801100">
    <ele>2181.5</ele>
    <time>2021-07-18T10:15:04Z</time>
   </trkpt>
   <trkpt lat="42.7441690" lon="-0.4801100">
    <ele>2181.5</ele>
    <time>2021-07-18T10:15:05Z</time>
   </trkpt>
   <trkpt lat="42.7441770" lon="-0.4801060">
    <ele>2181.4</ele>
    <time>2021-07-18T10:15:09Z</time>
   </trkpt>
   <trkpt lat="42.7441780" lon="-0.4801070">
    <ele>2181.4</ele>
    <time>2021-07-18T10:15:11Z</time>
   </trkpt>
   <trkpt lat="42.7441830" lon="-0.4801100">
    <ele>2181.4</ele>
    <time>2021-07-18T10:15:18Z</time>
   </trkpt>
   <trkpt lat="42.7441790" lon="-0.4801120">
    <ele>2181.4</ele>
    <time>2021-07-18T10:15:22Z</time>
   </trkpt>
   <trkpt lat="42.7441670" lon="-0.4801110">
    <ele>2181.5</ele>
    <time>2021-07-18T10:15:32Z</time>
   </trkpt>
   <trkpt lat="42.7441770" lon="-0.4801520">
    <ele>2182.0</ele>
    <time>2021-07-18T10:15:46Z</time>
   </trkpt>
   <trkpt lat="42.7441880" lon="-0.4801630">
    <ele>2182.0</ele>
    <time>2021-07-18T10:15:50Z</time>
   </trkpt>
   <trkpt lat="42.7441920" lon="-0.4801690">
    <ele>2182.0</ele>
    <time>2021-07-18T10:15:53Z</time>
   </trkpt>
   <trkpt lat="42.7441920" lon="-0.4801690">
    <ele>2182.0</ele>
    <time>2021-07-18T10:15:54Z</time>
   </trkpt>
   <trkpt lat="42.7441920" lon="-0.4801690">
    <ele>2182.0</ele>
    <time>2021-07-18T10:15:55Z</time>
   </trkpt>
   <trkpt lat="42.7441920" lon="-0.4801690">
    <ele>2182.0</ele>
    <time>2021-07-18T10:15:56Z</time>
   </trkpt>
   <trkpt lat="42.7441920" lon="-0.4801700">
    <ele>2182.0</ele>
    <time>2021-07-18T10:16:01Z</time>
   </trkpt>
   <trkpt lat="42.7441810" lon="-0.4801600">
    <ele>2182.0</ele>
    <time>2021-07-18T10:16:08Z</time>
   </trkpt>
   <trkpt lat="42.7441820" lon="-0.4801330">
    <ele>2181.4</ele>
    <time>2021-07-18T10:16:20Z</time>
   </trkpt>
   <trkpt lat="42.7442880" lon="-0.4800660">
    <ele>2180.3</ele>
    <time>2021-07-18T10:16:55Z</time>
   </trkpt>
   <trkpt lat="42.7443410" lon="-0.4800300">
    <ele>2178.1</ele>
    <time>2021-07-18T10:17:01Z</time>
   </trkpt>
   <trkpt lat="42.7443420" lon="-0.4800180">
    <ele>2178.1</ele>
    <time>2021-07-18T10:17:02Z</time>
   </trkpt>
   <trkpt lat="42.7443420" lon="-0.4800100">
    <ele>2178.1</ele>
    <time>2021-07-18T10:17:03Z</time>
   </trkpt>
   <trkpt lat="42.7443390" lon="-0.4800080">
    <ele>2176.7</ele>
    <time>2021-07-18T10:17:04Z</time>
   </trkpt>
   <trkpt lat="42.7443370" lon="-0.4800050">
    <ele>2176.7</ele>
    <time>2021-07-18T10:17:05Z</time>
   </trkpt>
   <trkpt lat="42.7443350" lon="-0.4800030">
    <ele>2176.7</ele>
    <time>2021-07-18T10:17:06Z</time>
   </trkpt>
   <trkpt lat="42.7443350" lon="-0.4800030">
    <ele>2176.7</ele>
    <time>2021-07-18T10:17:07Z</time>
   </trkpt>
   <trkpt lat="42.7443430" lon="-0.4799960">
    <ele>2176.7</ele>
    <time>2021-07-18T10:17:10Z</time>
   </trkpt>
   <trkpt lat="42.7443560" lon="-0.4799970">
    <ele>2176.7</ele>
    <time>2021-07-18T10:17:11Z</time>
   </trkpt>
   <trkpt lat="42.7443560" lon="-0.4799970">
    <ele>2176.7</ele>
    <time>2021-07-18T10:17:12Z</time>
   </trkpt>
   <trkpt lat="42.7444510" lon="-0.4799960">
    <ele>2172.0</ele>
    <time>2021-07-18T10:17:19Z</time>
   </trkpt>
   <trkpt lat="42.7445320" lon="-0.4799920">
    <ele>2166.8</ele>
    <time>2021-07-18T10:17:24Z</time>
   </trkpt>
   <trkpt lat="42.7445680" lon="-0.4800080">
    <ele>2165.4</ele>
    <time>2021-07-18T10:17:26Z</time>
   </trkpt>
   <trkpt lat="42.7446320" lon="-0.4800300">
    <ele>2167.5</ele>
    <time>2021-07-18T10:17:29Z</time>
   </trkpt>
   <trkpt lat="42.7447750" lon="-0.4800990">
    <ele>2172.4</ele>
    <time>2021-07-18T10:17:37Z</time>
   </trkpt>
   <trkpt lat="42.7447970" lon="-0.4801050">
    <ele>2172.4</ele>
    <time>2021-07-18T10:17:39Z</time>
   </trkpt>
   <trkpt lat="42.7448220" lon="-0.4801010">
    <ele>2171.9</ele>
    <time>2021-07-18T10:17:40Z</time>
   </trkpt>
   <trkpt lat="42.7448220" lon="-0.4801010">
    <ele>2171.9</ele>
    <time>2021-07-18T10:17:41Z</time>
   </trkpt>
   <trkpt lat="42.7448340" lon="-0.4801030">
    <ele>2171.9</ele>
    <time>2021-07-18T10:17:42Z</time>
   </trkpt>
   <trkpt lat="42.7448930" lon="-0.4801250">
    <ele>2171.2</ele>
    <time>2021-07-18T10:17:46Z</time>
   </trkpt>
   <trkpt lat="42.7449650" lon="-0.4801140">
    <ele>2170.2</ele>
    <time>2021-07-18T10:17:53Z</time>
   </trkpt>
   <trkpt lat="42.7449960" lon="-0.4800790">
    <ele>2168.2</ele>
    <time>2021-07-18T10:17:56Z</time>
   </trkpt>
   <trkpt lat="42.7450170" lon="-0.4800430">
    <ele>2166.4</ele>
    <time>2021-07-18T10:17:58Z</time>
   </trkpt>
   <trkpt lat="42.7451230" lon="-0.4798860">
    <ele>2163.4</ele>
    <time>2021-07-18T10:18:05Z</time>
   </trkpt>
   <trkpt lat="42.7451420" lon="-0.4798660">
    <ele>2162.2</ele>
    <time>2021-07-18T10:18:06Z</time>
   </trkpt>
   <trkpt lat="42.7452140" lon="-0.4797790">
    <ele>2160.3</ele>
    <time>2021-07-18T10:18:10Z</time>
   </trkpt>
   <trkpt lat="42.7452670" lon="-0.4797140">
    <ele>2159.6</ele>
    <time>2021-07-18T10:18:13Z</time>
   </trkpt>
   <trkpt lat="42.7453640" lon="-0.4795000">
    <ele>2157.2</ele>
    <time>2021-07-18T10:18:22Z</time>
   </trkpt>
   <trkpt lat="42.7454110" lon="-0.4794200">
    <ele>2157.6</ele>
    <time>2021-07-18T10:18:26Z</time>
   </trkpt>
   <trkpt lat="42.7454190" lon="-0.4794070">
    <ele>2157.4</ele>
    <time>2021-07-18T10:18:27Z</time>
   </trkpt>
   <trkpt lat="42.7454530" lon="-0.4792280">
    <ele>2157.4</ele>
    <time>2021-07-18T10:18:51Z</time>
   </trkpt>
   <trkpt lat="42.7454500" lon="-0.4791990">
    <ele>2157.4</ele>
    <time>2021-07-18T10:18:53Z</time>
   </trkpt>
   <trkpt lat="42.7454480" lon="-0.4791440">
    <ele>2157.4</ele>
    <time>2021-07-18T10:18:58Z</time>
   </trkpt>
   <trkpt lat="42.7454440" lon="-0.4791120">
    <ele>2157.4</ele>
    <time>2021-07-18T10:19:02Z</time>
   </trkpt>
   <trkpt lat="42.7454310" lon="-0.4790820">
    <ele>2157.0</ele>
    <time>2021-07-18T10:19:05Z</time>
   </trkpt>
   <trkpt lat="42.7454160" lon="-0.4790470">
    <ele>2157.0</ele>
    <time>2021-07-18T10:19:09Z</time>
   </trkpt>
   <trkpt lat="42.7454050" lon="-0.4790120">
    <ele>2157.1</ele>
    <time>2021-07-18T10:19:16Z</time>
   </trkpt>
   <trkpt lat="42.7453930" lon="-0.4789750">
    <ele>2156.8</ele>
    <time>2021-07-18T10:19:19Z</time>
   </trkpt>
   <trkpt lat="42.7453900" lon="-0.4789610">
    <ele>2156.8</ele>
    <time>2021-07-18T10:19:20Z</time>
   </trkpt>
   <trkpt lat="42.7453820" lon="-0.4789330">
    <ele>2157.0</ele>
    <time>2021-07-18T10:19:21Z</time>
   </trkpt>
   <trkpt lat="42.7453820" lon="-0.4789330">
    <ele>2157.0</ele>
    <time>2021-07-18T10:19:22Z</time>
   </trkpt>
   <trkpt lat="42.7453050" lon="-0.4787680">
    <ele>2156.4</ele>
    <time>2021-07-18T10:19:32Z</time>
   </trkpt>
   <trkpt lat="42.7452860" lon="-0.4786530">
    <ele>2157.2</ele>
    <time>2021-07-18T10:19:38Z</time>
   </trkpt>
   <trkpt lat="42.7453800" lon="-0.4784950">
    <ele>2159.8</ele>
    <time>2021-07-18T10:19:52Z</time>
   </trkpt>
   <trkpt lat="42.7454340" lon="-0.4784690">
    <ele>2161.3</ele>
    <time>2021-07-18T10:19:59Z</time>
   </trkpt>
   <trkpt lat="42.7454370" lon="-0.4784690">
    <ele>2161.4</ele>
    <time>2021-07-18T10:20:01Z</time>
   </trkpt>
   <trkpt lat="42.7454350" lon="-0.4784120">
    <ele>2162.6</ele>
    <time>2021-07-18T10:20:08Z</time>
   </trkpt>
   <trkpt lat="42.7454370" lon="-0.4784100">
    <ele>2162.7</ele>
    <time>2021-07-18T10:20:10Z</time>
   </trkpt>
   <trkpt lat="42.7454360" lon="-0.4784080">
    <ele>2162.7</ele>
    <time>2021-07-18T10:20:13Z</time>
   </trkpt>
   <trkpt lat="42.7454520" lon="-0.4784020">
    <ele>2163.2</ele>
    <time>2021-07-18T10:20:19Z</time>
   </trkpt>
   <trkpt lat="42.7455060" lon="-0.4784040">
    <ele>2164.7</ele>
    <time>2021-07-18T10:20:25Z</time>
   </trkpt>
   <trkpt lat="42.7455460" lon="-0.4783880">
    <ele>2165.9</ele>
    <time>2021-07-18T10:20:28Z</time>
   </trkpt>
   <trkpt lat="42.7455660" lon="-0.4783720">
    <ele>2166.5</ele>
    <time>2021-07-18T10:20:29Z</time>
   </trkpt>
   <trkpt lat="42.7455660" lon="-0.4783720">
    <ele>2166.5</ele>
    <time>2021-07-18T10:20:30Z</time>
   </trkpt>
   <trkpt lat="42.7455790" lon="-0.4783620">
    <ele>2166.9</ele>
    <time>2021-07-18T10:20:31Z</time>
   </trkpt>
   <trkpt lat="42.7455910" lon="-0.4783540">
    <ele>2167.2</ele>
    <time>2021-07-18T10:20:32Z</time>
   </trkpt>
   <trkpt lat="42.7456240" lon="-0.4783320">
    <ele>2168.1</ele>
    <time>2021-07-18T10:20:35Z</time>
   </trkpt>
   <trkpt lat="42.7456680" lon="-0.4782740">
    <ele>2169.7</ele>
    <time>2021-07-18T10:20:40Z</time>
   </trkpt>
   <trkpt lat="42.7456910" lon="-0.4782550">
    <ele>2170.4</ele>
    <time>2021-07-18T10:20:43Z</time>
   </trkpt>
   <trkpt lat="42.7457030" lon="-0.4782470">
    <ele>2170.7</ele>
    <time>2021-07-18T10:20:45Z</time>
   </trkpt>
   <trkpt lat="42.7457270" lon="-0.4782080">
    <ele>2171.8</ele>
    <time>2021-07-18T10:20:52Z</time>
   </trkpt>
   <trkpt lat="42.7457320" lon="-0.4781960">
    <ele>2172.1</ele>
    <time>2021-07-18T10:20:54Z</time>
   </trkpt>
   <trkpt lat="42.7457350" lon="-0.4781920">
    <ele>2172.2</ele>
    <time>2021-07-18T10:20:55Z</time>
   </trkpt>
   <trkpt lat="42.7457390" lon="-0.4781740">
    <ele>2172.7</ele>
    <time>2021-07-18T10:20:58Z</time>
   </trkpt>
   <trkpt lat="42.7457450" lon="-0.4781630">
    <ele>2173.0</ele>
    <time>2021-07-18T10:20:59Z</time>
   </trkpt>
   <trkpt lat="42.7457450" lon="-0.4781630">
    <ele>2173.0</ele>
    <time>2021-07-18T10:21:00Z</time>
   </trkpt>
   <trkpt lat="42.7457630" lon="-0.4781500">
    <ele>2173.6</ele>
    <time>2021-07-18T10:21:03Z</time>
   </trkpt>
   <trkpt lat="42.7457730" lon="-0.4781410">
    <ele>2174.0</ele>
    <time>2021-07-18T10:21:06Z</time>
   </trkpt>
   <trkpt lat="42.7457820" lon="-0.4781330">
    <ele>2174.4</ele>
    <time>2021-07-18T10:21:09Z</time>
   </trkpt>
   <trkpt lat="42.7457910" lon="-0.4781130">
    <ele>2174.9</ele>
    <time>2021-07-18T10:21:13Z</time>
   </trkpt>
   <trkpt lat="42.7458000" lon="-0.4780890">
    <ele>2175.6</ele>
    <time>2021-07-18T10:21:17Z</time>
   </trkpt>
   <trkpt lat="42.7458130" lon="-0.4780850">
    <ele>2176.0</ele>
    <time>2021-07-18T10:21:21Z</time>
   </trkpt>
   <trkpt lat="42.7458360" lon="-0.4780600">
    <ele>2177.0</ele>
    <time>2021-07-18T10:21:30Z</time>
   </trkpt>
   <trkpt lat="42.7459630" lon="-0.4779490">
    <ele>2181.5</ele>
    <time>2021-07-18T10:21:50Z</time>
   </trkpt>
   <trkpt lat="42.7459790" lon="-0.4779220">
    <ele>2182.1</ele>
    <time>2021-07-18T10:21:54Z</time>
   </trkpt>
   <trkpt lat="42.7460850" lon="-0.4778270">
    <ele>2183.9</ele>
    <time>2021-07-18T10:22:14Z</time>
   </trkpt>
   <trkpt lat="42.7460930" lon="-0.4778170">
    <ele>2183.9</ele>
    <time>2021-07-18T10:22:15Z</time>
   </trkpt>
   <trkpt lat="42.7460990" lon="-0.4778050">
    <ele>2184.0</ele>
    <time>2021-07-18T10:22:16Z</time>
   </trkpt>
   <trkpt lat="42.7461110" lon="-0.4777910">
    <ele>2184.1</ele>
    <time>2021-07-18T10:22:17Z</time>
   </trkpt>
   <trkpt lat="42.7461110" lon="-0.4777910">
    <ele>2184.1</ele>
    <time>2021-07-18T10:22:18Z</time>
   </trkpt>
   <trkpt lat="42.7461160" lon="-0.4777860">
    <ele>2184.1</ele>
    <time>2021-07-18T10:22:19Z</time>
   </trkpt>
   <trkpt lat="42.7461220" lon="-0.4777810">
    <ele>2184.1</ele>
    <time>2021-07-18T10:22:20Z</time>
   </trkpt>
   <trkpt lat="42.7461770" lon="-0.4777490">
    <ele>2184.0</ele>
    <time>2021-07-18T10:22:27Z</time>
   </trkpt>
   <trkpt lat="42.7461840" lon="-0.4777420">
    <ele>2184.0</ele>
    <time>2021-07-18T10:22:28Z</time>
   </trkpt>
   <trkpt lat="42.7462160" lon="-0.4777170">
    <ele>2183.7</ele>
    <time>2021-07-18T10:22:32Z</time>
   </trkpt>
   <trkpt lat="42.7462910" lon="-0.4776110">
    <ele>2182.3</ele>
    <time>2021-07-18T10:22:42Z</time>
   </trkpt>
   <trkpt lat="42.7464420" lon="-0.4774570">
    <ele>2178.4</ele>
    <time>2021-07-18T10:22:55Z</time>
   </trkpt>
   <trkpt lat="42.7464510" lon="-0.4774530">
    <ele>2178.2</ele>
    <time>2021-07-18T10:22:56Z</time>
   </trkpt>
   <trkpt lat="42.7464610" lon="-0.4774450">
    <ele>2177.9</ele>
    <time>2021-07-18T10:22:57Z</time>
   </trkpt>
   <trkpt lat="42.7464730" lon="-0.4774380">
    <ele>2177.6</ele>
    <time>2021-07-18T10:22:58Z</time>
   </trkpt>
   <trkpt lat="42.7464800" lon="-0.4774340">
    <ele>2177.4</ele>
    <time>2021-07-18T10:22:59Z</time>
   </trkpt>
   <trkpt lat="42.7464870" lon="-0.4774340">
    <ele>2177.3</ele>
    <time>2021-07-18T10:23:00Z</time>
   </trkpt>
   <trkpt lat="42.7464940" lon="-0.4774280">
    <ele>2177.1</ele>
    <time>2021-07-18T10:23:01Z</time>
   </trkpt>
   <trkpt lat="42.7465010" lon="-0.4774190">
    <ele>2176.8</ele>
    <time>2021-07-18T10:23:02Z</time>
   </trkpt>
   <trkpt lat="42.7465410" lon="-0.4773630">
    <ele>2175.3</ele>
    <time>2021-07-18T10:23:07Z</time>
   </trkpt>
   <trkpt lat="42.7465810" lon="-0.4773010">
    <ele>2173.5</ele>
    <time>2021-07-18T10:23:11Z</time>
   </trkpt>
   <trkpt lat="42.7465970" lon="-0.4772690">
    <ele>2172.6</ele>
    <time>2021-07-18T10:23:12Z</time>
   </trkpt>
   <trkpt lat="42.7465970" lon="-0.4772690">
    <ele>2172.6</ele>
    <time>2021-07-18T10:23:13Z</time>
   </trkpt>
   <trkpt lat="42.7466030" lon="-0.4772590">
    <ele>2172.3</ele>
    <time>2021-07-18T10:23:14Z</time>
   </trkpt>
   <trkpt lat="42.7466080" lon="-0.4772520">
    <ele>2172.1</ele>
    <time>2021-07-18T10:23:15Z</time>
   </trkpt>
   <trkpt lat="42.7466090" lon="-0.4772480">
    <ele>2172.0</ele>
    <time>2021-07-18T10:23:16Z</time>
   </trkpt>
   <trkpt lat="42.7466090" lon="-0.4772450">
    <ele>2171.9</ele>
    <time>2021-07-18T10:23:17Z</time>
   </trkpt>
   <trkpt lat="42.7466250" lon="-0.4772110">
    <ele>2171.0</ele>
    <time>2021-07-18T10:23:22Z</time>
   </trkpt>
   <trkpt lat="42.7466320" lon="-0.4772140">
    <ele>2170.8</ele>
    <time>2021-07-18T10:23:23Z</time>
   </trkpt>
   <trkpt lat="42.7466470" lon="-0.4772210">
    <ele>2170.3</ele>
    <time>2021-07-18T10:23:25Z</time>
   </trkpt>
   <trkpt lat="42.7466700" lon="-0.4772120">
    <ele>2169.5</ele>
    <time>2021-07-18T10:23:28Z</time>
   </trkpt>
   <trkpt lat="42.7466730" lon="-0.4772030">
    <ele>2169.3</ele>
    <time>2021-07-18T10:23:29Z</time>
   </trkpt>
   <trkpt lat="42.7466960" lon="-0.4771840">
    <ele>2168.5</ele>
    <time>2021-07-18T10:23:32Z</time>
   </trkpt>
   <trkpt lat="42.7467310" lon="-0.4771130">
    <ele>2166.7</ele>
    <time>2021-07-18T10:23:38Z</time>
   </trkpt>
   <trkpt lat="42.7467530" lon="-0.4770880">
    <ele>2165.9</ele>
    <time>2021-07-18T10:23:40Z</time>
   </trkpt>
   <trkpt lat="42.7468150" lon="-0.4770710">
    <ele>2164.2</ele>
    <time>2021-07-18T10:23:46Z</time>
   </trkpt>
   <trkpt lat="42.7468220" lon="-0.4770670">
    <ele>2164.0</ele>
    <time>2021-07-18T10:23:47Z</time>
   </trkpt>
   <trkpt lat="42.7468300" lon="-0.4770590">
    <ele>2163.8</ele>
    <time>2021-07-18T10:23:49Z</time>
   </trkpt>
   <trkpt lat="42.7469950" lon="-0.4770420">
    <ele>2159.4</ele>
    <time>2021-07-18T10:24:06Z</time>
   </trkpt>
   <trkpt lat="42.7470390" lon="-0.4770570">
    <ele>2158.3</ele>
    <time>2021-07-18T10:24:09Z</time>
   </trkpt>
   <trkpt lat="42.7471480" lon="-0.4770360">
    <ele>2156.0</ele>
    <time>2021-07-18T10:24:16Z</time>
   </trkpt>
   <trkpt lat="42.7471630" lon="-0.4770280">
    <ele>2155.7</ele>
    <time>2021-07-18T10:24:17Z</time>
   </trkpt>
   <trkpt lat="42.7471850" lon="-0.4770250">
    <ele>2155.4</ele>
    <time>2021-07-18T10:24:18Z</time>
   </trkpt>
   <trkpt lat="42.7472090" lon="-0.4770270">
    <ele>2155.0</ele>
    <time>2021-07-18T10:24:19Z</time>
   </trkpt>
   <trkpt lat="42.7472340" lon="-0.4770270">
    <ele>2154.7</ele>
    <time>2021-07-18T10:24:20Z</time>
   </trkpt>
   <trkpt lat="42.7473670" lon="-0.4770350">
    <ele>2153.1</ele>
    <time>2021-07-18T10:24:25Z</time>
   </trkpt>
   <trkpt lat="42.7473930" lon="-0.4770430">
    <ele>2152.8</ele>
    <time>2021-07-18T10:24:26Z</time>
   </trkpt>
   <trkpt lat="42.7474400" lon="-0.4770530">
    <ele>2152.2</ele>
    <time>2021-07-18T10:24:28Z</time>
   </trkpt>
   <trkpt lat="42.7474850" lon="-0.4770690">
    <ele>2151.4</ele>
    <time>2021-07-18T10:24:29Z</time>
   </trkpt>
   <trkpt lat="42.7474850" lon="-0.4770690">
    <ele>2151.4</ele>
    <time>2021-07-18T10:24:30Z</time>
   </trkpt>
   <trkpt lat="42.7475150" lon="-0.4770960">
    <ele>2150.8</ele>
    <time>2021-07-18T10:24:32Z</time>
   </trkpt>
   <trkpt lat="42.7475280" lon="-0.4771050">
    <ele>2150.5</ele>
    <time>2021-07-18T10:24:33Z</time>
   </trkpt>
   <trkpt lat="42.7475410" lon="-0.4771200">
    <ele>2150.1</ele>
    <time>2021-07-18T10:24:35Z</time>
   </trkpt>
   <trkpt lat="42.7475440" lon="-0.4771280">
    <ele>2150.0</ele>
    <time>2021-07-18T10:24:36Z</time>
   </trkpt>
   <trkpt lat="42.7475420" lon="-0.4771390">
    <ele>2149.8</ele>
    <time>2021-07-18T10:24:38Z</time>
   </trkpt>
   <trkpt lat="42.7475390" lon="-0.4771410">
    <ele>2149.7</ele>
    <time>2021-07-18T10:24:39Z</time>
   </trkpt>
   <trkpt lat="42.7475310" lon="-0.4771630">
    <ele>2149.3</ele>
    <time>2021-07-18T10:24:48Z</time>
   </trkpt>
   <trkpt lat="42.7475290" lon="-0.4771670">
    <ele>2149.2</ele>
    <time>2021-07-18T10:24:50Z</time>
   </trkpt>
   <trkpt lat="42.7475250" lon="-0.4771660">
    <ele>2149.1</ele>
    <time>2021-07-18T10:24:54Z</time>
   </trkpt>
   <trkpt lat="42.7475240" lon="-0.4771650">
    <ele>2149.1</ele>
    <time>2021-07-18T10:24:55Z</time>
   </trkpt>
   <trkpt lat="42.7475230" lon="-0.4771640">
    <ele>2149.1</ele>
    <time>2021-07-18T10:24:56Z</time>
   </trkpt>
   <trkpt lat="42.7475230" lon="-0.4771620">
    <ele>2149.0</ele>
    <time>2021-07-18T10:24:57Z</time>
   </trkpt>
   <trkpt lat="42.7475210" lon="-0.4771610">
    <ele>2149.0</ele>
    <time>2021-07-18T10:24:59Z</time>
   </trkpt>
   <trkpt lat="42.7475210" lon="-0.4771620">
    <ele>2149.0</ele>
    <time>2021-07-18T10:25:03Z</time>
   </trkpt>
   <trkpt lat="42.7475210" lon="-0.4771610">
    <ele>2149.0</ele>
    <time>2021-07-18T10:25:07Z</time>
   </trkpt>
   <trkpt lat="42.7475210" lon="-0.4771620">
    <ele>2148.9</ele>
    <time>2021-07-18T10:25:08Z</time>
   </trkpt>
   <trkpt lat="42.7475210" lon="-0.4771620">
    <ele>2148.9</ele>
    <time>2021-07-18T10:25:09Z</time>
   </trkpt>
   <trkpt lat="42.7475200" lon="-0.4771630">
    <ele>2148.9</ele>
    <time>2021-07-18T10:25:10Z</time>
   </trkpt>
   <trkpt lat="42.7475210" lon="-0.4771700">
    <ele>2148.8</ele>
    <time>2021-07-18T10:25:11Z</time>
   </trkpt>
   <trkpt lat="42.7475180" lon="-0.4771720">
    <ele>2148.7</ele>
    <time>2021-07-18T10:25:13Z</time>
   </trkpt>
   <trkpt lat="42.7475210" lon="-0.4771730">
    <ele>2148.6</ele>
    <time>2021-07-18T10:25:23Z</time>
   </trkpt>
   <trkpt lat="42.7475270" lon="-0.4771760">
    <ele>2148.5</ele>
    <time>2021-07-18T10:25:33Z</time>
   </trkpt>
   <trkpt lat="42.7475270" lon="-0.4771860">
    <ele>2148.3</ele>
    <time>2021-07-18T10:25:45Z</time>
   </trkpt>
   <trkpt lat="42.7475250" lon="-0.4772530">
    <ele>2147.2</ele>
    <time>2021-07-18T10:25:59Z</time>
   </trkpt>
   <trkpt lat="42.7475450" lon="-0.4773470">
    <ele>2145.4</ele>
    <time>2021-07-18T10:26:04Z</time>
   </trkpt>
   <trkpt lat="42.7475310" lon="-0.4774890">
    <ele>2142.4</ele>
    <time>2021-07-18T10:26:15Z</time>
   </trkpt>
   <trkpt lat="42.7475280" lon="-0.4775250">
    <ele>2141.6</ele>
    <time>2021-07-18T10:26:19Z</time>
   </trkpt>
   <trkpt lat="42.7475250" lon="-0.4775310">
    <ele>2141.4</ele>
    <time>2021-07-18T10:26:20Z</time>
   </trkpt>
   <trkpt lat="42.7475210" lon="-0.4775370">
    <ele>2141.2</ele>
    <time>2021-07-18T10:26:21Z</time>
   </trkpt>
   <trkpt lat="42.7475220" lon="-0.4775440">
    <ele>2141.1</ele>
    <time>2021-07-18T10:26:22Z</time>
   </trkpt>
   <trkpt lat="42.7475220" lon="-0.4775720">
    <ele>2140.4</ele>
    <time>2021-07-18T10:26:26Z</time>
   </trkpt>
   <trkpt lat="42.7475160" lon="-0.4776100">
    <ele>2139.4</ele>
    <time>2021-07-18T10:26:30Z</time>
   </trkpt>
   <trkpt lat="42.7475090" lon="-0.4776230">
    <ele>2139.0</ele>
    <time>2021-07-18T10:26:31Z</time>
   </trkpt>
   <trkpt lat="42.7475080" lon="-0.4776650">
    <ele>2138.0</ele>
    <time>2021-07-18T10:26:34Z</time>
   </trkpt>
   <trkpt lat="42.7475190" lon="-0.4777160">
    <ele>2136.7</ele>
    <time>2021-07-18T10:26:38Z</time>
   </trkpt>
   <trkpt lat="42.7475660" lon="-0.4779270">
    <ele>2131.7</ele>
    <time>2021-07-18T10:26:52Z</time>
   </trkpt>
   <trkpt lat="42.7475720" lon="-0.4779630">
    <ele>2130.9</ele>
    <time>2021-07-18T10:26:55Z</time>
   </trkpt>
   <trkpt lat="42.7475800" lon="-0.4779840">
    <ele>2130.4</ele>
    <time>2021-07-18T10:26:57Z</time>
   </trkpt>
   <trkpt lat="42.7475850" lon="-0.4779940">
    <ele>2130.1</ele>
    <time>2021-07-18T10:26:58Z</time>
   </trkpt>
   <trkpt lat="42.7475970" lon="-0.4780140">
    <ele>2129.6</ele>
    <time>2021-07-18T10:27:00Z</time>
   </trkpt>
   <trkpt lat="42.7476100" lon="-0.4780310">
    <ele>2129.0</ele>
    <time>2021-07-18T10:27:01Z</time>
   </trkpt>
   <trkpt lat="42.7476380" lon="-0.4780820">
    <ele>2127.6</ele>
    <time>2021-07-18T10:27:05Z</time>
   </trkpt>
   <trkpt lat="42.7476510" lon="-0.4781160">
    <ele>2126.8</ele>
    <time>2021-07-18T10:27:08Z</time>
   </trkpt>
   <trkpt lat="42.7476770" lon="-0.4781800">
    <ele>2125.2</ele>
    <time>2021-07-18T10:27:13Z</time>
   </trkpt>
   <trkpt lat="42.7477610" lon="-0.4782830">
    <ele>2121.9</ele>
    <time>2021-07-18T10:27:21Z</time>
   </trkpt>
   <trkpt lat="42.7477730" lon="-0.4782990">
    <ele>2121.4</ele>
    <time>2021-07-18T10:27:22Z</time>
   </trkpt>
   <trkpt lat="42.7478650" lon="-0.4784270">
    <ele>2117.7</ele>
    <time>2021-07-18T10:27:30Z</time>
   </trkpt>
   <trkpt lat="42.7479360" lon="-0.4786010">
    <ele>2113.6</ele>
    <time>2021-07-18T10:27:38Z</time>
   </trkpt>
   <trkpt lat="42.7479430" lon="-0.4786220">
    <ele>2113.2</ele>
    <time>2021-07-18T10:27:39Z</time>
   </trkpt>
   <trkpt lat="42.7479990" lon="-0.4787770">
    <ele>2109.6</ele>
    <time>2021-07-18T10:27:47Z</time>
   </trkpt>
   <trkpt lat="42.7479910" lon="-0.4788680">
    <ele>2107.6</ele>
    <time>2021-07-18T10:27:52Z</time>
   </trkpt>
   <trkpt lat="42.7479840" lon="-0.4789250">
    <ele>2106.4</ele>
    <time>2021-07-18T10:27:55Z</time>
   </trkpt>
   <trkpt lat="42.7480380" lon="-0.4791460">
    <ele>2100.6</ele>
    <time>2021-07-18T10:28:09Z</time>
   </trkpt>
   <trkpt lat="42.7480700" lon="-0.4792210">
    <ele>2098.1</ele>
    <time>2021-07-18T10:28:13Z</time>
   </trkpt>
   <trkpt lat="42.7480950" lon="-0.4792620">
    <ele>2096.4</ele>
    <time>2021-07-18T10:28:16Z</time>
   </trkpt>
   <trkpt lat="42.7480950" lon="-0.4793040">
    <ele>2095.1</ele>
    <time>2021-07-18T10:28:21Z</time>
   </trkpt>
   <trkpt lat="42.7481130" lon="-0.4793180">
    <ele>2094.2</ele>
    <time>2021-07-18T10:28:24Z</time>
   </trkpt>
   <trkpt lat="42.7481210" lon="-0.4793340">
    <ele>2093.6</ele>
    <time>2021-07-18T10:28:26Z</time>
   </trkpt>
   <trkpt lat="42.7481220" lon="-0.4793550">
    <ele>2092.9</ele>
    <time>2021-07-18T10:28:28Z</time>
   </trkpt>
   <trkpt lat="42.7481290" lon="-0.4793780">
    <ele>2092.0</ele>
    <time>2021-07-18T10:28:30Z</time>
   </trkpt>
   <trkpt lat="42.7481390" lon="-0.4794040">
    <ele>2091.1</ele>
    <time>2021-07-18T10:28:33Z</time>
   </trkpt>
   <trkpt lat="42.7481400" lon="-0.4794300">
    <ele>2090.2</ele>
    <time>2021-07-18T10:28:36Z</time>
   </trkpt>
   <trkpt lat="42.7481410" lon="-0.4794360">
    <ele>2090.0</ele>
    <time>2021-07-18T10:28:37Z</time>
   </trkpt>
   <trkpt lat="42.7481530" lon="-0.4794530">
    <ele>2089.2</ele>
    <time>2021-07-18T10:28:40Z</time>
   </trkpt>
   <trkpt lat="42.7481570" lon="-0.4794560">
    <ele>2089.0</ele>
    <time>2021-07-18T10:28:41Z</time>
   </trkpt>
   <trkpt lat="42.7481680" lon="-0.4794720">
    <ele>2088.2</ele>
    <time>2021-07-18T10:28:47Z</time>
   </trkpt>
   <trkpt lat="42.7481690" lon="-0.4794820">
    <ele>2087.9</ele>
    <time>2021-07-18T10:28:52Z</time>
   </trkpt>
   <trkpt lat="42.7481770" lon="-0.4794990">
    <ele>2087.2</ele>
    <time>2021-07-18T10:28:58Z</time>
   </trkpt>
   <trkpt lat="42.7481810" lon="-0.4795010">
    <ele>2087.0</ele>
    <time>2021-07-18T10:29:00Z</time>
   </trkpt>
   <trkpt lat="42.7481880" lon="-0.4795160">
    <ele>2086.4</ele>
    <time>2021-07-18T10:29:05Z</time>
   </trkpt>
   <trkpt lat="42.7481920" lon="-0.4795190">
    <ele>2086.2</ele>
    <time>2021-07-18T10:29:06Z</time>
   </trkpt>
   <trkpt lat="42.7482080" lon="-0.4795240">
    <ele>2085.4</ele>
    <time>2021-07-18T10:29:09Z</time>
   </trkpt>
   <trkpt lat="42.7482160" lon="-0.4795330">
    <ele>2084.9</ele>
    <time>2021-07-18T10:29:12Z</time>
   </trkpt>
   <trkpt lat="42.7482230" lon="-0.4795400">
    <ele>2084.5</ele>
    <time>2021-07-18T10:29:14Z</time>
   </trkpt>
   <trkpt lat="42.7482270" lon="-0.4795490">
    <ele>2084.2</ele>
    <time>2021-07-18T10:29:16Z</time>
   </trkpt>
   <trkpt lat="42.7482270" lon="-0.4795620">
    <ele>2083.7</ele>
    <time>2021-07-18T10:29:18Z</time>
   </trkpt>
   <trkpt lat="42.7482310" lon="-0.4795730">
    <ele>2083.3</ele>
    <time>2021-07-18T10:29:21Z</time>
   </trkpt>
   <trkpt lat="42.7482430" lon="-0.4795540">
    <ele>2082.5</ele>
    <time>2021-07-18T10:29:30Z</time>
   </trkpt>
   <trkpt lat="42.7482750" lon="-0.4795130">
    <ele>2080.5</ele>
    <time>2021-07-18T10:29:59Z</time>
   </trkpt>
   <trkpt lat="42.7482880" lon="-0.4795240">
    <ele>2079.8</ele>
    <time>2021-07-18T10:30:01Z</time>
   </trkpt>
   <trkpt lat="42.7482920" lon="-0.4795270">
    <ele>2079.6</ele>
    <time>2021-07-18T10:30:02Z</time>
   </trkpt>
   <trkpt lat="42.7482960" lon="-0.4795280">
    <ele>2079.5</ele>
    <time>2021-07-18T10:30:03Z</time>
   </trkpt>
   <trkpt lat="42.7483080" lon="-0.4795090">
    <ele>2078.7</ele>
    <time>2021-07-18T10:30:05Z</time>
   </trkpt>
   <trkpt lat="42.7483440" lon="-0.4794500">
    <ele>2076.2</ele>
    <time>2021-07-18T10:30:16Z</time>
   </trkpt>
   <trkpt lat="42.7483580" lon="-0.4794290">
    <ele>2075.3</ele>
    <time>2021-07-18T10:30:20Z</time>
   </trkpt>
   <trkpt lat="42.7483630" lon="-0.4794250">
    <ele>2075.0</ele>
    <time>2021-07-18T10:30:21Z</time>
   </trkpt>
   <trkpt lat="42.7483680" lon="-0.4794120">
    <ele>2074.6</ele>
    <time>2021-07-18T10:30:24Z</time>
   </trkpt>
   <trkpt lat="42.7483670" lon="-0.4794040">
    <ele>2074.3</ele>
    <time>2021-07-18T10:30:25Z</time>
   </trkpt>
   <trkpt lat="42.7483680" lon="-0.4794000">
    <ele>2074.2</ele>
    <time>2021-07-18T10:30:26Z</time>
   </trkpt>
   <trkpt lat="42.7484280" lon="-0.4794090">
    <ele>2071.5</ele>
    <time>2021-07-18T10:30:42Z</time>
   </trkpt>
   <trkpt lat="42.7485430" lon="-0.4794510">
    <ele>2066.3</ele>
    <time>2021-07-18T10:31:12Z</time>
   </trkpt>
   <trkpt lat="42.7485670" lon="-0.4794920">
    <ele>2064.6</ele>
    <time>2021-07-18T10:31:18Z</time>
   </trkpt>
   <trkpt lat="42.7485860" lon="-0.4794610">
    <ele>2063.4</ele>
    <time>2021-07-18T10:31:27Z</time>
   </trkpt>
   <trkpt lat="42.7486780" lon="-0.4793540">
    <ele>2058.4</ele>
    <time>2021-07-18T10:31:54Z</time>
   </trkpt>
   <trkpt lat="42.7487750" lon="-0.4794030">
    <ele>2054.3</ele>
    <time>2021-07-18T10:32:16Z</time>
   </trkpt>
   <trkpt lat="42.7488870" lon="-0.4795740">
    <ele>2047.4</ele>
    <time>2021-07-18T10:32:46Z</time>
   </trkpt>
   <trkpt lat="42.7488940" lon="-0.4795880">
    <ele>2046.9</ele>
    <time>2021-07-18T10:32:47Z</time>
   </trkpt>
   <trkpt lat="42.7489220" lon="-0.4796460">
    <ele>2044.9</ele>
    <time>2021-07-18T10:32:52Z</time>
   </trkpt>
   <trkpt lat="42.7489250" lon="-0.4796560">
    <ele>2044.6</ele>
    <time>2021-07-18T10:32:53Z</time>
   </trkpt>
   <trkpt lat="42.7489280" lon="-0.4796570">
    <ele>2044.5</ele>
    <time>2021-07-18T10:32:55Z</time>
   </trkpt>
   <trkpt lat="42.7489290" lon="-0.4796570">
    <ele>2044.5</ele>
    <time>2021-07-18T10:32:56Z</time>
   </trkpt>
   <trkpt lat="42.7489350" lon="-0.4796620">
    <ele>2044.2</ele>
    <time>2021-07-18T10:32:58Z</time>
   </trkpt>
   <trkpt lat="42.7489490" lon="-0.4796780">
    <ele>2043.5</ele>
    <time>2021-07-18T10:33:01Z</time>
   </trkpt>
   <trkpt lat="42.7490040" lon="-0.4797600">
    <ele>2040.5</ele>
    <time>2021-07-18T10:33:17Z</time>
   </trkpt>
   <trkpt lat="42.7490210" lon="-0.4798280">
    <ele>2038.6</ele>
    <time>2021-07-18T10:33:24Z</time>
   </trkpt>
   <trkpt lat="42.7490350" lon="-0.4798640">
    <ele>2037.6</ele>
    <time>2021-07-18T10:33:29Z</time>
   </trkpt>
   <trkpt lat="42.7490570" lon="-0.4799190">
    <ele>2035.9</ele>
    <time>2021-07-18T10:33:36Z</time>
   </trkpt>
   <trkpt lat="42.7491500" lon="-0.4800060">
    <ele>2031.9</ele>
    <time>2021-07-18T10:33:54Z</time>
   </trkpt>
   <trkpt lat="42.7492620" lon="-0.4801210">
    <ele>2027.5</ele>
    <time>2021-07-18T10:34:13Z</time>
   </trkpt>
   <trkpt lat="42.7494190" lon="-0.4802530">
    <ele>2022.5</ele>
    <time>2021-07-18T10:34:29Z</time>
   </trkpt>
   <trkpt lat="42.7494470" lon="-0.4802800">
    <ele>2021.5</ele>
    <time>2021-07-18T10:34:31Z</time>
   </trkpt>
   <trkpt lat="42.7494740" lon="-0.4803140">
    <ele>2020.5</ele>
    <time>2021-07-18T10:34:33Z</time>
   </trkpt>
   <trkpt lat="42.7494820" lon="-0.4803250">
    <ele>2020.1</ele>
    <time>2021-07-18T10:34:34Z</time>
   </trkpt>
   <trkpt lat="42.7494930" lon="-0.4803350">
    <ele>2019.8</ele>
    <time>2021-07-18T10:34:36Z</time>
   </trkpt>
   <trkpt lat="42.7495030" lon="-0.4803440">
    <ele>2019.4</ele>
    <time>2021-07-18T10:34:37Z</time>
   </trkpt>
   <trkpt lat="42.7495090" lon="-0.4803540">
    <ele>2019.1</ele>
    <time>2021-07-18T10:34:40Z</time>
   </trkpt>
   <trkpt lat="42.7495540" lon="-0.4803820">
    <ele>2017.7</ele>
    <time>2021-07-18T10:34:47Z</time>
   </trkpt>
   <trkpt lat="42.7495840" lon="-0.4803320">
    <ele>2016.2</ele>
    <time>2021-07-18T10:34:53Z</time>
   </trkpt>
   <trkpt lat="42.7496100" lon="-0.4803380">
    <ele>2015.4</ele>
    <time>2021-07-18T10:34:57Z</time>
   </trkpt>
   <trkpt lat="42.7496150" lon="-0.4803290">
    <ele>2015.1</ele>
    <time>2021-07-18T10:35:00Z</time>
   </trkpt>
   <trkpt lat="42.7496150" lon="-0.4802580">
    <ele>2013.4</ele>
    <time>2021-07-18T10:35:18Z</time>
   </trkpt>
   <trkpt lat="42.7496150" lon="-0.4802580">
    <ele>2013.4</ele>
    <time>2021-07-18T10:35:22Z</time>
   </trkpt>
   <trkpt lat="42.7496150" lon="-0.4802580">
    <ele>2013.4</ele>
    <time>2021-07-18T10:35:23Z</time>
   </trkpt>
   <trkpt lat="42.7496150" lon="-0.4802580">
    <ele>2013.4</ele>
    <time>2021-07-18T10:35:24Z</time>
   </trkpt>
   <trkpt lat="42.7496150" lon="-0.4802580">
    <ele>2013.4</ele>
    <time>2021-07-18T10:35:25Z</time>
   </trkpt>
   <trkpt lat="42.7496160" lon="-0.4802580">
    <ele>2013.4</ele>
    <time>2021-07-18T10:35:27Z</time>
   </trkpt>
   <trkpt lat="42.7496160" lon="-0.4802580">
    <ele>2013.4</ele>
    <time>2021-07-18T10:35:28Z</time>
   </trkpt>
   <trkpt lat="42.7496220" lon="-0.4802780">
    <ele>2012.8</ele>
    <time>2021-07-18T10:35:42Z</time>
   </trkpt>
   <trkpt lat="42.7496240" lon="-0.4802840">
    <ele>2012.6</ele>
    <time>2021-07-18T10:35:48Z</time>
   </trkpt>
   <trkpt lat="42.7496220" lon="-0.4802880">
    <ele>2012.5</ele>
    <time>2021-07-18T10:35:52Z</time>
   </trkpt>
   <trkpt lat="42.7496180" lon="-0.4802860">
    <ele>2012.4</ele>
    <time>2021-07-18T10:35:56Z</time>
   </trkpt>
   <trkpt lat="42.7496110" lon="-0.4803000">
    <ele>2011.9</ele>
    <time>2021-07-18T10:36:06Z</time>
   </trkpt>
   <trkpt lat="42.7496110" lon="-0.4803040">
    <ele>2011.8</ele>
    <time>2021-07-18T10:36:13Z</time>
   </trkpt>
   <trkpt lat="42.7496180" lon="-0.4803110">
    <ele>2011.5</ele>
    <time>2021-07-18T10:36:19Z</time>
   </trkpt>
   <trkpt lat="42.7496320" lon="-0.4803200">
    <ele>2010.9</ele>
    <time>2021-07-18T10:36:25Z</time>
   </trkpt>
   <trkpt lat="42.7496270" lon="-0.4803190">
    <ele>2010.7</ele>
    <time>2021-07-18T10:36:31Z</time>
   </trkpt>
   <trkpt lat="42.7496280" lon="-0.4803230">
    <ele>2010.6</ele>
    <time>2021-07-18T10:36:40Z</time>
   </trkpt>
   <trkpt lat="42.7496260" lon="-0.4803180">
    <ele>2010.4</ele>
    <time>2021-07-18T10:36:47Z</time>
   </trkpt>
   <trkpt lat="42.7496500" lon="-0.4802700">
    <ele>2008.8</ele>
    <time>2021-07-18T10:36:57Z</time>
   </trkpt>
   <trkpt lat="42.7496900" lon="-0.4802760">
    <ele>2007.2</ele>
    <time>2021-07-18T10:37:04Z</time>
   </trkpt>
   <trkpt lat="42.7497150" lon="-0.4802070">
    <ele>2004.8</ele>
    <time>2021-07-18T10:37:15Z</time>
   </trkpt>
   <trkpt lat="42.7497160" lon="-0.4801860">
    <ele>2004.2</ele>
    <time>2021-07-18T10:37:17Z</time>
   </trkpt>
   <trkpt lat="42.7497240" lon="-0.4801820">
    <ele>2003.8</ele>
    <time>2021-07-18T10:37:19Z</time>
   </trkpt>
   <trkpt lat="42.7497310" lon="-0.4801840">
    <ele>2003.5</ele>
    <time>2021-07-18T10:37:20Z</time>
   </trkpt>
   <trkpt lat="42.7497310" lon="-0.4801840">
    <ele>2003.5</ele>
    <time>2021-07-18T10:37:21Z</time>
   </trkpt>
   <trkpt lat="42.7497630" lon="-0.4802220">
    <ele>2001.7</ele>
    <time>2021-07-18T10:37:29Z</time>
   </trkpt>
   <trkpt lat="42.7497730" lon="-0.4802450">
    <ele>2000.8</ele>
    <time>2021-07-18T10:37:32Z</time>
   </trkpt>
   <trkpt lat="42.7497790" lon="-0.4802620">
    <ele>2000.2</ele>
    <time>2021-07-18T10:37:34Z</time>
   </trkpt>
   <trkpt lat="42.7497860" lon="-0.4802700">
    <ele>1999.8</ele>
    <time>2021-07-18T10:37:35Z</time>
   </trkpt>
   <trkpt lat="42.7498030" lon="-0.4802970">
    <ele>1998.7</ele>
    <time>2021-07-18T10:37:39Z</time>
   </trkpt>
   <trkpt lat="42.7498050" lon="-0.4803260">
    <ele>1997.7</ele>
    <time>2021-07-18T10:37:42Z</time>
   </trkpt>
   <trkpt lat="42.7498090" lon="-0.4803500">
    <ele>1997.0</ele>
    <time>2021-07-18T10:37:44Z</time>
   </trkpt>
   <trkpt lat="42.7498110" lon="-0.4803720">
    <ele>1996.3</ele>
    <time>2021-07-18T10:37:46Z</time>
   </trkpt>
   <trkpt lat="42.7498250" lon="-0.4804100">
    <ele>1995.1</ele>
    <time>2021-07-18T10:37:49Z</time>
   </trkpt>
   <trkpt lat="42.7498350" lon="-0.4804360">
    <ele>1994.3</ele>
    <time>2021-07-18T10:37:50Z</time>
   </trkpt>
   <trkpt lat="42.7498840" lon="-0.4805000">
    <ele>1991.9</ele>
    <time>2021-07-18T10:37:59Z</time>
   </trkpt>
   <trkpt lat="42.7499920" lon="-0.4805210">
    <ele>1988.7</ele>
    <time>2021-07-18T10:38:10Z</time>
   </trkpt>
   <trkpt lat="42.7500060" lon="-0.4805210">
    <ele>1988.4</ele>
    <time>2021-07-18T10:38:12Z</time>
   </trkpt>
   <trkpt lat="42.7500800" lon="-0.4805040">
    <ele>1986.5</ele>
    <time>2021-07-18T10:38:17Z</time>
   </trkpt>
   <trkpt lat="42.7502790" lon="-0.4805070">
    <ele>1982.3</ele>
    <time>2021-07-18T10:38:27Z</time>
   </trkpt>
   <trkpt lat="42.7504010" lon="-0.4805200">
    <ele>1980.2</ele>
    <time>2021-07-18T10:38:32Z</time>
   </trkpt>
   <trkpt lat="42.7504510" lon="-0.4805230">
    <ele>1979.3</ele>
    <time>2021-07-18T10:38:34Z</time>
   </trkpt>
   <trkpt lat="42.7504790" lon="-0.4805450">
    <ele>1978.7</ele>
    <time>2021-07-18T10:38:36Z</time>
   </trkpt>
   <trkpt lat="42.7504960" lon="-0.4805740">
    <ele>1978.2</ele>
    <time>2021-07-18T10:38:37Z</time>
   </trkpt>
   <trkpt lat="42.7504960" lon="-0.4805740">
    <ele>1978.2</ele>
    <time>2021-07-18T10:38:38Z</time>
   </trkpt>
   <trkpt lat="42.7505090" lon="-0.4805830">
    <ele>1977.9</ele>
    <time>2021-07-18T10:38:39Z</time>
   </trkpt>
   <trkpt lat="42.7505970" lon="-0.4805930">
    <ele>1976.0</ele>
    <time>2021-07-18T10:38:44Z</time>
   </trkpt>
   <trkpt lat="42.7506140" lon="-0.4805910">
    <ele>1975.6</ele>
    <time>2021-07-18T10:38:45Z</time>
   </trkpt>
   <trkpt lat="42.7506300" lon="-0.4805870">
    <ele>1975.3</ele>
    <time>2021-07-18T10:38:46Z</time>
   </trkpt>
   <trkpt lat="42.7507070" lon="-0.4806140">
    <ele>1973.4</ele>
    <time>2021-07-18T10:38:50Z</time>
   </trkpt>
   <trkpt lat="42.7507540" lon="-0.4806320">
    <ele>1972.3</ele>
    <time>2021-07-18T10:38:52Z</time>
   </trkpt>
   <trkpt lat="42.7507680" lon="-0.4806350">
    <ele>1972.0</ele>
    <time>2021-07-18T10:38:53Z</time>
   </trkpt>
   <trkpt lat="42.7508060" lon="-0.4806330">
    <ele>1971.1</ele>
    <time>2021-07-18T10:38:56Z</time>
   </trkpt>
   <trkpt lat="42.7508360" lon="-0.4806550">
    <ele>1970.3</ele>
    <time>2021-07-18T10:38:59Z</time>
   </trkpt>
   <trkpt lat="42.7508500" lon="-0.4806630">
    <ele>1970.0</ele>
    <time>2021-07-18T10:39:01Z</time>
   </trkpt>
   <trkpt lat="42.7508670" lon="-0.4806570">
    <ele>1969.6</ele>
    <time>2021-07-18T10:39:02Z</time>
   </trkpt>
   <trkpt lat="42.7508940" lon="-0.4806600">
    <ele>1969.1</ele>
    <time>2021-07-18T10:39:04Z</time>
   </trkpt>
   <trkpt lat="42.7509390" lon="-0.4806670">
    <ele>1968.1</ele>
    <time>2021-07-18T10:39:09Z</time>
   </trkpt>
   <trkpt lat="42.7509770" lon="-0.4806790">
    <ele>1967.3</ele>
    <time>2021-07-18T10:39:11Z</time>
   </trkpt>
   <trkpt lat="42.7510720" lon="-0.4807140">
    <ele>1965.4</ele>
    <time>2021-07-18T10:39:19Z</time>
   </trkpt>
   <trkpt lat="42.7510790" lon="-0.4807240">
    <ele>1965.2</ele>
    <time>2021-07-18T10:39:20Z</time>
   </trkpt>
   <trkpt lat="42.7510960" lon="-0.4807550">
    <ele>1964.7</ele>
    <time>2021-07-18T10:39:22Z</time>
   </trkpt>
   <trkpt lat="42.7511120" lon="-0.4808020">
    <ele>1964.1</ele>
    <time>2021-07-18T10:39:23Z</time>
   </trkpt>
   <trkpt lat="42.7511230" lon="-0.4808500">
    <ele>1963.6</ele>
    <time>2021-07-18T10:39:28Z</time>
   </trkpt>
   <trkpt lat="42.7511360" lon="-0.4808920">
    <ele>1963.1</ele>
    <time>2021-07-18T10:39:31Z</time>
   </trkpt>
   <trkpt lat="42.7511410" lon="-0.4809240">
    <ele>1962.8</ele>
    <time>2021-07-18T10:39:34Z</time>
   </trkpt>
   <trkpt lat="42.7511610" lon="-0.4809500">
    <ele>1962.4</ele>
    <time>2021-07-18T10:39:37Z</time>
   </trkpt>
   <trkpt lat="42.7511710" lon="-0.4809570">
    <ele>1962.2</ele>
    <time>2021-07-18T10:39:38Z</time>
   </trkpt>
   <trkpt lat="42.7511970" lon="-0.4809730">
    <ele>1961.8</ele>
    <time>2021-07-18T10:39:43Z</time>
   </trkpt>
   <trkpt lat="42.7512220" lon="-0.4809800">
    <ele>1961.5</ele>
    <time>2021-07-18T10:39:46Z</time>
   </trkpt>
   <trkpt lat="42.7512510" lon="-0.4810010">
    <ele>1961.1</ele>
    <time>2021-07-18T10:39:52Z</time>
   </trkpt>
   <trkpt lat="42.7512950" lon="-0.4810030">
    <ele>1960.6</ele>
    <time>2021-07-18T10:39:56Z</time>
   </trkpt>
   <trkpt lat="42.7513280" lon="-0.4810010">
    <ele>1960.3</ele>
    <time>2021-07-18T10:39:59Z</time>
   </trkpt>
   <trkpt lat="42.7514320" lon="-0.4810410">
    <ele>1959.7</ele>
    <time>2021-07-18T10:40:07Z</time>
   </trkpt>
   <trkpt lat="42.7514360" lon="-0.4810460">
    <ele>1959.7</ele>
    <time>2021-07-18T10:40:09Z</time>
   </trkpt>
   <trkpt lat="42.7514160" lon="-0.4810270">
    <ele>1959.6</ele>
    <time>2021-07-18T10:40:17Z</time>
   </trkpt>
   <trkpt lat="42.7514160" lon="-0.4810350">
    <ele>1959.5</ele>
    <time>2021-07-18T10:40:24Z</time>
   </trkpt>
   <trkpt lat="42.7514680" lon="-0.4810470">
    <ele>1959.3</ele>
    <time>2021-07-18T10:40:40Z</time>
   </trkpt>
   <trkpt lat="42.7515020" lon="-0.4810450">
    <ele>1959.0</ele>
    <time>2021-07-18T10:40:44Z</time>
   </trkpt>
   <trkpt lat="42.7515220" lon="-0.4810410">
    <ele>1958.9</ele>
    <time>2021-07-18T10:40:46Z</time>
   </trkpt>
   <trkpt lat="42.7516980" lon="-0.4810190">
    <ele>1957.4</ele>
    <time>2021-07-18T10:41:04Z</time>
   </trkpt>
   <trkpt lat="42.7517160" lon="-0.4810180">
    <ele>1957.3</ele>
    <time>2021-07-18T10:41:06Z</time>
   </trkpt>
   <trkpt lat="42.7517270" lon="-0.4810190">
    <ele>1957.1</ele>
    <time>2021-07-18T10:41:11Z</time>
   </trkpt>
   <trkpt lat="42.7517510" lon="-0.4810200">
    <ele>1956.9</ele>
    <time>2021-07-18T10:41:18Z</time>
   </trkpt>
   <trkpt lat="42.7517950" lon="-0.4810120">
    <ele>1956.4</ele>
    <time>2021-07-18T10:41:27Z</time>
   </trkpt>
   <trkpt lat="42.7517970" lon="-0.4810070">
    <ele>1956.3</ele>
    <time>2021-07-18T10:41:36Z</time>
   </trkpt>
   <trkpt lat="42.7517930" lon="-0.4810150">
    <ele>1956.2</ele>
    <time>2021-07-18T10:41:59Z</time>
   </trkpt>
   <trkpt lat="42.7517920" lon="-0.4810130">
    <ele>1956.2</ele>
    <time>2021-07-18T10:42:02Z</time>
   </trkpt>
   <trkpt lat="42.7517930" lon="-0.4810120">
    <ele>1956.2</ele>
    <time>2021-07-18T10:42:03Z</time>
   </trkpt>
   <trkpt lat="42.7517910" lon="-0.4809990">
    <ele>1956.1</ele>
    <time>2021-07-18T10:42:07Z</time>
   </trkpt>
   <trkpt lat="42.7517860" lon="-0.4810020">
    <ele>1956.0</ele>
    <time>2021-07-18T10:42:17Z</time>
   </trkpt>
   <trkpt lat="42.7518590" lon="-0.4809920">
    <ele>1954.9</ele>
    <time>2021-07-18T10:42:33Z</time>
   </trkpt>
   <trkpt lat="42.7519220" lon="-0.4809900">
    <ele>1953.8</ele>
    <time>2021-07-18T10:42:43Z</time>
   </trkpt>
   <trkpt lat="42.7520730" lon="-0.4808590">
    <ele>1949.7</ele>
    <time>2021-07-18T10:43:11Z</time>
   </trkpt>
   <trkpt lat="42.7522320" lon="-0.4807940">
    <ele>1945.7</ele>
    <time>2021-07-18T10:43:30Z</time>
   </trkpt>
   <trkpt lat="42.7524080" lon="-0.4807350">
    <ele>1941.6</ele>
    <time>2021-07-18T10:43:48Z</time>
   </trkpt>
   <trkpt lat="42.7524200" lon="-0.4807290">
    <ele>1941.3</ele>
    <time>2021-07-18T10:43:49Z</time>
   </trkpt>
   <trkpt lat="42.7526020" lon="-0.4806680">
    <ele>1936.7</ele>
    <time>2021-07-18T10:44:04Z</time>
   </trkpt>
   <trkpt lat="42.7526200" lon="-0.4806770">
    <ele>1936.1</ele>
    <time>2021-07-18T10:44:05Z</time>
   </trkpt>
   <trkpt lat="42.7526530" lon="-0.4806900">
    <ele>1935.1</ele>
    <time>2021-07-18T10:44:10Z</time>
   </trkpt>
   <trkpt lat="42.7527250" lon="-0.4806930">
    <ele>1932.9</ele>
    <time>2021-07-18T10:44:18Z</time>
   </trkpt>
   <trkpt lat="42.7527510" lon="-0.4807050">
    <ele>1932.0</ele>
    <time>2021-07-18T10:44:23Z</time>
   </trkpt>
   <trkpt lat="42.7527750" lon="-0.4807030">
    <ele>1931.3</ele>
    <time>2021-07-18T10:44:25Z</time>
   </trkpt>
   <trkpt lat="42.7529530" lon="-0.4806700">
    <ele>1926.1</ele>
    <time>2021-07-18T10:44:45Z</time>
   </trkpt>
   <trkpt lat="42.7531270" lon="-0.4807330">
    <ele>1922.0</ele>
    <time>2021-07-18T10:45:01Z</time>
   </trkpt>
   <trkpt lat="42.7532650" lon="-0.4808930">
    <ele>1917.9</ele>
    <time>2021-07-18T10:45:17Z</time>
   </trkpt>
   <trkpt lat="42.7532960" lon="-0.4810360">
    <ele>1915.0</ele>
    <time>2021-07-18T10:45:29Z</time>
   </trkpt>
   <trkpt lat="42.7532940" lon="-0.4810380">
    <ele>1914.9</ele>
    <time>2021-07-18T10:45:30Z</time>
   </trkpt>
   <trkpt lat="42.7532990" lon="-0.4810350">
    <ele>1914.8</ele>
    <time>2021-07-18T10:45:32Z</time>
   </trkpt>
   <trkpt lat="42.7533600" lon="-0.4810380">
    <ele>1912.9</ele>
    <time>2021-07-18T10:45:44Z</time>
   </trkpt>
   <trkpt lat="42.7535070" lon="-0.4812120">
    <ele>1906.8</ele>
    <time>2021-07-18T10:45:57Z</time>
   </trkpt>
   <trkpt lat="42.7536930" lon="-0.4812120">
    <ele>1901.1</ele>
    <time>2021-07-18T10:46:08Z</time>
   </trkpt>
   <trkpt lat="42.7537270" lon="-0.4811900">
    <ele>1899.9</ele>
    <time>2021-07-18T10:46:10Z</time>
   </trkpt>
   <trkpt lat="42.7537290" lon="-0.4811670">
    <ele>1899.4</ele>
    <time>2021-07-18T10:46:11Z</time>
   </trkpt>
   <trkpt lat="42.7537270" lon="-0.4811370">
    <ele>1898.8</ele>
    <time>2021-07-18T10:46:12Z</time>
   </trkpt>
   <trkpt lat="42.7537270" lon="-0.4811370">
    <ele>1898.8</ele>
    <time>2021-07-18T10:46:13Z</time>
   </trkpt>
   <trkpt lat="42.7537250" lon="-0.4811230">
    <ele>1898.5</ele>
    <time>2021-07-18T10:46:16Z</time>
   </trkpt>
   <trkpt lat="42.7537270" lon="-0.4811220">
    <ele>1898.4</ele>
    <time>2021-07-18T10:46:17Z</time>
   </trkpt>
   <trkpt lat="42.7537230" lon="-0.4811060">
    <ele>1898.1</ele>
    <time>2021-07-18T10:46:29Z</time>
   </trkpt>
   <trkpt lat="42.7537100" lon="-0.4810840">
    <ele>1897.6</ele>
    <time>2021-07-18T10:46:30Z</time>
   </trkpt>
   <trkpt lat="42.7536770" lon="-0.4810240">
    <ele>1896.4</ele>
    <time>2021-07-18T10:46:34Z</time>
   </trkpt>
   <trkpt lat="42.7536560" lon="-0.4809830">
    <ele>1895.7</ele>
    <time>2021-07-18T10:46:36Z</time>
   </trkpt>
   <trkpt lat="42.7536440" lon="-0.4809620">
    <ele>1895.4</ele>
    <time>2021-07-18T10:46:37Z</time>
   </trkpt>
   <trkpt lat="42.7536280" lon="-0.4809400">
    <ele>1895.1</ele>
    <time>2021-07-18T10:46:38Z</time>
   </trkpt>
   <trkpt lat="42.7535650" lon="-0.4808670">
    <ele>1894.0</ele>
    <time>2021-07-18T10:46:42Z</time>
   </trkpt>
   <trkpt lat="42.7535550" lon="-0.4808430">
    <ele>1893.8</ele>
    <time>2021-07-18T10:46:43Z</time>
   </trkpt>
   <trkpt lat="42.7535460" lon="-0.4808110">
    <ele>1893.5</ele>
    <time>2021-07-18T10:46:44Z</time>
   </trkpt>
   <trkpt lat="42.7535350" lon="-0.4807820">
    <ele>1893.3</ele>
    <time>2021-07-18T10:46:45Z</time>
   </trkpt>
   <trkpt lat="42.7535060" lon="-0.4807260">
    <ele>1892.9</ele>
    <time>2021-07-18T10:46:46Z</time>
   </trkpt>
   <trkpt lat="42.7535060" lon="-0.4807260">
    <ele>1892.9</ele>
    <time>2021-07-18T10:46:47Z</time>
   </trkpt>
   <trkpt lat="42.7534930" lon="-0.4806960">
    <ele>1892.7</ele>
    <time>2021-07-18T10:46:48Z</time>
   </trkpt>
   <trkpt lat="42.7534680" lon="-0.4806410">
    <ele>1892.3</ele>
    <time>2021-07-18T10:46:50Z</time>
   </trkpt>
   <trkpt lat="42.7534520" lon="-0.4806170">
    <ele>1892.2</ele>
    <time>2021-07-18T10:46:51Z</time>
   </trkpt>
   <trkpt lat="42.7533040" lon="-0.4804470">
    <ele>1891.0</ele>
    <time>2021-07-18T10:47:00Z</time>
   </trkpt>
   <trkpt lat="42.7532740" lon="-0.4804150">
    <ele>1890.8</ele>
    <time>2021-07-18T10:47:04Z</time>
   </trkpt>
   <trkpt lat="42.7532350" lon="-0.4804050">
    <ele>1890.6</ele>
    <time>2021-07-18T10:47:08Z</time>
   </trkpt>
   <trkpt lat="42.7532240" lon="-0.4803880">
    <ele>1890.5</ele>
    <time>2021-07-18T10:47:09Z</time>
   </trkpt>
   <trkpt lat="42.7531940" lon="-0.4803650">
    <ele>1890.3</ele>
    <time>2021-07-18T10:47:13Z</time>
   </trkpt>
   <trkpt lat="42.7530980" lon="-0.4802770">
    <ele>1889.3</ele>
    <time>2021-07-18T10:47:24Z</time>
   </trkpt>
   <trkpt lat="42.7530050" lon="-0.4801290">
    <ele>1887.6</ele>
    <time>2021-07-18T10:47:37Z</time>
   </trkpt>
   <trkpt lat="42.7529500" lon="-0.4800740">
    <ele>1886.9</ele>
    <time>2021-07-18T10:47:43Z</time>
   </trkpt>
   <trkpt lat="42.7528860" lon="-0.4800040">
    <ele>1886.0</ele>
    <time>2021-07-18T10:47:49Z</time>
   </trkpt>
   <trkpt lat="42.7528120" lon="-0.4799840">
    <ele>1885.3</ele>
    <time>2021-07-18T10:47:55Z</time>
   </trkpt>
   <trkpt lat="42.7527450" lon="-0.4799620">
    <ele>1884.8</ele>
    <time>2021-07-18T10:48:01Z</time>
   </trkpt>
   <trkpt lat="42.7526620" lon="-0.4799190">
    <ele>1884.1</ele>
    <time>2021-07-18T10:48:09Z</time>
   </trkpt>
   <trkpt lat="42.7526020" lon="-0.4798940">
    <ele>1883.5</ele>
    <time>2021-07-18T10:48:14Z</time>
   </trkpt>
   <trkpt lat="42.7524380" lon="-0.4797980">
    <ele>1882.1</ele>
    <time>2021-07-18T10:48:30Z</time>
   </trkpt>
   <trkpt lat="42.7524040" lon="-0.4797950">
    <ele>1881.9</ele>
    <time>2021-07-18T10:48:33Z</time>
   </trkpt>
   <trkpt lat="42.7523000" lon="-0.4798150">
    <ele>1881.0</ele>
    <time>2021-07-18T10:48:42Z</time>
   </trkpt>
   <trkpt lat="42.7522590" lon="-0.4798270">
    <ele>1880.6</ele>
    <time>2021-07-18T10:48:45Z</time>
   </trkpt>
   <trkpt lat="42.7522210" lon="-0.4798420">
    <ele>1880.2</ele>
    <time>2021-07-18T10:48:48Z</time>
   </trkpt>
   <trkpt lat="42.7521750" lon="-0.4798500">
    <ele>1879.7</ele>
    <time>2021-07-18T10:48:52Z</time>
   </trkpt>
   <trkpt lat="42.7520730" lon="-0.4798580">
    <ele>1878.6</ele>
    <time>2021-07-18T10:49:03Z</time>
   </trkpt>
   <trkpt lat="42.7520540" lon="-0.4798690">
    <ele>1878.4</ele>
    <time>2021-07-18T10:49:06Z</time>
   </trkpt>
   <trkpt lat="42.7519760" lon="-0.4798990">
    <ele>1877.4</ele>
    <time>2021-07-18T10:49:14Z</time>
   </trkpt>
   <trkpt lat="42.7519320" lon="-0.4799090">
    <ele>1876.8</ele>
    <time>2021-07-18T10:49:20Z</time>
   </trkpt>
   <trkpt lat="42.7519230" lon="-0.4799340">
    <ele>1876.5</ele>
    <time>2021-07-18T10:49:28Z</time>
   </trkpt>
   <trkpt lat="42.7517800" lon="-0.4799300">
    <ele>1874.6</ele>
    <time>2021-07-18T10:49:51Z</time>
   </trkpt>
   <trkpt lat="42.7517590" lon="-0.4799590">
    <ele>1874.3</ele>
    <time>2021-07-18T10:49:56Z</time>
   </trkpt>
   <trkpt lat="42.7517180" lon="-0.4799770">
    <ele>1873.8</ele>
    <time>2021-07-18T10:50:02Z</time>
   </trkpt>
   <trkpt lat="42.7517170" lon="-0.4799740">
    <ele>1873.8</ele>
    <time>2021-07-18T10:50:04Z</time>
   </trkpt>
   <trkpt lat="42.7517150" lon="-0.4799770">
    <ele>1873.7</ele>
    <time>2021-07-18T10:50:11Z</time>
   </trkpt>
   <trkpt lat="42.7516370" lon="-0.4800070">
    <ele>1872.9</ele>
    <time>2021-07-18T10:50:21Z</time>
   </trkpt>
   <trkpt lat="42.7514670" lon="-0.4799350">
    <ele>1871.5</ele>
    <time>2021-07-18T10:50:39Z</time>
   </trkpt>
   <trkpt lat="42.7514590" lon="-0.4799230">
    <ele>1871.5</ele>
    <time>2021-07-18T10:50:40Z</time>
   </trkpt>
   <trkpt lat="42.7513760" lon="-0.4798710">
    <ele>1871.2</ele>
    <time>2021-07-18T10:50:47Z</time>
   </trkpt>
   <trkpt lat="42.7511980" lon="-0.4797990">
    <ele>1871.2</ele>
    <time>2021-07-18T10:51:01Z</time>
   </trkpt>
   <trkpt lat="42.7511250" lon="-0.4797660">
    <ele>1871.3</ele>
    <time>2021-07-18T10:51:06Z</time>
   </trkpt>
   <trkpt lat="42.7510350" lon="-0.4798100">
    <ele>1871.2</ele>
    <time>2021-07-18T10:51:13Z</time>
   </trkpt>
   <trkpt lat="42.7509680" lon="-0.4798110">
    <ele>1871.2</ele>
    <time>2021-07-18T10:51:18Z</time>
   </trkpt>
   <trkpt lat="42.7508210" lon="-0.4796710">
    <ele>1870.6</ele>
    <time>2021-07-18T10:51:33Z</time>
   </trkpt>
   <trkpt lat="42.7507260" lon="-0.4796770">
    <ele>1870.0</ele>
    <time>2021-07-18T10:51:43Z</time>
   </trkpt>
   <trkpt lat="42.7507000" lon="-0.4796190">
    <ele>1869.6</ele>
    <time>2021-07-18T10:51:49Z</time>
   </trkpt>
   <trkpt lat="42.7507340" lon="-0.4793820">
    <ele>1867.6</ele>
    <time>2021-07-18T10:52:02Z</time>
   </trkpt>
   <trkpt lat="42.7506740" lon="-0.4791640">
    <ele>1864.7</ele>
    <time>2021-07-18T10:52:15Z</time>
   </trkpt>
   <trkpt lat="42.7506370" lon="-0.4790350">
    <ele>1862.8</ele>
    <time>2021-07-18T10:52:23Z</time>
   </trkpt>
   <trkpt lat="42.7507020" lon="-0.4790500">
    <ele>1861.5</ele>
    <time>2021-07-18T10:52:28Z</time>
   </trkpt>
   <trkpt lat="42.7507750" lon="-0.4790810">
    <ele>1860.1</ele>
    <time>2021-07-18T10:52:33Z</time>
   </trkpt>
   <trkpt lat="42.7508290" lon="-0.4790950">
    <ele>1859.1</ele>
    <time>2021-07-18T10:52:37Z</time>
   </trkpt>
   <trkpt lat="42.7508440" lon="-0.4791020">
    <ele>1858.8</ele>
    <time>2021-07-18T10:52:38Z</time>
   </trkpt>
   <trkpt lat="42.7508700" lon="-0.4791150">
    <ele>1858.3</ele>
    <time>2021-07-18T10:52:39Z</time>
   </trkpt>
   <trkpt lat="42.7508700" lon="-0.4791150">
    <ele>1858.3</ele>
    <time>2021-07-18T10:52:40Z</time>
   </trkpt>
   <trkpt lat="42.7508840" lon="-0.4791240">
    <ele>1858.0</ele>
    <time>2021-07-18T10:52:41Z</time>
   </trkpt>
   <trkpt lat="42.7508950" lon="-0.4791340">
    <ele>1857.8</ele>
    <time>2021-07-18T10:52:42Z</time>
   </trkpt>
   <trkpt lat="42.7509210" lon="-0.4791640">
    <ele>1857.2</ele>
    <time>2021-07-18T10:52:44Z</time>
   </trkpt>
   <trkpt lat="42.7509500" lon="-0.4792010">
    <ele>1856.4</ele>
    <time>2021-07-18T10:52:46Z</time>
   </trkpt>
   <trkpt lat="42.7509990" lon="-0.4792260">
    <ele>1855.5</ele>
    <time>2021-07-18T10:52:52Z</time>
   </trkpt>
   <trkpt lat="42.7509900" lon="-0.4791790">
    <ele>1854.7</ele>
    <time>2021-07-18T10:52:57Z</time>
   </trkpt>
   <trkpt lat="42.7509840" lon="-0.4791700">
    <ele>1854.6</ele>
    <time>2021-07-18T10:52:58Z</time>
   </trkpt>
   <trkpt lat="42.7509840" lon="-0.4791700">
    <ele>1854.6</ele>
    <time>2021-07-18T10:52:59Z</time>
   </trkpt>
   <trkpt lat="42.7509610" lon="-0.4791520">
    <ele>1854.0</ele>
    <time>2021-07-18T10:53:06Z</time>
   </trkpt>
   <trkpt lat="42.7509570" lon="-0.4791400">
    <ele>1853.8</ele>
    <time>2021-07-18T10:53:08Z</time>
   </trkpt>
   <trkpt lat="42.7509540" lon="-0.4791320">
    <ele>1853.7</ele>
    <time>2021-07-18T10:53:09Z</time>
   </trkpt>
   <trkpt lat="42.7509510" lon="-0.4791220">
    <ele>1853.5</ele>
    <time>2021-07-18T10:53:10Z</time>
   </trkpt>
   <trkpt lat="42.7509470" lon="-0.4790990">
    <ele>1853.1</ele>
    <time>2021-07-18T10:53:11Z</time>
   </trkpt>
   <trkpt lat="42.7509470" lon="-0.4790990">
    <ele>1853.1</ele>
    <time>2021-07-18T10:53:12Z</time>
   </trkpt>
   <trkpt lat="42.7509450" lon="-0.4790600">
    <ele>1852.5</ele>
    <time>2021-07-18T10:53:16Z</time>
   </trkpt>
   <trkpt lat="42.7509450" lon="-0.4790540">
    <ele>1852.4</ele>
    <time>2021-07-18T10:53:17Z</time>
   </trkpt>
   <trkpt lat="42.7509450" lon="-0.4790510">
    <ele>1852.3</ele>
    <time>2021-07-18T10:53:19Z</time>
   </trkpt>
   <trkpt lat="42.7509300" lon="-0.4789950">
    <ele>1851.4</ele>
    <time>2021-07-18T10:53:36Z</time>
   </trkpt>
   <trkpt lat="42.7509280" lon="-0.4789850">
    <ele>1851.2</ele>
    <time>2021-07-18T10:53:37Z</time>
   </trkpt>
   <trkpt lat="42.7509210" lon="-0.4789190">
    <ele>1850.1</ele>
    <time>2021-07-18T10:53:43Z</time>
   </trkpt>
   <trkpt lat="42.7509200" lon="-0.4788940">
    <ele>1849.7</ele>
    <time>2021-07-18T10:53:45Z</time>
   </trkpt>
   <trkpt lat="42.7509080" lon="-0.4786800">
    <ele>1845.9</ele>
    <time>2021-07-18T10:54:02Z</time>
   </trkpt>
   <trkpt lat="42.7509380" lon="-0.4786630">
    <ele>1845.2</ele>
    <time>2021-07-18T10:54:07Z</time>
   </trkpt>
   <trkpt lat="42.7509460" lon="-0.4786630">
    <ele>1845.0</ele>
    <time>2021-07-18T10:54:10Z</time>
   </trkpt>
   <trkpt lat="42.7509550" lon="-0.4786690">
    <ele>1844.8</ele>
    <time>2021-07-18T10:54:12Z</time>
   </trkpt>
   <trkpt lat="42.7509880" lon="-0.4787460">
    <ele>1843.4</ele>
    <time>2021-07-18T10:54:17Z</time>
   </trkpt>
   <trkpt lat="42.7510500" lon="-0.4788040">
    <ele>1841.9</ele>
    <time>2021-07-18T10:54:24Z</time>
   </trkpt>
   <trkpt lat="42.7510590" lon="-0.4788050">
    <ele>1841.7</ele>
    <time>2021-07-18T10:54:25Z</time>
   </trkpt>
   <trkpt lat="42.7511060" lon="-0.4788310">
    <ele>1840.8</ele>
    <time>2021-07-18T10:54:31Z</time>
   </trkpt>
   <trkpt lat="42.7511350" lon="-0.4788590">
    <ele>1840.1</ele>
    <time>2021-07-18T10:54:36Z</time>
   </trkpt>
   <trkpt lat="42.7511590" lon="-0.4788800">
    <ele>1839.6</ele>
    <time>2021-07-18T10:54:39Z</time>
   </trkpt>
   <trkpt lat="42.7512770" lon="-0.4789510">
    <ele>1837.2</ele>
    <time>2021-07-18T10:54:51Z</time>
   </trkpt>
   <trkpt lat="42.7513050" lon="-0.4789710">
    <ele>1836.7</ele>
    <time>2021-07-18T10:54:56Z</time>
   </trkpt>
   <trkpt lat="42.7513010" lon="-0.4789550">
    <ele>1836.4</ele>
    <time>2021-07-18T10:54:58Z</time>
   </trkpt>
   <trkpt lat="42.7512950" lon="-0.4789410">
    <ele>1836.2</ele>
    <time>2021-07-18T10:55:00Z</time>
   </trkpt>
   <trkpt lat="42.7512930" lon="-0.4789340">
    <ele>1836.1</ele>
    <time>2021-07-18T10:55:02Z</time>
   </trkpt>
   <trkpt lat="42.7512890" lon="-0.4788970">
    <ele>1835.6</ele>
    <time>2021-07-18T10:55:09Z</time>
   </trkpt>
   <trkpt lat="42.7512700" lon="-0.4788620">
    <ele>1835.0</ele>
    <time>2021-07-18T10:55:14Z</time>
   </trkpt>
   <trkpt lat="42.7512690" lon="-0.4788620">
    <ele>1835.0</ele>
    <time>2021-07-18T10:55:15Z</time>
   </trkpt>
   <trkpt lat="42.7512630" lon="-0.4788150">
    <ele>1834.3</ele>
    <time>2021-07-18T10:55:20Z</time>
   </trkpt>
   <trkpt lat="42.7512560" lon="-0.4787840">
    <ele>1833.8</ele>
    <time>2021-07-18T10:55:22Z</time>
   </trkpt>
   <trkpt lat="42.7512520" lon="-0.4787480">
    <ele>1833.2</ele>
    <time>2021-07-18T10:55:24Z</time>
   </trkpt>
   <trkpt lat="42.7512520" lon="-0.4787320">
    <ele>1832.9</ele>
    <time>2021-07-18T10:55:25Z</time>
   </trkpt>
   <trkpt lat="42.7512500" lon="-0.4787140">
    <ele>1832.6</ele>
    <time>2021-07-18T10:55:26Z</time>
   </trkpt>
   <trkpt lat="42.7512470" lon="-0.4786990">
    <ele>1832.3</ele>
    <time>2021-07-18T10:55:27Z</time>
   </trkpt>
   <trkpt lat="42.7512460" lon="-0.4786780">
    <ele>1832.0</ele>
    <time>2021-07-18T10:55:28Z</time>
   </trkpt>
   <trkpt lat="42.7512080" lon="-0.4785320">
    <ele>1829.2</ele>
    <time>2021-07-18T10:55:39Z</time>
   </trkpt>
   <trkpt lat="42.7511860" lon="-0.4784800">
    <ele>1828.1</ele>
    <time>2021-07-18T10:55:44Z</time>
   </trkpt>
   <trkpt lat="42.7511880" lon="-0.4784510">
    <ele>1827.6</ele>
    <time>2021-07-18T10:55:46Z</time>
   </trkpt>
   <trkpt lat="42.7511730" lon="-0.4783800">
    <ele>1826.2</ele>
    <time>2021-07-18T10:55:54Z</time>
   </trkpt>
   <trkpt lat="42.7511760" lon="-0.4783680">
    <ele>1826.0</ele>
    <time>2021-07-18T10:55:56Z</time>
   </trkpt>
   <trkpt lat="42.7511680" lon="-0.4782480">
    <ele>1824.0</ele>
    <time>2021-07-18T10:56:07Z</time>
   </trkpt>
   <trkpt lat="42.7511810" lon="-0.4782270">
    <ele>1823.6</ele>
    <time>2021-07-18T10:56:09Z</time>
   </trkpt>
   <trkpt lat="42.7511880" lon="-0.4782230">
    <ele>1823.4</ele>
    <time>2021-07-18T10:56:10Z</time>
   </trkpt>
   <trkpt lat="42.7511930" lon="-0.4782230">
    <ele>1823.3</ele>
    <time>2021-07-18T10:56:11Z</time>
   </trkpt>
   <trkpt lat="42.7512010" lon="-0.4782250">
    <ele>1823.1</ele>
    <time>2021-07-18T10:56:12Z</time>
   </trkpt>
   <trkpt lat="42.7512220" lon="-0.4782420">
    <ele>1822.6</ele>
    <time>2021-07-18T10:56:14Z</time>
   </trkpt>
   <trkpt lat="42.7512880" lon="-0.4782840">
    <ele>1821.2</ele>
    <time>2021-07-18T10:56:20Z</time>
   </trkpt>
   <trkpt lat="42.7513080" lon="-0.4782700">
    <ele>1820.7</ele>
    <time>2021-07-18T10:56:22Z</time>
   </trkpt>
   <trkpt lat="42.7514080" lon="-0.4781320">
    <ele>1817.9</ele>
    <time>2021-07-18T10:56:36Z</time>
   </trkpt>
   <trkpt lat="42.7514020" lon="-0.4781260">
    <ele>1817.7</ele>
    <time>2021-07-18T10:56:37Z</time>
   </trkpt>
   <trkpt lat="42.7514060" lon="-0.4780880">
    <ele>1817.2</ele>
    <time>2021-07-18T10:56:40Z</time>
   </trkpt>
   <trkpt lat="42.7514120" lon="-0.4780750">
    <ele>1816.9</ele>
    <time>2021-07-18T10:56:41Z</time>
   </trkpt>
   <trkpt lat="42.7514320" lon="-0.4780220">
    <ele>1816.0</ele>
    <time>2021-07-18T10:56:45Z</time>
   </trkpt>
   <trkpt lat="42.7514350" lon="-0.4779930">
    <ele>1815.5</ele>
    <time>2021-07-18T10:56:47Z</time>
   </trkpt>
   <trkpt lat="42.7514450" lon="-0.4779660">
    <ele>1815.0</ele>
    <time>2021-07-18T10:56:49Z</time>
   </trkpt>
   <trkpt lat="42.7514620" lon="-0.4779360">
    <ele>1814.4</ele>
    <time>2021-07-18T10:56:51Z</time>
   </trkpt>
   <trkpt lat="42.7515140" lon="-0.4779580">
    <ele>1813.1</ele>
    <time>2021-07-18T10:56:55Z</time>
   </trkpt>
   <trkpt lat="42.7515460" lon="-0.4779800">
    <ele>1812.2</ele>
    <time>2021-07-18T10:56:59Z</time>
   </trkpt>
   <trkpt lat="42.7515480" lon="-0.4779850">
    <ele>1812.0</ele>
    <time>2021-07-18T10:57:00Z</time>
   </trkpt>
   <trkpt lat="42.7515520" lon="-0.4779900">
    <ele>1811.9</ele>
    <time>2021-07-18T10:57:01Z</time>
   </trkpt>
   <trkpt lat="42.7515630" lon="-0.4779990">
    <ele>1811.6</ele>
    <time>2021-07-18T10:57:02Z</time>
   </trkpt>
   <trkpt lat="42.7515730" lon="-0.4779870">
    <ele>1811.2</ele>
    <time>2021-07-18T10:57:08Z</time>
   </trkpt>
   <trkpt lat="42.7515780" lon="-0.4779840">
    <ele>1811.1</ele>
    <time>2021-07-18T10:57:09Z</time>
   </trkpt>
   <trkpt lat="42.7515780" lon="-0.4779860">
    <ele>1811.0</ele>
    <time>2021-07-18T10:57:10Z</time>
   </trkpt>
   <trkpt lat="42.7515930" lon="-0.4778540">
    <ele>1808.4</ele>
    <time>2021-07-18T10:57:25Z</time>
   </trkpt>
   <trkpt lat="42.7515970" lon="-0.4778440">
    <ele>1808.2</ele>
    <time>2021-07-18T10:57:27Z</time>
   </trkpt>
   <trkpt lat="42.7515970" lon="-0.4778430">
    <ele>1808.2</ele>
    <time>2021-07-18T10:57:28Z</time>
   </trkpt>
   <trkpt lat="42.7515970" lon="-0.4777370">
    <ele>1806.3</ele>
    <time>2021-07-18T10:57:38Z</time>
   </trkpt>
   <trkpt lat="42.7516050" lon="-0.4776680">
    <ele>1805.0</ele>
    <time>2021-07-18T10:57:45Z</time>
   </trkpt>
   <trkpt lat="42.7516090" lon="-0.4776190">
    <ele>1804.2</ele>
    <time>2021-07-18T10:57:50Z</time>
   </trkpt>
   <trkpt lat="42.7516370" lon="-0.4775390">
    <ele>1802.7</ele>
    <time>2021-07-18T10:57:57Z</time>
   </trkpt>
   <trkpt lat="42.7516620" lon="-0.4774850">
    <ele>1801.7</ele>
    <time>2021-07-18T10:58:01Z</time>
   </trkpt>
   <trkpt lat="42.7516580" lon="-0.4774020">
    <ele>1800.7</ele>
    <time>2021-07-18T10:58:08Z</time>
   </trkpt>
   <trkpt lat="42.7516740" lon="-0.4772290">
    <ele>1799.0</ele>
    <time>2021-07-18T10:58:20Z</time>
   </trkpt>
   <trkpt lat="42.7516850" lon="-0.4771990">
    <ele>1798.8</ele>
    <time>2021-07-18T10:58:23Z</time>
   </trkpt>
   <trkpt lat="42.7517130" lon="-0.4771310">
    <ele>1798.2</ele>
    <time>2021-07-18T10:58:29Z</time>
   </trkpt>
   <trkpt lat="42.7517780" lon="-0.4769610">
    <ele>1796.9</ele>
    <time>2021-07-18T10:58:43Z</time>
   </trkpt>
   <trkpt lat="42.7517900" lon="-0.4769580">
    <ele>1796.9</ele>
    <time>2021-07-18T10:58:45Z</time>
   </trkpt>
   <trkpt lat="42.7518150" lon="-0.4769410">
    <ele>1796.6</ele>
    <time>2021-07-18T10:58:48Z</time>
   </trkpt>
   <trkpt lat="42.7518260" lon="-0.4769390">
    <ele>1796.6</ele>
    <time>2021-07-18T10:58:51Z</time>
   </trkpt>
   <trkpt lat="42.7519230" lon="-0.4767190">
    <ele>1794.9</ele>
    <time>2021-07-18T10:59:07Z</time>
   </trkpt>
   <trkpt lat="42.7519700" lon="-0.4766550">
    <ele>1794.2</ele>
    <time>2021-07-18T10:59:12Z</time>
   </trkpt>
   <trkpt lat="42.7519950" lon="-0.4766640">
    <ele>1793.8</ele>
    <time>2021-07-18T10:59:15Z</time>
   </trkpt>
   <trkpt lat="42.7520150" lon="-0.4766950">
    <ele>1793.4</ele>
    <time>2021-07-18T10:59:18Z</time>
   </trkpt>
   <trkpt lat="42.7520170" lon="-0.4767430">
    <ele>1792.9</ele>
    <time>2021-07-18T10:59:21Z</time>
   </trkpt>
   <trkpt lat="42.7520180" lon="-0.4767580">
    <ele>1792.8</ele>
    <time>2021-07-18T10:59:22Z</time>
   </trkpt>
   <trkpt lat="42.7520230" lon="-0.4767930">
    <ele>1792.4</ele>
    <time>2021-07-18T10:59:23Z</time>
   </trkpt>
   <trkpt lat="42.7520230" lon="-0.4767930">
    <ele>1792.4</ele>
    <time>2021-07-18T10:59:24Z</time>
   </trkpt>
   <trkpt lat="42.7520270" lon="-0.4768100">
    <ele>1792.2</ele>
    <time>2021-07-18T10:59:25Z</time>
   </trkpt>
   <trkpt lat="42.7520350" lon="-0.4768400">
    <ele>1791.9</ele>
    <time>2021-07-18T10:59:26Z</time>
   </trkpt>
   <trkpt lat="42.7520350" lon="-0.4768400">
    <ele>1791.7</ele>
    <time>2021-07-18T10:59:27Z</time>
   </trkpt>
   <trkpt lat="42.7520430" lon="-0.4768700">
    <ele>1791.6</ele>
    <time>2021-07-18T10:59:29Z</time>
   </trkpt>
   <trkpt lat="42.7520590" lon="-0.4769230">
    <ele>1790.5</ele>
    <time>2021-07-18T10:59:33Z</time>
   </trkpt>
   <trkpt lat="42.7521990" lon="-0.4767940">
    <ele>1786.9</ele>
    <time>2021-07-18T10:59:46Z</time>
   </trkpt>
   <trkpt lat="42.7522120" lon="-0.4767880">
    <ele>1785.6</ele>
    <time>2021-07-18T10:59:47Z</time>
   </trkpt>
   <trkpt lat="42.7522360" lon="-0.4767950">
    <ele>1785.5</ele>
    <time>2021-07-18T10:59:49Z</time>
   </trkpt>
   <trkpt lat="42.7522730" lon="-0.4768060">
    <ele>1784.4</ele>
    <time>2021-07-18T10:59:52Z</time>
   </trkpt>
   <trkpt lat="42.7523230" lon="-0.4768290">
    <ele>1782.4</ele>
    <time>2021-07-18T10:59:55Z</time>
   </trkpt>
   <trkpt lat="42.7523430" lon="-0.4768300">
    <ele>1781.4</ele>
    <time>2021-07-18T10:59:56Z</time>
   </trkpt>
   <trkpt lat="42.7524160" lon="-0.4767700">
    <ele>1779.2</ele>
    <time>2021-07-18T11:00:04Z</time>
   </trkpt>
   <trkpt lat="42.7524320" lon="-0.4767490">
    <ele>1779.0</ele>
    <time>2021-07-18T11:00:06Z</time>
   </trkpt>
   <trkpt lat="42.7525010" lon="-0.4768040">
    <ele>1776.3</ele>
    <time>2021-07-18T11:00:13Z</time>
   </trkpt>
   <trkpt lat="42.7525100" lon="-0.4768080">
    <ele>1776.2</ele>
    <time>2021-07-18T11:00:14Z</time>
   </trkpt>
   <trkpt lat="42.7525240" lon="-0.4768080">
    <ele>1776.0</ele>
    <time>2021-07-18T11:00:15Z</time>
   </trkpt>
   <trkpt lat="42.7525440" lon="-0.4768100">
    <ele>1774.9</ele>
    <time>2021-07-18T11:00:16Z</time>
   </trkpt>
   <trkpt lat="42.7525820" lon="-0.4768260">
    <ele>1773.8</ele>
    <time>2021-07-18T11:00:18Z</time>
   </trkpt>
   <trkpt lat="42.7526110" lon="-0.4768490">
    <ele>1773.2</ele>
    <time>2021-07-18T11:00:20Z</time>
   </trkpt>
   <trkpt lat="42.7526420" lon="-0.4768750">
    <ele>1772.1</ele>
    <time>2021-07-18T11:00:21Z</time>
   </trkpt>
   <trkpt lat="42.7526420" lon="-0.4768750">
    <ele>1772.0</ele>
    <time>2021-07-18T11:00:22Z</time>
   </trkpt>
   <trkpt lat="42.7526540" lon="-0.4768830">
    <ele>1771.4</ele>
    <time>2021-07-18T11:00:23Z</time>
   </trkpt>
   <trkpt lat="42.7526690" lon="-0.4768890">
    <ele>1771.2</ele>
    <time>2021-07-18T11:00:24Z</time>
   </trkpt>
   <trkpt lat="42.7527260" lon="-0.4768610">
    <ele>1768.9</ele>
    <time>2021-07-18T11:00:30Z</time>
   </trkpt>
   <trkpt lat="42.7527360" lon="-0.4768480">
    <ele>1768.7</ele>
    <time>2021-07-18T11:00:31Z</time>
   </trkpt>
   <trkpt lat="42.7527490" lon="-0.4768400">
    <ele>1768.5</ele>
    <time>2021-07-18T11:00:32Z</time>
   </trkpt>
   <trkpt lat="42.7527620" lon="-0.4768380">
    <ele>1768.4</ele>
    <time>2021-07-18T11:00:33Z</time>
   </trkpt>
   <trkpt lat="42.7527750" lon="-0.4768410">
    <ele>1768.2</ele>
    <time>2021-07-18T11:00:34Z</time>
   </trkpt>
   <trkpt lat="42.7527940" lon="-0.4768360">
    <ele>1768.0</ele>
    <time>2021-07-18T11:00:36Z</time>
   </trkpt>
   <trkpt lat="42.7528040" lon="-0.4767440">
    <ele>1767.2</ele>
    <time>2021-07-18T11:00:45Z</time>
   </trkpt>
   <trkpt lat="42.7528280" lon="-0.4766880">
    <ele>1766.7</ele>
    <time>2021-07-18T11:00:50Z</time>
   </trkpt>
   <trkpt lat="42.7529600" lon="-0.4765360">
    <ele>1764.5</ele>
    <time>2021-07-18T11:01:09Z</time>
   </trkpt>
   <trkpt lat="42.7530080" lon="-0.4764720">
    <ele>1763.6</ele>
    <time>2021-07-18T11:01:14Z</time>
   </trkpt>
   <trkpt lat="42.7530510" lon="-0.4764170">
    <ele>1762.9</ele>
    <time>2021-07-18T11:01:19Z</time>
   </trkpt>
   <trkpt lat="42.7532240" lon="-0.4763250">
    <ele>1760.2</ele>
    <time>2021-07-18T11:01:29Z</time>
   </trkpt>
   <trkpt lat="42.7533870" lon="-0.4763160">
    <ele>1757.6</ele>
    <time>2021-07-18T11:01:36Z</time>
   </trkpt>
   <trkpt lat="42.7534360" lon="-0.4762930">
    <ele>1756.6</ele>
    <time>2021-07-18T11:01:38Z</time>
   </trkpt>
   <trkpt lat="42.7534620" lon="-0.4762820">
    <ele>1756.1</ele>
    <time>2021-07-18T11:01:39Z</time>
   </trkpt>
   <trkpt lat="42.7535120" lon="-0.4762530">
    <ele>1754.9</ele>
    <time>2021-07-18T11:01:41Z</time>
   </trkpt>
   <trkpt lat="42.7535780" lon="-0.4762090">
    <ele>1753.4</ele>
    <time>2021-07-18T11:01:44Z</time>
   </trkpt>
   <trkpt lat="42.7536100" lon="-0.4761940">
    <ele>1752.6</ele>
    <time>2021-07-18T11:01:46Z</time>
   </trkpt>
   <trkpt lat="42.7536250" lon="-0.4761820">
    <ele>1752.2</ele>
    <time>2021-07-18T11:01:47Z</time>
   </trkpt>
   <trkpt lat="42.7536410" lon="-0.4761650">
    <ele>1751.8</ele>
    <time>2021-07-18T11:01:48Z</time>
   </trkpt>
   <trkpt lat="42.7536550" lon="-0.4761420">
    <ele>1751.3</ele>
    <time>2021-07-18T11:01:49Z</time>
   </trkpt>
   <trkpt lat="42.7536680" lon="-0.4761210">
    <ele>1750.8</ele>
    <time>2021-07-18T11:01:50Z</time>
   </trkpt>
   <trkpt lat="42.7536840" lon="-0.4760880">
    <ele>1750.2</ele>
    <time>2021-07-18T11:01:52Z</time>
   </trkpt>
   <trkpt lat="42.7536980" lon="-0.4760400">
    <ele>1749.4</ele>
    <time>2021-07-18T11:01:55Z</time>
   </trkpt>
   <trkpt lat="42.7537040" lon="-0.4759810">
    <ele>1748.5</ele>
    <time>2021-07-18T11:02:00Z</time>
   </trkpt>
   <trkpt lat="42.7537010" lon="-0.4759650">
    <ele>1748.2</ele>
    <time>2021-07-18T11:02:02Z</time>
   </trkpt>
   <trkpt lat="42.7536980" lon="-0.4759340">
    <ele>1747.8</ele>
    <time>2021-07-18T11:02:05Z</time>
   </trkpt>
   <trkpt lat="42.7537010" lon="-0.4758500">
    <ele>1746.6</ele>
    <time>2021-07-18T11:02:13Z</time>
   </trkpt>
   <trkpt lat="42.7537050" lon="-0.4758070">
    <ele>1746.0</ele>
    <time>2021-07-18T11:02:17Z</time>
   </trkpt>
   <trkpt lat="42.7537080" lon="-0.4756790">
    <ele>1744.4</ele>
    <time>2021-07-18T11:02:30Z</time>
   </trkpt>
   <trkpt lat="42.7537090" lon="-0.4756740">
    <ele>1744.3</ele>
    <time>2021-07-18T11:02:33Z</time>
   </trkpt>
   <trkpt lat="42.7537040" lon="-0.4756700">
    <ele>1744.2</ele>
    <time>2021-07-18T11:02:34Z</time>
   </trkpt>
   <trkpt lat="42.7537030" lon="-0.4756620">
    <ele>1744.1</ele>
    <time>2021-07-18T11:02:39Z</time>
   </trkpt>
   <trkpt lat="42.7537050" lon="-0.4756210">
    <ele>1743.6</ele>
    <time>2021-07-18T11:02:43Z</time>
   </trkpt>
   <trkpt lat="42.7537110" lon="-0.4755800">
    <ele>1743.1</ele>
    <time>2021-07-18T11:02:50Z</time>
   </trkpt>
   <trkpt lat="42.7537240" lon="-0.4755640">
    <ele>1742.9</ele>
    <time>2021-07-18T11:02:55Z</time>
   </trkpt>
   <trkpt lat="42.7537200" lon="-0.4755600">
    <ele>1742.8</ele>
    <time>2021-07-18T11:02:59Z</time>
   </trkpt>
   <trkpt lat="42.7537150" lon="-0.4755630">
    <ele>1742.7</ele>
    <time>2021-07-18T11:03:03Z</time>
   </trkpt>
   <trkpt lat="42.7537100" lon="-0.4755450">
    <ele>1742.5</ele>
    <time>2021-07-18T11:03:08Z</time>
   </trkpt>
   <trkpt lat="42.7537170" lon="-0.4754680">
    <ele>1741.6</ele>
    <time>2021-07-18T11:03:14Z</time>
   </trkpt>
   <trkpt lat="42.7537550" lon="-0.4752340">
    <ele>1739.3</ele>
    <time>2021-07-18T11:03:35Z</time>
   </trkpt>
   <trkpt lat="42.7537130" lon="-0.4749860">
    <ele>1736.9</ele>
    <time>2021-07-18T11:03:51Z</time>
   </trkpt>
   <trkpt lat="42.7536490" lon="-0.4747470">
    <ele>1734.0</ele>
    <time>2021-07-18T11:04:05Z</time>
   </trkpt>
   <trkpt lat="42.7536460" lon="-0.4746040">
    <ele>1731.9</ele>
    <time>2021-07-18T11:04:12Z</time>
   </trkpt>
   <trkpt lat="42.7536410" lon="-0.4743500">
    <ele>1727.8</ele>
    <time>2021-07-18T11:04:26Z</time>
   </trkpt>
   <trkpt lat="42.7536960" lon="-0.4742160">
    <ele>1725.2</ele>
    <time>2021-07-18T11:04:34Z</time>
   </trkpt>
   <trkpt lat="42.7537770" lon="-0.4740140">
    <ele>1721.1</ele>
    <time>2021-07-18T11:04:50Z</time>
   </trkpt>
   <trkpt lat="42.7538380" lon="-0.4740090">
    <ele>1719.7</ele>
    <time>2021-07-18T11:04:54Z</time>
   </trkpt>
   <trkpt lat="42.7540150" lon="-0.4740740">
    <ele>1715.4</ele>
    <time>2021-07-18T11:05:05Z</time>
   </trkpt>
   <trkpt lat="42.7540520" lon="-0.4740880">
    <ele>1714.4</ele>
    <time>2021-07-18T11:05:08Z</time>
   </trkpt>
   <trkpt lat="42.7540680" lon="-0.4740930">
    <ele>1714.0</ele>
    <time>2021-07-18T11:05:09Z</time>
   </trkpt>
   <trkpt lat="42.7540840" lon="-0.4740950">
    <ele>1713.7</ele>
    <time>2021-07-18T11:05:10Z</time>
   </trkpt>
   <trkpt lat="42.7540970" lon="-0.4740970">
    <ele>1713.4</ele>
    <time>2021-07-18T11:05:11Z</time>
   </trkpt>
   <trkpt lat="42.7541090" lon="-0.4741020">
    <ele>1713.1</ele>
    <time>2021-07-18T11:05:12Z</time>
   </trkpt>
   <trkpt lat="42.7541180" lon="-0.4741040">
    <ele>1712.9</ele>
    <time>2021-07-18T11:05:13Z</time>
   </trkpt>
   <trkpt lat="42.7541280" lon="-0.4741080">
    <ele>1712.7</ele>
    <time>2021-07-18T11:05:14Z</time>
   </trkpt>
   <trkpt lat="42.7541920" lon="-0.4741340">
    <ele>1711.3</ele>
    <time>2021-07-18T11:05:25Z</time>
   </trkpt>
   <trkpt lat="42.7542040" lon="-0.4741320">
    <ele>1711.0</ele>
    <time>2021-07-18T11:05:26Z</time>
   </trkpt>
   <trkpt lat="42.7542220" lon="-0.4741280">
    <ele>1710.6</ele>
    <time>2021-07-18T11:05:28Z</time>
   </trkpt>
   <trkpt lat="42.7543450" lon="-0.4741430">
    <ele>1708.0</ele>
    <time>2021-07-18T11:05:38Z</time>
   </trkpt>
   <trkpt lat="42.7544100" lon="-0.4741530">
    <ele>1706.5</ele>
    <time>2021-07-18T11:05:44Z</time>
   </trkpt>
   <trkpt lat="42.7545080" lon="-0.4742350">
    <ele>1703.7</ele>
    <time>2021-07-18T11:05:55Z</time>
   </trkpt>
   <trkpt lat="42.7545440" lon="-0.4742740">
    <ele>1702.6</ele>
    <time>2021-07-18T11:06:00Z</time>
   </trkpt>
   <trkpt lat="42.7544810" lon="-0.4743480">
    <ele>1700.7</ele>
    <time>2021-07-18T11:06:08Z</time>
   </trkpt>
   <trkpt lat="42.7544370" lon="-0.4744070">
    <ele>1699.4</ele>
    <time>2021-07-18T11:06:13Z</time>
   </trkpt>
   <trkpt lat="42.7544280" lon="-0.4744370">
    <ele>1698.8</ele>
    <time>2021-07-18T11:06:15Z</time>
   </trkpt>
   <trkpt lat="42.7544450" lon="-0.4745930">
    <ele>1696.2</ele>
    <time>2021-07-18T11:06:29Z</time>
   </trkpt>
   <trkpt lat="42.7544530" lon="-0.4746280">
    <ele>1695.6</ele>
    <time>2021-07-18T11:06:32Z</time>
   </trkpt>
   <trkpt lat="42.7544570" lon="-0.4746560">
    <ele>1695.1</ele>
    <time>2021-07-18T11:06:36Z</time>
   </trkpt>
   <trkpt lat="42.7544810" lon="-0.4746840">
    <ele>1694.3</ele>
    <time>2021-07-18T11:06:44Z</time>
   </trkpt>
   <trkpt lat="42.7545830" lon="-0.4745740">
    <ele>1691.1</ele>
    <time>2021-07-18T11:07:02Z</time>
   </trkpt>
   <trkpt lat="42.7547660" lon="-0.4745720">
    <ele>1686.5</ele>
    <time>2021-07-18T11:07:18Z</time>
   </trkpt>
   <trkpt lat="42.7547710" lon="-0.4745750">
    <ele>1686.4</ele>
    <time>2021-07-18T11:07:19Z</time>
   </trkpt>
   <trkpt lat="42.7547910" lon="-0.4745860">
    <ele>1685.7</ele>
    <time>2021-07-18T11:07:21Z</time>
   </trkpt>
   <trkpt lat="42.7548850" lon="-0.4746200">
    <ele>1683.0</ele>
    <time>2021-07-18T11:07:28Z</time>
   </trkpt>
   <trkpt lat="42.7549220" lon="-0.4746580">
    <ele>1681.7</ele>
    <time>2021-07-18T11:07:31Z</time>
   </trkpt>
   <trkpt lat="42.7549450" lon="-0.4746800">
    <ele>1680.9</ele>
    <time>2021-07-18T11:07:33Z</time>
   </trkpt>
   <trkpt lat="42.7549580" lon="-0.4746820">
    <ele>1680.6</ele>
    <time>2021-07-18T11:07:34Z</time>
   </trkpt>
   <trkpt lat="42.7549730" lon="-0.4746820">
    <ele>1680.2</ele>
    <time>2021-07-18T11:07:35Z</time>
   </trkpt>
   <trkpt lat="42.7550460" lon="-0.4746670">
    <ele>1678.3</ele>
    <time>2021-07-18T11:07:42Z</time>
   </trkpt>
   <trkpt lat="42.7550860" lon="-0.4746870">
    <ele>1677.3</ele>
    <time>2021-07-18T11:07:47Z</time>
   </trkpt>
   <trkpt lat="42.7550900" lon="-0.4746950">
    <ele>1677.1</ele>
    <time>2021-07-18T11:07:48Z</time>
   </trkpt>
   <trkpt lat="42.7550910" lon="-0.4747030">
    <ele>1677.0</ele>
    <time>2021-07-18T11:07:49Z</time>
   </trkpt>
   <trkpt lat="42.7550980" lon="-0.4747150">
    <ele>1676.7</ele>
    <time>2021-07-18T11:07:51Z</time>
   </trkpt>
   <trkpt lat="42.7551010" lon="-0.4747200">
    <ele>1676.6</ele>
    <time>2021-07-18T11:07:52Z</time>
   </trkpt>
   <trkpt lat="42.7551040" lon="-0.4747280">
    <ele>1676.5</ele>
    <time>2021-07-18T11:07:53Z</time>
   </trkpt>
   <trkpt lat="42.7551100" lon="-0.4747450">
    <ele>1676.2</ele>
    <time>2021-07-18T11:07:54Z</time>
   </trkpt>
   <trkpt lat="42.7551260" lon="-0.4747770">
    <ele>1675.5</ele>
    <time>2021-07-18T11:07:59Z</time>
   </trkpt>
   <trkpt lat="42.7551500" lon="-0.4748150">
    <ele>1674.7</ele>
    <time>2021-07-18T11:08:08Z</time>
   </trkpt>
   <trkpt lat="42.7551590" lon="-0.4748080">
    <ele>1674.5</ele>
    <time>2021-07-18T11:08:11Z</time>
   </trkpt>
   <trkpt lat="42.7551660" lon="-0.4747910">
    <ele>1674.2</ele>
    <time>2021-07-18T11:08:14Z</time>
   </trkpt>
   <trkpt lat="42.7551700" lon="-0.4747690">
    <ele>1673.9</ele>
    <time>2021-07-18T11:08:18Z</time>
   </trkpt>
   <trkpt lat="42.7551860" lon="-0.4747110">
    <ele>1673.1</ele>
    <time>2021-07-18T11:08:24Z</time>
   </trkpt>
   <trkpt lat="42.7551890" lon="-0.4746600">
    <ele>1672.4</ele>
    <time>2021-07-18T11:08:28Z</time>
   </trkpt>
   <trkpt lat="42.7551930" lon="-0.4745940">
    <ele>1671.5</ele>
    <time>2021-07-18T11:08:33Z</time>
   </trkpt>
   <trkpt lat="42.7551920" lon="-0.4745050">
    <ele>1670.4</ele>
    <time>2021-07-18T11:08:38Z</time>
   </trkpt>
   <trkpt lat="42.7552050" lon="-0.4742880">
    <ele>1667.8</ele>
    <time>2021-07-18T11:08:53Z</time>
   </trkpt>
   <trkpt lat="42.7552230" lon="-0.4740410">
    <ele>1664.8</ele>
    <time>2021-07-18T11:09:07Z</time>
   </trkpt>
   <trkpt lat="42.7552170" lon="-0.4739870">
    <ele>1664.2</ele>
    <time>2021-07-18T11:09:10Z</time>
   </trkpt>
   <trkpt lat="42.7552130" lon="-0.4739660">
    <ele>1663.9</ele>
    <time>2021-07-18T11:09:11Z</time>
   </trkpt>
   <trkpt lat="42.7552030" lon="-0.4739060">
    <ele>1663.1</ele>
    <time>2021-07-18T11:09:14Z</time>
   </trkpt>
   <trkpt lat="42.7552060" lon="-0.4738640">
    <ele>1662.5</ele>
    <time>2021-07-18T11:09:16Z</time>
   </trkpt>
   <trkpt lat="42.7552350" lon="-0.4738840">
    <ele>1661.9</ele>
    <time>2021-07-18T11:09:20Z</time>
   </trkpt>
   <trkpt lat="42.7552520" lon="-0.4739210">
    <ele>1661.3</ele>
    <time>2021-07-18T11:09:23Z</time>
   </trkpt>
   <trkpt lat="42.7552670" lon="-0.4739440">
    <ele>1660.8</ele>
    <time>2021-07-18T11:09:24Z</time>
   </trkpt>
   <trkpt lat="42.7552670" lon="-0.4739440">
    <ele>1660.8</ele>
    <time>2021-07-18T11:09:25Z</time>
   </trkpt>
   <trkpt lat="42.7552950" lon="-0.4740630">
    <ele>1658.8</ele>
    <time>2021-07-18T11:09:33Z</time>
   </trkpt>
   <trkpt lat="42.7553070" lon="-0.4740820">
    <ele>1658.4</ele>
    <time>2021-07-18T11:09:38Z</time>
   </trkpt>
   <trkpt lat="42.7553210" lon="-0.4740630">
    <ele>1658.0</ele>
    <time>2021-07-18T11:09:40Z</time>
   </trkpt>
   <trkpt lat="42.7553360" lon="-0.4740460">
    <ele>1657.6</ele>
    <time>2021-07-18T11:09:42Z</time>
   </trkpt>
   <trkpt lat="42.7553650" lon="-0.4738110">
    <ele>1653.6</ele>
    <time>2021-07-18T11:09:59Z</time>
   </trkpt>
   <trkpt lat="42.7553940" lon="-0.4737340">
    <ele>1652.1</ele>
    <time>2021-07-18T11:10:09Z</time>
   </trkpt>
   <trkpt lat="42.7554090" lon="-0.4737520">
    <ele>1651.6</ele>
    <time>2021-07-18T11:10:11Z</time>
   </trkpt>
   <trkpt lat="42.7554260" lon="-0.4737750">
    <ele>1651.0</ele>
    <time>2021-07-18T11:10:13Z</time>
   </trkpt>
   <trkpt lat="42.7555400" lon="-0.4739050">
    <ele>1647.9</ele>
    <time>2021-07-18T11:10:30Z</time>
   </trkpt>
   <trkpt lat="42.7555460" lon="-0.4738540">
    <ele>1647.2</ele>
    <time>2021-07-18T11:10:35Z</time>
   </trkpt>
   <trkpt lat="42.7555360" lon="-0.4738010">
    <ele>1646.5</ele>
    <time>2021-07-18T11:10:39Z</time>
   </trkpt>
   <trkpt lat="42.7555390" lon="-0.4735540">
    <ele>1643.1</ele>
    <time>2021-07-18T11:10:55Z</time>
   </trkpt>
   <trkpt lat="42.7555250" lon="-0.4733110">
    <ele>1639.2</ele>
    <time>2021-07-18T11:11:10Z</time>
   </trkpt>
   <trkpt lat="42.7556190" lon="-0.4731570">
    <ele>1635.3</ele>
    <time>2021-07-18T11:11:27Z</time>
   </trkpt>
   <trkpt lat="42.7556300" lon="-0.4731660">
    <ele>1635.0</ele>
    <time>2021-07-18T11:11:28Z</time>
   </trkpt>
   <trkpt lat="42.7556860" lon="-0.4732080">
    <ele>1633.3</ele>
    <time>2021-07-18T11:11:33Z</time>
   </trkpt>
   <trkpt lat="42.7556950" lon="-0.4732150">
    <ele>1633.1</ele>
    <time>2021-07-18T11:11:34Z</time>
   </trkpt>
   <trkpt lat="42.7557040" lon="-0.4732180">
    <ele>1632.8</ele>
    <time>2021-07-18T11:11:35Z</time>
   </trkpt>
   <trkpt lat="42.7557350" lon="-0.4732650">
    <ele>1631.7</ele>
    <time>2021-07-18T11:11:40Z</time>
   </trkpt>
   <trkpt lat="42.7557530" lon="-0.4732790">
    <ele>1631.3</ele>
    <time>2021-07-18T11:11:42Z</time>
   </trkpt>
   <trkpt lat="42.7557810" lon="-0.4733040">
    <ele>1630.6</ele>
    <time>2021-07-18T11:11:45Z</time>
   </trkpt>
   <trkpt lat="42.7557890" lon="-0.4733070">
    <ele>1630.5</ele>
    <time>2021-07-18T11:11:46Z</time>
   </trkpt>
   <trkpt lat="42.7557960" lon="-0.4733010">
    <ele>1630.4</ele>
    <time>2021-07-18T11:11:47Z</time>
   </trkpt>
   <trkpt lat="42.7558170" lon="-0.4732860">
    <ele>1630.0</ele>
    <time>2021-07-18T11:11:49Z</time>
   </trkpt>
   <trkpt lat="42.7558560" lon="-0.4732750">
    <ele>1629.5</ele>
    <time>2021-07-18T11:11:52Z</time>
   </trkpt>
   <trkpt lat="42.7559060" lon="-0.4732780">
    <ele>1629.1</ele>
    <time>2021-07-18T11:11:57Z</time>
   </trkpt>
   <trkpt lat="42.7559220" lon="-0.4732710">
    <ele>1629.0</ele>
    <time>2021-07-18T11:11:59Z</time>
   </trkpt>
   <trkpt lat="42.7559360" lon="-0.4732710">
    <ele>1628.9</ele>
    <time>2021-07-18T11:12:00Z</time>
   </trkpt>
   <trkpt lat="42.7559450" lon="-0.4732700">
    <ele>1628.8</ele>
    <time>2021-07-18T11:12:02Z</time>
   </trkpt>
   <trkpt lat="42.7560020" lon="-0.4732640">
    <ele>1628.5</ele>
    <time>2021-07-18T11:12:09Z</time>
   </trkpt>
   <trkpt lat="42.7560370" lon="-0.4733000">
    <ele>1628.4</ele>
    <time>2021-07-18T11:12:13Z</time>
   </trkpt>
   <trkpt lat="42.7561110" lon="-0.4733860">
    <ele>1628.1</ele>
    <time>2021-07-18T11:12:21Z</time>
   </trkpt>
   <trkpt lat="42.7561760" lon="-0.4734560">
    <ele>1623.0</ele>
    <time>2021-07-18T11:12:28Z</time>
   </trkpt>
   <trkpt lat="42.7563060" lon="-0.4736440">
    <ele>1622.5</ele>
    <time>2021-07-18T11:12:41Z</time>
   </trkpt>
   <trkpt lat="42.7563140" lon="-0.4737500">
    <ele>1622.4</ele>
    <time>2021-07-18T11:12:46Z</time>
   </trkpt>
   <trkpt lat="42.7563220" lon="-0.4739020">
    <ele>1622.0</ele>
    <time>2021-07-18T11:12:54Z</time>
   </trkpt>
   <trkpt lat="42.7563230" lon="-0.4739200">
    <ele>1622.0</ele>
    <time>2021-07-18T11:12:55Z</time>
   </trkpt>
   <trkpt lat="42.7563180" lon="-0.4740030">
    <ele>1621.8</ele>
    <time>2021-07-18T11:14:31Z</time>
   </trkpt>
   <trkpt lat="42.7563120" lon="-0.4740150">
    <ele>1621.8</ele>
    <time>2021-07-18T11:14:32Z</time>
   </trkpt>
   <trkpt lat="42.7563350" lon="-0.4741010">
    <ele>1621.6</ele>
    <time>2021-07-18T11:14:40Z</time>
   </trkpt>
   <trkpt lat="42.7563410" lon="-0.4741160">
    <ele>1621.5</ele>
    <time>2021-07-18T11:14:41Z</time>
   </trkpt>
   <trkpt lat="42.7563450" lon="-0.4741310">
    <ele>1621.5</ele>
    <time>2021-07-18T11:14:42Z</time>
   </trkpt>
   <trkpt lat="42.7563570" lon="-0.4741660">
    <ele>1621.4</ele>
    <time>2021-07-18T11:14:44Z</time>
   </trkpt>
   <trkpt lat="42.7563880" lon="-0.4742540">
    <ele>1621.0</ele>
    <time>2021-07-18T11:14:50Z</time>
   </trkpt>
   <trkpt lat="42.7563870" lon="-0.4742680">
    <ele>1620.9</ele>
    <time>2021-07-18T11:14:51Z</time>
   </trkpt>
   <trkpt lat="42.7563880" lon="-0.4743180">
    <ele>1620.7</ele>
    <time>2021-07-18T11:14:55Z</time>
   </trkpt>
   <trkpt lat="42.7563930" lon="-0.4743670">
    <ele>1620.3</ele>
    <time>2021-07-18T11:14:58Z</time>
   </trkpt>
   <trkpt lat="42.7563990" lon="-0.4744030">
    <ele>1620.1</ele>
    <time>2021-07-18T11:15:00Z</time>
   </trkpt>
   <trkpt lat="42.7564020" lon="-0.4744380">
    <ele>1619.8</ele>
    <time>2021-07-18T11:15:01Z</time>
   </trkpt>
   <trkpt lat="42.7564020" lon="-0.4744380">
    <ele>1619.8</ele>
    <time>2021-07-18T11:15:02Z</time>
   </trkpt>
   <trkpt lat="42.7564020" lon="-0.4744850">
    <ele>1619.4</ele>
    <time>2021-07-18T11:15:05Z</time>
   </trkpt>
   <trkpt lat="42.7564080" lon="-0.4745990">
    <ele>1618.5</ele>
    <time>2021-07-18T11:15:13Z</time>
   </trkpt>
   <trkpt lat="42.7564050" lon="-0.4746130">
    <ele>1618.4</ele>
    <time>2021-07-18T11:15:14Z</time>
   </trkpt>
   <trkpt lat="42.7564040" lon="-0.4746420">
    <ele>1618.1</ele>
    <time>2021-07-18T11:15:16Z</time>
   </trkpt>
   <trkpt lat="42.7564120" lon="-0.4746900">
    <ele>1617.7</ele>
    <time>2021-07-18T11:15:19Z</time>
   </trkpt>
   <trkpt lat="42.7565020" lon="-0.4748430">
    <ele>1615.8</ele>
    <time>2021-07-18T11:15:28Z</time>
   </trkpt>
   <trkpt lat="42.7565540" lon="-0.4750810">
    <ele>1611.9</ele>
    <time>2021-07-18T11:15:41Z</time>
   </trkpt>
   <trkpt lat="42.7565970" lon="-0.4753100">
    <ele>1608.2</ele>
    <time>2021-07-18T11:15:58Z</time>
   </trkpt>
   <trkpt lat="42.7565610" lon="-0.4755450">
    <ele>1605.8</ele>
    <time>2021-07-18T11:16:14Z</time>
   </trkpt>
   <trkpt lat="42.7565380" lon="-0.4756040">
    <ele>1605.3</ele>
    <time>2021-07-18T11:16:19Z</time>
   </trkpt>
   <trkpt lat="42.7565050" lon="-0.4757900">
    <ele>1604.0</ele>
    <time>2021-07-18T11:16:28Z</time>
   </trkpt>
   <trkpt lat="42.7565060" lon="-0.4758070">
    <ele>1603.8</ele>
    <time>2021-07-18T11:16:29Z</time>
   </trkpt>
   <trkpt lat="42.7565060" lon="-0.4758240">
    <ele>1603.7</ele>
    <time>2021-07-18T11:16:30Z</time>
   </trkpt>
   <trkpt lat="42.7565050" lon="-0.4758360">
    <ele>1603.6</ele>
    <time>2021-07-18T11:16:31Z</time>
   </trkpt>
   <trkpt lat="42.7565000" lon="-0.4758490">
    <ele>1603.4</ele>
    <time>2021-07-18T11:16:33Z</time>
   </trkpt>
   <trkpt lat="42.7564890" lon="-0.4760690">
    <ele>1600.2</ele>
    <time>2021-07-18T11:16:53Z</time>
   </trkpt>
   <trkpt lat="42.7564780" lon="-0.4763200">
    <ele>1595.5</ele>
    <time>2021-07-18T11:17:08Z</time>
   </trkpt>
   <trkpt lat="42.7564650" lon="-0.4763550">
    <ele>1595.0</ele>
    <time>2021-07-18T11:17:12Z</time>
   </trkpt>
   <trkpt lat="42.7564640" lon="-0.4763950">
    <ele>1594.5</ele>
    <time>2021-07-18T11:17:15Z</time>
   </trkpt>
   <trkpt lat="42.7564300" lon="-0.4764650">
    <ele>1593.8</ele>
    <time>2021-07-18T11:17:24Z</time>
   </trkpt>
   <trkpt lat="42.7564310" lon="-0.4765070">
    <ele>1593.6</ele>
    <time>2021-07-18T11:17:44Z</time>
   </trkpt>
   <trkpt lat="42.7564030" lon="-0.4766080">
    <ele>1593.3</ele>
    <time>2021-07-18T11:18:07Z</time>
   </trkpt>
   <trkpt lat="42.7563840" lon="-0.4766360">
    <ele>1593.3</ele>
    <time>2021-07-18T11:18:09Z</time>
   </trkpt>
   <trkpt lat="42.7563660" lon="-0.4766520">
    <ele>1593.2</ele>
    <time>2021-07-18T11:18:11Z</time>
   </trkpt>
   <trkpt lat="42.7563570" lon="-0.4766580">
    <ele>1593.2</ele>
    <time>2021-07-18T11:18:12Z</time>
   </trkpt>
   <trkpt lat="42.7563420" lon="-0.4766790">
    <ele>1593.2</ele>
    <time>2021-07-18T11:18:15Z</time>
   </trkpt>
   <trkpt lat="42.7563310" lon="-0.4767190">
    <ele>1593.1</ele>
    <time>2021-07-18T11:18:19Z</time>
   </trkpt>
   <trkpt lat="42.7563290" lon="-0.4767340">
    <ele>1593.1</ele>
    <time>2021-07-18T11:18:20Z</time>
   </trkpt>
   <trkpt lat="42.7563600" lon="-0.4767800">
    <ele>1593.0</ele>
    <time>2021-07-18T11:18:25Z</time>
   </trkpt>
   <trkpt lat="42.7563770" lon="-0.4768030">
    <ele>1593.0</ele>
    <time>2021-07-18T11:18:27Z</time>
   </trkpt>
   <trkpt lat="42.7563860" lon="-0.4768170">
    <ele>1593.0</ele>
    <time>2021-07-18T11:18:28Z</time>
   </trkpt>
   <trkpt lat="42.7564660" lon="-0.4770380">
    <ele>1592.4</ele>
    <time>2021-07-18T11:18:43Z</time>
   </trkpt>
   <trkpt lat="42.7564770" lon="-0.4770670">
    <ele>1592.3</ele>
    <time>2021-07-18T11:18:45Z</time>
   </trkpt>
   <trkpt lat="42.7565010" lon="-0.4771270">
    <ele>1592.0</ele>
    <time>2021-07-18T11:18:49Z</time>
   </trkpt>
   <trkpt lat="42.7566050" lon="-0.4772300">
    <ele>1591.3</ele>
    <time>2021-07-18T11:19:00Z</time>
   </trkpt>
   <trkpt lat="42.7566170" lon="-0.4772320">
    <ele>1591.3</ele>
    <time>2021-07-18T11:19:02Z</time>
   </trkpt>
   <trkpt lat="42.7566950" lon="-0.4772900">
    <ele>1590.6</ele>
    <time>2021-07-18T11:19:09Z</time>
   </trkpt>
   <trkpt lat="42.7567550" lon="-0.4773580">
    <ele>1590.0</ele>
    <time>2021-07-18T11:19:14Z</time>
   </trkpt>
   <trkpt lat="42.7568550" lon="-0.4774730">
    <ele>1588.7</ele>
    <time>2021-07-18T11:19:23Z</time>
   </trkpt>
   <trkpt lat="42.7569290" lon="-0.4775550">
    <ele>1587.8</ele>
    <time>2021-07-18T11:19:30Z</time>
   </trkpt>
   <trkpt lat="42.7570180" lon="-0.4777540">
    <ele>1585.6</ele>
    <time>2021-07-18T11:19:42Z</time>
   </trkpt>
   <trkpt lat="42.7570190" lon="-0.4777760">
    <ele>1585.4</ele>
    <time>2021-07-18T11:19:43Z</time>
   </trkpt>
   <trkpt lat="42.7570180" lon="-0.4778170">
    <ele>1585.0</ele>
    <time>2021-07-18T11:19:45Z</time>
   </trkpt>
   <trkpt lat="42.7570200" lon="-0.4778370">
    <ele>1584.8</ele>
    <time>2021-07-18T11:19:46Z</time>
   </trkpt>
   <trkpt lat="42.7570260" lon="-0.4779610">
    <ele>1583.6</ele>
    <time>2021-07-18T11:19:52Z</time>
   </trkpt>
   <trkpt lat="42.7570520" lon="-0.4780820">
    <ele>1582.6</ele>
    <time>2021-07-18T11:19:59Z</time>
   </trkpt>
   <trkpt lat="42.7570680" lon="-0.4781370">
    <ele>1582.1</ele>
    <time>2021-07-18T11:20:02Z</time>
   </trkpt>
   <trkpt lat="42.7570870" lon="-0.4782320">
    <ele>1581.4</ele>
    <time>2021-07-18T11:20:06Z</time>
   </trkpt>
   <trkpt lat="42.7571860" lon="-0.4784680">
    <ele>1579.1</ele>
    <time>2021-07-18T11:20:15Z</time>
   </trkpt>
   <trkpt lat="42.7572090" lon="-0.4785210">
    <ele>1578.4</ele>
    <time>2021-07-18T11:20:17Z</time>
   </trkpt>
   <trkpt lat="42.7572080" lon="-0.4785540">
    <ele>1578.1</ele>
    <time>2021-07-18T11:20:18Z</time>
   </trkpt>
   <trkpt lat="42.7572270" lon="-0.4786460">
    <ele>1577.0</ele>
    <time>2021-07-18T11:20:21Z</time>
   </trkpt>
   <trkpt lat="42.7572380" lon="-0.4786790">
    <ele>1576.6</ele>
    <time>2021-07-18T11:20:22Z</time>
   </trkpt>
   <trkpt lat="42.7572570" lon="-0.4787780">
    <ele>1575.4</ele>
    <time>2021-07-18T11:20:25Z</time>
   </trkpt>
   <trkpt lat="42.7572690" lon="-0.4788090">
    <ele>1575.0</ele>
    <time>2021-07-18T11:20:26Z</time>
   </trkpt>
   <trkpt lat="42.7572780" lon="-0.4788410">
    <ele>1574.6</ele>
    <time>2021-07-18T11:20:27Z</time>
   </trkpt>
   <trkpt lat="42.7572850" lon="-0.4789050">
    <ele>1573.9</ele>
    <time>2021-07-18T11:20:29Z</time>
   </trkpt>
   <trkpt lat="42.7572910" lon="-0.4789370">
    <ele>1573.5</ele>
    <time>2021-07-18T11:20:30Z</time>
   </trkpt>
   <trkpt lat="42.7572930" lon="-0.4790400">
    <ele>1572.3</ele>
    <time>2021-07-18T11:20:34Z</time>
   </trkpt>
   <trkpt lat="42.7572960" lon="-0.4790920">
    <ele>1571.8</ele>
    <time>2021-07-18T11:20:36Z</time>
   </trkpt>
   <trkpt lat="42.7573020" lon="-0.4791200">
    <ele>1571.6</ele>
    <time>2021-07-18T11:20:37Z</time>
   </trkpt>
   <trkpt lat="42.7573420" lon="-0.4793010">
    <ele>1570.1</ele>
    <time>2021-07-18T11:20:43Z</time>
   </trkpt>
   <trkpt lat="42.7573580" lon="-0.4793700">
    <ele>1569.5</ele>
    <time>2021-07-18T11:20:46Z</time>
   </trkpt>
   <trkpt lat="42.7573990" lon="-0.4793900">
    <ele>1569.1</ele>
    <time>2021-07-18T11:20:48Z</time>
   </trkpt>
   <trkpt lat="42.7574850" lon="-0.4795350">
    <ele>1567.6</ele>
    <time>2021-07-18T11:20:55Z</time>
   </trkpt>
   <trkpt lat="42.7574910" lon="-0.4795670">
    <ele>1567.3</ele>
    <time>2021-07-18T11:20:57Z</time>
   </trkpt>
   <trkpt lat="42.7575020" lon="-0.4796130">
    <ele>1566.9</ele>
    <time>2021-07-18T11:20:58Z</time>
   </trkpt>
   <trkpt lat="42.7575020" lon="-0.4796130">
    <ele>1566.9</ele>
    <time>2021-07-18T11:20:59Z</time>
   </trkpt>
   <trkpt lat="42.7575460" lon="-0.4796860">
    <ele>1566.1</ele>
    <time>2021-07-18T11:21:02Z</time>
   </trkpt>
   <trkpt lat="42.7575750" lon="-0.4797820">
    <ele>1565.2</ele>
    <time>2021-07-18T11:21:06Z</time>
   </trkpt>
   <trkpt lat="42.7575740" lon="-0.4798070">
    <ele>1565.0</ele>
    <time>2021-07-18T11:21:07Z</time>
   </trkpt>
   <trkpt lat="42.7575460" lon="-0.4799190">
    <ele>1563.9</ele>
    <time>2021-07-18T11:21:12Z</time>
   </trkpt>
   <trkpt lat="42.7575510" lon="-0.4799550">
    <ele>1563.6</ele>
    <time>2021-07-18T11:21:14Z</time>
   </trkpt>
   <trkpt lat="42.7575690" lon="-0.4800350">
    <ele>1562.9</ele>
    <time>2021-07-18T11:21:23Z</time>
   </trkpt>
   <trkpt lat="42.7576010" lon="-0.4801700">
    <ele>1561.6</ele>
    <time>2021-07-18T11:21:33Z</time>
   </trkpt>
   <trkpt lat="42.7576030" lon="-0.4802620">
    <ele>1560.9</ele>
    <time>2021-07-18T11:21:39Z</time>
   </trkpt>
   <trkpt lat="42.7576450" lon="-0.4803050">
    <ele>1560.3</ele>
    <time>2021-07-18T11:21:45Z</time>
   </trkpt>
   <trkpt lat="42.7576490" lon="-0.4803120">
    <ele>1560.2</ele>
    <time>2021-07-18T11:21:46Z</time>
   </trkpt>
   <trkpt lat="42.7576790" lon="-0.4803700">
    <ele>1559.5</ele>
    <time>2021-07-18T11:21:51Z</time>
   </trkpt>
   <trkpt lat="42.7576910" lon="-0.4804430">
    <ele>1558.7</ele>
    <time>2021-07-18T11:21:57Z</time>
   </trkpt>
   <trkpt lat="42.7576980" lon="-0.4804660">
    <ele>1558.4</ele>
    <time>2021-07-18T11:21:59Z</time>
   </trkpt>
   <trkpt lat="42.7577020" lon="-0.4804750">
    <ele>1558.3</ele>
    <time>2021-07-18T11:22:00Z</time>
   </trkpt>
   <trkpt lat="42.7577070" lon="-0.4804920">
    <ele>1558.1</ele>
    <time>2021-07-18T11:22:02Z</time>
   </trkpt>
   <trkpt lat="42.7577100" lon="-0.4804990">
    <ele>1558.0</ele>
    <time>2021-07-18T11:22:03Z</time>
   </trkpt>
   <trkpt lat="42.7577240" lon="-0.4805090">
    <ele>1557.8</ele>
    <time>2021-07-18T11:22:04Z</time>
   </trkpt>
   <trkpt lat="42.7577410" lon="-0.4805310">
    <ele>1557.4</ele>
    <time>2021-07-18T11:22:05Z</time>
   </trkpt>
   <trkpt lat="42.7577370" lon="-0.4806490">
    <ele>1556.0</ele>
    <time>2021-07-18T11:22:14Z</time>
   </trkpt>
   <trkpt lat="42.7577440" lon="-0.4806910">
    <ele>1555.4</ele>
    <time>2021-07-18T11:22:16Z</time>
   </trkpt>
   <trkpt lat="42.7577650" lon="-0.4807760">
    <ele>1554.2</ele>
    <time>2021-07-18T11:22:19Z</time>
   </trkpt>
   <trkpt lat="42.7577950" lon="-0.4808860">
    <ele>1552.5</ele>
    <time>2021-07-18T11:22:23Z</time>
   </trkpt>
   <trkpt lat="42.7578410" lon="-0.4809880">
    <ele>1550.4</ele>
    <time>2021-07-18T11:22:27Z</time>
   </trkpt>
   <trkpt lat="42.7578760" lon="-0.4810450">
    <ele>1549.1</ele>
    <time>2021-07-18T11:22:30Z</time>
   </trkpt>
   <trkpt lat="42.7579290" lon="-0.4811970">
    <ele>1546.1</ele>
    <time>2021-07-18T11:22:37Z</time>
   </trkpt>
   <trkpt lat="42.7579580" lon="-0.4812660">
    <ele>1544.8</ele>
    <time>2021-07-18T11:22:40Z</time>
   </trkpt>
   <trkpt lat="42.7579850" lon="-0.4813150">
    <ele>1543.9</ele>
    <time>2021-07-18T11:22:42Z</time>
   </trkpt>
   <trkpt lat="42.7579900" lon="-0.4813450">
    <ele>1543.5</ele>
    <time>2021-07-18T11:22:43Z</time>
   </trkpt>
   <trkpt lat="42.7580040" lon="-0.4814030">
    <ele>1542.7</ele>
    <time>2021-07-18T11:22:44Z</time>
   </trkpt>
   <trkpt lat="42.7580040" lon="-0.4814030">
    <ele>1542.7</ele>
    <time>2021-07-18T11:22:45Z</time>
   </trkpt>
   <trkpt lat="42.7580290" lon="-0.4814940">
    <ele>1541.6</ele>
    <time>2021-07-18T11:22:48Z</time>
   </trkpt>
   <trkpt lat="42.7580360" lon="-0.4815910">
    <ele>1540.7</ele>
    <time>2021-07-18T11:22:51Z</time>
   </trkpt>
   <trkpt lat="42.7580580" lon="-0.4816600">
    <ele>1540.0</ele>
    <time>2021-07-18T11:22:53Z</time>
   </trkpt>
   <trkpt lat="42.7580890" lon="-0.4818410">
    <ele>1538.2</ele>
    <time>2021-07-18T11:22:58Z</time>
   </trkpt>
   <trkpt lat="42.7581090" lon="-0.4819190">
    <ele>1537.4</ele>
    <time>2021-07-18T11:23:00Z</time>
   </trkpt>
   <trkpt lat="42.7581250" lon="-0.4819590">
    <ele>1536.9</ele>
    <time>2021-07-18T11:23:01Z</time>
   </trkpt>
   <trkpt lat="42.7581420" lon="-0.4819950">
    <ele>1536.5</ele>
    <time>2021-07-18T11:23:02Z</time>
   </trkpt>
   <trkpt lat="42.7581510" lon="-0.4820270">
    <ele>1536.2</ele>
    <time>2021-07-18T11:23:03Z</time>
   </trkpt>
   <trkpt lat="42.7581710" lon="-0.4820900">
    <ele>1535.5</ele>
    <time>2021-07-18T11:23:04Z</time>
   </trkpt>
   <trkpt lat="42.7581940" lon="-0.4821540">
    <ele>1534.8</ele>
    <time>2021-07-18T11:23:06Z</time>
   </trkpt>
   <trkpt lat="42.7582070" lon="-0.4821880">
    <ele>1534.4</ele>
    <time>2021-07-18T11:23:07Z</time>
   </trkpt>
   <trkpt lat="42.7582180" lon="-0.4822240">
    <ele>1534.1</ele>
    <time>2021-07-18T11:23:09Z</time>
   </trkpt>
   <trkpt lat="42.7582660" lon="-0.4824370">
    <ele>1531.9</ele>
    <time>2021-07-18T11:23:15Z</time>
   </trkpt>
   <trkpt lat="42.7583160" lon="-0.4826720">
    <ele>1529.6</ele>
    <time>2021-07-18T11:23:22Z</time>
   </trkpt>
   <trkpt lat="42.7583950" lon="-0.4828920">
    <ele>1527.5</ele>
    <time>2021-07-18T11:23:29Z</time>
   </trkpt>
   <trkpt lat="42.7584340" lon="-0.4829970">
    <ele>1526.6</ele>
    <time>2021-07-18T11:23:32Z</time>
   </trkpt>
   <trkpt lat="42.7584770" lon="-0.4831030">
    <ele>1525.8</ele>
    <time>2021-07-18T11:23:35Z</time>
   </trkpt>
   <trkpt lat="42.7585520" lon="-0.4832650">
    <ele>1524.7</ele>
    <time>2021-07-18T11:23:40Z</time>
   </trkpt>
   <trkpt lat="42.7586230" lon="-0.4834930">
    <ele>1523.5</ele>
    <time>2021-07-18T11:23:47Z</time>
   </trkpt>
   <trkpt lat="42.7586710" lon="-0.4837410">
    <ele>1522.2</ele>
    <time>2021-07-18T11:23:54Z</time>
   </trkpt>
   <trkpt lat="42.7586850" lon="-0.4839300">
    <ele>1521.6</ele>
    <time>2021-07-18T11:24:00Z</time>
   </trkpt>
   <trkpt lat="42.7587460" lon="-0.4841590">
    <ele>1521.3</ele>
    <time>2021-07-18T11:24:07Z</time>
   </trkpt>
   <trkpt lat="42.7588040" lon="-0.4843870">
    <ele>1521.9</ele>
    <time>2021-07-18T11:24:19Z</time>
   </trkpt>
   <trkpt lat="42.7588240" lon="-0.4844240">
    <ele>1522.1</ele>
    <time>2021-07-18T11:24:22Z</time>
   </trkpt>
   <trkpt lat="42.7589240" lon="-0.4845500">
    <ele>1522.9</ele>
    <time>2021-07-18T11:24:32Z</time>
   </trkpt>
   <trkpt lat="42.7589430" lon="-0.4846090">
    <ele>1523.1</ele>
    <time>2021-07-18T11:24:36Z</time>
   </trkpt>
   <trkpt lat="42.7589490" lon="-0.4846210">
    <ele>1523.2</ele>
    <time>2021-07-18T11:24:37Z</time>
   </trkpt>
   <trkpt lat="42.7589610" lon="-0.4846470">
    <ele>1523.3</ele>
    <time>2021-07-18T11:24:39Z</time>
   </trkpt>
   <trkpt lat="42.7589670" lon="-0.4846630">
    <ele>1523.4</ele>
    <time>2021-07-18T11:24:40Z</time>
   </trkpt>
   <trkpt lat="42.7589690" lon="-0.4846790">
    <ele>1523.4</ele>
    <time>2021-07-18T11:24:41Z</time>
   </trkpt>
   <trkpt lat="42.7589720" lon="-0.4846910">
    <ele>1523.5</ele>
    <time>2021-07-18T11:24:42Z</time>
   </trkpt>
   <trkpt lat="42.7589840" lon="-0.4847170">
    <ele>1523.6</ele>
    <time>2021-07-18T11:24:43Z</time>
   </trkpt>
   <trkpt lat="42.7590220" lon="-0.4848480">
    <ele>1523.9</ele>
    <time>2021-07-18T11:24:53Z</time>
   </trkpt>
   <trkpt lat="42.7590400" lon="-0.4849120">
    <ele>1524.0</ele>
    <time>2021-07-18T11:24:57Z</time>
   </trkpt>
   <trkpt lat="42.7590460" lon="-0.4849650">
    <ele>1524.1</ele>
    <time>2021-07-18T11:25:00Z</time>
   </trkpt>
   <trkpt lat="42.7590510" lon="-0.4850170">
    <ele>1524.2</ele>
    <time>2021-07-18T11:25:03Z</time>
   </trkpt>
   <trkpt lat="42.7590570" lon="-0.4850530">
    <ele>1524.3</ele>
    <time>2021-07-18T11:25:05Z</time>
   </trkpt>
   <trkpt lat="42.7590560" lon="-0.4851060">
    <ele>1524.4</ele>
    <time>2021-07-18T11:25:08Z</time>
   </trkpt>
   <trkpt lat="42.7590570" lon="-0.4851410">
    <ele>1524.5</ele>
    <time>2021-07-18T11:25:10Z</time>
   </trkpt>
   <trkpt lat="42.7590610" lon="-0.4851970">
    <ele>1524.6</ele>
    <time>2021-07-18T11:25:13Z</time>
   </trkpt>
   <trkpt lat="42.7590620" lon="-0.4852220">
    <ele>1524.6</ele>
    <time>2021-07-18T11:25:15Z</time>
   </trkpt>
   <trkpt lat="42.7590710" lon="-0.4852310">
    <ele>1524.6</ele>
    <time>2021-07-18T11:25:16Z</time>
   </trkpt>
   <trkpt lat="42.7590840" lon="-0.4852470">
    <ele>1524.6</ele>
    <time>2021-07-18T11:25:18Z</time>
   </trkpt>
   <trkpt lat="42.7590960" lon="-0.4852570">
    <ele>1524.6</ele>
    <time>2021-07-18T11:25:19Z</time>
   </trkpt>
   <trkpt lat="42.7591080" lon="-0.4852670">
    <ele>1524.6</ele>
    <time>2021-07-18T11:25:20Z</time>
   </trkpt>
   <trkpt lat="42.7591200" lon="-0.4852810">
    <ele>1524.6</ele>
    <time>2021-07-18T11:25:21Z</time>
   </trkpt>
   <trkpt lat="42.7592160" lon="-0.4854860">
    <ele>1524.1</ele>
    <time>2021-07-18T11:25:33Z</time>
   </trkpt>
   <trkpt lat="42.7592730" lon="-0.4856710">
    <ele>1524.0</ele>
    <time>2021-07-18T11:25:43Z</time>
   </trkpt>
   <trkpt lat="42.7592930" lon="-0.4857020">
    <ele>1524.0</ele>
    <time>2021-07-18T11:25:45Z</time>
   </trkpt>
   <trkpt lat="42.7594160" lon="-0.4859050">
    <ele>1523.8</ele>
    <time>2021-07-18T11:25:58Z</time>
   </trkpt>
   <trkpt lat="42.7594760" lon="-0.4859860">
    <ele>1523.7</ele>
    <time>2021-07-18T11:26:04Z</time>
   </trkpt>
   <trkpt lat="42.7595040" lon="-0.4860360">
    <ele>1523.7</ele>
    <time>2021-07-18T11:26:07Z</time>
   </trkpt>
   <trkpt lat="42.7595090" lon="-0.4861600">
    <ele>1523.8</ele>
    <time>2021-07-18T11:26:13Z</time>
   </trkpt>
   <trkpt lat="42.7594690" lon="-0.4863090">
    <ele>1524.4</ele>
    <time>2021-07-18T11:26:21Z</time>
   </trkpt>
   <trkpt lat="42.7594960" lon="-0.4865550">
    <ele>1525.3</ele>
    <time>2021-07-18T11:26:34Z</time>
   </trkpt>
   <trkpt lat="42.7595270" lon="-0.4866470">
    <ele>1525.6</ele>
    <time>2021-07-18T11:26:39Z</time>
   </trkpt>
   <trkpt lat="42.7595290" lon="-0.4866680">
    <ele>1525.7</ele>
    <time>2021-07-18T11:26:40Z</time>
   </trkpt>
   <trkpt lat="42.7595320" lon="-0.4867040">
    <ele>1525.8</ele>
    <time>2021-07-18T11:26:42Z</time>
   </trkpt>
   <trkpt lat="42.7595450" lon="-0.4867310">
    <ele>1525.8</ele>
    <time>2021-07-18T11:26:44Z</time>
   </trkpt>
   <trkpt lat="42.7595420" lon="-0.4867590">
    <ele>1525.9</ele>
    <time>2021-07-18T11:26:46Z</time>
   </trkpt>
   <trkpt lat="42.7595400" lon="-0.4867730">
    <ele>1525.9</ele>
    <time>2021-07-18T11:26:47Z</time>
   </trkpt>
   <trkpt lat="42.7595370" lon="-0.4867860">
    <ele>1525.8</ele>
    <time>2021-07-18T11:26:48Z</time>
   </trkpt>
   <trkpt lat="42.7595430" lon="-0.4868260">
    <ele>1525.8</ele>
    <time>2021-07-18T11:26:51Z</time>
   </trkpt>
   <trkpt lat="42.7595580" lon="-0.4868520">
    <ele>1525.7</ele>
    <time>2021-07-18T11:26:53Z</time>
   </trkpt>
   <trkpt lat="42.7595850" lon="-0.4868710">
    <ele>1525.6</ele>
    <time>2021-07-18T11:26:56Z</time>
   </trkpt>
   <trkpt lat="42.7596490" lon="-0.4869100">
    <ele>1525.1</ele>
    <time>2021-07-18T11:27:02Z</time>
   </trkpt>
   <trkpt lat="42.7596750" lon="-0.4869370">
    <ele>1524.9</ele>
    <time>2021-07-18T11:27:04Z</time>
   </trkpt>
   <trkpt lat="42.7596870" lon="-0.4869530">
    <ele>1524.7</ele>
    <time>2021-07-18T11:27:05Z</time>
   </trkpt>
   <trkpt lat="42.7596950" lon="-0.4869640">
    <ele>1524.7</ele>
    <time>2021-07-18T11:27:06Z</time>
   </trkpt>
   <trkpt lat="42.7597230" lon="-0.4869960">
    <ele>1524.4</ele>
    <time>2021-07-18T11:27:08Z</time>
   </trkpt>
   <trkpt lat="42.7597630" lon="-0.4871000">
    <ele>1524.0</ele>
    <time>2021-07-18T11:27:12Z</time>
   </trkpt>
   <trkpt lat="42.7597730" lon="-0.4871340">
    <ele>1523.9</ele>
    <time>2021-07-18T11:27:13Z</time>
   </trkpt>
   <trkpt lat="42.7597810" lon="-0.4871650">
    <ele>1523.8</ele>
    <time>2021-07-18T11:27:14Z</time>
   </trkpt>
   <trkpt lat="42.7597940" lon="-0.4871910">
    <ele>1523.7</ele>
    <time>2021-07-18T11:27:15Z</time>
   </trkpt>
   <trkpt lat="42.7598250" lon="-0.4872270">
    <ele>1523.6</ele>
    <time>2021-07-18T11:27:17Z</time>
   </trkpt>
   <trkpt lat="42.7598660" lon="-0.4873100">
    <ele>1523.4</ele>
    <time>2021-07-18T11:27:21Z</time>
   </trkpt>
   <trkpt lat="42.7599740" lon="-0.4874480">
    <ele>1523.4</ele>
    <time>2021-07-18T11:27:28Z</time>
   </trkpt>
   <trkpt lat="42.7599910" lon="-0.4874750">
    <ele>1523.4</ele>
    <time>2021-07-18T11:27:29Z</time>
   </trkpt>
   <trkpt lat="42.7600120" lon="-0.4874960">
    <ele>1523.5</ele>
    <time>2021-07-18T11:27:30Z</time>
   </trkpt>
   <trkpt lat="42.7600300" lon="-0.4875180">
    <ele>1523.5</ele>
    <time>2021-07-18T11:27:31Z</time>
   </trkpt>
   <trkpt lat="42.7600450" lon="-0.4875370">
    <ele>1523.6</ele>
    <time>2021-07-18T11:27:32Z</time>
   </trkpt>
   <trkpt lat="42.7600750" lon="-0.4875830">
    <ele>1523.8</ele>
    <time>2021-07-18T11:27:35Z</time>
   </trkpt>
   <trkpt lat="42.7601000" lon="-0.4877030">
    <ele>1524.6</ele>
    <time>2021-07-18T11:27:42Z</time>
   </trkpt>
   <trkpt lat="42.7601060" lon="-0.4877850">
    <ele>1525.4</ele>
    <time>2021-07-18T11:27:49Z</time>
   </trkpt>
   <trkpt lat="42.7601180" lon="-0.4877980">
    <ele>1525.6</ele>
    <time>2021-07-18T11:27:50Z</time>
   </trkpt>
   <trkpt lat="42.7601290" lon="-0.4878090">
    <ele>1525.8</ele>
    <time>2021-07-18T11:27:51Z</time>
   </trkpt>
   <trkpt lat="42.7601790" lon="-0.4879050">
    <ele>1527.2</ele>
    <time>2021-07-18T11:27:59Z</time>
   </trkpt>
   <trkpt lat="42.7602090" lon="-0.4879630">
    <ele>1528.0</ele>
    <time>2021-07-18T11:28:02Z</time>
   </trkpt>
   <trkpt lat="42.7602160" lon="-0.4880510">
    <ele>1529.0</ele>
    <time>2021-07-18T11:28:08Z</time>
   </trkpt>
   <trkpt lat="42.7602350" lon="-0.4880990">
    <ele>1529.6</ele>
    <time>2021-07-18T11:28:11Z</time>
   </trkpt>
   <trkpt lat="42.7602720" lon="-0.4882620">
    <ele>1531.1</ele>
    <time>2021-07-18T11:28:22Z</time>
   </trkpt>
   <trkpt lat="42.7603030" lon="-0.4883370">
    <ele>1531.8</ele>
    <time>2021-07-18T11:28:26Z</time>
   </trkpt>
   <trkpt lat="42.7603040" lon="-0.4883560">
    <ele>1531.9</ele>
    <time>2021-07-18T11:28:27Z</time>
   </trkpt>
   <trkpt lat="42.7603060" lon="-0.4883750">
    <ele>1532.1</ele>
    <time>2021-07-18T11:28:28Z</time>
   </trkpt>
   <trkpt lat="42.7603110" lon="-0.4884030">
    <ele>1532.3</ele>
    <time>2021-07-18T11:28:30Z</time>
   </trkpt>
   <trkpt lat="42.7603230" lon="-0.4884150">
    <ele>1532.4</ele>
    <time>2021-07-18T11:28:31Z</time>
   </trkpt>
   <trkpt lat="42.7603320" lon="-0.4884420">
    <ele>1532.6</ele>
    <time>2021-07-18T11:28:32Z</time>
   </trkpt>
   <trkpt lat="42.7603320" lon="-0.4884420">
    <ele>1532.6</ele>
    <time>2021-07-18T11:28:33Z</time>
   </trkpt>
   <trkpt lat="42.7603340" lon="-0.4885520">
    <ele>1533.2</ele>
    <time>2021-07-18T11:28:39Z</time>
   </trkpt>
   <trkpt lat="42.7603330" lon="-0.4885730">
    <ele>1533.4</ele>
    <time>2021-07-18T11:28:40Z</time>
   </trkpt>
   <trkpt lat="42.7603310" lon="-0.4887440">
    <ele>1534.2</ele>
    <time>2021-07-18T11:28:49Z</time>
   </trkpt>
   <trkpt lat="42.7603340" lon="-0.4887860">
    <ele>1534.4</ele>
    <time>2021-07-18T11:28:51Z</time>
   </trkpt>
   <trkpt lat="42.7603840" lon="-0.4889280">
    <ele>1535.1</ele>
    <time>2021-07-18T11:29:00Z</time>
   </trkpt>
   <trkpt lat="42.7603840" lon="-0.4889490">
    <ele>1535.2</ele>
    <time>2021-07-18T11:29:02Z</time>
   </trkpt>
   <trkpt lat="42.7603870" lon="-0.4889820">
    <ele>1535.3</ele>
    <time>2021-07-18T11:29:04Z</time>
   </trkpt>
   <trkpt lat="42.7603830" lon="-0.4890090">
    <ele>1535.4</ele>
    <time>2021-07-18T11:29:06Z</time>
   </trkpt>
   <trkpt lat="42.7603610" lon="-0.4891210">
    <ele>1535.5</ele>
    <time>2021-07-18T11:29:13Z</time>
   </trkpt>
   <trkpt lat="42.7603760" lon="-0.4891910">
    <ele>1535.5</ele>
    <time>2021-07-18T11:29:18Z</time>
   </trkpt>
   <trkpt lat="42.7603630" lon="-0.4892420">
    <ele>1535.3</ele>
    <time>2021-07-18T11:29:22Z</time>
   </trkpt>
   <trkpt lat="42.7603470" lon="-0.4892810">
    <ele>1535.2</ele>
    <time>2021-07-18T11:29:26Z</time>
   </trkpt>
   <trkpt lat="42.7603540" lon="-0.4892970">
    <ele>1535.1</ele>
    <time>2021-07-18T11:29:27Z</time>
   </trkpt>
   <trkpt lat="42.7603250" lon="-0.4893570">
    <ele>1534.7</ele>
    <time>2021-07-18T11:29:33Z</time>
   </trkpt>
   <trkpt lat="42.7603270" lon="-0.4893610">
    <ele>1534.6</ele>
    <time>2021-07-18T11:29:34Z</time>
   </trkpt>
   <trkpt lat="42.7603210" lon="-0.4893920">
    <ele>1534.4</ele>
    <time>2021-07-18T11:29:38Z</time>
   </trkpt>
   <trkpt lat="42.7602970" lon="-0.4894570">
    <ele>1533.8</ele>
    <time>2021-07-18T11:29:46Z</time>
   </trkpt>
   <trkpt lat="42.7603010" lon="-0.4894780">
    <ele>1533.6</ele>
    <time>2021-07-18T11:29:48Z</time>
   </trkpt>
   <trkpt lat="42.7603020" lon="-0.4895300">
    <ele>1533.0</ele>
    <time>2021-07-18T11:29:53Z</time>
   </trkpt>
   <trkpt lat="42.7603330" lon="-0.4894950">
    <ele>1532.5</ele>
    <time>2021-07-18T11:29:58Z</time>
   </trkpt>
   <trkpt lat="42.7603810" lon="-0.4894830">
    <ele>1531.8</ele>
    <time>2021-07-18T11:30:02Z</time>
   </trkpt>
   <trkpt lat="42.7603810" lon="-0.4894830">
    <ele>1531.8</ele>
    <time>2021-07-18T11:30:06Z</time>
   </trkpt>
   <trkpt lat="42.7604280" lon="-0.4895090">
    <ele>1531.0</ele>
    <time>2021-07-18T11:30:09Z</time>
   </trkpt>
   <trkpt lat="42.7604400" lon="-0.4895300">
    <ele>1530.7</ele>
    <time>2021-07-18T11:30:12Z</time>
   </trkpt>
   <trkpt lat="42.7604500" lon="-0.4895900">
    <ele>1530.0</ele>
    <time>2021-07-18T11:30:18Z</time>
   </trkpt>
   <trkpt lat="42.7604310" lon="-0.4897120">
    <ele>1528.5</ele>
    <time>2021-07-18T11:30:30Z</time>
   </trkpt>
   <trkpt lat="42.7604400" lon="-0.4897760">
    <ele>1527.7</ele>
    <time>2021-07-18T11:30:37Z</time>
   </trkpt>
   <trkpt lat="42.7604370" lon="-0.4897860">
    <ele>1527.6</ele>
    <time>2021-07-18T11:30:38Z</time>
   </trkpt>
   <trkpt lat="42.7604270" lon="-0.4898020">
    <ele>1527.3</ele>
    <time>2021-07-18T11:30:40Z</time>
   </trkpt>
   <trkpt lat="42.7604260" lon="-0.4898140">
    <ele>1527.2</ele>
    <time>2021-07-18T11:30:41Z</time>
   </trkpt>
   <trkpt lat="42.7604250" lon="-0.4898270">
    <ele>1527.0</ele>
    <time>2021-07-18T11:30:42Z</time>
   </trkpt>
   <trkpt lat="42.7604260" lon="-0.4898390">
    <ele>1526.9</ele>
    <time>2021-07-18T11:30:43Z</time>
   </trkpt>
   <trkpt lat="42.7604260" lon="-0.4898740">
    <ele>1526.4</ele>
    <time>2021-07-18T11:30:46Z</time>
   </trkpt>
   <trkpt lat="42.7604170" lon="-0.4898790">
    <ele>1526.3</ele>
    <time>2021-07-18T11:30:48Z</time>
   </trkpt>
   <trkpt lat="42.7604090" lon="-0.4898870">
    <ele>1526.1</ele>
    <time>2021-07-18T11:30:49Z</time>
   </trkpt>
   <trkpt lat="42.7604020" lon="-0.4898960">
    <ele>1526.0</ele>
    <time>2021-07-18T11:30:50Z</time>
   </trkpt>
   <trkpt lat="42.7603990" lon="-0.4899120">
    <ele>1525.8</ele>
    <time>2021-07-18T11:30:52Z</time>
   </trkpt>
   <trkpt lat="42.7604060" lon="-0.4899230">
    <ele>1525.6</ele>
    <time>2021-07-18T11:30:53Z</time>
   </trkpt>
   <trkpt lat="42.7604200" lon="-0.4899790">
    <ele>1524.9</ele>
    <time>2021-07-18T11:30:57Z</time>
   </trkpt>
   <trkpt lat="42.7604240" lon="-0.4900060">
    <ele>1524.6</ele>
    <time>2021-07-18T11:30:59Z</time>
   </trkpt>
   <trkpt lat="42.7604360" lon="-0.4900380">
    <ele>1524.2</ele>
    <time>2021-07-18T11:31:02Z</time>
   </trkpt>
   <trkpt lat="42.7604370" lon="-0.4900530">
    <ele>1524.0</ele>
    <time>2021-07-18T11:31:04Z</time>
   </trkpt>
   <trkpt lat="42.7605790" lon="-0.4902090">
    <ele>1522.1</ele>
    <time>2021-07-18T11:31:19Z</time>
   </trkpt>
   <trkpt lat="42.7605910" lon="-0.4902690">
    <ele>1521.7</ele>
    <time>2021-07-18T11:31:23Z</time>
   </trkpt>
   <trkpt lat="42.7606100" lon="-0.4904370">
    <ele>1520.2</ele>
    <time>2021-07-18T11:31:34Z</time>
   </trkpt>
   <trkpt lat="42.7606330" lon="-0.4904530">
    <ele>1519.8</ele>
    <time>2021-07-18T11:31:37Z</time>
   </trkpt>
   <trkpt lat="42.7606500" lon="-0.4904540">
    <ele>1519.6</ele>
    <time>2021-07-18T11:31:40Z</time>
   </trkpt>
   <trkpt lat="42.7606570" lon="-0.4904470">
    <ele>1519.4</ele>
    <time>2021-07-18T11:31:42Z</time>
   </trkpt>
   <trkpt lat="42.7606710" lon="-0.4904550">
    <ele>1519.2</ele>
    <time>2021-07-18T11:31:46Z</time>
   </trkpt>
   <trkpt lat="42.7606720" lon="-0.4904750">
    <ele>1518.9</ele>
    <time>2021-07-18T11:31:49Z</time>
   </trkpt>
   <trkpt lat="42.7606730" lon="-0.4904910">
    <ele>1518.7</ele>
    <time>2021-07-18T11:31:51Z</time>
   </trkpt>
   <trkpt lat="42.7606680" lon="-0.4905070">
    <ele>1518.5</ele>
    <time>2021-07-18T11:31:53Z</time>
   </trkpt>
   <trkpt lat="42.7607390" lon="-0.4905980">
    <ele>1516.9</ele>
    <time>2021-07-18T11:32:27Z</time>
   </trkpt>
   <trkpt lat="42.7607410" lon="-0.4907690">
    <ele>1515.0</ele>
    <time>2021-07-18T11:32:38Z</time>
   </trkpt>
   <trkpt lat="42.7607530" lon="-0.4908020">
    <ele>1514.7</ele>
    <time>2021-07-18T11:32:43Z</time>
   </trkpt>
   <trkpt lat="42.7607640" lon="-0.4908290">
    <ele>1514.4</ele>
    <time>2021-07-18T11:32:45Z</time>
   </trkpt>
   <trkpt lat="42.7607720" lon="-0.4908450">
    <ele>1514.2</ele>
    <time>2021-07-18T11:32:47Z</time>
   </trkpt>
   <trkpt lat="42.7608110" lon="-0.4908790">
    <ele>1513.5</ele>
    <time>2021-07-18T11:32:52Z</time>
   </trkpt>
   <trkpt lat="42.7608320" lon="-0.4908680">
    <ele>1513.2</ele>
    <time>2021-07-18T11:32:56Z</time>
   </trkpt>
   <trkpt lat="42.7608400" lon="-0.4908660">
    <ele>1513.1</ele>
    <time>2021-07-18T11:32:58Z</time>
   </trkpt>
   <trkpt lat="42.7608440" lon="-0.4908450">
    <ele>1512.8</ele>
    <time>2021-07-18T11:33:02Z</time>
   </trkpt>
   <trkpt lat="42.7608760" lon="-0.4908630">
    <ele>1512.3</ele>
    <time>2021-07-18T11:33:06Z</time>
   </trkpt>
   <trkpt lat="42.7609230" lon="-0.4909110">
    <ele>1511.4</ele>
    <time>2021-07-18T11:33:11Z</time>
   </trkpt>
   <trkpt lat="42.7609750" lon="-0.4909270">
    <ele>1510.6</ele>
    <time>2021-07-18T11:33:15Z</time>
   </trkpt>
   <trkpt lat="42.7610080" lon="-0.4909100">
    <ele>1510.1</ele>
    <time>2021-07-18T11:33:18Z</time>
   </trkpt>
   <trkpt lat="42.7611450" lon="-0.4910490">
    <ele>1508.3</ele>
    <time>2021-07-18T11:33:34Z</time>
   </trkpt>
   <trkpt lat="42.7611670" lon="-0.4911200">
    <ele>1507.9</ele>
    <time>2021-07-18T11:33:39Z</time>
   </trkpt>
   <trkpt lat="42.7612700" lon="-0.4913150">
    <ele>1507.5</ele>
    <time>2021-07-18T11:33:53Z</time>
   </trkpt>
   <trkpt lat="42.7612730" lon="-0.4913520">
    <ele>1507.6</ele>
    <time>2021-07-18T11:33:56Z</time>
   </trkpt>
   <trkpt lat="42.7612760" lon="-0.4916070">
    <ele>1508.2</ele>
    <time>2021-07-18T11:34:14Z</time>
   </trkpt>
   <trkpt lat="42.7613000" lon="-0.4918570">
    <ele>1508.9</ele>
    <time>2021-07-18T11:34:30Z</time>
   </trkpt>
   <trkpt lat="42.7612800" lon="-0.4919860">
    <ele>1509.2</ele>
    <time>2021-07-18T11:34:39Z</time>
   </trkpt>
   <trkpt lat="42.7613210" lon="-0.4922140">
    <ele>1509.5</ele>
    <time>2021-07-18T11:34:53Z</time>
   </trkpt>
   <trkpt lat="42.7613320" lon="-0.4922390">
    <ele>1509.5</ele>
    <time>2021-07-18T11:34:55Z</time>
   </trkpt>
   <trkpt lat="42.7613540" lon="-0.4923420">
    <ele>1509.5</ele>
    <time>2021-07-18T11:35:03Z</time>
   </trkpt>
   <trkpt lat="42.7613070" lon="-0.4925830">
    <ele>1508.8</ele>
    <time>2021-07-18T11:35:20Z</time>
   </trkpt>
   <trkpt lat="42.7613110" lon="-0.4926120">
    <ele>1508.6</ele>
    <time>2021-07-18T11:35:23Z</time>
   </trkpt>
   <trkpt lat="42.7613260" lon="-0.4926540">
    <ele>1508.2</ele>
    <time>2021-07-18T11:35:27Z</time>
   </trkpt>
   <trkpt lat="42.7613380" lon="-0.4927190">
    <ele>1507.4</ele>
    <time>2021-07-18T11:35:33Z</time>
   </trkpt>
   <trkpt lat="42.7613370" lon="-0.4927510">
    <ele>1507.1</ele>
    <time>2021-07-18T11:35:36Z</time>
   </trkpt>
   <trkpt lat="42.7613510" lon="-0.4927780">
    <ele>1506.6</ele>
    <time>2021-07-18T11:35:39Z</time>
   </trkpt>
   <trkpt lat="42.7613530" lon="-0.4928080">
    <ele>1506.2</ele>
    <time>2021-07-18T11:35:41Z</time>
   </trkpt>
   <trkpt lat="42.7613650" lon="-0.4928280">
    <ele>1505.9</ele>
    <time>2021-07-18T11:35:43Z</time>
   </trkpt>
   <trkpt lat="42.7614010" lon="-0.4929480">
    <ele>1503.9</ele>
    <time>2021-07-18T11:35:52Z</time>
   </trkpt>
   <trkpt lat="42.7614080" lon="-0.4929750">
    <ele>1503.5</ele>
    <time>2021-07-18T11:35:56Z</time>
   </trkpt>
   <trkpt lat="42.7614120" lon="-0.4929760">
    <ele>1503.4</ele>
    <time>2021-07-18T11:35:58Z</time>
   </trkpt>
   <trkpt lat="42.7614390" lon="-0.4930920">
    <ele>1501.3</ele>
    <time>2021-07-18T11:36:09Z</time>
   </trkpt>
   <trkpt lat="42.7614380" lon="-0.4931060">
    <ele>1501.1</ele>
    <time>2021-07-18T11:36:10Z</time>
   </trkpt>
   <trkpt lat="42.7614430" lon="-0.4931260">
    <ele>1500.7</ele>
    <time>2021-07-18T11:36:11Z</time>
   </trkpt>
   <trkpt lat="42.7614420" lon="-0.4931590">
    <ele>1500.2</ele>
    <time>2021-07-18T11:36:13Z</time>
   </trkpt>
   <trkpt lat="42.7614420" lon="-0.4931760">
    <ele>1499.9</ele>
    <time>2021-07-18T11:36:14Z</time>
   </trkpt>
   <trkpt lat="42.7614400" lon="-0.4931940">
    <ele>1499.6</ele>
    <time>2021-07-18T11:36:15Z</time>
   </trkpt>
   <trkpt lat="42.7614310" lon="-0.4932430">
    <ele>1498.7</ele>
    <time>2021-07-18T11:36:18Z</time>
   </trkpt>
   <trkpt lat="42.7614340" lon="-0.4932590">
    <ele>1498.5</ele>
    <time>2021-07-18T11:36:21Z</time>
   </trkpt>
   <trkpt lat="42.7614480" lon="-0.4932690">
    <ele>1498.1</ele>
    <time>2021-07-18T11:36:23Z</time>
   </trkpt>
   <trkpt lat="42.7614560" lon="-0.4932800">
    <ele>1497.8</ele>
    <time>2021-07-18T11:36:24Z</time>
   </trkpt>
   <trkpt lat="42.7614640" lon="-0.4933220">
    <ele>1497.1</ele>
    <time>2021-07-18T11:36:27Z</time>
   </trkpt>
   <trkpt lat="42.7614760" lon="-0.4933510">
    <ele>1496.6</ele>
    <time>2021-07-18T11:36:30Z</time>
   </trkpt>
   <trkpt lat="42.7614870" lon="-0.4933850">
    <ele>1496.0</ele>
    <time>2021-07-18T11:36:34Z</time>
   </trkpt>
   <trkpt lat="42.7615000" lon="-0.4934230">
    <ele>1495.2</ele>
    <time>2021-07-18T11:36:37Z</time>
   </trkpt>
   <trkpt lat="42.7615060" lon="-0.4934590">
    <ele>1494.6</ele>
    <time>2021-07-18T11:36:39Z</time>
   </trkpt>
   <trkpt lat="42.7615810" lon="-0.4936960">
    <ele>1490.2</ele>
    <time>2021-07-18T11:36:51Z</time>
   </trkpt>
   <trkpt lat="42.7615880" lon="-0.4937360">
    <ele>1489.5</ele>
    <time>2021-07-18T11:36:54Z</time>
   </trkpt>
   <trkpt lat="42.7615910" lon="-0.4937590">
    <ele>1489.0</ele>
    <time>2021-07-18T11:36:56Z</time>
   </trkpt>
   <trkpt lat="42.7615950" lon="-0.4937730">
    <ele>1488.7</ele>
    <time>2021-07-18T11:36:57Z</time>
   </trkpt>
   <trkpt lat="42.7616030" lon="-0.4937880">
    <ele>1488.3</ele>
    <time>2021-07-18T11:36:58Z</time>
   </trkpt>
   <trkpt lat="42.7616280" lon="-0.4938200">
    <ele>1487.4</ele>
    <time>2021-07-18T11:37:01Z</time>
   </trkpt>
   <trkpt lat="42.7616410" lon="-0.4938270">
    <ele>1487.0</ele>
    <time>2021-07-18T11:37:02Z</time>
   </trkpt>
   <trkpt lat="42.7616560" lon="-0.4938290">
    <ele>1486.6</ele>
    <time>2021-07-18T11:37:03Z</time>
   </trkpt>
   <trkpt lat="42.7616720" lon="-0.4938360">
    <ele>1486.1</ele>
    <time>2021-07-18T11:37:05Z</time>
   </trkpt>
   <trkpt lat="42.7616810" lon="-0.4938470">
    <ele>1485.7</ele>
    <time>2021-07-18T11:37:07Z</time>
   </trkpt>
   <trkpt lat="42.7616930" lon="-0.4938630">
    <ele>1485.2</ele>
    <time>2021-07-18T11:37:10Z</time>
   </trkpt>
   <trkpt lat="42.7617030" lon="-0.4938680">
    <ele>1484.9</ele>
    <time>2021-07-18T11:37:12Z</time>
   </trkpt>
   <trkpt lat="42.7617200" lon="-0.4938970">
    <ele>1484.0</ele>
    <time>2021-07-18T11:37:15Z</time>
   </trkpt>
   <trkpt lat="42.7617240" lon="-0.4939240">
    <ele>1483.4</ele>
    <time>2021-07-18T11:37:16Z</time>
   </trkpt>
   <trkpt lat="42.7617310" lon="-0.4939520">
    <ele>1482.7</ele>
    <time>2021-07-18T11:37:19Z</time>
   </trkpt>
   <trkpt lat="42.7617370" lon="-0.4939620">
    <ele>1482.4</ele>
    <time>2021-07-18T11:37:20Z</time>
   </trkpt>
   <trkpt lat="42.7617530" lon="-0.4939800">
    <ele>1481.8</ele>
    <time>2021-07-18T11:37:22Z</time>
   </trkpt>
   <trkpt lat="42.7617610" lon="-0.4939910">
    <ele>1481.4</ele>
    <time>2021-07-18T11:37:23Z</time>
   </trkpt>
   <trkpt lat="42.7617840" lon="-0.4940160">
    <ele>1480.5</ele>
    <time>2021-07-18T11:37:26Z</time>
   </trkpt>
   <trkpt lat="42.7618000" lon="-0.4940330">
    <ele>1479.9</ele>
    <time>2021-07-18T11:37:28Z</time>
   </trkpt>
   <trkpt lat="42.7618090" lon="-0.4940420">
    <ele>1479.5</ele>
    <time>2021-07-18T11:37:30Z</time>
   </trkpt>
   <trkpt lat="42.7618100" lon="-0.4940450">
    <ele>1479.5</ele>
    <time>2021-07-18T11:37:31Z</time>
   </trkpt>
   <trkpt lat="42.7618170" lon="-0.4940450">
    <ele>1479.2</ele>
    <time>2021-07-18T11:37:32Z</time>
   </trkpt>
   <trkpt lat="42.7618300" lon="-0.4940450">
    <ele>1478.8</ele>
    <time>2021-07-18T11:37:33Z</time>
   </trkpt>
   <trkpt lat="42.7618370" lon="-0.4940200">
    <ele>1478.1</ele>
    <time>2021-07-18T11:37:35Z</time>
   </trkpt>
   <trkpt lat="42.7618350" lon="-0.4940020">
    <ele>1477.7</ele>
    <time>2021-07-18T11:37:36Z</time>
   </trkpt>
   <trkpt lat="42.7618370" lon="-0.4939860">
    <ele>1477.3</ele>
    <time>2021-07-18T11:37:37Z</time>
   </trkpt>
   <trkpt lat="42.7618410" lon="-0.4939760">
    <ele>1477.0</ele>
    <time>2021-07-18T11:37:38Z</time>
   </trkpt>
   <trkpt lat="42.7618560" lon="-0.4939750">
    <ele>1476.5</ele>
    <time>2021-07-18T11:37:39Z</time>
   </trkpt>
   <trkpt lat="42.7618560" lon="-0.4939750">
    <ele>1476.5</ele>
    <time>2021-07-18T11:37:40Z</time>
   </trkpt>
   <trkpt lat="42.7618650" lon="-0.4939910">
    <ele>1476.0</ele>
    <time>2021-07-18T11:37:42Z</time>
   </trkpt>
   <trkpt lat="42.7618730" lon="-0.4940000">
    <ele>1475.6</ele>
    <time>2021-07-18T11:37:43Z</time>
   </trkpt>
   <trkpt lat="42.7619060" lon="-0.4939810">
    <ele>1474.4</ele>
    <time>2021-07-18T11:37:46Z</time>
   </trkpt>
   <trkpt lat="42.7619220" lon="-0.4939530">
    <ele>1473.5</ele>
    <time>2021-07-18T11:37:48Z</time>
   </trkpt>
   <trkpt lat="42.7619230" lon="-0.4939400">
    <ele>1473.1</ele>
    <time>2021-07-18T11:37:49Z</time>
   </trkpt>
   <trkpt lat="42.7619290" lon="-0.4939210">
    <ele>1472.6</ele>
    <time>2021-07-18T11:37:50Z</time>
   </trkpt>
   <trkpt lat="42.7619290" lon="-0.4939210">
    <ele>1472.6</ele>
    <time>2021-07-18T11:37:51Z</time>
   </trkpt>
   <trkpt lat="42.7619550" lon="-0.4939140">
    <ele>1471.6</ele>
    <time>2021-07-18T11:37:54Z</time>
   </trkpt>
   <trkpt lat="42.7619740" lon="-0.4939330">
    <ele>1470.8</ele>
    <time>2021-07-18T11:37:56Z</time>
   </trkpt>
   <trkpt lat="42.7619960" lon="-0.4939670">
    <ele>1469.6</ele>
    <time>2021-07-18T11:37:59Z</time>
   </trkpt>
   <trkpt lat="42.7620270" lon="-0.4939980">
    <ele>1468.3</ele>
    <time>2021-07-18T11:38:03Z</time>
   </trkpt>
   <trkpt lat="42.7620610" lon="-0.4939640">
    <ele>1466.8</ele>
    <time>2021-07-18T11:38:06Z</time>
   </trkpt>
   <trkpt lat="42.7621080" lon="-0.4939320">
    <ele>1465.5</ele>
    <time>2021-07-18T11:38:11Z</time>
   </trkpt>
   <trkpt lat="42.7621760" lon="-0.4939230">
    <ele>1462.9</ele>
    <time>2021-07-18T11:38:15Z</time>
   </trkpt>
   <trkpt lat="42.7622410" lon="-0.4940030">
    <ele>1459.6</ele>
    <time>2021-07-18T11:38:21Z</time>
   </trkpt>
   <trkpt lat="42.7622630" lon="-0.4939790">
    <ele>1458.6</ele>
    <time>2021-07-18T11:38:23Z</time>
   </trkpt>
   <trkpt lat="42.7622980" lon="-0.4939260">
    <ele>1456.7</ele>
    <time>2021-07-18T11:38:27Z</time>
   </trkpt>
   <trkpt lat="42.7624250" lon="-0.4940940">
    <ele>1450.5</ele>
    <time>2021-07-18T11:38:38Z</time>
   </trkpt>
   <trkpt lat="42.7625980" lon="-0.4942180">
    <ele>1444.1</ele>
    <time>2021-07-18T11:38:49Z</time>
   </trkpt>
   <trkpt lat="42.7627630" lon="-0.4943590">
    <ele>1438.2</ele>
    <time>2021-07-18T11:38:59Z</time>
   </trkpt>
   <trkpt lat="42.7627830" lon="-0.4944030">
    <ele>1437.1</ele>
    <time>2021-07-18T11:39:01Z</time>
   </trkpt>
   <trkpt lat="42.7628050" lon="-0.4944490">
    <ele>1435.8</ele>
    <time>2021-07-18T11:39:03Z</time>
   </trkpt>
   <trkpt lat="42.7628030" lon="-0.4945320">
    <ele>1433.7</ele>
    <time>2021-07-18T11:39:06Z</time>
   </trkpt>
   <trkpt lat="42.7628360" lon="-0.4946000">
    <ele>1431.7</ele>
    <time>2021-07-18T11:39:13Z</time>
   </trkpt>
   <trkpt lat="42.7628600" lon="-0.4946090">
    <ele>1430.8</ele>
    <time>2021-07-18T11:39:17Z</time>
   </trkpt>
   <trkpt lat="42.7628710" lon="-0.4946060">
    <ele>1430.4</ele>
    <time>2021-07-18T11:39:20Z</time>
   </trkpt>
   <trkpt lat="42.7628750" lon="-0.4946010">
    <ele>1430.2</ele>
    <time>2021-07-18T11:39:22Z</time>
   </trkpt>
   <trkpt lat="42.7629130" lon="-0.4946230">
    <ele>1428.8</ele>
    <time>2021-07-18T11:39:33Z</time>
   </trkpt>
   <trkpt lat="42.7629860" lon="-0.4947410">
    <ele>1425.7</ele>
    <time>2021-07-18T11:39:39Z</time>
   </trkpt>
   <trkpt lat="42.7630300" lon="-0.4948070">
    <ele>1424.3</ele>
    <time>2021-07-18T11:39:42Z</time>
   </trkpt>
   <trkpt lat="42.7630220" lon="-0.4948420">
    <ele>1423.8</ele>
    <time>2021-07-18T11:39:44Z</time>
   </trkpt>
   <trkpt lat="42.7629850" lon="-0.4948900">
    <ele>1422.9</ele>
    <time>2021-07-18T11:39:51Z</time>
   </trkpt>
   <trkpt lat="42.7629740" lon="-0.4949130">
    <ele>1422.5</ele>
    <time>2021-07-18T11:39:55Z</time>
   </trkpt>
   <trkpt lat="42.7629700" lon="-0.4949200">
    <ele>1422.4</ele>
    <time>2021-07-18T11:39:56Z</time>
   </trkpt>
   <trkpt lat="42.7629620" lon="-0.4949680">
    <ele>1421.7</ele>
    <time>2021-07-18T11:40:02Z</time>
   </trkpt>
   <trkpt lat="42.7629710" lon="-0.4949900">
    <ele>1421.4</ele>
    <time>2021-07-18T11:40:05Z</time>
   </trkpt>
   <trkpt lat="42.7630670" lon="-0.4951710">
    <ele>1418.7</ele>
    <time>2021-07-18T11:40:26Z</time>
   </trkpt>
   <trkpt lat="42.7630810" lon="-0.4953830">
    <ele>1416.7</ele>
    <time>2021-07-18T11:40:41Z</time>
   </trkpt>
   <trkpt lat="42.7631130" lon="-0.4954330">
    <ele>1416.3</ele>
    <time>2021-07-18T11:40:44Z</time>
   </trkpt>
   <trkpt lat="42.7631270" lon="-0.4955010">
    <ele>1415.8</ele>
    <time>2021-07-18T11:40:48Z</time>
   </trkpt>
   <trkpt lat="42.7631060" lon="-0.4955720">
    <ele>1415.2</ele>
    <time>2021-07-18T11:40:52Z</time>
   </trkpt>
   <trkpt lat="42.7631080" lon="-0.4956430">
    <ele>1414.7</ele>
    <time>2021-07-18T11:40:57Z</time>
   </trkpt>
   <trkpt lat="42.7631040" lon="-0.4956840">
    <ele>1414.3</ele>
    <time>2021-07-18T11:41:01Z</time>
   </trkpt>
   <trkpt lat="42.7631070" lon="-0.4956940">
    <ele>1414.2</ele>
    <time>2021-07-18T11:41:02Z</time>
   </trkpt>
   <trkpt lat="42.7631120" lon="-0.4957090">
    <ele>1414.0</ele>
    <time>2021-07-18T11:41:04Z</time>
   </trkpt>
   <trkpt lat="42.7631130" lon="-0.4957130">
    <ele>1414.0</ele>
    <time>2021-07-18T11:41:05Z</time>
   </trkpt>
   <trkpt lat="42.7631140" lon="-0.4957160">
    <ele>1413.9</ele>
    <time>2021-07-18T11:41:06Z</time>
   </trkpt>
   <trkpt lat="42.7631230" lon="-0.4957170">
    <ele>1413.8</ele>
    <time>2021-07-18T11:41:07Z</time>
   </trkpt>
   <trkpt lat="42.7631230" lon="-0.4957170">
    <ele>1413.8</ele>
    <time>2021-07-18T11:41:08Z</time>
   </trkpt>
   <trkpt lat="42.7631480" lon="-0.4957280">
    <ele>1413.4</ele>
    <time>2021-07-18T11:41:10Z</time>
   </trkpt>
   <trkpt lat="42.7631530" lon="-0.4957440">
    <ele>1413.2</ele>
    <time>2021-07-18T11:41:13Z</time>
   </trkpt>
   <trkpt lat="42.7631560" lon="-0.4957470">
    <ele>1413.1</ele>
    <time>2021-07-18T11:41:14Z</time>
   </trkpt>
   <trkpt lat="42.7631430" lon="-0.4957530">
    <ele>1412.9</ele>
    <time>2021-07-18T11:41:16Z</time>
   </trkpt>
   <trkpt lat="42.7631510" lon="-0.4958040">
    <ele>1412.3</ele>
    <time>2021-07-18T11:41:20Z</time>
   </trkpt>
   <trkpt lat="42.7631660" lon="-0.4958770">
    <ele>1411.3</ele>
    <time>2021-07-18T11:41:24Z</time>
   </trkpt>
   <trkpt lat="42.7631640" lon="-0.4959530">
    <ele>1410.4</ele>
    <time>2021-07-18T11:41:31Z</time>
   </trkpt>
   <trkpt lat="42.7631730" lon="-0.4959640">
    <ele>1410.2</ele>
    <time>2021-07-18T11:41:33Z</time>
   </trkpt>
   <trkpt lat="42.7631740" lon="-0.4959740">
    <ele>1410.1</ele>
    <time>2021-07-18T11:41:34Z</time>
   </trkpt>
   <trkpt lat="42.7632010" lon="-0.4961330">
    <ele>1408.5</ele>
    <time>2021-07-18T11:41:44Z</time>
   </trkpt>
   <trkpt lat="42.7631910" lon="-0.4961790">
    <ele>1408.1</ele>
    <time>2021-07-18T11:41:47Z</time>
   </trkpt>
   <trkpt lat="42.7631840" lon="-0.4962840">
    <ele>1407.4</ele>
    <time>2021-07-18T11:41:54Z</time>
   </trkpt>
   <trkpt lat="42.7632670" lon="-0.4964950">
    <ele>1406.1</ele>
    <time>2021-07-18T11:42:09Z</time>
   </trkpt>
   <trkpt lat="42.7632980" lon="-0.4965630">
    <ele>1405.5</ele>
    <time>2021-07-18T11:42:14Z</time>
   </trkpt>
   <trkpt lat="42.7633110" lon="-0.4966560">
    <ele>1404.6</ele>
    <time>2021-07-18T11:42:22Z</time>
   </trkpt>
   <trkpt lat="42.7633220" lon="-0.4966760">
    <ele>1404.4</ele>
    <time>2021-07-18T11:42:24Z</time>
   </trkpt>
   <trkpt lat="42.7633710" lon="-0.4969020">
    <ele>1401.8</ele>
    <time>2021-07-18T11:42:39Z</time>
   </trkpt>
   <trkpt lat="42.7633540" lon="-0.4970740">
    <ele>1400.0</ele>
    <time>2021-07-18T11:42:49Z</time>
   </trkpt>
   <trkpt lat="42.7633570" lon="-0.4971220">
    <ele>1399.5</ele>
    <time>2021-07-18T11:42:53Z</time>
   </trkpt>
   <trkpt lat="42.7633880" lon="-0.4972760">
    <ele>1398.1</ele>
    <time>2021-07-18T11:43:06Z</time>
   </trkpt>
   <trkpt lat="42.7633760" lon="-0.4973390">
    <ele>1397.7</ele>
    <time>2021-07-18T11:43:10Z</time>
   </trkpt>
   <trkpt lat="42.7633480" lon="-0.4974560">
    <ele>1397.0</ele>
    <time>2021-07-18T11:43:18Z</time>
   </trkpt>
   <trkpt lat="42.7633200" lon="-0.4975440">
    <ele>1396.4</ele>
    <time>2021-07-18T11:43:25Z</time>
   </trkpt>
   <trkpt lat="42.7633320" lon="-0.4975720">
    <ele>1396.2</ele>
    <time>2021-07-18T11:43:28Z</time>
   </trkpt>
   <trkpt lat="42.7633360" lon="-0.4976000">
    <ele>1396.0</ele>
    <time>2021-07-18T11:43:30Z</time>
   </trkpt>
   <trkpt lat="42.7634090" lon="-0.4977930">
    <ele>1394.5</ele>
    <time>2021-07-18T11:43:43Z</time>
   </trkpt>
   <trkpt lat="42.7634650" lon="-0.4980370">
    <ele>1393.3</ele>
    <time>2021-07-18T11:43:57Z</time>
   </trkpt>
   <trkpt lat="42.7634730" lon="-0.4982150">
    <ele>1392.7</ele>
    <time>2021-07-18T11:44:07Z</time>
   </trkpt>
   <trkpt lat="42.7634530" lon="-0.4983950">
    <ele>1391.5</ele>
    <time>2021-07-18T11:44:17Z</time>
   </trkpt>
   <trkpt lat="42.7634490" lon="-0.4984600">
    <ele>1390.9</ele>
    <time>2021-07-18T11:44:22Z</time>
   </trkpt>
   <trkpt lat="42.7634750" lon="-0.4986240">
    <ele>1388.6</ele>
    <time>2021-07-18T11:44:33Z</time>
   </trkpt>
   <trkpt lat="42.7634970" lon="-0.4988540">
    <ele>1384.1</ele>
    <time>2021-07-18T11:44:44Z</time>
   </trkpt>
   <trkpt lat="42.7634970" lon="-0.4989180">
    <ele>1382.8</ele>
    <time>2021-07-18T11:44:47Z</time>
   </trkpt>
   <trkpt lat="42.7635030" lon="-0.4989340">
    <ele>1382.5</ele>
    <time>2021-07-18T11:44:48Z</time>
   </trkpt>
   <trkpt lat="42.7635080" lon="-0.4989490">
    <ele>1382.2</ele>
    <time>2021-07-18T11:44:49Z</time>
   </trkpt>
   <trkpt lat="42.7635200" lon="-0.4989770">
    <ele>1381.6</ele>
    <time>2021-07-18T11:44:51Z</time>
   </trkpt>
   <trkpt lat="42.7635270" lon="-0.4990190">
    <ele>1380.8</ele>
    <time>2021-07-18T11:44:54Z</time>
   </trkpt>
   <trkpt lat="42.7635260" lon="-0.4990300">
    <ele>1380.7</ele>
    <time>2021-07-18T11:44:55Z</time>
   </trkpt>
   <trkpt lat="42.7635280" lon="-0.4990480">
    <ele>1380.4</ele>
    <time>2021-07-18T11:44:56Z</time>
   </trkpt>
   <trkpt lat="42.7635280" lon="-0.4990480">
    <ele>1380.4</ele>
    <time>2021-07-18T11:44:57Z</time>
   </trkpt>
   <trkpt lat="42.7635370" lon="-0.4990530">
    <ele>1380.2</ele>
    <time>2021-07-18T11:44:58Z</time>
   </trkpt>
   <trkpt lat="42.7635590" lon="-0.4990660">
    <ele>1379.7</ele>
    <time>2021-07-18T11:44:59Z</time>
   </trkpt>
   <trkpt lat="42.7635590" lon="-0.4990660">
    <ele>1379.7</ele>
    <time>2021-07-18T11:45:00Z</time>
   </trkpt>
   <trkpt lat="42.7635610" lon="-0.4990800">
    <ele>1379.5</ele>
    <time>2021-07-18T11:45:01Z</time>
   </trkpt>
   <trkpt lat="42.7635680" lon="-0.4990970">
    <ele>1379.2</ele>
    <time>2021-07-18T11:45:02Z</time>
   </trkpt>
   <trkpt lat="42.7635730" lon="-0.4991120">
    <ele>1379.0</ele>
    <time>2021-07-18T11:45:03Z</time>
   </trkpt>
   <trkpt lat="42.7635750" lon="-0.4991300">
    <ele>1378.8</ele>
    <time>2021-07-18T11:45:04Z</time>
   </trkpt>
   <trkpt lat="42.7635720" lon="-0.4991500">
    <ele>1378.5</ele>
    <time>2021-07-18T11:45:05Z</time>
   </trkpt>
   <trkpt lat="42.7635610" lon="-0.4991890">
    <ele>1378.1</ele>
    <time>2021-07-18T11:45:07Z</time>
   </trkpt>
   <trkpt lat="42.7635510" lon="-0.4991970">
    <ele>1377.9</ele>
    <time>2021-07-18T11:45:08Z</time>
   </trkpt>
   <trkpt lat="42.7635330" lon="-0.4992320">
    <ele>1377.5</ele>
    <time>2021-07-18T11:45:11Z</time>
   </trkpt>
   <trkpt lat="42.7634940" lon="-0.4993930">
    <ele>1376.2</ele>
    <time>2021-07-18T11:45:23Z</time>
   </trkpt>
   <trkpt lat="42.7635120" lon="-0.4994720">
    <ele>1375.4</ele>
    <time>2021-07-18T11:45:29Z</time>
   </trkpt>
   <trkpt lat="42.7635260" lon="-0.4995030">
    <ele>1375.0</ele>
    <time>2021-07-18T11:45:31Z</time>
   </trkpt>
   <trkpt lat="42.7635200" lon="-0.4995530">
    <ele>1374.5</ele>
    <time>2021-07-18T11:45:36Z</time>
   </trkpt>
   <trkpt lat="42.7635280" lon="-0.4995700">
    <ele>1374.3</ele>
    <time>2021-07-18T11:45:38Z</time>
   </trkpt>
   <trkpt lat="42.7635380" lon="-0.4995950">
    <ele>1373.9</ele>
    <time>2021-07-18T11:45:40Z</time>
   </trkpt>
   <trkpt lat="42.7636130" lon="-0.4998180">
    <ele>1370.2</ele>
    <time>2021-07-18T11:45:56Z</time>
   </trkpt>
   <trkpt lat="42.7636200" lon="-0.4998370">
    <ele>1369.9</ele>
    <time>2021-07-18T11:45:58Z</time>
   </trkpt>
   <trkpt lat="42.7636340" lon="-0.4998710">
    <ele>1369.3</ele>
    <time>2021-07-18T11:46:01Z</time>
   </trkpt>
   <trkpt lat="42.7636450" lon="-0.4998950">
    <ele>1368.8</ele>
    <time>2021-07-18T11:46:03Z</time>
   </trkpt>
   <trkpt lat="42.7636710" lon="-0.4999780">
    <ele>1367.3</ele>
    <time>2021-07-18T11:46:10Z</time>
   </trkpt>
   <trkpt lat="42.7637170" lon="-0.5000260">
    <ele>1366.0</ele>
    <time>2021-07-18T11:46:15Z</time>
   </trkpt>
   <trkpt lat="42.7637980" lon="-0.5001540">
    <ele>1363.3</ele>
    <time>2021-07-18T11:46:25Z</time>
   </trkpt>
   <trkpt lat="42.7638540" lon="-0.5002450">
    <ele>1361.5</ele>
    <time>2021-07-18T11:46:32Z</time>
   </trkpt>
   <trkpt lat="42.7639050" lon="-0.5004730">
    <ele>1357.9</ele>
    <time>2021-07-18T11:46:49Z</time>
   </trkpt>
   <trkpt lat="42.7639140" lon="-0.5004870">
    <ele>1357.6</ele>
    <time>2021-07-18T11:46:50Z</time>
   </trkpt>
   <trkpt lat="42.7639610" lon="-0.5006130">
    <ele>1355.6</ele>
    <time>2021-07-18T11:46:58Z</time>
   </trkpt>
   <trkpt lat="42.7639990" lon="-0.5008510">
    <ele>1352.5</ele>
    <time>2021-07-18T11:47:12Z</time>
   </trkpt>
   <trkpt lat="42.7640440" lon="-0.5011040">
    <ele>1349.9</ele>
    <time>2021-07-18T11:47:28Z</time>
   </trkpt>
   <trkpt lat="42.7641310" lon="-0.5013360">
    <ele>1348.2</ele>
    <time>2021-07-18T11:47:40Z</time>
   </trkpt>
   <trkpt lat="42.7641360" lon="-0.5014280">
    <ele>1347.9</ele>
    <time>2021-07-18T11:47:45Z</time>
   </trkpt>
   <trkpt lat="42.7641300" lon="-0.5014450">
    <ele>1347.8</ele>
    <time>2021-07-18T11:47:46Z</time>
   </trkpt>
   <trkpt lat="42.7641200" lon="-0.5014680">
    <ele>1347.7</ele>
    <time>2021-07-18T11:47:48Z</time>
   </trkpt>
   <trkpt lat="42.7641130" lon="-0.5015250">
    <ele>1347.6</ele>
    <time>2021-07-18T11:47:52Z</time>
   </trkpt>
   <trkpt lat="42.7641100" lon="-0.5015780">
    <ele>1347.6</ele>
    <time>2021-07-18T11:47:55Z</time>
   </trkpt>
   <trkpt lat="42.7641070" lon="-0.5016360">
    <ele>1347.6</ele>
    <time>2021-07-18T11:47:59Z</time>
   </trkpt>
   <trkpt lat="42.7640650" lon="-0.5016540">
    <ele>1347.5</ele>
    <time>2021-07-18T11:48:03Z</time>
   </trkpt>
   <trkpt lat="42.7640240" lon="-0.5016740">
    <ele>1347.4</ele>
    <time>2021-07-18T11:48:06Z</time>
   </trkpt>
   <trkpt lat="42.7639880" lon="-0.5017250">
    <ele>1347.1</ele>
    <time>2021-07-18T11:48:10Z</time>
   </trkpt>
   <trkpt lat="42.7639880" lon="-0.5017380">
    <ele>1347.1</ele>
    <time>2021-07-18T11:48:11Z</time>
   </trkpt>
   <trkpt lat="42.7639850" lon="-0.5017660">
    <ele>1346.9</ele>
    <time>2021-07-18T11:48:12Z</time>
   </trkpt>
   <trkpt lat="42.7639850" lon="-0.5017660">
    <ele>1346.9</ele>
    <time>2021-07-18T11:48:13Z</time>
   </trkpt>
   <trkpt lat="42.7639740" lon="-0.5017910">
    <ele>1346.7</ele>
    <time>2021-07-18T11:48:15Z</time>
   </trkpt>
   <trkpt lat="42.7639840" lon="-0.5018090">
    <ele>1346.5</ele>
    <time>2021-07-18T11:48:17Z</time>
   </trkpt>
   <trkpt lat="42.7640000" lon="-0.5018370">
    <ele>1346.2</ele>
    <time>2021-07-18T11:48:19Z</time>
   </trkpt>
   <trkpt lat="42.7640130" lon="-0.5018760">
    <ele>1345.8</ele>
    <time>2021-07-18T11:48:22Z</time>
   </trkpt>
   <trkpt lat="42.7640080" lon="-0.5020630">
    <ele>1343.8</ele>
    <time>2021-07-18T11:48:35Z</time>
   </trkpt>
   <trkpt lat="42.7640140" lon="-0.5020700">
    <ele>1343.6</ele>
    <time>2021-07-18T11:48:37Z</time>
   </trkpt>
   <trkpt lat="42.7640110" lon="-0.5020840">
    <ele>1343.5</ele>
    <time>2021-07-18T11:48:39Z</time>
   </trkpt>
   <trkpt lat="42.7640000" lon="-0.5021590">
    <ele>1342.5</ele>
    <time>2021-07-18T11:48:46Z</time>
   </trkpt>
   <trkpt lat="42.7639980" lon="-0.5021690">
    <ele>1342.3</ele>
    <time>2021-07-18T11:48:48Z</time>
   </trkpt>
   <trkpt lat="42.7640070" lon="-0.5021750">
    <ele>1342.1</ele>
    <time>2021-07-18T11:48:50Z</time>
   </trkpt>
   <trkpt lat="42.7640070" lon="-0.5021810">
    <ele>1342.0</ele>
    <time>2021-07-18T11:48:52Z</time>
   </trkpt>
   <trkpt lat="42.7640060" lon="-0.5021800">
    <ele>1342.0</ele>
    <time>2021-07-18T11:48:53Z</time>
   </trkpt>
   <trkpt lat="42.7640060" lon="-0.5021800">
    <ele>1342.0</ele>
    <time>2021-07-18T11:48:54Z</time>
   </trkpt>
   <trkpt lat="42.7640150" lon="-0.5021790">
    <ele>1341.8</ele>
    <time>2021-07-18T11:48:57Z</time>
   </trkpt>
   <trkpt lat="42.7640160" lon="-0.5021740">
    <ele>1341.8</ele>
    <time>2021-07-18T11:48:58Z</time>
   </trkpt>
   <trkpt lat="42.7640200" lon="-0.5021710">
    <ele>1341.7</ele>
    <time>2021-07-18T11:48:59Z</time>
   </trkpt>
   <trkpt lat="42.7640250" lon="-0.5021700">
    <ele>1341.6</ele>
    <time>2021-07-18T11:49:00Z</time>
   </trkpt>
   <trkpt lat="42.7640240" lon="-0.5021710">
    <ele>1341.5</ele>
    <time>2021-07-18T11:49:01Z</time>
   </trkpt>
   <trkpt lat="42.7640220" lon="-0.5021960">
    <ele>1341.2</ele>
    <time>2021-07-18T11:49:05Z</time>
   </trkpt>
   <trkpt lat="42.7640050" lon="-0.5022120">
    <ele>1340.7</ele>
    <time>2021-07-18T11:49:10Z</time>
   </trkpt>
   <trkpt lat="42.7639820" lon="-0.5022630">
    <ele>1339.8</ele>
    <time>2021-07-18T11:49:14Z</time>
   </trkpt>
   <trkpt lat="42.7639780" lon="-0.5023050">
    <ele>1339.1</ele>
    <time>2021-07-18T11:49:17Z</time>
   </trkpt>
   <trkpt lat="42.7639820" lon="-0.5023770">
    <ele>1337.9</ele>
    <time>2021-07-18T11:49:21Z</time>
   </trkpt>
   <trkpt lat="42.7639800" lon="-0.5024050">
    <ele>1337.5</ele>
    <time>2021-07-18T11:49:24Z</time>
   </trkpt>
   <trkpt lat="42.7639690" lon="-0.5024260">
    <ele>1337.1</ele>
    <time>2021-07-18T11:49:27Z</time>
   </trkpt>
   <trkpt lat="42.7639590" lon="-0.5024380">
    <ele>1336.8</ele>
    <time>2021-07-18T11:49:29Z</time>
   </trkpt>
   <trkpt lat="42.7639630" lon="-0.5024570">
    <ele>1336.5</ele>
    <time>2021-07-18T11:49:32Z</time>
   </trkpt>
   <trkpt lat="42.7639720" lon="-0.5024820">
    <ele>1336.1</ele>
    <time>2021-07-18T11:49:34Z</time>
   </trkpt>
   <trkpt lat="42.7639960" lon="-0.5026290">
    <ele>1334.2</ele>
    <time>2021-07-18T11:49:42Z</time>
   </trkpt>
   <trkpt lat="42.7640370" lon="-0.5028110">
    <ele>1332.8</ele>
    <time>2021-07-18T11:49:56Z</time>
   </trkpt>
   <trkpt lat="42.7641250" lon="-0.5030180">
    <ele>1330.9</ele>
    <time>2021-07-18T11:50:11Z</time>
   </trkpt>
   <trkpt lat="42.7641560" lon="-0.5030560">
    <ele>1330.5</ele>
    <time>2021-07-18T11:50:15Z</time>
   </trkpt>
   <trkpt lat="42.7641790" lon="-0.5032430">
    <ele>1328.9</ele>
    <time>2021-07-18T11:50:29Z</time>
   </trkpt>
   <trkpt lat="42.7642040" lon="-0.5033490">
    <ele>1327.8</ele>
    <time>2021-07-18T11:50:36Z</time>
   </trkpt>
   <trkpt lat="42.7642390" lon="-0.5034240">
    <ele>1326.9</ele>
    <time>2021-07-18T11:50:41Z</time>
   </trkpt>
   <trkpt lat="42.7642910" lon="-0.5034560">
    <ele>1325.9</ele>
    <time>2021-07-18T11:50:44Z</time>
   </trkpt>
   <trkpt lat="42.7643590" lon="-0.5034870">
    <ele>1324.6</ele>
    <time>2021-07-18T11:50:51Z</time>
   </trkpt>
   <trkpt lat="42.7643910" lon="-0.5036170">
    <ele>1322.6</ele>
    <time>2021-07-18T11:51:02Z</time>
   </trkpt>
   <trkpt lat="42.7645180" lon="-0.5038070">
    <ele>1319.3</ele>
    <time>2021-07-18T11:51:17Z</time>
   </trkpt>
   <trkpt lat="42.7645440" lon="-0.5039760">
    <ele>1318.4</ele>
    <time>2021-07-18T11:51:25Z</time>
   </trkpt>
   <trkpt lat="42.7645560" lon="-0.5041130">
    <ele>1318.2</ele>
    <time>2021-07-18T11:51:32Z</time>
   </trkpt>
   <trkpt lat="42.7645380" lon="-0.5043830">
    <ele>1318.5</ele>
    <time>2021-07-18T11:51:43Z</time>
   </trkpt>
   <trkpt lat="42.7645360" lon="-0.5044110">
    <ele>1318.5</ele>
    <time>2021-07-18T11:51:44Z</time>
   </trkpt>
   <trkpt lat="42.7645570" lon="-0.5045840">
    <ele>1318.8</ele>
    <time>2021-07-18T11:51:50Z</time>
   </trkpt>
   <trkpt lat="42.7645580" lon="-0.5046640">
    <ele>1319.0</ele>
    <time>2021-07-18T11:51:53Z</time>
   </trkpt>
   <trkpt lat="42.7645700" lon="-0.5047180">
    <ele>1319.1</ele>
    <time>2021-07-18T11:51:55Z</time>
   </trkpt>
   <trkpt lat="42.7645680" lon="-0.5047690">
    <ele>1319.2</ele>
    <time>2021-07-18T11:51:57Z</time>
   </trkpt>
   <trkpt lat="42.7645700" lon="-0.5050090">
    <ele>1319.9</ele>
    <time>2021-07-18T11:52:06Z</time>
   </trkpt>
   <trkpt lat="42.7645980" lon="-0.5051240">
    <ele>1320.3</ele>
    <time>2021-07-18T11:52:10Z</time>
   </trkpt>
   <trkpt lat="42.7646200" lon="-0.5051800">
    <ele>1320.5</ele>
    <time>2021-07-18T11:52:12Z</time>
   </trkpt>
   <trkpt lat="42.7646820" lon="-0.5052980">
    <ele>1321.2</ele>
    <time>2021-07-18T11:52:17Z</time>
   </trkpt>
   <trkpt lat="42.7646880" lon="-0.5053180">
    <ele>1321.3</ele>
    <time>2021-07-18T11:52:18Z</time>
   </trkpt>
   <trkpt lat="42.7647650" lon="-0.5054400">
    <ele>1322.2</ele>
    <time>2021-07-18T11:52:25Z</time>
   </trkpt>
   <trkpt lat="42.7648060" lon="-0.5055040">
    <ele>1322.7</ele>
    <time>2021-07-18T11:52:29Z</time>
   </trkpt>
   <trkpt lat="42.7648280" lon="-0.5056170">
    <ele>1323.3</ele>
    <time>2021-07-18T11:52:34Z</time>
   </trkpt>
   <trkpt lat="42.7648410" lon="-0.5057000">
    <ele>1323.7</ele>
    <time>2021-07-18T11:52:38Z</time>
   </trkpt>
   <trkpt lat="42.7647340" lon="-0.5059120">
    <ele>1324.9</ele>
    <time>2021-07-18T11:52:51Z</time>
   </trkpt>
   <trkpt lat="42.7646970" lon="-0.5059660">
    <ele>1325.3</ele>
    <time>2021-07-18T11:52:55Z</time>
   </trkpt>
   <trkpt lat="42.7646160" lon="-0.5061360">
    <ele>1326.5</ele>
    <time>2021-07-18T11:53:06Z</time>
   </trkpt>
   <trkpt lat="42.7645730" lon="-0.5062210">
    <ele>1327.0</ele>
    <time>2021-07-18T11:53:12Z</time>
   </trkpt>
   <trkpt lat="42.7645670" lon="-0.5062360">
    <ele>1327.1</ele>
    <time>2021-07-18T11:53:13Z</time>
   </trkpt>
   <trkpt lat="42.7645630" lon="-0.5062510">
    <ele>1327.2</ele>
    <time>2021-07-18T11:53:14Z</time>
   </trkpt>
   <trkpt lat="42.7645550" lon="-0.5062640">
    <ele>1327.3</ele>
    <time>2021-07-18T11:53:15Z</time>
   </trkpt>
   <trkpt lat="42.7645290" lon="-0.5062940">
    <ele>1327.5</ele>
    <time>2021-07-18T11:53:16Z</time>
   </trkpt>
   <trkpt lat="42.7644130" lon="-0.5065070">
    <ele>1328.7</ele>
    <time>2021-07-18T11:53:31Z</time>
   </trkpt>
   <trkpt lat="42.7643750" lon="-0.5066230">
    <ele>1329.6</ele>
    <time>2021-07-18T11:53:38Z</time>
   </trkpt>
   <trkpt lat="42.7643220" lon="-0.5067420">
    <ele>1330.7</ele>
    <time>2021-07-18T11:53:46Z</time>
   </trkpt>
   <trkpt lat="42.7643030" lon="-0.5068060">
    <ele>1331.3</ele>
    <time>2021-07-18T11:53:50Z</time>
   </trkpt>
   <trkpt lat="42.7642290" lon="-0.5069820">
    <ele>1332.6</ele>
    <time>2021-07-18T11:54:01Z</time>
   </trkpt>
   <trkpt lat="42.7642010" lon="-0.5071530">
    <ele>1333.2</ele>
    <time>2021-07-18T11:54:10Z</time>
   </trkpt>
   <trkpt lat="42.7641950" lon="-0.5071720">
    <ele>1333.3</ele>
    <time>2021-07-18T11:54:11Z</time>
   </trkpt>
   <trkpt lat="42.7641880" lon="-0.5072090">
    <ele>1333.4</ele>
    <time>2021-07-18T11:54:12Z</time>
   </trkpt>
   <trkpt lat="42.7641880" lon="-0.5072090">
    <ele>1333.4</ele>
    <time>2021-07-18T11:54:13Z</time>
   </trkpt>
   <trkpt lat="42.7641860" lon="-0.5072290">
    <ele>1333.4</ele>
    <time>2021-07-18T11:54:14Z</time>
   </trkpt>
   <trkpt lat="42.7641530" lon="-0.5073160">
    <ele>1333.6</ele>
    <time>2021-07-18T11:54:19Z</time>
   </trkpt>
   <trkpt lat="42.7641320" lon="-0.5073790">
    <ele>1333.7</ele>
    <time>2021-07-18T11:54:23Z</time>
   </trkpt>
   <trkpt lat="42.7640290" lon="-0.5076050">
    <ele>1334.1</ele>
    <time>2021-07-18T11:54:36Z</time>
   </trkpt>
   <trkpt lat="42.7640250" lon="-0.5076240">
    <ele>1334.2</ele>
    <time>2021-07-18T11:54:37Z</time>
   </trkpt>
   <trkpt lat="42.7640020" lon="-0.5076660">
    <ele>1334.2</ele>
    <time>2021-07-18T11:54:38Z</time>
   </trkpt>
   <trkpt lat="42.7640020" lon="-0.5076660">
    <ele>1334.2</ele>
    <time>2021-07-18T11:54:39Z</time>
   </trkpt>
   <trkpt lat="42.7639710" lon="-0.5077220">
    <ele>1334.3</ele>
    <time>2021-07-18T11:54:42Z</time>
   </trkpt>
   <trkpt lat="42.7639420" lon="-0.5077620">
    <ele>1334.3</ele>
    <time>2021-07-18T11:54:45Z</time>
   </trkpt>
   <trkpt lat="42.7638510" lon="-0.5079930">
    <ele>1334.1</ele>
    <time>2021-07-18T11:54:58Z</time>
   </trkpt>
   <trkpt lat="42.7637850" lon="-0.5081490">
    <ele>1334.2</ele>
    <time>2021-07-18T11:55:06Z</time>
   </trkpt>
   <trkpt lat="42.7636650" lon="-0.5083760">
    <ele>1333.9</ele>
    <time>2021-07-18T11:55:14Z</time>
   </trkpt>
   <trkpt lat="42.7635780" lon="-0.5084750">
    <ele>1333.7</ele>
    <time>2021-07-18T11:55:18Z</time>
   </trkpt>
   <trkpt lat="42.7634970" lon="-0.5085160">
    <ele>1333.5</ele>
    <time>2021-07-18T11:55:21Z</time>
   </trkpt>
   <trkpt lat="42.7634380" lon="-0.5085250">
    <ele>1333.3</ele>
    <time>2021-07-18T11:55:23Z</time>
   </trkpt>
   <trkpt lat="42.7634080" lon="-0.5085220">
    <ele>1333.2</ele>
    <time>2021-07-18T11:55:24Z</time>
   </trkpt>
   <trkpt lat="42.7633260" lon="-0.5084740">
    <ele>1333.0</ele>
    <time>2021-07-18T11:55:27Z</time>
   </trkpt>
   <trkpt lat="42.7632890" lon="-0.5084210">
    <ele>1332.9</ele>
    <time>2021-07-18T11:55:29Z</time>
   </trkpt>
   <trkpt lat="42.7632380" lon="-0.5082970">
    <ele>1332.7</ele>
    <time>2021-07-18T11:55:33Z</time>
   </trkpt>
   <trkpt lat="42.7631460" lon="-0.5080990">
    <ele>1332.2</ele>
    <time>2021-07-18T11:55:39Z</time>
   </trkpt>
   <trkpt lat="42.7631280" lon="-0.5080710">
    <ele>1332.1</ele>
    <time>2021-07-18T11:55:40Z</time>
   </trkpt>
   <trkpt lat="42.7630790" lon="-0.5080010">
    <ele>1331.9</ele>
    <time>2021-07-18T11:55:43Z</time>
   </trkpt>
   <trkpt lat="42.7630080" lon="-0.5079520">
    <ele>1331.7</ele>
    <time>2021-07-18T11:55:49Z</time>
   </trkpt>
   <trkpt lat="42.7629730" lon="-0.5079270">
    <ele>1331.5</ele>
    <time>2021-07-18T11:55:50Z</time>
   </trkpt>
   <trkpt lat="42.7629370" lon="-0.5079260">
    <ele>1331.4</ele>
    <time>2021-07-18T11:55:55Z</time>
   </trkpt>
   <trkpt lat="42.7629460" lon="-0.5079150">
    <ele>1331.3</ele>
    <time>2021-07-18T11:55:59Z</time>
   </trkpt>
   <trkpt lat="42.7629530" lon="-0.5079170">
    <ele>1331.3</ele>
    <time>2021-07-18T11:56:00Z</time>
   </trkpt>
   <trkpt lat="42.7629600" lon="-0.5079220">
    <ele>1331.3</ele>
    <time>2021-07-18T11:56:01Z</time>
   </trkpt>
   <trkpt lat="42.7629990" lon="-0.5079500">
    <ele>1331.1</ele>
    <time>2021-07-18T11:56:05Z</time>
   </trkpt>
   <trkpt lat="42.7630070" lon="-0.5079570">
    <ele>1331.0</ele>
    <time>2021-07-18T11:56:06Z</time>
   </trkpt>
   <trkpt lat="42.7630150" lon="-0.5079780">
    <ele>1330.9</ele>
    <time>2021-07-18T11:56:07Z</time>
   </trkpt>
   <trkpt lat="42.7630160" lon="-0.5079900">
    <ele>1330.9</ele>
    <time>2021-07-18T11:56:09Z</time>
   </trkpt>
   <trkpt lat="42.7630180" lon="-0.5080000">
    <ele>1330.8</ele>
    <time>2021-07-18T11:56:10Z</time>
   </trkpt>
   <trkpt lat="42.7630030" lon="-0.5080090">
    <ele>1330.7</ele>
    <time>2021-07-18T11:56:11Z</time>
   </trkpt>
   <trkpt lat="42.7630030" lon="-0.5080090">
    <ele>1330.7</ele>
    <time>2021-07-18T11:56:12Z</time>
   </trkpt>
   <trkpt lat="42.7629960" lon="-0.5080090">
    <ele>1330.7</ele>
    <time>2021-07-18T11:56:13Z</time>
   </trkpt>
   <trkpt lat="42.7629920" lon="-0.5080100">
    <ele>1330.7</ele>
    <time>2021-07-18T11:56:14Z</time>
   </trkpt>
   <trkpt lat="42.7629840" lon="-0.5080080">
    <ele>1330.6</ele>
    <time>2021-07-18T11:56:15Z</time>
   </trkpt>
   <trkpt lat="42.7629630" lon="-0.5080060">
    <ele>1330.5</ele>
    <time>2021-07-18T11:56:17Z</time>
   </trkpt>
   <trkpt lat="42.7629510" lon="-0.5080050">
    <ele>1330.4</ele>
    <time>2021-07-18T11:56:18Z</time>
   </trkpt>
   <trkpt lat="42.7629380" lon="-0.5080030">
    <ele>1330.4</ele>
    <time>2021-07-18T11:56:19Z</time>
   </trkpt>
   <trkpt lat="42.7629290" lon="-0.5080020">
    <ele>1330.3</ele>
    <time>2021-07-18T11:56:20Z</time>
   </trkpt>
   <trkpt lat="42.7629220" lon="-0.5079990">
    <ele>1330.3</ele>
    <time>2021-07-18T11:56:21Z</time>
   </trkpt>
   <trkpt lat="42.7628840" lon="-0.5079970">
    <ele>1329.3</ele>
    <time>2021-07-18T11:56:24Z</time>
   </trkpt>
   <trkpt lat="42.7627540" lon="-0.5079860">
    <ele>1324.0</ele>
    <time>2021-07-18T11:56:31Z</time>
   </trkpt>
   <trkpt lat="42.7626720" lon="-0.5080120">
    <ele>1320.6</ele>
    <time>2021-07-18T11:56:37Z</time>
   </trkpt>
   <trkpt lat="42.7625570" lon="-0.5080420">
    <ele>1315.8</ele>
    <time>2021-07-18T11:56:42Z</time>
   </trkpt>
   <trkpt lat="42.7625410" lon="-0.5080450">
    <ele>1315.1</ele>
    <time>2021-07-18T11:56:43Z</time>
   </trkpt>
   <trkpt lat="42.7625140" lon="-0.5080770">
    <ele>1313.5</ele>
    <time>2021-07-18T11:56:47Z</time>
   </trkpt>
   <trkpt lat="42.7624820" lon="-0.5080850">
    <ele>1312.1</ele>
    <time>2021-07-18T11:56:50Z</time>
   </trkpt>
   <trkpt lat="42.7624510" lon="-0.5081080">
    <ele>1310.4</ele>
    <time>2021-07-18T11:56:53Z</time>
   </trkpt>
   <trkpt lat="42.7624390" lon="-0.5081160">
    <ele>1309.8</ele>
    <time>2021-07-18T11:56:54Z</time>
   </trkpt>
   <trkpt lat="42.7624090" lon="-0.5081400">
    <ele>1308.1</ele>
    <time>2021-07-18T11:56:55Z</time>
   </trkpt>
   <trkpt lat="42.7624090" lon="-0.5081400">
    <ele>1308.1</ele>
    <time>2021-07-18T11:56:56Z</time>
   </trkpt>
   <trkpt lat="42.7623960" lon="-0.5081500">
    <ele>1307.4</ele>
    <time>2021-07-18T11:56:57Z</time>
   </trkpt>
   <trkpt lat="42.7623820" lon="-0.5081590">
    <ele>1306.6</ele>
    <time>2021-07-18T11:56:58Z</time>
   </trkpt>
   <trkpt lat="42.7623570" lon="-0.5081680">
    <ele>1305.3</ele>
    <time>2021-07-18T11:56:59Z</time>
   </trkpt>
   <trkpt lat="42.7623570" lon="-0.5081680">
    <ele>1305.3</ele>
    <time>2021-07-18T11:57:00Z</time>
   </trkpt>
   <trkpt lat="42.7623500" lon="-0.5081830">
    <ele>1304.7</ele>
    <time>2021-07-18T11:57:02Z</time>
   </trkpt>
   <trkpt lat="42.7622410" lon="-0.5083350">
    <ele>1297.1</ele>
    <time>2021-07-18T11:57:11Z</time>
   </trkpt>
   <trkpt lat="42.7620980" lon="-0.5084870">
    <ele>1289.5</ele>
    <time>2021-07-18T11:57:18Z</time>
   </trkpt>
   <trkpt lat="42.7619580" lon="-0.5085910">
    <ele>1283.7</ele>
    <time>2021-07-18T11:57:25Z</time>
   </trkpt>
   <trkpt lat="42.7618420" lon="-0.5086270">
    <ele>1279.3</ele>
    <time>2021-07-18T11:57:30Z</time>
   </trkpt>
   <trkpt lat="42.7617790" lon="-0.5086560">
    <ele>1276.6</ele>
    <time>2021-07-18T11:57:33Z</time>
   </trkpt>
   <trkpt lat="42.7617530" lon="-0.5086700">
    <ele>1275.4</ele>
    <time>2021-07-18T11:57:37Z</time>
   </trkpt>
   <trkpt lat="42.7617610" lon="-0.5087100">
    <ele>1274.2</ele>
    <time>2021-07-18T11:57:52Z</time>
   </trkpt>
   <trkpt lat="42.7617250" lon="-0.5087290">
    <ele>1272.5</ele>
    <time>2021-07-18T11:57:57Z</time>
   </trkpt>
   <trkpt lat="42.7617080" lon="-0.5087390">
    <ele>1271.8</ele>
    <time>2021-07-18T11:57:59Z</time>
   </trkpt>
   <trkpt lat="42.7616340" lon="-0.5088790">
    <ele>1266.0</ele>
    <time>2021-07-18T11:58:07Z</time>
   </trkpt>
   <trkpt lat="42.7614460" lon="-0.5089420">
    <ele>1267.8</ele>
    <time>2021-07-18T11:58:16Z</time>
   </trkpt>
   <trkpt lat="42.7613030" lon="-0.5089320">
    <ele>1269.1</ele>
    <time>2021-07-18T11:58:23Z</time>
   </trkpt>
   <trkpt lat="42.7611280" lon="-0.5090080">
    <ele>1271.0</ele>
    <time>2021-07-18T11:58:30Z</time>
   </trkpt>
   <trkpt lat="42.7609670" lon="-0.5091130">
    <ele>1260.7</ele>
    <time>2021-07-18T11:58:38Z</time>
   </trkpt>
   <trkpt lat="42.7609110" lon="-0.5091580">
    <ele>1260.1</ele>
    <time>2021-07-18T11:58:41Z</time>
   </trkpt>
   <trkpt lat="42.7608400" lon="-0.5092020">
    <ele>1259.5</ele>
    <time>2021-07-18T11:58:45Z</time>
   </trkpt>
   <trkpt lat="42.7607080" lon="-0.5092360">
    <ele>1258.5</ele>
    <time>2021-07-18T11:58:51Z</time>
   </trkpt>
   <trkpt lat="42.7606590" lon="-0.5092560">
    <ele>1258.2</ele>
    <time>2021-07-18T11:58:53Z</time>
   </trkpt>
   <trkpt lat="42.7606330" lon="-0.5092670">
    <ele>1258.0</ele>
    <time>2021-07-18T11:58:54Z</time>
   </trkpt>
   <trkpt lat="42.7604530" lon="-0.5093120">
    <ele>1256.9</ele>
    <time>2021-07-18T11:59:00Z</time>
   </trkpt>
   <trkpt lat="42.7602660" lon="-0.5093650">
    <ele>1255.9</ele>
    <time>2021-07-18T11:59:07Z</time>
   </trkpt>
   <trkpt lat="42.7600830" lon="-0.5094290">
    <ele>1255.0</ele>
    <time>2021-07-18T11:59:14Z</time>
   </trkpt>
   <trkpt lat="42.7598850" lon="-0.5094610">
    <ele>1253.9</ele>
    <time>2021-07-18T11:59:22Z</time>
   </trkpt>
   <trkpt lat="42.7597310" lon="-0.5094950">
    <ele>1252.9</ele>
    <time>2021-07-18T11:59:28Z</time>
   </trkpt>
   <trkpt lat="42.7596480" lon="-0.5095050">
    <ele>1252.3</ele>
    <time>2021-07-18T11:59:31Z</time>
   </trkpt>
   <trkpt lat="42.7594760" lon="-0.5095980">
    <ele>1251.2</ele>
    <time>2021-07-18T11:59:39Z</time>
   </trkpt>
   <trkpt lat="42.7593140" lon="-0.5097500">
    <ele>1250.2</ele>
    <time>2021-07-18T11:59:46Z</time>
   </trkpt>
   <trkpt lat="42.7591700" lon="-0.5099300">
    <ele>1249.2</ele>
    <time>2021-07-18T11:59:52Z</time>
   </trkpt>
   <trkpt lat="42.7590300" lon="-0.5101060">
    <ele>1248.6</ele>
    <time>2021-07-18T11:59:59Z</time>
   </trkpt>
   <trkpt lat="42.7588920" lon="-0.5102620">
    <ele>1247.9</ele>
    <time>2021-07-18T12:00:08Z</time>
   </trkpt>
   <trkpt lat="42.7587640" lon="-0.5104480">
    <ele>1247.1</ele>
    <time>2021-07-18T12:00:16Z</time>
   </trkpt>
   <trkpt lat="42.7585920" lon="-0.5106120">
    <ele>1246.2</ele>
    <time>2021-07-18T12:00:22Z</time>
   </trkpt>
   <trkpt lat="42.7584240" lon="-0.5107670">
    <ele>1245.3</ele>
    <time>2021-07-18T12:00:28Z</time>
   </trkpt>
   <trkpt lat="42.7582430" lon="-0.5108920">
    <ele>1244.4</ele>
    <time>2021-07-18T12:00:35Z</time>
   </trkpt>
   <trkpt lat="42.7580900" lon="-0.5110590">
    <ele>1243.8</ele>
    <time>2021-07-18T12:00:42Z</time>
   </trkpt>
   <trkpt lat="42.7579520" lon="-0.5112240">
    <ele>1243.0</ele>
    <time>2021-07-18T12:00:49Z</time>
   </trkpt>
   <trkpt lat="42.7577550" lon="-0.5112340">
    <ele>1241.9</ele>
    <time>2021-07-18T12:00:57Z</time>
   </trkpt>
   <trkpt lat="42.7575800" lon="-0.5111570">
    <ele>1241.1</ele>
    <time>2021-07-18T12:01:04Z</time>
   </trkpt>
   <trkpt lat="42.7573960" lon="-0.5110560">
    <ele>1240.2</ele>
    <time>2021-07-18T12:01:11Z</time>
   </trkpt>
   <trkpt lat="42.7572160" lon="-0.5109880">
    <ele>1239.5</ele>
    <time>2021-07-18T12:01:18Z</time>
   </trkpt>
   <trkpt lat="42.7570230" lon="-0.5109770">
    <ele>1238.8</ele>
    <time>2021-07-18T12:01:25Z</time>
   </trkpt>
   <trkpt lat="42.7568460" lon="-0.5110200">
    <ele>1238.0</ele>
    <time>2021-07-18T12:01:32Z</time>
   </trkpt>
   <trkpt lat="42.7566560" lon="-0.5110410">
    <ele>1237.2</ele>
    <time>2021-07-18T12:01:39Z</time>
   </trkpt>
   <trkpt lat="42.7566020" lon="-0.5110590">
    <ele>1236.9</ele>
    <time>2021-07-18T12:01:41Z</time>
   </trkpt>
   <trkpt lat="42.7564440" lon="-0.5111340">
    <ele>1236.1</ele>
    <time>2021-07-18T12:01:47Z</time>
   </trkpt>
   <trkpt lat="42.7562430" lon="-0.5111990">
    <ele>1235.2</ele>
    <time>2021-07-18T12:01:55Z</time>
   </trkpt>
   <trkpt lat="42.7561310" lon="-0.5112470">
    <ele>1234.9</ele>
    <time>2021-07-18T12:01:59Z</time>
   </trkpt>
   <trkpt lat="42.7559470" lon="-0.5113000">
    <ele>1234.4</ele>
    <time>2021-07-18T12:02:06Z</time>
   </trkpt>
   <trkpt lat="42.7557750" lon="-0.5112580">
    <ele>1234.5</ele>
    <time>2021-07-18T12:02:14Z</time>
   </trkpt>
   <trkpt lat="42.7556030" lon="-0.5111790">
    <ele>1234.8</ele>
    <time>2021-07-18T12:02:23Z</time>
   </trkpt>
   <trkpt lat="42.7554250" lon="-0.5112300">
    <ele>1235.3</ele>
    <time>2021-07-18T12:02:34Z</time>
   </trkpt>
   <trkpt lat="42.7552440" lon="-0.5112010">
    <ele>1235.5</ele>
    <time>2021-07-18T12:02:42Z</time>
   </trkpt>
   <trkpt lat="42.7551710" lon="-0.5111920">
    <ele>1235.5</ele>
    <time>2021-07-18T12:02:48Z</time>
   </trkpt>
   <trkpt lat="42.7550890" lon="-0.5111600">
    <ele>1235.5</ele>
    <time>2021-07-18T12:02:56Z</time>
   </trkpt>
   <trkpt lat="42.7549690" lon="-0.5110700">
    <ele>1235.3</ele>
    <time>2021-07-18T12:03:07Z</time>
   </trkpt>
   <trkpt lat="42.7547900" lon="-0.5109860">
    <ele>1234.6</ele>
    <time>2021-07-18T12:03:18Z</time>
   </trkpt>
   <trkpt lat="42.7547370" lon="-0.5109660">
    <ele>1234.4</ele>
    <time>2021-07-18T12:03:22Z</time>
   </trkpt>
   <trkpt lat="42.7546700" lon="-0.5109170">
    <ele>1234.0</ele>
    <time>2021-07-18T12:03:27Z</time>
   </trkpt>
   <trkpt lat="42.7546340" lon="-0.5108960">
    <ele>1233.8</ele>
    <time>2021-07-18T12:03:31Z</time>
   </trkpt>
   <trkpt lat="42.7545900" lon="-0.5108860">
    <ele>1233.6</ele>
    <time>2021-07-18T12:03:34Z</time>
   </trkpt>
   <trkpt lat="42.7545180" lon="-0.5108690">
    <ele>1233.1</ele>
    <time>2021-07-18T12:03:40Z</time>
   </trkpt>
   <trkpt lat="42.7545160" lon="-0.5108730">
    <ele>1233.1</ele>
    <time>2021-07-18T12:03:43Z</time>
   </trkpt>
   <trkpt lat="42.7545100" lon="-0.5108790">
    <ele>1233.1</ele>
    <time>2021-07-18T12:03:47Z</time>
   </trkpt>
   <trkpt lat="42.7545030" lon="-0.5110610">
    <ele>1231.8</ele>
    <time>2021-07-18T12:04:03Z</time>
   </trkpt>
   <trkpt lat="42.7545140" lon="-0.5110920">
    <ele>1231.2</ele>
    <time>2021-07-18T12:04:05Z</time>
   </trkpt>
   <trkpt lat="42.7545360" lon="-0.5111490">
    <ele>1230.1</ele>
    <time>2021-07-18T12:04:09Z</time>
   </trkpt>
   <trkpt lat="42.7545530" lon="-0.5111860">
    <ele>1229.3</ele>
    <time>2021-07-18T12:04:11Z</time>
   </trkpt>
   <trkpt lat="42.7545640" lon="-0.5112050">
    <ele>1228.9</ele>
    <time>2021-07-18T12:04:12Z</time>
   </trkpt>
   <trkpt lat="42.7546150" lon="-0.5112800">
    <ele>1227.1</ele>
    <time>2021-07-18T12:04:16Z</time>
   </trkpt>
   <trkpt lat="42.7546310" lon="-0.5112990">
    <ele>1226.6</ele>
    <time>2021-07-18T12:04:17Z</time>
   </trkpt>
   <trkpt lat="42.7546470" lon="-0.5113170">
    <ele>1226.1</ele>
    <time>2021-07-18T12:04:18Z</time>
   </trkpt>
   <trkpt lat="42.7546690" lon="-0.5113430">
    <ele>1225.4</ele>
    <time>2021-07-18T12:04:19Z</time>
   </trkpt>
   <trkpt lat="42.7546690" lon="-0.5113430">
    <ele>1225.4</ele>
    <time>2021-07-18T12:04:20Z</time>
   </trkpt>
   <trkpt lat="42.7547140" lon="-0.5113870">
    <ele>1224.2</ele>
    <time>2021-07-18T12:04:23Z</time>
   </trkpt>
   <trkpt lat="42.7547540" lon="-0.5114210">
    <ele>1223.1</ele>
    <time>2021-07-18T12:04:25Z</time>
   </trkpt>
   <trkpt lat="42.7547700" lon="-0.5114370">
    <ele>1222.7</ele>
    <time>2021-07-18T12:04:26Z</time>
   </trkpt>
   <trkpt lat="42.7548460" lon="-0.5114870">
    <ele>1220.8</ele>
    <time>2021-07-18T12:04:31Z</time>
   </trkpt>
   <trkpt lat="42.7548500" lon="-0.5115310">
    <ele>1219.7</ele>
    <time>2021-07-18T12:04:34Z</time>
   </trkpt>
   <trkpt lat="42.7548370" lon="-0.5115340">
    <ele>1219.7</ele>
    <time>2021-07-18T12:04:35Z</time>
   </trkpt>
   <trkpt lat="42.7547870" lon="-0.5115270">
    <ele>1219.1</ele>
    <time>2021-07-18T12:04:38Z</time>
   </trkpt>
   <trkpt lat="42.7547130" lon="-0.5115150">
    <ele>1218.6</ele>
    <time>2021-07-18T12:04:42Z</time>
   </trkpt>
   <trkpt lat="42.7546990" lon="-0.5115250">
    <ele>1218.4</ele>
    <time>2021-07-18T12:04:43Z</time>
   </trkpt>
   <trkpt lat="42.7546740" lon="-0.5115350">
    <ele>1218.4</ele>
    <time>2021-07-18T12:04:44Z</time>
   </trkpt>
   <trkpt lat="42.7546070" lon="-0.5115810">
    <ele>1216.9</ele>
    <time>2021-07-18T12:04:48Z</time>
   </trkpt>
   <trkpt lat="42.7545660" lon="-0.5116190">
    <ele>1215.6</ele>
    <time>2021-07-18T12:04:51Z</time>
   </trkpt>
   <trkpt lat="42.7543880" lon="-0.5117140">
    <ele>1213.6</ele>
    <time>2021-07-18T12:04:59Z</time>
   </trkpt>
   <trkpt lat="42.7542250" lon="-0.5118560">
    <ele>1210.2</ele>
    <time>2021-07-18T12:05:08Z</time>
   </trkpt>
   <trkpt lat="42.7541550" lon="-0.5119180">
    <ele>1209.7</ele>
    <time>2021-07-18T12:05:13Z</time>
   </trkpt>
   <trkpt lat="42.7541470" lon="-0.5119720">
    <ele>1209.0</ele>
    <time>2021-07-18T12:05:50Z</time>
   </trkpt>
   <trkpt lat="42.7541550" lon="-0.5119630">
    <ele>1209.0</ele>
    <time>2021-07-18T12:05:51Z</time>
   </trkpt>
   <trkpt lat="42.7541900" lon="-0.5119470">
    <ele>1208.8</ele>
    <time>2021-07-18T12:05:54Z</time>
   </trkpt>
   <trkpt lat="42.7543760" lon="-0.5119370">
    <ele>1208.4</ele>
    <time>2021-07-18T12:06:06Z</time>
   </trkpt>
   <trkpt lat="42.7544090" lon="-0.5119400">
    <ele>1207.5</ele>
    <time>2021-07-18T12:06:08Z</time>
   </trkpt>
   <trkpt lat="42.7544270" lon="-0.5119370">
    <ele>1208.2</ele>
    <time>2021-07-18T12:06:09Z</time>
   </trkpt>
   <trkpt lat="42.7544670" lon="-0.5119380">
    <ele>1207.3</ele>
    <time>2021-07-18T12:06:10Z</time>
   </trkpt>
   <trkpt lat="42.7544670" lon="-0.5119380">
    <ele>1207.3</ele>
    <time>2021-07-18T12:06:11Z</time>
   </trkpt>
   <trkpt lat="42.7545160" lon="-0.5119380">
    <ele>1207.2</ele>
    <time>2021-07-18T12:06:13Z</time>
   </trkpt>
   <trkpt lat="42.7546570" lon="-0.5119620">
    <ele>1207.5</ele>
    <time>2021-07-18T12:06:19Z</time>
   </trkpt>
   <trkpt lat="42.7546580" lon="-0.5119600">
    <ele>1207.5</ele>
    <time>2021-07-18T12:06:21Z</time>
   </trkpt>
   <trkpt lat="42.7548380" lon="-0.5119260">
    <ele>1209.9</ele>
    <time>2021-07-18T12:06:34Z</time>
   </trkpt>
   <trkpt lat="42.7548680" lon="-0.5119390">
    <ele>1209.2</ele>
    <time>2021-07-18T12:06:36Z</time>
   </trkpt>
   <trkpt lat="42.7548840" lon="-0.5119410">
    <ele>1209.2</ele>
    <time>2021-07-18T12:06:37Z</time>
   </trkpt>
   <trkpt lat="42.7550680" lon="-0.5119370">
    <ele>1212.1</ele>
    <time>2021-07-18T12:06:46Z</time>
   </trkpt>
   <trkpt lat="42.7551130" lon="-0.5119560">
    <ele>1212.0</ele>
    <time>2021-07-18T12:06:47Z</time>
   </trkpt>
   <trkpt lat="42.7552770" lon="-0.5120620">
    <ele>1212.1</ele>
    <time>2021-07-18T12:06:59Z</time>
   </trkpt>
   <trkpt lat="42.7552790" lon="-0.5120900">
    <ele>1211.5</ele>
    <time>2021-07-18T12:07:01Z</time>
   </trkpt>
   <trkpt lat="42.7553060" lon="-0.5121520">
    <ele>1211.0</ele>
    <time>2021-07-18T12:07:11Z</time>
   </trkpt>
   <trkpt lat="42.7553270" lon="-0.5121620">
    <ele>1211.0</ele>
    <time>2021-07-18T12:07:14Z</time>
   </trkpt>
   <trkpt lat="42.7553270" lon="-0.5121590">
    <ele>1211.0</ele>
    <time>2021-07-18T12:07:15Z</time>
   </trkpt>
   <trkpt lat="42.7553210" lon="-0.5121550">
    <ele>1211.0</ele>
    <time>2021-07-18T12:07:16Z</time>
   </trkpt>
   <trkpt lat="42.7552980" lon="-0.5121680">
    <ele>1210.7</ele>
    <time>2021-07-18T12:07:19Z</time>
   </trkpt>
   <trkpt lat="42.7552000" lon="-0.5123800">
    <ele>1207.6</ele>
    <time>2021-07-18T12:07:31Z</time>
   </trkpt>
   <trkpt lat="42.7550890" lon="-0.5125690">
    <ele>1204.7</ele>
    <time>2021-07-18T12:07:38Z</time>
   </trkpt>
   <trkpt lat="42.7549630" lon="-0.5127670">
    <ele>1201.7</ele>
    <time>2021-07-18T12:07:46Z</time>
   </trkpt>
   <trkpt lat="42.7548630" lon="-0.5128640">
    <ele>1200.2</ele>
    <time>2021-07-18T12:07:52Z</time>
   </trkpt>
  </trkseg>
 </trk>
</gpx>
